<?xml version="1.0" encoding="UTF-8" standalone="no" ?>
<gpx xmlns="http://www.topografix.com/GPX/1/1" xmlns:xsi="http://www.w3.org/2001/XMLSchema-instance" xsi:schemaLocation="http://www.topografix.com/GPX/1/1 http://www.topografix.com/GPX/1/1/gpx.xsd" version="1.1" creator="VisuGPX - https://www.visugpx.com">
  <metadata>
    <name>RoadTrip Moto Ecosse Juin 2021 - V3</name>
  </metadata>
  <trk>
    <name><![CDATA[J10 - Borgie Lodge Hotel, Skerray, Tongue, Lairg - Corran Bunkhouse, Corran]]></name>
    <extensions>
      <line xmlns="http://www.topografix.com/GPX/gpx_style/0/2">
        <color>880088</color>
        <width>4</width>
      </line>
    </extensions>
    <trkseg>
      <trkpt lat="58.50315" lon="-4.27515">
        <ele>35.62</ele>
        <time>2021-03-20T14:10:44Z</time>
      </trkpt>
      <trkpt lat="58.50125" lon="-4.27709">
        <ele>36.53</ele>
        <time>2021-03-20T14:10:50Z</time>
      </trkpt>
      <trkpt lat="58.5003" lon="-4.27824">
        <ele>37.48</ele>
        <time>2021-03-20T14:10:55Z</time>
      </trkpt>
      <trkpt lat="58.4987" lon="-4.28063">
        <ele>38.17</ele>
        <time>2021-03-20T14:11:01Z</time>
      </trkpt>
      <trkpt lat="58.49851" lon="-4.28109">
        <ele>39.15</ele>
        <time>2021-03-20T14:11:07Z</time>
      </trkpt>
      <trkpt lat="58.49803" lon="-4.28238">
        <ele>38.55</ele>
        <time>2021-03-20T14:11:12Z</time>
      </trkpt>
      <trkpt lat="58.49776" lon="-4.28326">
        <ele>36.42</ele>
        <time>2021-03-20T14:11:18Z</time>
      </trkpt>
      <trkpt lat="58.49765" lon="-4.28385">
        <ele>38.01</ele>
        <time>2021-03-20T14:11:24Z</time>
      </trkpt>
      <trkpt lat="58.49747" lon="-4.28506">
        <ele>36.97</ele>
        <time>2021-03-20T14:11:29Z</time>
      </trkpt>
      <trkpt lat="58.49739" lon="-4.28551">
        <ele>37.81</ele>
        <time>2021-03-20T14:11:35Z</time>
      </trkpt>
      <trkpt lat="58.49713" lon="-4.28631">
        <ele>35.67</ele>
        <time>2021-03-20T14:11:41Z</time>
      </trkpt>
      <trkpt lat="58.49697" lon="-4.28672">
        <ele>36.05</ele>
        <time>2021-03-20T14:11:46Z</time>
      </trkpt>
      <trkpt lat="58.49671" lon="-4.28726">
        <ele>35.28</ele>
        <time>2021-03-20T14:11:52Z</time>
      </trkpt>
      <trkpt lat="58.49654" lon="-4.28765">
        <ele>36.05</ele>
        <time>2021-03-20T14:11:58Z</time>
      </trkpt>
      <trkpt lat="58.49653" lon="-4.28776">
        <ele>36.45</ele>
        <time>2021-03-20T14:12:01Z</time>
      </trkpt>
      <trkpt lat="58.49633" lon="-4.28851">
        <ele>38.43</ele>
        <time>2021-03-20T14:12:04Z</time>
      </trkpt>
      <trkpt lat="58.49625" lon="-4.28895">
        <ele>39.57</ele>
        <time>2021-03-20T14:12:07Z</time>
      </trkpt>
      <trkpt lat="58.49589" lon="-4.29023">
        <ele>43.42</ele>
        <time>2021-03-20T14:12:10Z</time>
      </trkpt>
      <trkpt lat="58.49571" lon="-4.29101">
        <ele>48.49</ele>
        <time>2021-03-20T14:12:13Z</time>
      </trkpt>
      <trkpt lat="58.49564" lon="-4.29166">
        <ele>52.22</ele>
        <time>2021-03-20T14:12:16Z</time>
      </trkpt>
      <trkpt lat="58.49566" lon="-4.29225">
        <ele>55.53</ele>
        <time>2021-03-20T14:12:20Z</time>
      </trkpt>
      <trkpt lat="58.49574" lon="-4.29311">
        <ele>59.01</ele>
        <time>2021-03-20T14:12:23Z</time>
      </trkpt>
      <trkpt lat="58.49579" lon="-4.29397">
        <ele>61.85</ele>
        <time>2021-03-20T14:12:26Z</time>
      </trkpt>
      <trkpt lat="58.49519" lon="-4.29834">
        <ele>71.41</ele>
        <time>2021-03-20T14:12:29Z</time>
      </trkpt>
      <trkpt lat="58.49521" lon="-4.29969">
        <ele>75.06</ele>
        <time>2021-03-20T14:12:32Z</time>
      </trkpt>
      <trkpt lat="58.49517" lon="-4.30077">
        <ele>79.31</ele>
        <time>2021-03-20T14:12:36Z</time>
      </trkpt>
      <trkpt lat="58.49478" lon="-4.30355">
        <ele>91.37</ele>
        <time>2021-03-20T14:12:39Z</time>
      </trkpt>
      <trkpt lat="58.4948" lon="-4.30426">
        <ele>93.88</ele>
        <time>2021-03-20T14:12:42Z</time>
      </trkpt>
      <trkpt lat="58.49491" lon="-4.30475">
        <ele>96.81</ele>
        <time>2021-03-20T14:12:45Z</time>
      </trkpt>
      <trkpt lat="58.49508" lon="-4.30538">
        <ele>99.56</ele>
        <time>2021-03-20T14:12:48Z</time>
      </trkpt>
      <trkpt lat="58.496" lon="-4.30747">
        <ele>105.83</ele>
        <time>2021-03-20T14:12:52Z</time>
      </trkpt>
      <trkpt lat="58.49621" lon="-4.30801">
        <ele>107.5</ele>
        <time>2021-03-20T14:12:55Z</time>
      </trkpt>
      <trkpt lat="58.49638" lon="-4.30866">
        <ele>108.04</ele>
        <time>2021-03-20T14:12:58Z</time>
      </trkpt>
      <trkpt lat="58.4967" lon="-4.31147">
        <ele>109</ele>
        <time>2021-03-20T14:13:01Z</time>
      </trkpt>
      <trkpt lat="58.49688" lon="-4.3135">
        <ele>110.84</ele>
        <time>2021-03-20T14:13:04Z</time>
      </trkpt>
      <trkpt lat="58.49768" lon="-4.31705">
        <ele>115</ele>
        <time>2021-03-20T14:13:08Z</time>
      </trkpt>
      <trkpt lat="58.49839" lon="-4.32105">
        <ele>118.19</ele>
        <time>2021-03-20T14:13:11Z</time>
      </trkpt>
      <trkpt lat="58.49862" lon="-4.32209">
        <ele>117.01</ele>
        <time>2021-03-20T14:13:14Z</time>
      </trkpt>
      <trkpt lat="58.49878" lon="-4.32263">
        <ele>117</ele>
        <time>2021-03-20T14:13:17Z</time>
      </trkpt>
      <trkpt lat="58.49896" lon="-4.32309">
        <ele>117.74</ele>
        <time>2021-03-20T14:13:21Z</time>
      </trkpt>
      <trkpt lat="58.49967" lon="-4.32441">
        <ele>117.54</ele>
        <time>2021-03-20T14:13:24Z</time>
      </trkpt>
      <trkpt lat="58.5002" lon="-4.32523">
        <ele>115.24</ele>
        <time>2021-03-20T14:13:27Z</time>
      </trkpt>
      <trkpt lat="58.50039" lon="-4.32559">
        <ele>114.88</ele>
        <time>2021-03-20T14:13:30Z</time>
      </trkpt>
      <trkpt lat="58.50065" lon="-4.32677">
        <ele>112.99</ele>
        <time>2021-03-20T14:13:33Z</time>
      </trkpt>
      <trkpt lat="58.50078" lon="-4.32721">
        <ele>112.82</ele>
        <time>2021-03-20T14:13:37Z</time>
      </trkpt>
      <trkpt lat="58.50239" lon="-4.32976">
        <ele>108</ele>
        <time>2021-03-20T14:13:40Z</time>
      </trkpt>
      <trkpt lat="58.50259" lon="-4.33034">
        <ele>107</ele>
        <time>2021-03-20T14:13:43Z</time>
      </trkpt>
      <trkpt lat="58.50283" lon="-4.33181">
        <ele>104.05</ele>
        <time>2021-03-20T14:13:46Z</time>
      </trkpt>
      <trkpt lat="58.50309" lon="-4.33445">
        <ele>91.99</ele>
        <time>2021-03-20T14:13:49Z</time>
      </trkpt>
      <trkpt lat="58.50307" lon="-4.33507">
        <ele>90.47</ele>
        <time>2021-03-20T14:13:53Z</time>
      </trkpt>
      <trkpt lat="58.50296" lon="-4.33565">
        <ele>88.39</ele>
        <time>2021-03-20T14:13:56Z</time>
      </trkpt>
      <trkpt lat="58.5022" lon="-4.33799">
        <ele>78.6</ele>
        <time>2021-03-20T14:13:59Z</time>
      </trkpt>
      <trkpt lat="58.50211" lon="-4.33847">
        <ele>75.92</ele>
        <time>2021-03-20T14:14:02Z</time>
      </trkpt>
      <trkpt lat="58.50208" lon="-4.33912">
        <ele>73.68</ele>
        <time>2021-03-20T14:14:05Z</time>
      </trkpt>
      <trkpt lat="58.50215" lon="-4.34">
        <ele>73.28</ele>
        <time>2021-03-20T14:14:09Z</time>
      </trkpt>
      <trkpt lat="58.50216" lon="-4.34069">
        <ele>77.33</ele>
        <time>2021-03-20T14:14:12Z</time>
      </trkpt>
      <trkpt lat="58.50214" lon="-4.34101">
        <ele>79.97</ele>
        <time>2021-03-20T14:14:15Z</time>
      </trkpt>
      <trkpt lat="58.50179" lon="-4.34163">
        <ele>83.59</ele>
        <time>2021-03-20T14:14:18Z</time>
      </trkpt>
      <trkpt lat="58.50133" lon="-4.3421">
        <ele>87.01</ele>
        <time>2021-03-20T14:14:21Z</time>
      </trkpt>
      <trkpt lat="58.501" lon="-4.34257">
        <ele>88.44</ele>
        <time>2021-03-20T14:14:25Z</time>
      </trkpt>
      <trkpt lat="58.50029" lon="-4.34393">
        <ele>90.2</ele>
        <time>2021-03-20T14:14:28Z</time>
      </trkpt>
      <trkpt lat="58.49931" lon="-4.34624">
        <ele>95.22</ele>
        <time>2021-03-20T14:14:31Z</time>
      </trkpt>
      <trkpt lat="58.49872" lon="-4.34756">
        <ele>99.61</ele>
        <time>2021-03-20T14:14:34Z</time>
      </trkpt>
      <trkpt lat="58.4979" lon="-4.3495">
        <ele>100.93</ele>
        <time>2021-03-20T14:14:38Z</time>
      </trkpt>
      <trkpt lat="58.49781" lon="-4.34979">
        <ele>100.5</ele>
        <time>2021-03-20T14:14:41Z</time>
      </trkpt>
      <trkpt lat="58.49775" lon="-4.35005">
        <ele>100.24</ele>
        <time>2021-03-20T14:14:44Z</time>
      </trkpt>
      <trkpt lat="58.49771" lon="-4.35037">
        <ele>100.49</ele>
        <time>2021-03-20T14:14:47Z</time>
      </trkpt>
      <trkpt lat="58.49768" lon="-4.35112">
        <ele>100.09</ele>
        <time>2021-03-20T14:14:50Z</time>
      </trkpt>
      <trkpt lat="58.49773" lon="-4.35222">
        <ele>100.7</ele>
        <time>2021-03-20T14:14:54Z</time>
      </trkpt>
      <trkpt lat="58.49781" lon="-4.35334">
        <ele>100.76</ele>
        <time>2021-03-20T14:14:57Z</time>
      </trkpt>
      <trkpt lat="58.49798" lon="-4.35412">
        <ele>101.08</ele>
        <time>2021-03-20T14:15:00Z</time>
      </trkpt>
      <trkpt lat="58.49833" lon="-4.35464">
        <ele>99.7</ele>
        <time>2021-03-20T14:15:03Z</time>
      </trkpt>
      <trkpt lat="58.49963" lon="-4.35583">
        <ele>96.03</ele>
        <time>2021-03-20T14:15:06Z</time>
      </trkpt>
      <trkpt lat="58.50081" lon="-4.35684">
        <ele>90.09</ele>
        <time>2021-03-20T14:15:10Z</time>
      </trkpt>
      <trkpt lat="58.50122" lon="-4.3573">
        <ele>89.22</ele>
        <time>2021-03-20T14:15:13Z</time>
      </trkpt>
      <trkpt lat="58.50136" lon="-4.35766">
        <ele>87.69</ele>
        <time>2021-03-20T14:15:16Z</time>
      </trkpt>
      <trkpt lat="58.50143" lon="-4.35795">
        <ele>86.78</ele>
        <time>2021-03-20T14:15:19Z</time>
      </trkpt>
      <trkpt lat="58.50145" lon="-4.35854">
        <ele>86.66</ele>
        <time>2021-03-20T14:15:22Z</time>
      </trkpt>
      <trkpt lat="58.50147" lon="-4.35959">
        <ele>86.7</ele>
        <time>2021-03-20T14:15:26Z</time>
      </trkpt>
      <trkpt lat="58.50144" lon="-4.36024">
        <ele>85.04</ele>
        <time>2021-03-20T14:15:29Z</time>
      </trkpt>
      <trkpt lat="58.50148" lon="-4.36086">
        <ele>83.59</ele>
        <time>2021-03-20T14:15:32Z</time>
      </trkpt>
      <trkpt lat="58.5015" lon="-4.36158">
        <ele>81.25</ele>
        <time>2021-03-20T14:15:35Z</time>
      </trkpt>
      <trkpt lat="58.5016" lon="-4.36277">
        <ele>80.1</ele>
        <time>2021-03-20T14:15:38Z</time>
      </trkpt>
      <trkpt lat="58.50179" lon="-4.36366">
        <ele>79.29</ele>
        <time>2021-03-20T14:15:42Z</time>
      </trkpt>
      <trkpt lat="58.50195" lon="-4.36453">
        <ele>74.72</ele>
        <time>2021-03-20T14:15:45Z</time>
      </trkpt>
      <trkpt lat="58.50195" lon="-4.36506">
        <ele>73.29</ele>
        <time>2021-03-20T14:15:48Z</time>
      </trkpt>
      <trkpt lat="58.50193" lon="-4.36521">
        <ele>73.62</ele>
        <time>2021-03-20T14:15:51Z</time>
      </trkpt>
      <trkpt lat="58.50185" lon="-4.36553">
        <ele>72.93</ele>
        <time>2021-03-20T14:15:55Z</time>
      </trkpt>
      <trkpt lat="58.50173" lon="-4.36577">
        <ele>71.47</ele>
        <time>2021-03-20T14:15:58Z</time>
      </trkpt>
      <trkpt lat="58.50146" lon="-4.36605">
        <ele>69.49</ele>
        <time>2021-03-20T14:16:01Z</time>
      </trkpt>
      <trkpt lat="58.50115" lon="-4.36609">
        <ele>67.25</ele>
        <time>2021-03-20T14:16:04Z</time>
      </trkpt>
      <trkpt lat="58.50077" lon="-4.36633">
        <ele>66.81</ele>
        <time>2021-03-20T14:16:07Z</time>
      </trkpt>
      <trkpt lat="58.50044" lon="-4.36672">
        <ele>64.74</ele>
        <time>2021-03-20T14:16:11Z</time>
      </trkpt>
      <trkpt lat="58.50027" lon="-4.36719">
        <ele>62.06</ele>
        <time>2021-03-20T14:16:14Z</time>
      </trkpt>
      <trkpt lat="58.50022" lon="-4.36786">
        <ele>58.43</ele>
        <time>2021-03-20T14:16:17Z</time>
      </trkpt>
      <trkpt lat="58.50032" lon="-4.36841">
        <ele>56.99</ele>
        <time>2021-03-20T14:16:20Z</time>
      </trkpt>
      <trkpt lat="58.50047" lon="-4.36891">
        <ele>55.62</ele>
        <time>2021-03-20T14:16:23Z</time>
      </trkpt>
      <trkpt lat="58.5016" lon="-4.37149">
        <ele>55.49</ele>
        <time>2021-03-20T14:16:27Z</time>
      </trkpt>
      <trkpt lat="58.50234" lon="-4.37323">
        <ele>63.23</ele>
        <time>2021-03-20T14:16:30Z</time>
      </trkpt>
      <trkpt lat="58.50278" lon="-4.37538">
        <ele>63.03</ele>
        <time>2021-03-20T14:16:33Z</time>
      </trkpt>
      <trkpt lat="58.50292" lon="-4.37617">
        <ele>66.28</ele>
        <time>2021-03-20T14:16:36Z</time>
      </trkpt>
      <trkpt lat="58.50311" lon="-4.37654">
        <ele>67.64</ele>
        <time>2021-03-20T14:16:39Z</time>
      </trkpt>
      <trkpt lat="58.50372" lon="-4.37716">
        <ele>64.31</ele>
        <time>2021-03-20T14:16:43Z</time>
      </trkpt>
      <trkpt lat="58.5045" lon="-4.37783">
        <ele>63.67</ele>
        <time>2021-03-20T14:16:46Z</time>
      </trkpt>
      <trkpt lat="58.50498" lon="-4.37803">
        <ele>64.64</ele>
        <time>2021-03-20T14:16:49Z</time>
      </trkpt>
      <trkpt lat="58.50555" lon="-4.37816">
        <ele>63.59</ele>
        <time>2021-03-20T14:16:52Z</time>
      </trkpt>
      <trkpt lat="58.50585" lon="-4.37838">
        <ele>62.22</ele>
        <time>2021-03-20T14:16:55Z</time>
      </trkpt>
      <trkpt lat="58.506" lon="-4.37866">
        <ele>63.13</ele>
        <time>2021-03-20T14:16:59Z</time>
      </trkpt>
      <trkpt lat="58.50606" lon="-4.37884">
        <ele>64.24</ele>
        <time>2021-03-20T14:17:02Z</time>
      </trkpt>
      <trkpt lat="58.5061" lon="-4.37908">
        <ele>64.12</ele>
        <time>2021-03-20T14:17:05Z</time>
      </trkpt>
      <trkpt lat="58.50612" lon="-4.37952">
        <ele>63.81</ele>
        <time>2021-03-20T14:17:08Z</time>
      </trkpt>
      <trkpt lat="58.50611" lon="-4.38089">
        <ele>62.02</ele>
        <time>2021-03-20T14:17:11Z</time>
      </trkpt>
      <trkpt lat="58.5062" lon="-4.38383">
        <ele>55.83</ele>
        <time>2021-03-20T14:17:15Z</time>
      </trkpt>
      <trkpt lat="58.50618" lon="-4.384">
        <ele>55.19</ele>
        <time>2021-03-20T14:17:18Z</time>
      </trkpt>
      <trkpt lat="58.50602" lon="-4.38485">
        <ele>53.96</ele>
        <time>2021-03-20T14:17:21Z</time>
      </trkpt>
      <trkpt lat="58.50596" lon="-4.38505">
        <ele>54.75</ele>
        <time>2021-03-20T14:17:24Z</time>
      </trkpt>
      <trkpt lat="58.50597" lon="-4.38531">
        <ele>54.67</ele>
        <time>2021-03-20T14:17:28Z</time>
      </trkpt>
      <trkpt lat="58.506" lon="-4.38557">
        <ele>53.94</ele>
        <time>2021-03-20T14:17:31Z</time>
      </trkpt>
      <trkpt lat="58.5061" lon="-4.38592">
        <ele>54.02</ele>
        <time>2021-03-20T14:17:34Z</time>
      </trkpt>
      <trkpt lat="58.50625" lon="-4.38625">
        <ele>52.43</ele>
        <time>2021-03-20T14:17:37Z</time>
      </trkpt>
      <trkpt lat="58.50636" lon="-4.38683">
        <ele>54</ele>
        <time>2021-03-20T14:17:40Z</time>
      </trkpt>
      <trkpt lat="58.50656" lon="-4.38816">
        <ele>57.26</ele>
        <time>2021-03-20T14:17:44Z</time>
      </trkpt>
      <trkpt lat="58.50667" lon="-4.38914">
        <ele>59.69</ele>
        <time>2021-03-20T14:17:47Z</time>
      </trkpt>
      <trkpt lat="58.50666" lon="-4.3897">
        <ele>62.03</ele>
        <time>2021-03-20T14:17:50Z</time>
      </trkpt>
      <trkpt lat="58.50661" lon="-4.39003">
        <ele>63.85</ele>
        <time>2021-03-20T14:17:53Z</time>
      </trkpt>
      <trkpt lat="58.50648" lon="-4.3906">
        <ele>66.39</ele>
        <time>2021-03-20T14:17:56Z</time>
      </trkpt>
      <trkpt lat="58.50632" lon="-4.39095">
        <ele>67.5</ele>
        <time>2021-03-20T14:18:00Z</time>
      </trkpt>
      <trkpt lat="58.50499" lon="-4.3931">
        <ele>73.09</ele>
        <time>2021-03-20T14:18:03Z</time>
      </trkpt>
      <trkpt lat="58.50477" lon="-4.39335">
        <ele>73.82</ele>
        <time>2021-03-20T14:18:06Z</time>
      </trkpt>
      <trkpt lat="58.50448" lon="-4.39357">
        <ele>74.98</ele>
        <time>2021-03-20T14:18:09Z</time>
      </trkpt>
      <trkpt lat="58.50325" lon="-4.39416">
        <ele>77.69</ele>
        <time>2021-03-20T14:18:12Z</time>
      </trkpt>
      <trkpt lat="58.50273" lon="-4.39449">
        <ele>77.24</ele>
        <time>2021-03-20T14:18:16Z</time>
      </trkpt>
      <trkpt lat="58.50214" lon="-4.39513">
        <ele>78.24</ele>
        <time>2021-03-20T14:18:19Z</time>
      </trkpt>
      <trkpt lat="58.50163" lon="-4.3958">
        <ele>78.47</ele>
        <time>2021-03-20T14:18:22Z</time>
      </trkpt>
      <trkpt lat="58.50134" lon="-4.39647">
        <ele>76.67</ele>
        <time>2021-03-20T14:18:25Z</time>
      </trkpt>
      <trkpt lat="58.50045" lon="-4.39919">
        <ele>73.83</ele>
        <time>2021-03-20T14:18:28Z</time>
      </trkpt>
      <trkpt lat="58.49941" lon="-4.40135">
        <ele>76.38</ele>
        <time>2021-03-20T14:18:32Z</time>
      </trkpt>
      <trkpt lat="58.49918" lon="-4.40189">
        <ele>77.28</ele>
        <time>2021-03-20T14:18:35Z</time>
      </trkpt>
      <trkpt lat="58.49866" lon="-4.40301">
        <ele>76.61</ele>
        <time>2021-03-20T14:18:38Z</time>
      </trkpt>
      <trkpt lat="58.49838" lon="-4.4038">
        <ele>77.74</ele>
        <time>2021-03-20T14:18:41Z</time>
      </trkpt>
      <trkpt lat="58.4981" lon="-4.40502">
        <ele>77.38</ele>
        <time>2021-03-20T14:18:45Z</time>
      </trkpt>
      <trkpt lat="58.49796" lon="-4.40581">
        <ele>79.62</ele>
        <time>2021-03-20T14:18:48Z</time>
      </trkpt>
      <trkpt lat="58.4979" lon="-4.40606">
        <ele>80.1</ele>
        <time>2021-03-20T14:18:51Z</time>
      </trkpt>
      <trkpt lat="58.49742" lon="-4.4073">
        <ele>81.96</ele>
        <time>2021-03-20T14:18:54Z</time>
      </trkpt>
      <trkpt lat="58.49662" lon="-4.4091">
        <ele>69.61</ele>
        <time>2021-03-20T14:18:57Z</time>
      </trkpt>
      <trkpt lat="58.49636" lon="-4.40942">
        <ele>70.72</ele>
        <time>2021-03-20T14:19:01Z</time>
      </trkpt>
      <trkpt lat="58.49612" lon="-4.40965">
        <ele>71.07</ele>
        <time>2021-03-20T14:19:04Z</time>
      </trkpt>
      <trkpt lat="58.49587" lon="-4.40976">
        <ele>73.71</ele>
        <time>2021-03-20T14:19:07Z</time>
      </trkpt>
      <trkpt lat="58.49448" lon="-4.41046">
        <ele>82.74</ele>
        <time>2021-03-20T14:19:10Z</time>
      </trkpt>
      <trkpt lat="58.49311" lon="-4.4106">
        <ele>86.76</ele>
        <time>2021-03-20T14:19:13Z</time>
      </trkpt>
      <trkpt lat="58.49268" lon="-4.41073">
        <ele>89.76</ele>
        <time>2021-03-20T14:19:17Z</time>
      </trkpt>
      <trkpt lat="58.49238" lon="-4.41089">
        <ele>88.9</ele>
        <time>2021-03-20T14:19:20Z</time>
      </trkpt>
      <trkpt lat="58.4918" lon="-4.41109">
        <ele>87.74</ele>
        <time>2021-03-20T14:19:23Z</time>
      </trkpt>
      <trkpt lat="58.49054" lon="-4.41142">
        <ele>85.8</ele>
        <time>2021-03-20T14:19:26Z</time>
      </trkpt>
      <trkpt lat="58.49032" lon="-4.4114">
        <ele>85.94</ele>
        <time>2021-03-20T14:19:29Z</time>
      </trkpt>
      <trkpt lat="58.48968" lon="-4.41123">
        <ele>86.12</ele>
        <time>2021-03-20T14:19:33Z</time>
      </trkpt>
      <trkpt lat="58.4894" lon="-4.41123">
        <ele>86.63</ele>
        <time>2021-03-20T14:19:36Z</time>
      </trkpt>
      <trkpt lat="58.48907" lon="-4.41134">
        <ele>89.37</ele>
        <time>2021-03-20T14:19:39Z</time>
      </trkpt>
      <trkpt lat="58.48883" lon="-4.41159">
        <ele>90</ele>
        <time>2021-03-20T14:19:42Z</time>
      </trkpt>
      <trkpt lat="58.48826" lon="-4.41241">
        <ele>89.16</ele>
        <time>2021-03-20T14:19:45Z</time>
      </trkpt>
      <trkpt lat="58.48745" lon="-4.41291">
        <ele>90.36</ele>
        <time>2021-03-20T14:19:49Z</time>
      </trkpt>
      <trkpt lat="58.48649" lon="-4.41334">
        <ele>87.9</ele>
        <time>2021-03-20T14:19:52Z</time>
      </trkpt>
      <trkpt lat="58.48644" lon="-4.41308">
        <ele>89.84</ele>
        <time>2021-03-20T14:19:57Z</time>
      </trkpt>
      <trkpt lat="58.48631" lon="-4.41297">
        <ele>90.96</ele>
        <time>2021-03-20T14:20:01Z</time>
      </trkpt>
      <trkpt lat="58.48514" lon="-4.4126">
        <ele>97.27</ele>
        <time>2021-03-20T14:20:06Z</time>
      </trkpt>
      <trkpt lat="58.48421" lon="-4.41236">
        <ele>100.32</ele>
        <time>2021-03-20T14:20:10Z</time>
      </trkpt>
      <trkpt lat="58.48279" lon="-4.41181">
        <ele>105.95</ele>
        <time>2021-03-20T14:20:15Z</time>
      </trkpt>
      <trkpt lat="58.48169" lon="-4.41125">
        <ele>108.89</ele>
        <time>2021-03-20T14:20:19Z</time>
      </trkpt>
      <trkpt lat="58.48169" lon="-4.41125">
        <ele>108.89</ele>
        <time>2021-03-20T14:20:19Z</time>
      </trkpt>
      <trkpt lat="58.47946" lon="-4.41006">
        <ele>116.61</ele>
        <time>2021-03-20T14:20:23Z</time>
      </trkpt>
      <trkpt lat="58.47805" lon="-4.40926">
        <ele>123.32</ele>
        <time>2021-03-20T14:20:28Z</time>
      </trkpt>
      <trkpt lat="58.47623" lon="-4.40769">
        <ele>127.76</ele>
        <time>2021-03-20T14:20:32Z</time>
      </trkpt>
      <trkpt lat="58.47491" lon="-4.40642">
        <ele>132.45</ele>
        <time>2021-03-20T14:20:36Z</time>
      </trkpt>
      <trkpt lat="58.47392" lon="-4.40533">
        <ele>135.92</ele>
        <time>2021-03-20T14:20:40Z</time>
      </trkpt>
      <trkpt lat="58.4729" lon="-4.40428">
        <ele>137.87</ele>
        <time>2021-03-20T14:20:44Z</time>
      </trkpt>
      <trkpt lat="58.47221" lon="-4.40365">
        <ele>138.7</ele>
        <time>2021-03-20T14:20:49Z</time>
      </trkpt>
      <trkpt lat="58.47167" lon="-4.40329">
        <ele>139.34</ele>
        <time>2021-03-20T14:20:53Z</time>
      </trkpt>
      <trkpt lat="58.47043" lon="-4.40277">
        <ele>144.46</ele>
        <time>2021-03-20T14:20:57Z</time>
      </trkpt>
      <trkpt lat="58.46963" lon="-4.40252">
        <ele>149.44</ele>
        <time>2021-03-20T14:21:01Z</time>
      </trkpt>
      <trkpt lat="58.46769" lon="-4.40199">
        <ele>157.14</ele>
        <time>2021-03-20T14:21:05Z</time>
      </trkpt>
      <trkpt lat="58.46673" lon="-4.40149">
        <ele>158.92</ele>
        <time>2021-03-20T14:21:09Z</time>
      </trkpt>
      <trkpt lat="58.46614" lon="-4.40095">
        <ele>162.24</ele>
        <time>2021-03-20T14:21:14Z</time>
      </trkpt>
      <trkpt lat="58.46555" lon="-4.40026">
        <ele>165.09</ele>
        <time>2021-03-20T14:21:18Z</time>
      </trkpt>
      <trkpt lat="58.46497" lon="-4.39886">
        <ele>170.71</ele>
        <time>2021-03-20T14:21:22Z</time>
      </trkpt>
      <trkpt lat="58.4639" lon="-4.39522">
        <ele>171.27</ele>
        <time>2021-03-20T14:21:26Z</time>
      </trkpt>
      <trkpt lat="58.46352" lon="-4.39409">
        <ele>170.92</ele>
        <time>2021-03-20T14:21:30Z</time>
      </trkpt>
      <trkpt lat="58.46304" lon="-4.39311">
        <ele>169.93</ele>
        <time>2021-03-20T14:21:35Z</time>
      </trkpt>
      <trkpt lat="58.46082" lon="-4.38963">
        <ele>169</ele>
        <time>2021-03-20T14:21:39Z</time>
      </trkpt>
      <trkpt lat="58.45968" lon="-4.38792">
        <ele>171.14</ele>
        <time>2021-03-20T14:21:43Z</time>
      </trkpt>
      <trkpt lat="58.45929" lon="-4.38746">
        <ele>172.42</ele>
        <time>2021-03-20T14:21:47Z</time>
      </trkpt>
      <trkpt lat="58.45884" lon="-4.38718">
        <ele>172.16</ele>
        <time>2021-03-20T14:21:51Z</time>
      </trkpt>
      <trkpt lat="58.45808" lon="-4.38695">
        <ele>173.9</ele>
        <time>2021-03-20T14:21:56Z</time>
      </trkpt>
      <trkpt lat="58.45645" lon="-4.38672">
        <ele>174.35</ele>
        <time>2021-03-20T14:22:00Z</time>
      </trkpt>
      <trkpt lat="58.45612" lon="-4.3868">
        <ele>175.95</ele>
        <time>2021-03-20T14:22:04Z</time>
      </trkpt>
      <trkpt lat="58.45569" lon="-4.38701">
        <ele>177.46</ele>
        <time>2021-03-20T14:22:08Z</time>
      </trkpt>
      <trkpt lat="58.45506" lon="-4.38739">
        <ele>178.41</ele>
        <time>2021-03-20T14:22:12Z</time>
      </trkpt>
      <trkpt lat="58.45407" lon="-4.38783">
        <ele>178.38</ele>
        <time>2021-03-20T14:22:17Z</time>
      </trkpt>
      <trkpt lat="58.45304" lon="-4.38817">
        <ele>179.38</ele>
        <time>2021-03-20T14:22:21Z</time>
      </trkpt>
      <trkpt lat="58.45184" lon="-4.38841">
        <ele>177.57</ele>
        <time>2021-03-20T14:22:25Z</time>
      </trkpt>
      <trkpt lat="58.45073" lon="-4.38855">
        <ele>177.8</ele>
        <time>2021-03-20T14:22:29Z</time>
      </trkpt>
      <trkpt lat="58.45023" lon="-4.38855">
        <ele>177.8</ele>
        <time>2021-03-20T14:22:33Z</time>
      </trkpt>
      <trkpt lat="58.44967" lon="-4.38847">
        <ele>177.5</ele>
        <time>2021-03-20T14:22:38Z</time>
      </trkpt>
      <trkpt lat="58.44901" lon="-4.38815">
        <ele>176.45</ele>
        <time>2021-03-20T14:22:42Z</time>
      </trkpt>
      <trkpt lat="58.44845" lon="-4.3876">
        <ele>175</ele>
        <time>2021-03-20T14:22:46Z</time>
      </trkpt>
      <trkpt lat="58.44812" lon="-4.3872">
        <ele>175</ele>
        <time>2021-03-20T14:22:50Z</time>
      </trkpt>
      <trkpt lat="58.44766" lon="-4.3865">
        <ele>175</ele>
        <time>2021-03-20T14:22:54Z</time>
      </trkpt>
      <trkpt lat="58.44584" lon="-4.38333">
        <ele>176.96</ele>
        <time>2021-03-20T14:22:59Z</time>
      </trkpt>
      <trkpt lat="58.44554" lon="-4.38277">
        <ele>177.02</ele>
        <time>2021-03-20T14:23:03Z</time>
      </trkpt>
      <trkpt lat="58.44523" lon="-4.38232">
        <ele>175.87</ele>
        <time>2021-03-20T14:23:07Z</time>
      </trkpt>
      <trkpt lat="58.4448" lon="-4.38191">
        <ele>175.89</ele>
        <time>2021-03-20T14:23:11Z</time>
      </trkpt>
      <trkpt lat="58.44425" lon="-4.38156">
        <ele>174.22</ele>
        <time>2021-03-20T14:23:15Z</time>
      </trkpt>
      <trkpt lat="58.44401" lon="-4.38143">
        <ele>173.28</ele>
        <time>2021-03-20T14:23:20Z</time>
      </trkpt>
      <trkpt lat="58.44379" lon="-4.38142">
        <ele>172.52</ele>
        <time>2021-03-20T14:23:24Z</time>
      </trkpt>
      <trkpt lat="58.4436" lon="-4.3815">
        <ele>171.73</ele>
        <time>2021-03-20T14:23:28Z</time>
      </trkpt>
      <trkpt lat="58.44326" lon="-4.38172">
        <ele>170.99</ele>
        <time>2021-03-20T14:23:32Z</time>
      </trkpt>
      <trkpt lat="58.44156" lon="-4.38295">
        <ele>173.78</ele>
        <time>2021-03-20T14:23:36Z</time>
      </trkpt>
      <trkpt lat="58.44109" lon="-4.38315">
        <ele>172.88</ele>
        <time>2021-03-20T14:23:41Z</time>
      </trkpt>
      <trkpt lat="58.43993" lon="-4.38352">
        <ele>170.96</ele>
        <time>2021-03-20T14:23:45Z</time>
      </trkpt>
      <trkpt lat="58.43949" lon="-4.38378">
        <ele>168.43</ele>
        <time>2021-03-20T14:23:49Z</time>
      </trkpt>
      <trkpt lat="58.4389" lon="-4.38424">
        <ele>166.99</ele>
        <time>2021-03-20T14:23:53Z</time>
      </trkpt>
      <trkpt lat="58.43788" lon="-4.38517">
        <ele>163.51</ele>
        <time>2021-03-20T14:23:57Z</time>
      </trkpt>
      <trkpt lat="58.43736" lon="-4.38553">
        <ele>159.13</ele>
        <time>2021-03-20T14:24:02Z</time>
      </trkpt>
      <trkpt lat="58.43606" lon="-4.38629">
        <ele>155.89</ele>
        <time>2021-03-20T14:24:06Z</time>
      </trkpt>
      <trkpt lat="58.43566" lon="-4.3865">
        <ele>153.09</ele>
        <time>2021-03-20T14:24:10Z</time>
      </trkpt>
      <trkpt lat="58.43484" lon="-4.38701">
        <ele>152.4</ele>
        <time>2021-03-20T14:24:14Z</time>
      </trkpt>
      <trkpt lat="58.43449" lon="-4.3873">
        <ele>150.68</ele>
        <time>2021-03-20T14:24:18Z</time>
      </trkpt>
      <trkpt lat="58.43387" lon="-4.38795">
        <ele>150.09</ele>
        <time>2021-03-20T14:24:23Z</time>
      </trkpt>
      <trkpt lat="58.43296" lon="-4.38874">
        <ele>146.93</ele>
        <time>2021-03-20T14:24:27Z</time>
      </trkpt>
      <trkpt lat="58.43275" lon="-4.38891">
        <ele>146.96</ele>
        <time>2021-03-20T14:24:31Z</time>
      </trkpt>
      <trkpt lat="58.43257" lon="-4.38891">
        <ele>145.68</ele>
        <time>2021-03-20T14:24:35Z</time>
      </trkpt>
      <trkpt lat="58.43239" lon="-4.38876">
        <ele>143.82</ele>
        <time>2021-03-20T14:24:39Z</time>
      </trkpt>
      <trkpt lat="58.43221" lon="-4.3884">
        <ele>141.57</ele>
        <time>2021-03-20T14:24:44Z</time>
      </trkpt>
      <trkpt lat="58.43119" lon="-4.386">
        <ele>139.01</ele>
        <time>2021-03-20T14:24:48Z</time>
      </trkpt>
      <trkpt lat="58.43104" lon="-4.38557">
        <ele>137.64</ele>
        <time>2021-03-20T14:24:52Z</time>
      </trkpt>
      <trkpt lat="58.43072" lon="-4.38494">
        <ele>138.01</ele>
        <time>2021-03-20T14:24:56Z</time>
      </trkpt>
      <trkpt lat="58.43053" lon="-4.38475">
        <ele>139.12</ele>
        <time>2021-03-20T14:25:00Z</time>
      </trkpt>
      <trkpt lat="58.43029" lon="-4.3846">
        <ele>138.14</ele>
        <time>2021-03-20T14:25:05Z</time>
      </trkpt>
      <trkpt lat="58.42983" lon="-4.38466">
        <ele>138.94</ele>
        <time>2021-03-20T14:25:09Z</time>
      </trkpt>
      <trkpt lat="58.42918" lon="-4.38491">
        <ele>139.33</ele>
        <time>2021-03-20T14:25:13Z</time>
      </trkpt>
      <trkpt lat="58.42898" lon="-4.38491">
        <ele>140.94</ele>
        <time>2021-03-20T14:25:17Z</time>
      </trkpt>
      <trkpt lat="58.42877" lon="-4.38479">
        <ele>143.45</ele>
        <time>2021-03-20T14:25:21Z</time>
      </trkpt>
      <trkpt lat="58.42862" lon="-4.38448">
        <ele>143.26</ele>
        <time>2021-03-20T14:25:26Z</time>
      </trkpt>
      <trkpt lat="58.42847" lon="-4.38409">
        <ele>144.4</ele>
        <time>2021-03-20T14:25:30Z</time>
      </trkpt>
      <trkpt lat="58.42837" lon="-4.3834">
        <ele>141.97</ele>
        <time>2021-03-20T14:25:34Z</time>
      </trkpt>
      <trkpt lat="58.42812" lon="-4.38216">
        <ele>140.63</ele>
        <time>2021-03-20T14:25:38Z</time>
      </trkpt>
      <trkpt lat="58.42796" lon="-4.38153">
        <ele>137.74</ele>
        <time>2021-03-20T14:25:42Z</time>
      </trkpt>
      <trkpt lat="58.42763" lon="-4.38091">
        <ele>135.68</ele>
        <time>2021-03-20T14:25:46Z</time>
      </trkpt>
      <trkpt lat="58.42718" lon="-4.38028">
        <ele>134.49</ele>
        <time>2021-03-20T14:25:51Z</time>
      </trkpt>
      <trkpt lat="58.42681" lon="-4.37968">
        <ele>134.59</ele>
        <time>2021-03-20T14:25:55Z</time>
      </trkpt>
      <trkpt lat="58.42644" lon="-4.37871">
        <ele>130.95</ele>
        <time>2021-03-20T14:25:59Z</time>
      </trkpt>
      <trkpt lat="58.42628" lon="-4.3784">
        <ele>129.88</ele>
        <time>2021-03-20T14:26:03Z</time>
      </trkpt>
      <trkpt lat="58.42608" lon="-4.37815">
        <ele>130.01</ele>
        <time>2021-03-20T14:26:07Z</time>
      </trkpt>
      <trkpt lat="58.42561" lon="-4.3778">
        <ele>130.95</ele>
        <time>2021-03-20T14:26:12Z</time>
      </trkpt>
      <trkpt lat="58.42498" lon="-4.37728">
        <ele>129.45</ele>
        <time>2021-03-20T14:26:16Z</time>
      </trkpt>
      <trkpt lat="58.42428" lon="-4.3766">
        <ele>127.18</ele>
        <time>2021-03-20T14:26:20Z</time>
      </trkpt>
      <trkpt lat="58.42346" lon="-4.37563">
        <ele>125.96</ele>
        <time>2021-03-20T14:26:24Z</time>
      </trkpt>
      <trkpt lat="58.42258" lon="-4.37454">
        <ele>123.39</ele>
        <time>2021-03-20T14:26:28Z</time>
      </trkpt>
      <trkpt lat="58.4224" lon="-4.3742">
        <ele>122.46</ele>
        <time>2021-03-20T14:26:33Z</time>
      </trkpt>
      <trkpt lat="58.42199" lon="-4.37298">
        <ele>121.59</ele>
        <time>2021-03-20T14:26:37Z</time>
      </trkpt>
      <trkpt lat="58.42177" lon="-4.37258">
        <ele>120.27</ele>
        <time>2021-03-20T14:26:41Z</time>
      </trkpt>
      <trkpt lat="58.42156" lon="-4.37235">
        <ele>118.54</ele>
        <time>2021-03-20T14:26:45Z</time>
      </trkpt>
      <trkpt lat="58.42136" lon="-4.37226">
        <ele>117.24</ele>
        <time>2021-03-20T14:26:49Z</time>
      </trkpt>
      <trkpt lat="58.42118" lon="-4.37229">
        <ele>117.47</ele>
        <time>2021-03-20T14:26:54Z</time>
      </trkpt>
      <trkpt lat="58.42084" lon="-4.37241">
        <ele>118.32</ele>
        <time>2021-03-20T14:26:58Z</time>
      </trkpt>
      <trkpt lat="58.41987" lon="-4.37297">
        <ele>116.9</ele>
        <time>2021-03-20T14:27:02Z</time>
      </trkpt>
      <trkpt lat="58.41944" lon="-4.3734">
        <ele>117.7</ele>
        <time>2021-03-20T14:27:06Z</time>
      </trkpt>
      <trkpt lat="58.41907" lon="-4.3737">
        <ele>119.5</ele>
        <time>2021-03-20T14:27:10Z</time>
      </trkpt>
      <trkpt lat="58.4185" lon="-4.37396">
        <ele>121</ele>
        <time>2021-03-20T14:27:15Z</time>
      </trkpt>
      <trkpt lat="58.41792" lon="-4.37417">
        <ele>123.04</ele>
        <time>2021-03-20T14:27:19Z</time>
      </trkpt>
      <trkpt lat="58.41736" lon="-4.37432">
        <ele>121.83</ele>
        <time>2021-03-20T14:27:23Z</time>
      </trkpt>
      <trkpt lat="58.41694" lon="-4.37439">
        <ele>119.79</ele>
        <time>2021-03-20T14:27:27Z</time>
      </trkpt>
      <trkpt lat="58.41636" lon="-4.37466">
        <ele>119.5</ele>
        <time>2021-03-20T14:27:31Z</time>
      </trkpt>
      <trkpt lat="58.41598" lon="-4.37477">
        <ele>119.94</ele>
        <time>2021-03-20T14:27:36Z</time>
      </trkpt>
      <trkpt lat="58.41583" lon="-4.37488">
        <ele>120.77</ele>
        <time>2021-03-20T14:27:40Z</time>
      </trkpt>
      <trkpt lat="58.41565" lon="-4.37495">
        <ele>122.46</ele>
        <time>2021-03-20T14:27:44Z</time>
      </trkpt>
      <trkpt lat="58.41539" lon="-4.37493">
        <ele>124.91</ele>
        <time>2021-03-20T14:27:48Z</time>
      </trkpt>
      <trkpt lat="58.41519" lon="-4.37471">
        <ele>124.14</ele>
        <time>2021-03-20T14:27:52Z</time>
      </trkpt>
      <trkpt lat="58.41481" lon="-4.37434">
        <ele>120.6</ele>
        <time>2021-03-20T14:27:57Z</time>
      </trkpt>
      <trkpt lat="58.41458" lon="-4.3742">
        <ele>119.16</ele>
        <time>2021-03-20T14:28:01Z</time>
      </trkpt>
      <trkpt lat="58.41407" lon="-4.37439">
        <ele>120.06</ele>
        <time>2021-03-20T14:28:05Z</time>
      </trkpt>
      <trkpt lat="58.41364" lon="-4.37429">
        <ele>120.95</ele>
        <time>2021-03-20T14:28:09Z</time>
      </trkpt>
      <trkpt lat="58.41328" lon="-4.37407">
        <ele>121.52</ele>
        <time>2021-03-20T14:28:13Z</time>
      </trkpt>
      <trkpt lat="58.41254" lon="-4.37372">
        <ele>120.11</ele>
        <time>2021-03-20T14:28:18Z</time>
      </trkpt>
      <trkpt lat="58.41187" lon="-4.37368">
        <ele>118.81</ele>
        <time>2021-03-20T14:28:22Z</time>
      </trkpt>
      <trkpt lat="58.41149" lon="-4.3737">
        <ele>120.17</ele>
        <time>2021-03-20T14:28:26Z</time>
      </trkpt>
      <trkpt lat="58.41043" lon="-4.37362">
        <ele>117.55</ele>
        <time>2021-03-20T14:28:30Z</time>
      </trkpt>
      <trkpt lat="58.41001" lon="-4.37353">
        <ele>119.12</ele>
        <time>2021-03-20T14:28:34Z</time>
      </trkpt>
      <trkpt lat="58.40935" lon="-4.37345">
        <ele>117.85</ele>
        <time>2021-03-20T14:28:39Z</time>
      </trkpt>
      <trkpt lat="58.40893" lon="-4.37334">
        <ele>117.04</ele>
        <time>2021-03-20T14:28:43Z</time>
      </trkpt>
      <trkpt lat="58.40708" lon="-4.37258">
        <ele>116.28</ele>
        <time>2021-03-20T14:28:47Z</time>
      </trkpt>
      <trkpt lat="58.40681" lon="-4.37238">
        <ele>115.63</ele>
        <time>2021-03-20T14:28:51Z</time>
      </trkpt>
      <trkpt lat="58.40652" lon="-4.37181">
        <ele>115.05</ele>
        <time>2021-03-20T14:28:55Z</time>
      </trkpt>
      <trkpt lat="58.40623" lon="-4.37111">
        <ele>114.59</ele>
        <time>2021-03-20T14:29:00Z</time>
      </trkpt>
      <trkpt lat="58.40611" lon="-4.37088">
        <ele>115</ele>
        <time>2021-03-20T14:29:04Z</time>
      </trkpt>
      <trkpt lat="58.40598" lon="-4.37067">
        <ele>114.92</ele>
        <time>2021-03-20T14:29:08Z</time>
      </trkpt>
      <trkpt lat="58.4052" lon="-4.36996">
        <ele>114</ele>
        <time>2021-03-20T14:29:12Z</time>
      </trkpt>
      <trkpt lat="58.40436" lon="-4.36929">
        <ele>114.13</ele>
        <time>2021-03-20T14:29:16Z</time>
      </trkpt>
      <trkpt lat="58.40391" lon="-4.36929">
        <ele>114.96</ele>
        <time>2021-03-20T14:29:21Z</time>
      </trkpt>
      <trkpt lat="58.40352" lon="-4.36932">
        <ele>115</ele>
        <time>2021-03-20T14:29:25Z</time>
      </trkpt>
      <trkpt lat="58.40332" lon="-4.36928">
        <ele>115</ele>
        <time>2021-03-20T14:29:29Z</time>
      </trkpt>
      <trkpt lat="58.40311" lon="-4.36918">
        <ele>115</ele>
        <time>2021-03-20T14:29:33Z</time>
      </trkpt>
      <trkpt lat="58.4027" lon="-4.36877">
        <ele>115.17</ele>
        <time>2021-03-20T14:29:37Z</time>
      </trkpt>
      <trkpt lat="58.40225" lon="-4.36843">
        <ele>115.32</ele>
        <time>2021-03-20T14:29:42Z</time>
      </trkpt>
      <trkpt lat="58.40153" lon="-4.36825">
        <ele>115</ele>
        <time>2021-03-20T14:29:46Z</time>
      </trkpt>
      <trkpt lat="58.401" lon="-4.36822">
        <ele>115.98</ele>
        <time>2021-03-20T14:29:50Z</time>
      </trkpt>
      <trkpt lat="58.39982" lon="-4.36802">
        <ele>116.86</ele>
        <time>2021-03-20T14:29:54Z</time>
      </trkpt>
      <trkpt lat="58.39967" lon="-4.36796">
        <ele>116.64</ele>
        <time>2021-03-20T14:29:58Z</time>
      </trkpt>
      <trkpt lat="58.39956" lon="-4.36789">
        <ele>116.39</ele>
        <time>2021-03-20T14:30:03Z</time>
      </trkpt>
      <trkpt lat="58.39939" lon="-4.36773">
        <ele>116.15</ele>
        <time>2021-03-20T14:30:07Z</time>
      </trkpt>
      <trkpt lat="58.39926" lon="-4.36755">
        <ele>116.11</ele>
        <time>2021-03-20T14:30:11Z</time>
      </trkpt>
      <trkpt lat="58.39906" lon="-4.36719">
        <ele>115.87</ele>
        <time>2021-03-20T14:30:15Z</time>
      </trkpt>
      <trkpt lat="58.39895" lon="-4.36703">
        <ele>115.31</ele>
        <time>2021-03-20T14:30:19Z</time>
      </trkpt>
      <trkpt lat="58.39874" lon="-4.36684">
        <ele>115</ele>
        <time>2021-03-20T14:30:23Z</time>
      </trkpt>
      <trkpt lat="58.39852" lon="-4.36679">
        <ele>115</ele>
        <time>2021-03-20T14:30:28Z</time>
      </trkpt>
      <trkpt lat="58.39828" lon="-4.36687">
        <ele>114.95</ele>
        <time>2021-03-20T14:30:32Z</time>
      </trkpt>
      <trkpt lat="58.39752" lon="-4.36741">
        <ele>115</ele>
        <time>2021-03-20T14:30:36Z</time>
      </trkpt>
      <trkpt lat="58.39734" lon="-4.36766">
        <ele>115.25</ele>
        <time>2021-03-20T14:30:40Z</time>
      </trkpt>
      <trkpt lat="58.39671" lon="-4.36869">
        <ele>118.04</ele>
        <time>2021-03-20T14:30:44Z</time>
      </trkpt>
      <trkpt lat="58.39636" lon="-4.36911">
        <ele>116.7</ele>
        <time>2021-03-20T14:30:49Z</time>
      </trkpt>
      <trkpt lat="58.39617" lon="-4.36927">
        <ele>116.21</ele>
        <time>2021-03-20T14:30:53Z</time>
      </trkpt>
      <trkpt lat="58.3954" lon="-4.36959">
        <ele>113</ele>
        <time>2021-03-20T14:30:57Z</time>
      </trkpt>
      <trkpt lat="58.39506" lon="-4.36967">
        <ele>113.79</ele>
        <time>2021-03-20T14:31:01Z</time>
      </trkpt>
      <trkpt lat="58.3947" lon="-4.36971">
        <ele>114</ele>
        <time>2021-03-20T14:31:05Z</time>
      </trkpt>
      <trkpt lat="58.39447" lon="-4.36963">
        <ele>114</ele>
        <time>2021-03-20T14:31:10Z</time>
      </trkpt>
      <trkpt lat="58.39424" lon="-4.36946">
        <ele>115.42</ele>
        <time>2021-03-20T14:31:14Z</time>
      </trkpt>
      <trkpt lat="58.39391" lon="-4.36913">
        <ele>116.92</ele>
        <time>2021-03-20T14:31:18Z</time>
      </trkpt>
      <trkpt lat="58.39352" lon="-4.36865">
        <ele>118</ele>
        <time>2021-03-20T14:31:22Z</time>
      </trkpt>
      <trkpt lat="58.39316" lon="-4.36829">
        <ele>119</ele>
        <time>2021-03-20T14:31:26Z</time>
      </trkpt>
      <trkpt lat="58.39294" lon="-4.36809">
        <ele>119.05</ele>
        <time>2021-03-20T14:31:31Z</time>
      </trkpt>
      <trkpt lat="58.39264" lon="-4.36792">
        <ele>119.01</ele>
        <time>2021-03-20T14:31:35Z</time>
      </trkpt>
      <trkpt lat="58.39236" lon="-4.36785">
        <ele>119.76</ele>
        <time>2021-03-20T14:31:39Z</time>
      </trkpt>
      <trkpt lat="58.3915" lon="-4.36809">
        <ele>121.11</ele>
        <time>2021-03-20T14:31:43Z</time>
      </trkpt>
      <trkpt lat="58.39105" lon="-4.36826">
        <ele>120.96</ele>
        <time>2021-03-20T14:31:47Z</time>
      </trkpt>
      <trkpt lat="58.3906" lon="-4.36817">
        <ele>123.12</ele>
        <time>2021-03-20T14:31:52Z</time>
      </trkpt>
      <trkpt lat="58.39028" lon="-4.36777">
        <ele>121.99</ele>
        <time>2021-03-20T14:31:56Z</time>
      </trkpt>
      <trkpt lat="58.38986" lon="-4.36715">
        <ele>121</ele>
        <time>2021-03-20T14:32:00Z</time>
      </trkpt>
      <trkpt lat="58.38943" lon="-4.36646">
        <ele>120.01</ele>
        <time>2021-03-20T14:32:04Z</time>
      </trkpt>
      <trkpt lat="58.38862" lon="-4.36534">
        <ele>117</ele>
        <time>2021-03-20T14:32:08Z</time>
      </trkpt>
      <trkpt lat="58.38827" lon="-4.36505">
        <ele>116.21</ele>
        <time>2021-03-20T14:32:13Z</time>
      </trkpt>
      <trkpt lat="58.38781" lon="-4.36488">
        <ele>116.89</ele>
        <time>2021-03-20T14:32:17Z</time>
      </trkpt>
      <trkpt lat="58.38735" lon="-4.36466">
        <ele>116.74</ele>
        <time>2021-03-20T14:32:21Z</time>
      </trkpt>
      <trkpt lat="58.38697" lon="-4.36403">
        <ele>117.97</ele>
        <time>2021-03-20T14:32:25Z</time>
      </trkpt>
      <trkpt lat="58.38672" lon="-4.36323">
        <ele>115.62</ele>
        <time>2021-03-20T14:32:29Z</time>
      </trkpt>
      <trkpt lat="58.38652" lon="-4.36306">
        <ele>115.56</ele>
        <time>2021-03-20T14:32:34Z</time>
      </trkpt>
      <trkpt lat="58.38632" lon="-4.36306">
        <ele>116</ele>
        <time>2021-03-20T14:32:38Z</time>
      </trkpt>
      <trkpt lat="58.38613" lon="-4.36319">
        <ele>116</ele>
        <time>2021-03-20T14:32:42Z</time>
      </trkpt>
      <trkpt lat="58.38561" lon="-4.36387">
        <ele>118.69</ele>
        <time>2021-03-20T14:32:46Z</time>
      </trkpt>
      <trkpt lat="58.38532" lon="-4.36409">
        <ele>121.27</ele>
        <time>2021-03-20T14:32:50Z</time>
      </trkpt>
      <trkpt lat="58.38458" lon="-4.36426">
        <ele>121.7</ele>
        <time>2021-03-20T14:32:55Z</time>
      </trkpt>
      <trkpt lat="58.38415" lon="-4.36433">
        <ele>120.95</ele>
        <time>2021-03-20T14:32:59Z</time>
      </trkpt>
      <trkpt lat="58.38143" lon="-4.36423">
        <ele>118.29</ele>
        <time>2021-03-20T14:33:03Z</time>
      </trkpt>
      <trkpt lat="58.38106" lon="-4.36429">
        <ele>117.92</ele>
        <time>2021-03-20T14:33:07Z</time>
      </trkpt>
      <trkpt lat="58.38092" lon="-4.36434">
        <ele>117.56</ele>
        <time>2021-03-20T14:33:11Z</time>
      </trkpt>
      <trkpt lat="58.37941" lon="-4.3651">
        <ele>123.63</ele>
        <time>2021-03-20T14:33:16Z</time>
      </trkpt>
      <trkpt lat="58.37834" lon="-4.36548">
        <ele>120.57</ele>
        <time>2021-03-20T14:33:20Z</time>
      </trkpt>
      <trkpt lat="58.37719" lon="-4.36598">
        <ele>119.78</ele>
        <time>2021-03-20T14:33:24Z</time>
      </trkpt>
      <trkpt lat="58.37643" lon="-4.36658">
        <ele>120.15</ele>
        <time>2021-03-20T14:33:28Z</time>
      </trkpt>
      <trkpt lat="58.37576" lon="-4.36731">
        <ele>118.87</ele>
        <time>2021-03-20T14:33:32Z</time>
      </trkpt>
      <trkpt lat="58.37487" lon="-4.36837">
        <ele>119.41</ele>
        <time>2021-03-20T14:33:37Z</time>
      </trkpt>
      <trkpt lat="58.37436" lon="-4.36904">
        <ele>120.81</ele>
        <time>2021-03-20T14:33:41Z</time>
      </trkpt>
      <trkpt lat="58.37357" lon="-4.36995">
        <ele>118.54</ele>
        <time>2021-03-20T14:33:45Z</time>
      </trkpt>
      <trkpt lat="58.37309" lon="-4.37064">
        <ele>119.73</ele>
        <time>2021-03-20T14:33:49Z</time>
      </trkpt>
      <trkpt lat="58.37262" lon="-4.37144">
        <ele>119.96</ele>
        <time>2021-03-20T14:33:53Z</time>
      </trkpt>
      <trkpt lat="58.37236" lon="-4.37183">
        <ele>119.68</ele>
        <time>2021-03-20T14:33:58Z</time>
      </trkpt>
      <trkpt lat="58.37202" lon="-4.37222">
        <ele>119.53</ele>
        <time>2021-03-20T14:34:02Z</time>
      </trkpt>
      <trkpt lat="58.37179" lon="-4.37253">
        <ele>118.94</ele>
        <time>2021-03-20T14:34:06Z</time>
      </trkpt>
      <trkpt lat="58.37151" lon="-4.37306">
        <ele>118.88</ele>
        <time>2021-03-20T14:34:10Z</time>
      </trkpt>
      <trkpt lat="58.37052" lon="-4.37522">
        <ele>119.5</ele>
        <time>2021-03-20T14:34:14Z</time>
      </trkpt>
      <trkpt lat="58.37015" lon="-4.37606">
        <ele>119.55</ele>
        <time>2021-03-20T14:34:19Z</time>
      </trkpt>
      <trkpt lat="58.369" lon="-4.37852">
        <ele>120.33</ele>
        <time>2021-03-20T14:34:23Z</time>
      </trkpt>
      <trkpt lat="58.36866" lon="-4.3793">
        <ele>121.81</ele>
        <time>2021-03-20T14:34:27Z</time>
      </trkpt>
      <trkpt lat="58.36846" lon="-4.37981">
        <ele>122.22</ele>
        <time>2021-03-20T14:34:31Z</time>
      </trkpt>
      <trkpt lat="58.36829" lon="-4.38035">
        <ele>122.68</ele>
        <time>2021-03-20T14:34:35Z</time>
      </trkpt>
      <trkpt lat="58.36817" lon="-4.38105">
        <ele>122.24</ele>
        <time>2021-03-20T14:34:40Z</time>
      </trkpt>
      <trkpt lat="58.36766" lon="-4.38473">
        <ele>119.18</ele>
        <time>2021-03-20T14:34:44Z</time>
      </trkpt>
      <trkpt lat="58.36746" lon="-4.38588">
        <ele>120</ele>
        <time>2021-03-20T14:34:48Z</time>
      </trkpt>
      <trkpt lat="58.36716" lon="-4.38733">
        <ele>121.86</ele>
        <time>2021-03-20T14:34:52Z</time>
      </trkpt>
      <trkpt lat="58.36701" lon="-4.38813">
        <ele>121.81</ele>
        <time>2021-03-20T14:34:56Z</time>
      </trkpt>
      <trkpt lat="58.36678" lon="-4.38915">
        <ele>122.74</ele>
        <time>2021-03-20T14:35:01Z</time>
      </trkpt>
      <trkpt lat="58.36658" lon="-4.39035">
        <ele>122.07</ele>
        <time>2021-03-20T14:35:05Z</time>
      </trkpt>
      <trkpt lat="58.36575" lon="-4.39643">
        <ele>120.41</ele>
        <time>2021-03-20T14:35:09Z</time>
      </trkpt>
      <trkpt lat="58.36559" lon="-4.39751">
        <ele>121.39</ele>
        <time>2021-03-20T14:35:13Z</time>
      </trkpt>
      <trkpt lat="58.3655" lon="-4.39779">
        <ele>120.48</ele>
        <time>2021-03-20T14:35:17Z</time>
      </trkpt>
      <trkpt lat="58.36526" lon="-4.39819">
        <ele>118.93</ele>
        <time>2021-03-20T14:35:21Z</time>
      </trkpt>
      <trkpt lat="58.36507" lon="-4.39825">
        <ele>118.26</ele>
        <time>2021-03-20T14:35:26Z</time>
      </trkpt>
      <trkpt lat="58.3649" lon="-4.39825">
        <ele>117.64</ele>
        <time>2021-03-20T14:35:30Z</time>
      </trkpt>
      <trkpt lat="58.36471" lon="-4.39813">
        <ele>116.96</ele>
        <time>2021-03-20T14:35:34Z</time>
      </trkpt>
      <trkpt lat="58.36458" lon="-4.398">
        <ele>116.37</ele>
        <time>2021-03-20T14:35:38Z</time>
      </trkpt>
      <trkpt lat="58.36414" lon="-4.39726">
        <ele>115</ele>
        <time>2021-03-20T14:35:42Z</time>
      </trkpt>
      <trkpt lat="58.36387" lon="-4.39696">
        <ele>115.05</ele>
        <time>2021-03-20T14:35:47Z</time>
      </trkpt>
      <trkpt lat="58.36365" lon="-4.3968">
        <ele>115.86</ele>
        <time>2021-03-20T14:35:51Z</time>
      </trkpt>
      <trkpt lat="58.36348" lon="-4.39678">
        <ele>116.2</ele>
        <time>2021-03-20T14:35:55Z</time>
      </trkpt>
      <trkpt lat="58.36331" lon="-4.39683">
        <ele>116.68</ele>
        <time>2021-03-20T14:35:59Z</time>
      </trkpt>
      <trkpt lat="58.36302" lon="-4.39699">
        <ele>118.14</ele>
        <time>2021-03-20T14:36:03Z</time>
      </trkpt>
      <trkpt lat="58.3628" lon="-4.39721">
        <ele>118.93</ele>
        <time>2021-03-20T14:36:08Z</time>
      </trkpt>
      <trkpt lat="58.36227" lon="-4.39786">
        <ele>122.69</ele>
        <time>2021-03-20T14:36:12Z</time>
      </trkpt>
      <trkpt lat="58.36193" lon="-4.39858">
        <ele>124.22</ele>
        <time>2021-03-20T14:36:16Z</time>
      </trkpt>
      <trkpt lat="58.36162" lon="-4.39929">
        <ele>124.34</ele>
        <time>2021-03-20T14:36:20Z</time>
      </trkpt>
      <trkpt lat="58.36119" lon="-4.40057">
        <ele>127.18</ele>
        <time>2021-03-20T14:36:24Z</time>
      </trkpt>
      <trkpt lat="58.36056" lon="-4.40263">
        <ele>131.41</ele>
        <time>2021-03-20T14:36:29Z</time>
      </trkpt>
      <trkpt lat="58.36032" lon="-4.4033">
        <ele>133.56</ele>
        <time>2021-03-20T14:36:33Z</time>
      </trkpt>
      <trkpt lat="58.358" lon="-4.40763">
        <ele>147.74</ele>
        <time>2021-03-20T14:36:37Z</time>
      </trkpt>
      <trkpt lat="58.35749" lon="-4.40899">
        <ele>151.79</ele>
        <time>2021-03-20T14:36:41Z</time>
      </trkpt>
      <trkpt lat="58.35734" lon="-4.40925">
        <ele>152.74</ele>
        <time>2021-03-20T14:36:45Z</time>
      </trkpt>
      <trkpt lat="58.35717" lon="-4.40945">
        <ele>154.56</ele>
        <time>2021-03-20T14:36:50Z</time>
      </trkpt>
      <trkpt lat="58.35689" lon="-4.40971">
        <ele>156.46</ele>
        <time>2021-03-20T14:36:54Z</time>
      </trkpt>
      <trkpt lat="58.35653" lon="-4.40998">
        <ele>158.58</ele>
        <time>2021-03-20T14:36:58Z</time>
      </trkpt>
      <trkpt lat="58.35639" lon="-4.41013">
        <ele>159.52</ele>
        <time>2021-03-20T14:37:02Z</time>
      </trkpt>
      <trkpt lat="58.35626" lon="-4.41032">
        <ele>159.82</ele>
        <time>2021-03-20T14:37:06Z</time>
      </trkpt>
      <trkpt lat="58.35611" lon="-4.4107">
        <ele>159.57</ele>
        <time>2021-03-20T14:37:11Z</time>
      </trkpt>
      <trkpt lat="58.35518" lon="-4.41413">
        <ele>167.35</ele>
        <time>2021-03-20T14:37:15Z</time>
      </trkpt>
      <trkpt lat="58.35469" lon="-4.41529">
        <ele>171.24</ele>
        <time>2021-03-20T14:37:19Z</time>
      </trkpt>
      <trkpt lat="58.35442" lon="-4.41598">
        <ele>173.24</ele>
        <time>2021-03-20T14:37:23Z</time>
      </trkpt>
      <trkpt lat="58.35419" lon="-4.41638">
        <ele>174.83</ele>
        <time>2021-03-20T14:37:27Z</time>
      </trkpt>
      <trkpt lat="58.35375" lon="-4.417">
        <ele>178.47</ele>
        <time>2021-03-20T14:37:32Z</time>
      </trkpt>
      <trkpt lat="58.35337" lon="-4.41743">
        <ele>181.84</ele>
        <time>2021-03-20T14:37:36Z</time>
      </trkpt>
      <trkpt lat="58.35256" lon="-4.41856">
        <ele>185.75</ele>
        <time>2021-03-20T14:37:40Z</time>
      </trkpt>
      <trkpt lat="58.35176" lon="-4.41948">
        <ele>190.88</ele>
        <time>2021-03-20T14:37:44Z</time>
      </trkpt>
      <trkpt lat="58.35088" lon="-4.42076">
        <ele>198.52</ele>
        <time>2021-03-20T14:37:48Z</time>
      </trkpt>
      <trkpt lat="58.35039" lon="-4.42176">
        <ele>201.51</ele>
        <time>2021-03-20T14:37:53Z</time>
      </trkpt>
      <trkpt lat="58.3498" lon="-4.4228">
        <ele>205.81</ele>
        <time>2021-03-20T14:37:57Z</time>
      </trkpt>
      <trkpt lat="58.34959" lon="-4.4233">
        <ele>206.59</ele>
        <time>2021-03-20T14:38:01Z</time>
      </trkpt>
      <trkpt lat="58.34928" lon="-4.42395">
        <ele>208</ele>
        <time>2021-03-20T14:38:05Z</time>
      </trkpt>
      <trkpt lat="58.34898" lon="-4.42415">
        <ele>208.05</ele>
        <time>2021-03-20T14:38:09Z</time>
      </trkpt>
      <trkpt lat="58.34878" lon="-4.42413">
        <ele>208.16</ele>
        <time>2021-03-20T14:38:14Z</time>
      </trkpt>
      <trkpt lat="58.34831" lon="-4.42416">
        <ele>208.09</ele>
        <time>2021-03-20T14:38:18Z</time>
      </trkpt>
      <trkpt lat="58.34803" lon="-4.42426">
        <ele>208.81</ele>
        <time>2021-03-20T14:38:22Z</time>
      </trkpt>
      <trkpt lat="58.34788" lon="-4.42437">
        <ele>209.53</ele>
        <time>2021-03-20T14:38:26Z</time>
      </trkpt>
      <trkpt lat="58.34772" lon="-4.42454">
        <ele>210.12</ele>
        <time>2021-03-20T14:38:30Z</time>
      </trkpt>
      <trkpt lat="58.34744" lon="-4.4249">
        <ele>210.97</ele>
        <time>2021-03-20T14:38:35Z</time>
      </trkpt>
      <trkpt lat="58.34726" lon="-4.42533">
        <ele>211.41</ele>
        <time>2021-03-20T14:38:39Z</time>
      </trkpt>
      <trkpt lat="58.34707" lon="-4.42611">
        <ele>212.22</ele>
        <time>2021-03-20T14:38:43Z</time>
      </trkpt>
      <trkpt lat="58.34662" lon="-4.42808">
        <ele>214.53</ele>
        <time>2021-03-20T14:38:47Z</time>
      </trkpt>
      <trkpt lat="58.3463" lon="-4.42963">
        <ele>217.04</ele>
        <time>2021-03-20T14:38:51Z</time>
      </trkpt>
      <trkpt lat="58.34605" lon="-4.43073">
        <ele>217.22</ele>
        <time>2021-03-20T14:38:56Z</time>
      </trkpt>
      <trkpt lat="58.34575" lon="-4.43173">
        <ele>219.85</ele>
        <time>2021-03-20T14:39:00Z</time>
      </trkpt>
      <trkpt lat="58.34553" lon="-4.43231">
        <ele>221.67</ele>
        <time>2021-03-20T14:39:04Z</time>
      </trkpt>
      <trkpt lat="58.34525" lon="-4.43291">
        <ele>220.42</ele>
        <time>2021-03-20T14:39:08Z</time>
      </trkpt>
      <trkpt lat="58.34505" lon="-4.43322">
        <ele>220.77</ele>
        <time>2021-03-20T14:39:12Z</time>
      </trkpt>
      <trkpt lat="58.34455" lon="-4.4339">
        <ele>224.82</ele>
        <time>2021-03-20T14:39:17Z</time>
      </trkpt>
      <trkpt lat="58.34402" lon="-4.43449">
        <ele>226.35</ele>
        <time>2021-03-20T14:39:21Z</time>
      </trkpt>
      <trkpt lat="58.34304" lon="-4.43546">
        <ele>227.43</ele>
        <time>2021-03-20T14:39:25Z</time>
      </trkpt>
      <trkpt lat="58.3423" lon="-4.43605">
        <ele>226.17</ele>
        <time>2021-03-20T14:39:29Z</time>
      </trkpt>
      <trkpt lat="58.34162" lon="-4.43641">
        <ele>226.11</ele>
        <time>2021-03-20T14:39:33Z</time>
      </trkpt>
      <trkpt lat="58.3409" lon="-4.43632">
        <ele>230.01</ele>
        <time>2021-03-20T14:39:38Z</time>
      </trkpt>
      <trkpt lat="58.34012" lon="-4.43627">
        <ele>229.99</ele>
        <time>2021-03-20T14:39:42Z</time>
      </trkpt>
      <trkpt lat="58.33829" lon="-4.43603">
        <ele>229</ele>
        <time>2021-03-20T14:39:46Z</time>
      </trkpt>
      <trkpt lat="58.33726" lon="-4.43582">
        <ele>225.25</ele>
        <time>2021-03-20T14:39:50Z</time>
      </trkpt>
      <trkpt lat="58.3365" lon="-4.43559">
        <ele>221.88</ele>
        <time>2021-03-20T14:39:54Z</time>
      </trkpt>
      <trkpt lat="58.33633" lon="-4.43562">
        <ele>221.75</ele>
        <time>2021-03-20T14:39:58Z</time>
      </trkpt>
      <trkpt lat="58.33623" lon="-4.43568">
        <ele>221.54</ele>
        <time>2021-03-20T14:40:03Z</time>
      </trkpt>
      <trkpt lat="58.33592" lon="-4.43597">
        <ele>220.29</ele>
        <time>2021-03-20T14:40:07Z</time>
      </trkpt>
      <trkpt lat="58.33536" lon="-4.43639">
        <ele>217.99</ele>
        <time>2021-03-20T14:40:11Z</time>
      </trkpt>
      <trkpt lat="58.33488" lon="-4.43664">
        <ele>217.5</ele>
        <time>2021-03-20T14:40:15Z</time>
      </trkpt>
      <trkpt lat="58.33427" lon="-4.43681">
        <ele>217.51</ele>
        <time>2021-03-20T14:40:19Z</time>
      </trkpt>
      <trkpt lat="58.33373" lon="-4.43675">
        <ele>217.3</ele>
        <time>2021-03-20T14:40:24Z</time>
      </trkpt>
      <trkpt lat="58.33336" lon="-4.43664">
        <ele>217</ele>
        <time>2021-03-20T14:40:28Z</time>
      </trkpt>
      <trkpt lat="58.3329" lon="-4.43642">
        <ele>216.45</ele>
        <time>2021-03-20T14:40:32Z</time>
      </trkpt>
      <trkpt lat="58.33252" lon="-4.43617">
        <ele>216</ele>
        <time>2021-03-20T14:40:36Z</time>
      </trkpt>
      <trkpt lat="58.33184" lon="-4.43564">
        <ele>219.76</ele>
        <time>2021-03-20T14:40:40Z</time>
      </trkpt>
      <trkpt lat="58.33136" lon="-4.43516">
        <ele>219.17</ele>
        <time>2021-03-20T14:40:45Z</time>
      </trkpt>
      <trkpt lat="58.33024" lon="-4.43368">
        <ele>216.37</ele>
        <time>2021-03-20T14:40:49Z</time>
      </trkpt>
      <trkpt lat="58.32967" lon="-4.43298">
        <ele>215.92</ele>
        <time>2021-03-20T14:40:53Z</time>
      </trkpt>
      <trkpt lat="58.32916" lon="-4.43245">
        <ele>215.82</ele>
        <time>2021-03-20T14:40:57Z</time>
      </trkpt>
      <trkpt lat="58.32864" lon="-4.43204">
        <ele>215</ele>
        <time>2021-03-20T14:41:01Z</time>
      </trkpt>
      <trkpt lat="58.32782" lon="-4.43151">
        <ele>213</ele>
        <time>2021-03-20T14:41:06Z</time>
      </trkpt>
      <trkpt lat="58.32761" lon="-4.43134">
        <ele>212.33</ele>
        <time>2021-03-20T14:41:10Z</time>
      </trkpt>
      <trkpt lat="58.32735" lon="-4.43106">
        <ele>210.93</ele>
        <time>2021-03-20T14:41:14Z</time>
      </trkpt>
      <trkpt lat="58.327" lon="-4.43082">
        <ele>210.05</ele>
        <time>2021-03-20T14:41:18Z</time>
      </trkpt>
      <trkpt lat="58.32679" lon="-4.43076">
        <ele>210.85</ele>
        <time>2021-03-20T14:41:22Z</time>
      </trkpt>
      <trkpt lat="58.32666" lon="-4.43075">
        <ele>211.3</ele>
        <time>2021-03-20T14:41:27Z</time>
      </trkpt>
      <trkpt lat="58.32652" lon="-4.43078">
        <ele>211.69</ele>
        <time>2021-03-20T14:41:31Z</time>
      </trkpt>
      <trkpt lat="58.32626" lon="-4.43091">
        <ele>211.85</ele>
        <time>2021-03-20T14:41:35Z</time>
      </trkpt>
      <trkpt lat="58.32607" lon="-4.43107">
        <ele>212.15</ele>
        <time>2021-03-20T14:41:39Z</time>
      </trkpt>
      <trkpt lat="58.32571" lon="-4.4312">
        <ele>212.69</ele>
        <time>2021-03-20T14:41:43Z</time>
      </trkpt>
      <trkpt lat="58.32503" lon="-4.43135">
        <ele>211.26</ele>
        <time>2021-03-20T14:41:48Z</time>
      </trkpt>
      <trkpt lat="58.324" lon="-4.43147">
        <ele>208.72</ele>
        <time>2021-03-20T14:41:52Z</time>
      </trkpt>
      <trkpt lat="58.32233" lon="-4.4308">
        <ele>205.62</ele>
        <time>2021-03-20T14:41:56Z</time>
      </trkpt>
      <trkpt lat="58.32143" lon="-4.43055">
        <ele>205.19</ele>
        <time>2021-03-20T14:42:00Z</time>
      </trkpt>
      <trkpt lat="58.32044" lon="-4.43023">
        <ele>202.52</ele>
        <time>2021-03-20T14:42:04Z</time>
      </trkpt>
      <trkpt lat="58.31844" lon="-4.42973">
        <ele>196.34</ele>
        <time>2021-03-20T14:42:09Z</time>
      </trkpt>
      <trkpt lat="58.31717" lon="-4.42907">
        <ele>191.98</ele>
        <time>2021-03-20T14:42:13Z</time>
      </trkpt>
      <trkpt lat="58.31632" lon="-4.42858">
        <ele>186.65</ele>
        <time>2021-03-20T14:42:17Z</time>
      </trkpt>
      <trkpt lat="58.31563" lon="-4.42821">
        <ele>183.71</ele>
        <time>2021-03-20T14:42:21Z</time>
      </trkpt>
      <trkpt lat="58.31479" lon="-4.42759">
        <ele>178.36</ele>
        <time>2021-03-20T14:42:25Z</time>
      </trkpt>
      <trkpt lat="58.31455" lon="-4.42747">
        <ele>176.26</ele>
        <time>2021-03-20T14:42:30Z</time>
      </trkpt>
      <trkpt lat="58.31414" lon="-4.42738">
        <ele>172.27</ele>
        <time>2021-03-20T14:42:34Z</time>
      </trkpt>
      <trkpt lat="58.31368" lon="-4.42745">
        <ele>169.46</ele>
        <time>2021-03-20T14:42:38Z</time>
      </trkpt>
      <trkpt lat="58.31287" lon="-4.42798">
        <ele>164.52</ele>
        <time>2021-03-20T14:42:42Z</time>
      </trkpt>
      <trkpt lat="58.31247" lon="-4.42833">
        <ele>161.78</ele>
        <time>2021-03-20T14:42:46Z</time>
      </trkpt>
      <trkpt lat="58.31199" lon="-4.42887">
        <ele>158.32</ele>
        <time>2021-03-20T14:42:51Z</time>
      </trkpt>
      <trkpt lat="58.31117" lon="-4.42964">
        <ele>153.3</ele>
        <time>2021-03-20T14:42:55Z</time>
      </trkpt>
      <trkpt lat="58.31052" lon="-4.4299">
        <ele>150.73</ele>
        <time>2021-03-20T14:42:59Z</time>
      </trkpt>
      <trkpt lat="58.31035" lon="-4.42983">
        <ele>149.52</ele>
        <time>2021-03-20T14:43:03Z</time>
      </trkpt>
      <trkpt lat="58.30996" lon="-4.42985">
        <ele>147.75</ele>
        <time>2021-03-20T14:43:07Z</time>
      </trkpt>
      <trkpt lat="58.30896" lon="-4.4304">
        <ele>144.11</ele>
        <time>2021-03-20T14:43:12Z</time>
      </trkpt>
      <trkpt lat="58.30765" lon="-4.43122">
        <ele>140.53</ele>
        <time>2021-03-20T14:43:16Z</time>
      </trkpt>
      <trkpt lat="58.30677" lon="-4.43168">
        <ele>137.4</ele>
        <time>2021-03-20T14:43:20Z</time>
      </trkpt>
      <trkpt lat="58.30537" lon="-4.4322">
        <ele>133.32</ele>
        <time>2021-03-20T14:43:24Z</time>
      </trkpt>
      <trkpt lat="58.30496" lon="-4.43246">
        <ele>133.32</ele>
        <time>2021-03-20T14:43:28Z</time>
      </trkpt>
      <trkpt lat="58.30461" lon="-4.43274">
        <ele>133.53</ele>
        <time>2021-03-20T14:43:33Z</time>
      </trkpt>
      <trkpt lat="58.30362" lon="-4.43364">
        <ele>132.87</ele>
        <time>2021-03-20T14:43:37Z</time>
      </trkpt>
      <trkpt lat="58.30315" lon="-4.43414">
        <ele>132.1</ele>
        <time>2021-03-20T14:43:41Z</time>
      </trkpt>
      <trkpt lat="58.30257" lon="-4.43487">
        <ele>131</ele>
        <time>2021-03-20T14:43:45Z</time>
      </trkpt>
      <trkpt lat="58.30236" lon="-4.43516">
        <ele>129.91</ele>
        <time>2021-03-20T14:43:49Z</time>
      </trkpt>
      <trkpt lat="58.30203" lon="-4.43555">
        <ele>129</ele>
        <time>2021-03-20T14:43:54Z</time>
      </trkpt>
      <trkpt lat="58.301" lon="-4.4359">
        <ele>128.9</ele>
        <time>2021-03-20T14:43:58Z</time>
      </trkpt>
      <trkpt lat="58.29881" lon="-4.43677">
        <ele>123</ele>
        <time>2021-03-20T14:44:02Z</time>
      </trkpt>
      <trkpt lat="58.29811" lon="-4.43694">
        <ele>121.18</ele>
        <time>2021-03-20T14:44:06Z</time>
      </trkpt>
      <trkpt lat="58.29618" lon="-4.43752">
        <ele>119.02</ele>
        <time>2021-03-20T14:44:10Z</time>
      </trkpt>
      <trkpt lat="58.29564" lon="-4.43778">
        <ele>117.31</ele>
        <time>2021-03-20T14:44:15Z</time>
      </trkpt>
      <trkpt lat="58.29446" lon="-4.43825">
        <ele>113.06</ele>
        <time>2021-03-20T14:44:19Z</time>
      </trkpt>
      <trkpt lat="58.29362" lon="-4.43871">
        <ele>109.48</ele>
        <time>2021-03-20T14:44:23Z</time>
      </trkpt>
      <trkpt lat="58.29269" lon="-4.43929">
        <ele>104.54</ele>
        <time>2021-03-20T14:44:27Z</time>
      </trkpt>
      <trkpt lat="58.29233" lon="-4.43956">
        <ele>102.14</ele>
        <time>2021-03-20T14:44:31Z</time>
      </trkpt>
      <trkpt lat="58.29113" lon="-4.44066">
        <ele>93.76</ele>
        <time>2021-03-20T14:44:35Z</time>
      </trkpt>
      <trkpt lat="58.29091" lon="-4.4409">
        <ele>91.56</ele>
        <time>2021-03-20T14:44:40Z</time>
      </trkpt>
      <trkpt lat="58.29064" lon="-4.44112">
        <ele>89.63</ele>
        <time>2021-03-20T14:44:44Z</time>
      </trkpt>
      <trkpt lat="58.29004" lon="-4.44166">
        <ele>88.29</ele>
        <time>2021-03-20T14:44:48Z</time>
      </trkpt>
      <trkpt lat="58.28968" lon="-4.44188">
        <ele>87.46</ele>
        <time>2021-03-20T14:44:52Z</time>
      </trkpt>
      <trkpt lat="58.2893" lon="-4.44205">
        <ele>84.63</ele>
        <time>2021-03-20T14:44:56Z</time>
      </trkpt>
      <trkpt lat="58.28842" lon="-4.44202">
        <ele>80.59</ele>
        <time>2021-03-20T14:45:01Z</time>
      </trkpt>
      <trkpt lat="58.28779" lon="-4.44203">
        <ele>80</ele>
        <time>2021-03-20T14:45:05Z</time>
      </trkpt>
      <trkpt lat="58.28748" lon="-4.44214">
        <ele>78.94</ele>
        <time>2021-03-20T14:45:09Z</time>
      </trkpt>
      <trkpt lat="58.2872" lon="-4.44235">
        <ele>77.91</ele>
        <time>2021-03-20T14:45:13Z</time>
      </trkpt>
      <trkpt lat="58.28697" lon="-4.44266">
        <ele>77.09</ele>
        <time>2021-03-20T14:45:17Z</time>
      </trkpt>
      <trkpt lat="58.28671" lon="-4.44311">
        <ele>77</ele>
        <time>2021-03-20T14:45:22Z</time>
      </trkpt>
      <trkpt lat="58.28647" lon="-4.4436">
        <ele>78.67</ele>
        <time>2021-03-20T14:45:26Z</time>
      </trkpt>
      <trkpt lat="58.2862" lon="-4.44402">
        <ele>80.28</ele>
        <time>2021-03-20T14:45:30Z</time>
      </trkpt>
      <trkpt lat="58.28608" lon="-4.44415">
        <ele>80.97</ele>
        <time>2021-03-20T14:45:34Z</time>
      </trkpt>
      <trkpt lat="58.28585" lon="-4.44429">
        <ele>82.82</ele>
        <time>2021-03-20T14:45:38Z</time>
      </trkpt>
      <trkpt lat="58.28558" lon="-4.44429">
        <ele>82.86</ele>
        <time>2021-03-20T14:45:43Z</time>
      </trkpt>
      <trkpt lat="58.28489" lon="-4.44405">
        <ele>83.58</ele>
        <time>2021-03-20T14:45:47Z</time>
      </trkpt>
      <trkpt lat="58.28391" lon="-4.44378">
        <ele>83.56</ele>
        <time>2021-03-20T14:45:51Z</time>
      </trkpt>
      <trkpt lat="58.28292" lon="-4.44361">
        <ele>84.01</ele>
        <time>2021-03-20T14:45:55Z</time>
      </trkpt>
      <trkpt lat="58.28258" lon="-4.44361">
        <ele>84</ele>
        <time>2021-03-20T14:45:59Z</time>
      </trkpt>
      <trkpt lat="58.28193" lon="-4.44376">
        <ele>85.03</ele>
        <time>2021-03-20T14:46:04Z</time>
      </trkpt>
      <trkpt lat="58.2815" lon="-4.44373">
        <ele>84.77</ele>
        <time>2021-03-20T14:46:08Z</time>
      </trkpt>
      <trkpt lat="58.28126" lon="-4.44357">
        <ele>85.32</ele>
        <time>2021-03-20T14:46:12Z</time>
      </trkpt>
      <trkpt lat="58.28109" lon="-4.4433">
        <ele>85.2</ele>
        <time>2021-03-20T14:46:16Z</time>
      </trkpt>
      <trkpt lat="58.28094" lon="-4.44296">
        <ele>87.22</ele>
        <time>2021-03-20T14:46:20Z</time>
      </trkpt>
      <trkpt lat="58.28061" lon="-4.44191">
        <ele>91.87</ele>
        <time>2021-03-20T14:46:25Z</time>
      </trkpt>
      <trkpt lat="58.27916" lon="-4.43698">
        <ele>100.02</ele>
        <time>2021-03-20T14:46:29Z</time>
      </trkpt>
      <trkpt lat="58.27903" lon="-4.43657">
        <ele>100.48</ele>
        <time>2021-03-20T14:46:33Z</time>
      </trkpt>
      <trkpt lat="58.27882" lon="-4.43605">
        <ele>102.65</ele>
        <time>2021-03-20T14:46:37Z</time>
      </trkpt>
      <trkpt lat="58.27867" lon="-4.43574">
        <ele>104.13</ele>
        <time>2021-03-20T14:46:41Z</time>
      </trkpt>
      <trkpt lat="58.27843" lon="-4.43542">
        <ele>105.98</ele>
        <time>2021-03-20T14:46:46Z</time>
      </trkpt>
      <trkpt lat="58.27817" lon="-4.43515">
        <ele>106.41</ele>
        <time>2021-03-20T14:46:50Z</time>
      </trkpt>
      <trkpt lat="58.27791" lon="-4.43504">
        <ele>106.79</ele>
        <time>2021-03-20T14:46:54Z</time>
      </trkpt>
      <trkpt lat="58.27766" lon="-4.43498">
        <ele>107</ele>
        <time>2021-03-20T14:46:58Z</time>
      </trkpt>
      <trkpt lat="58.27619" lon="-4.43488">
        <ele>102.11</ele>
        <time>2021-03-20T14:47:02Z</time>
      </trkpt>
      <trkpt lat="58.27592" lon="-4.43495">
        <ele>101.07</ele>
        <time>2021-03-20T14:47:07Z</time>
      </trkpt>
      <trkpt lat="58.27465" lon="-4.43645">
        <ele>102.8</ele>
        <time>2021-03-20T14:47:11Z</time>
      </trkpt>
      <trkpt lat="58.2743" lon="-4.43691">
        <ele>103.54</ele>
        <time>2021-03-20T14:47:15Z</time>
      </trkpt>
      <trkpt lat="58.27417" lon="-4.43713">
        <ele>103.32</ele>
        <time>2021-03-20T14:47:19Z</time>
      </trkpt>
      <trkpt lat="58.27388" lon="-4.43774">
        <ele>103.31</ele>
        <time>2021-03-20T14:47:23Z</time>
      </trkpt>
      <trkpt lat="58.2737" lon="-4.43806">
        <ele>104.01</ele>
        <time>2021-03-20T14:47:28Z</time>
      </trkpt>
      <trkpt lat="58.27341" lon="-4.4385">
        <ele>101.05</ele>
        <time>2021-03-20T14:47:32Z</time>
      </trkpt>
      <trkpt lat="58.27326" lon="-4.43881">
        <ele>99.3</ele>
        <time>2021-03-20T14:47:36Z</time>
      </trkpt>
      <trkpt lat="58.27308" lon="-4.43989">
        <ele>98.87</ele>
        <time>2021-03-20T14:47:40Z</time>
      </trkpt>
      <trkpt lat="58.27299" lon="-4.4402">
        <ele>99.58</ele>
        <time>2021-03-20T14:47:44Z</time>
      </trkpt>
      <trkpt lat="58.2728" lon="-4.44076">
        <ele>100.61</ele>
        <time>2021-03-20T14:47:49Z</time>
      </trkpt>
      <trkpt lat="58.27255" lon="-4.44129">
        <ele>101.01</ele>
        <time>2021-03-20T14:47:53Z</time>
      </trkpt>
      <trkpt lat="58.27218" lon="-4.4419">
        <ele>100.04</ele>
        <time>2021-03-20T14:47:57Z</time>
      </trkpt>
      <trkpt lat="58.27177" lon="-4.44245">
        <ele>99.75</ele>
        <time>2021-03-20T14:48:01Z</time>
      </trkpt>
      <trkpt lat="58.27155" lon="-4.4427">
        <ele>98.88</ele>
        <time>2021-03-20T14:48:05Z</time>
      </trkpt>
      <trkpt lat="58.27137" lon="-4.44284">
        <ele>98.61</ele>
        <time>2021-03-20T14:48:10Z</time>
      </trkpt>
      <trkpt lat="58.27082" lon="-4.44311">
        <ele>99.31</ele>
        <time>2021-03-20T14:48:14Z</time>
      </trkpt>
      <trkpt lat="58.27065" lon="-4.44324">
        <ele>99.19</ele>
        <time>2021-03-20T14:48:18Z</time>
      </trkpt>
      <trkpt lat="58.27042" lon="-4.44351">
        <ele>100.93</ele>
        <time>2021-03-20T14:48:22Z</time>
      </trkpt>
      <trkpt lat="58.27007" lon="-4.444">
        <ele>102.79</ele>
        <time>2021-03-20T14:48:26Z</time>
      </trkpt>
      <trkpt lat="58.26985" lon="-4.44434">
        <ele>103.6</ele>
        <time>2021-03-20T14:48:31Z</time>
      </trkpt>
      <trkpt lat="58.26955" lon="-4.44503">
        <ele>104.86</ele>
        <time>2021-03-20T14:48:35Z</time>
      </trkpt>
      <trkpt lat="58.26925" lon="-4.44562">
        <ele>105.75</ele>
        <time>2021-03-20T14:48:39Z</time>
      </trkpt>
      <trkpt lat="58.26875" lon="-4.44635">
        <ele>108.64</ele>
        <time>2021-03-20T14:48:43Z</time>
      </trkpt>
      <trkpt lat="58.26823" lon="-4.44692">
        <ele>110.1</ele>
        <time>2021-03-20T14:48:47Z</time>
      </trkpt>
      <trkpt lat="58.26687" lon="-4.44806">
        <ele>111.94</ele>
        <time>2021-03-20T14:48:52Z</time>
      </trkpt>
      <trkpt lat="58.26676" lon="-4.44825">
        <ele>111.86</ele>
        <time>2021-03-20T14:48:56Z</time>
      </trkpt>
      <trkpt lat="58.26648" lon="-4.44886">
        <ele>114.01</ele>
        <time>2021-03-20T14:49:00Z</time>
      </trkpt>
      <trkpt lat="58.26603" lon="-4.4495">
        <ele>116.15</ele>
        <time>2021-03-20T14:49:04Z</time>
      </trkpt>
      <trkpt lat="58.26494" lon="-4.45035">
        <ele>121.82</ele>
        <time>2021-03-20T14:49:08Z</time>
      </trkpt>
      <trkpt lat="58.26395" lon="-4.45127">
        <ele>126.08</ele>
        <time>2021-03-20T14:49:12Z</time>
      </trkpt>
      <trkpt lat="58.26372" lon="-4.45157">
        <ele>127.91</ele>
        <time>2021-03-20T14:49:17Z</time>
      </trkpt>
      <trkpt lat="58.26324" lon="-4.45203">
        <ele>130.43</ele>
        <time>2021-03-20T14:49:21Z</time>
      </trkpt>
      <trkpt lat="58.26233" lon="-4.45275">
        <ele>134.6</ele>
        <time>2021-03-20T14:49:25Z</time>
      </trkpt>
      <trkpt lat="58.2618" lon="-4.45403">
        <ele>141.5</ele>
        <time>2021-03-20T14:49:29Z</time>
      </trkpt>
      <trkpt lat="58.26099" lon="-4.45517">
        <ele>145.21</ele>
        <time>2021-03-20T14:49:33Z</time>
      </trkpt>
      <trkpt lat="58.2607" lon="-4.45612">
        <ele>148.7</ele>
        <time>2021-03-20T14:49:38Z</time>
      </trkpt>
      <trkpt lat="58.26047" lon="-4.45663">
        <ele>151.02</ele>
        <time>2021-03-20T14:49:42Z</time>
      </trkpt>
      <trkpt lat="58.25926" lon="-4.4582">
        <ele>152.7</ele>
        <time>2021-03-20T14:49:46Z</time>
      </trkpt>
      <trkpt lat="58.25863" lon="-4.4589">
        <ele>155.29</ele>
        <time>2021-03-20T14:49:50Z</time>
      </trkpt>
      <trkpt lat="58.25832" lon="-4.45972">
        <ele>156.72</ele>
        <time>2021-03-20T14:49:54Z</time>
      </trkpt>
      <trkpt lat="58.2581" lon="-4.46042">
        <ele>159.3</ele>
        <time>2021-03-20T14:49:59Z</time>
      </trkpt>
      <trkpt lat="58.25755" lon="-4.46121">
        <ele>158.12</ele>
        <time>2021-03-20T14:50:03Z</time>
      </trkpt>
      <trkpt lat="58.25714" lon="-4.46207">
        <ele>159.32</ele>
        <time>2021-03-20T14:50:07Z</time>
      </trkpt>
      <trkpt lat="58.25597" lon="-4.46521">
        <ele>167.6</ele>
        <time>2021-03-20T14:50:11Z</time>
      </trkpt>
      <trkpt lat="58.25588" lon="-4.46542">
        <ele>168.3</ele>
        <time>2021-03-20T14:50:15Z</time>
      </trkpt>
      <trkpt lat="58.25564" lon="-4.46581">
        <ele>168.41</ele>
        <time>2021-03-20T14:50:20Z</time>
      </trkpt>
      <trkpt lat="58.25515" lon="-4.46628">
        <ele>165.34</ele>
        <time>2021-03-20T14:50:24Z</time>
      </trkpt>
      <trkpt lat="58.25454" lon="-4.46704">
        <ele>163.55</ele>
        <time>2021-03-20T14:50:28Z</time>
      </trkpt>
      <trkpt lat="58.25417" lon="-4.4678">
        <ele>164.27</ele>
        <time>2021-03-20T14:50:32Z</time>
      </trkpt>
      <trkpt lat="58.25385" lon="-4.46824">
        <ele>164.44</ele>
        <time>2021-03-20T14:50:36Z</time>
      </trkpt>
      <trkpt lat="58.25354" lon="-4.46856">
        <ele>163.99</ele>
        <time>2021-03-20T14:50:41Z</time>
      </trkpt>
      <trkpt lat="58.2527" lon="-4.46917">
        <ele>163.19</ele>
        <time>2021-03-20T14:50:45Z</time>
      </trkpt>
      <trkpt lat="58.2523" lon="-4.46963">
        <ele>163.77</ele>
        <time>2021-03-20T14:50:49Z</time>
      </trkpt>
      <trkpt lat="58.25064" lon="-4.47134">
        <ele>162.24</ele>
        <time>2021-03-20T14:50:53Z</time>
      </trkpt>
      <trkpt lat="58.24983" lon="-4.47229">
        <ele>160.56</ele>
        <time>2021-03-20T14:50:57Z</time>
      </trkpt>
      <trkpt lat="58.24874" lon="-4.47314">
        <ele>161.04</ele>
        <time>2021-03-20T14:51:02Z</time>
      </trkpt>
      <trkpt lat="58.24811" lon="-4.47349">
        <ele>162.4</ele>
        <time>2021-03-20T14:51:06Z</time>
      </trkpt>
      <trkpt lat="58.24642" lon="-4.47467">
        <ele>163.65</ele>
        <time>2021-03-20T14:51:10Z</time>
      </trkpt>
      <trkpt lat="58.24485" lon="-4.47568">
        <ele>168.28</ele>
        <time>2021-03-20T14:51:14Z</time>
      </trkpt>
      <trkpt lat="58.24441" lon="-4.47606">
        <ele>168.38</ele>
        <time>2021-03-20T14:51:18Z</time>
      </trkpt>
      <trkpt lat="58.24401" lon="-4.47665">
        <ele>170.1</ele>
        <time>2021-03-20T14:51:23Z</time>
      </trkpt>
      <trkpt lat="58.24365" lon="-4.47785">
        <ele>172.88</ele>
        <time>2021-03-20T14:51:27Z</time>
      </trkpt>
      <trkpt lat="58.24303" lon="-4.47906">
        <ele>178.43</ele>
        <time>2021-03-20T14:51:31Z</time>
      </trkpt>
      <trkpt lat="58.24179" lon="-4.47958">
        <ele>178.35</ele>
        <time>2021-03-20T14:51:35Z</time>
      </trkpt>
      <trkpt lat="58.24127" lon="-4.4796">
        <ele>177.26</ele>
        <time>2021-03-20T14:51:39Z</time>
      </trkpt>
      <trkpt lat="58.24064" lon="-4.47949">
        <ele>174.85</ele>
        <time>2021-03-20T14:51:44Z</time>
      </trkpt>
      <trkpt lat="58.23993" lon="-4.47924">
        <ele>172.75</ele>
        <time>2021-03-20T14:51:48Z</time>
      </trkpt>
      <trkpt lat="58.23945" lon="-4.4792">
        <ele>173.34</ele>
        <time>2021-03-20T14:51:52Z</time>
      </trkpt>
      <trkpt lat="58.23849" lon="-4.47965">
        <ele>175.74</ele>
        <time>2021-03-20T14:51:56Z</time>
      </trkpt>
      <trkpt lat="58.2376" lon="-4.48012">
        <ele>178.53</ele>
        <time>2021-03-20T14:52:00Z</time>
      </trkpt>
      <trkpt lat="58.23719" lon="-4.48016">
        <ele>179.35</ele>
        <time>2021-03-20T14:52:05Z</time>
      </trkpt>
      <trkpt lat="58.23674" lon="-4.47994">
        <ele>177.73</ele>
        <time>2021-03-20T14:52:09Z</time>
      </trkpt>
      <trkpt lat="58.23663" lon="-4.47993">
        <ele>177.6</ele>
        <time>2021-03-20T14:52:13Z</time>
      </trkpt>
      <trkpt lat="58.23647" lon="-4.47996">
        <ele>177.14</ele>
        <time>2021-03-20T14:52:17Z</time>
      </trkpt>
      <trkpt lat="58.23633" lon="-4.48005">
        <ele>176.75</ele>
        <time>2021-03-20T14:52:21Z</time>
      </trkpt>
      <trkpt lat="58.23604" lon="-4.48037">
        <ele>175.84</ele>
        <time>2021-03-20T14:52:26Z</time>
      </trkpt>
      <trkpt lat="58.2346" lon="-4.48095">
        <ele>177</ele>
        <time>2021-03-20T14:52:30Z</time>
      </trkpt>
      <trkpt lat="58.23401" lon="-4.48139">
        <ele>176.87</ele>
        <time>2021-03-20T14:52:34Z</time>
      </trkpt>
      <trkpt lat="58.23351" lon="-4.4817">
        <ele>176.91</ele>
        <time>2021-03-20T14:52:38Z</time>
      </trkpt>
      <trkpt lat="58.23294" lon="-4.48211">
        <ele>177.34</ele>
        <time>2021-03-20T14:52:42Z</time>
      </trkpt>
      <trkpt lat="58.23223" lon="-4.48274">
        <ele>176.87</ele>
        <time>2021-03-20T14:52:47Z</time>
      </trkpt>
      <trkpt lat="58.23185" lon="-4.48318">
        <ele>177.12</ele>
        <time>2021-03-20T14:52:51Z</time>
      </trkpt>
      <trkpt lat="58.23157" lon="-4.4837">
        <ele>177.33</ele>
        <time>2021-03-20T14:52:55Z</time>
      </trkpt>
      <trkpt lat="58.23134" lon="-4.48431">
        <ele>178</ele>
        <time>2021-03-20T14:52:59Z</time>
      </trkpt>
      <trkpt lat="58.23044" lon="-4.48612">
        <ele>177.9</ele>
        <time>2021-03-20T14:53:03Z</time>
      </trkpt>
      <trkpt lat="58.22963" lon="-4.48756">
        <ele>178.56</ele>
        <time>2021-03-20T14:53:08Z</time>
      </trkpt>
      <trkpt lat="58.22882" lon="-4.48868">
        <ele>179.72</ele>
        <time>2021-03-20T14:53:12Z</time>
      </trkpt>
      <trkpt lat="58.22774" lon="-4.48981">
        <ele>179.03</ele>
        <time>2021-03-20T14:53:16Z</time>
      </trkpt>
      <trkpt lat="58.22664" lon="-4.49104">
        <ele>181.73</ele>
        <time>2021-03-20T14:53:20Z</time>
      </trkpt>
      <trkpt lat="58.22625" lon="-4.49154">
        <ele>183.02</ele>
        <time>2021-03-20T14:53:24Z</time>
      </trkpt>
      <trkpt lat="58.22586" lon="-4.49212">
        <ele>182.77</ele>
        <time>2021-03-20T14:53:29Z</time>
      </trkpt>
      <trkpt lat="58.2256" lon="-4.49243">
        <ele>183.69</ele>
        <time>2021-03-20T14:53:33Z</time>
      </trkpt>
      <trkpt lat="58.22515" lon="-4.49276">
        <ele>183.45</ele>
        <time>2021-03-20T14:53:37Z</time>
      </trkpt>
      <trkpt lat="58.22465" lon="-4.49289">
        <ele>183.53</ele>
        <time>2021-03-20T14:53:41Z</time>
      </trkpt>
      <trkpt lat="58.22423" lon="-4.49277">
        <ele>181.97</ele>
        <time>2021-03-20T14:53:45Z</time>
      </trkpt>
      <trkpt lat="58.22384" lon="-4.49282">
        <ele>182.14</ele>
        <time>2021-03-20T14:53:49Z</time>
      </trkpt>
      <trkpt lat="58.22339" lon="-4.493">
        <ele>182.61</ele>
        <time>2021-03-20T14:53:54Z</time>
      </trkpt>
      <trkpt lat="58.22285" lon="-4.49326">
        <ele>185.48</ele>
        <time>2021-03-20T14:53:58Z</time>
      </trkpt>
      <trkpt lat="58.22069" lon="-4.4951">
        <ele>185.36</ele>
        <time>2021-03-20T14:54:02Z</time>
      </trkpt>
      <trkpt lat="58.21992" lon="-4.49579">
        <ele>185.83</ele>
        <time>2021-03-20T14:54:06Z</time>
      </trkpt>
      <trkpt lat="58.21948" lon="-4.49607">
        <ele>185.86</ele>
        <time>2021-03-20T14:54:10Z</time>
      </trkpt>
      <trkpt lat="58.21909" lon="-4.49612">
        <ele>186.31</ele>
        <time>2021-03-20T14:54:15Z</time>
      </trkpt>
      <trkpt lat="58.21874" lon="-4.49597">
        <ele>186.51</ele>
        <time>2021-03-20T14:54:19Z</time>
      </trkpt>
      <trkpt lat="58.21845" lon="-4.49593">
        <ele>186.35</ele>
        <time>2021-03-20T14:54:23Z</time>
      </trkpt>
      <trkpt lat="58.21821" lon="-4.49601">
        <ele>187.1</ele>
        <time>2021-03-20T14:54:27Z</time>
      </trkpt>
      <trkpt lat="58.21703" lon="-4.49662">
        <ele>189.84</ele>
        <time>2021-03-20T14:54:31Z</time>
      </trkpt>
      <trkpt lat="58.21645" lon="-4.49677">
        <ele>190.48</ele>
        <time>2021-03-20T14:54:36Z</time>
      </trkpt>
      <trkpt lat="58.21596" lon="-4.49673">
        <ele>190.35</ele>
        <time>2021-03-20T14:54:40Z</time>
      </trkpt>
      <trkpt lat="58.21517" lon="-4.49656">
        <ele>190.99</ele>
        <time>2021-03-20T14:54:44Z</time>
      </trkpt>
      <trkpt lat="58.21495" lon="-4.49654">
        <ele>191.56</ele>
        <time>2021-03-20T14:54:48Z</time>
      </trkpt>
      <trkpt lat="58.21472" lon="-4.49669">
        <ele>192.14</ele>
        <time>2021-03-20T14:54:52Z</time>
      </trkpt>
      <trkpt lat="58.21397" lon="-4.49733">
        <ele>191.52</ele>
        <time>2021-03-20T14:54:57Z</time>
      </trkpt>
      <trkpt lat="58.21373" lon="-4.49737">
        <ele>191.85</ele>
        <time>2021-03-20T14:55:01Z</time>
      </trkpt>
      <trkpt lat="58.21342" lon="-4.49738">
        <ele>192.85</ele>
        <time>2021-03-20T14:55:05Z</time>
      </trkpt>
      <trkpt lat="58.21192" lon="-4.49723">
        <ele>194.04</ele>
        <time>2021-03-20T14:55:09Z</time>
      </trkpt>
      <trkpt lat="58.21105" lon="-4.49752">
        <ele>195.64</ele>
        <time>2021-03-20T14:55:13Z</time>
      </trkpt>
      <trkpt lat="58.21035" lon="-4.49785">
        <ele>194.25</ele>
        <time>2021-03-20T14:55:18Z</time>
      </trkpt>
      <trkpt lat="58.20947" lon="-4.49838">
        <ele>195.16</ele>
        <time>2021-03-20T14:55:22Z</time>
      </trkpt>
      <trkpt lat="58.20873" lon="-4.49893">
        <ele>197.48</ele>
        <time>2021-03-20T14:55:26Z</time>
      </trkpt>
      <trkpt lat="58.20785" lon="-4.49943">
        <ele>202.23</ele>
        <time>2021-03-20T14:55:30Z</time>
      </trkpt>
      <trkpt lat="58.20685" lon="-4.50012">
        <ele>209.79</ele>
        <time>2021-03-20T14:55:34Z</time>
      </trkpt>
      <trkpt lat="58.20579" lon="-4.50154">
        <ele>216.77</ele>
        <time>2021-03-20T14:55:39Z</time>
      </trkpt>
      <trkpt lat="58.20486" lon="-4.50327">
        <ele>221.55</ele>
        <time>2021-03-20T14:55:43Z</time>
      </trkpt>
      <trkpt lat="58.204" lon="-4.50507">
        <ele>228.73</ele>
        <time>2021-03-20T14:55:47Z</time>
      </trkpt>
      <trkpt lat="58.20345" lon="-4.50643">
        <ele>231.76</ele>
        <time>2021-03-20T14:55:51Z</time>
      </trkpt>
      <trkpt lat="58.20311" lon="-4.50745">
        <ele>235.53</ele>
        <time>2021-03-20T14:55:55Z</time>
      </trkpt>
      <trkpt lat="58.20282" lon="-4.50886">
        <ele>241.16</ele>
        <time>2021-03-20T14:56:00Z</time>
      </trkpt>
      <trkpt lat="58.20255" lon="-4.51053">
        <ele>243.27</ele>
        <time>2021-03-20T14:56:04Z</time>
      </trkpt>
      <trkpt lat="58.20231" lon="-4.51139">
        <ele>245.04</ele>
        <time>2021-03-20T14:56:08Z</time>
      </trkpt>
      <trkpt lat="58.20196" lon="-4.51228">
        <ele>249.2</ele>
        <time>2021-03-20T14:56:12Z</time>
      </trkpt>
      <trkpt lat="58.20168" lon="-4.51284">
        <ele>252.21</ele>
        <time>2021-03-20T14:56:16Z</time>
      </trkpt>
      <trkpt lat="58.20137" lon="-4.51357">
        <ele>252.66</ele>
        <time>2021-03-20T14:56:21Z</time>
      </trkpt>
      <trkpt lat="58.2009" lon="-4.51444">
        <ele>255.85</ele>
        <time>2021-03-20T14:56:25Z</time>
      </trkpt>
      <trkpt lat="58.20056" lon="-4.51494">
        <ele>258.33</ele>
        <time>2021-03-20T14:56:29Z</time>
      </trkpt>
      <trkpt lat="58.19993" lon="-4.51577">
        <ele>260.74</ele>
        <time>2021-03-20T14:56:33Z</time>
      </trkpt>
      <trkpt lat="58.19885" lon="-4.51687">
        <ele>263.17</ele>
        <time>2021-03-20T14:56:37Z</time>
      </trkpt>
      <trkpt lat="58.19839" lon="-4.51723">
        <ele>263.73</ele>
        <time>2021-03-20T14:56:42Z</time>
      </trkpt>
      <trkpt lat="58.19781" lon="-4.51745">
        <ele>264.26</ele>
        <time>2021-03-20T14:56:46Z</time>
      </trkpt>
      <trkpt lat="58.19712" lon="-4.51746">
        <ele>263.92</ele>
        <time>2021-03-20T14:56:50Z</time>
      </trkpt>
      <trkpt lat="58.19668" lon="-4.51729">
        <ele>263.57</ele>
        <time>2021-03-20T14:56:54Z</time>
      </trkpt>
      <trkpt lat="58.19539" lon="-4.51621">
        <ele>261.42</ele>
        <time>2021-03-20T14:56:58Z</time>
      </trkpt>
      <trkpt lat="58.19502" lon="-4.51573">
        <ele>260.08</ele>
        <time>2021-03-20T14:57:03Z</time>
      </trkpt>
      <trkpt lat="58.19447" lon="-4.51518">
        <ele>257.51</ele>
        <time>2021-03-20T14:57:07Z</time>
      </trkpt>
      <trkpt lat="58.19418" lon="-4.51495">
        <ele>256.08</ele>
        <time>2021-03-20T14:57:11Z</time>
      </trkpt>
      <trkpt lat="58.194" lon="-4.51484">
        <ele>255.38</ele>
        <time>2021-03-20T14:57:15Z</time>
      </trkpt>
      <trkpt lat="58.19312" lon="-4.51457">
        <ele>252.77</ele>
        <time>2021-03-20T14:57:19Z</time>
      </trkpt>
      <trkpt lat="58.19186" lon="-4.51445">
        <ele>249.66</ele>
        <time>2021-03-20T14:57:24Z</time>
      </trkpt>
      <trkpt lat="58.18976" lon="-4.51435">
        <ele>244.41</ele>
        <time>2021-03-20T14:57:28Z</time>
      </trkpt>
      <trkpt lat="58.18896" lon="-4.51388">
        <ele>241.27</ele>
        <time>2021-03-20T14:57:32Z</time>
      </trkpt>
      <trkpt lat="58.18801" lon="-4.51324">
        <ele>236.28</ele>
        <time>2021-03-20T14:57:36Z</time>
      </trkpt>
      <trkpt lat="58.18739" lon="-4.51278">
        <ele>233.19</ele>
        <time>2021-03-20T14:57:40Z</time>
      </trkpt>
      <trkpt lat="58.18665" lon="-4.51232">
        <ele>229.6</ele>
        <time>2021-03-20T14:57:45Z</time>
      </trkpt>
      <trkpt lat="58.18608" lon="-4.51192">
        <ele>226.96</ele>
        <time>2021-03-20T14:57:49Z</time>
      </trkpt>
      <trkpt lat="58.18571" lon="-4.5117">
        <ele>225.09</ele>
        <time>2021-03-20T14:57:53Z</time>
      </trkpt>
      <trkpt lat="58.18475" lon="-4.51138">
        <ele>220.12</ele>
        <time>2021-03-20T14:57:57Z</time>
      </trkpt>
      <trkpt lat="58.18442" lon="-4.51141">
        <ele>221.2</ele>
        <time>2021-03-20T14:58:01Z</time>
      </trkpt>
      <trkpt lat="58.18382" lon="-4.51184">
        <ele>224.86</ele>
        <time>2021-03-20T14:58:06Z</time>
      </trkpt>
      <trkpt lat="58.18324" lon="-4.51231">
        <ele>227.02</ele>
        <time>2021-03-20T14:58:10Z</time>
      </trkpt>
      <trkpt lat="58.18121" lon="-4.51451">
        <ele>238.06</ele>
        <time>2021-03-20T14:58:14Z</time>
      </trkpt>
      <trkpt lat="58.18035" lon="-4.51519">
        <ele>238.33</ele>
        <time>2021-03-20T14:58:18Z</time>
      </trkpt>
      <trkpt lat="58.17973" lon="-4.5155">
        <ele>238.2</ele>
        <time>2021-03-20T14:58:22Z</time>
      </trkpt>
      <trkpt lat="58.17924" lon="-4.51556">
        <ele>235.28</ele>
        <time>2021-03-20T14:58:26Z</time>
      </trkpt>
      <trkpt lat="58.17876" lon="-4.51538">
        <ele>234.62</ele>
        <time>2021-03-20T14:58:31Z</time>
      </trkpt>
      <trkpt lat="58.17812" lon="-4.5151">
        <ele>234.89</ele>
        <time>2021-03-20T14:58:35Z</time>
      </trkpt>
      <trkpt lat="58.17732" lon="-4.51453">
        <ele>233.06</ele>
        <time>2021-03-20T14:58:39Z</time>
      </trkpt>
      <trkpt lat="58.1755" lon="-4.513">
        <ele>229.05</ele>
        <time>2021-03-20T14:58:43Z</time>
      </trkpt>
      <trkpt lat="58.17483" lon="-4.51224">
        <ele>229.75</ele>
        <time>2021-03-20T14:58:47Z</time>
      </trkpt>
      <trkpt lat="58.17401" lon="-4.51119">
        <ele>227.18</ele>
        <time>2021-03-20T14:58:52Z</time>
      </trkpt>
      <trkpt lat="58.17294" lon="-4.50995">
        <ele>224.79</ele>
        <time>2021-03-20T14:58:56Z</time>
      </trkpt>
      <trkpt lat="58.17173" lon="-4.50842">
        <ele>222.85</ele>
        <time>2021-03-20T14:59:00Z</time>
      </trkpt>
      <trkpt lat="58.16887" lon="-4.50577">
        <ele>213.94</ele>
        <time>2021-03-20T14:59:04Z</time>
      </trkpt>
      <trkpt lat="58.16807" lon="-4.50447">
        <ele>210.13</ele>
        <time>2021-03-20T14:59:08Z</time>
      </trkpt>
      <trkpt lat="58.16741" lon="-4.5029">
        <ele>206.91</ele>
        <time>2021-03-20T14:59:13Z</time>
      </trkpt>
      <trkpt lat="58.16663" lon="-4.50117">
        <ele>203.29</ele>
        <time>2021-03-20T14:59:17Z</time>
      </trkpt>
      <trkpt lat="58.16534" lon="-4.49918">
        <ele>196.22</ele>
        <time>2021-03-20T14:59:21Z</time>
      </trkpt>
      <trkpt lat="58.16434" lon="-4.49771">
        <ele>193.29</ele>
        <time>2021-03-20T14:59:25Z</time>
      </trkpt>
      <trkpt lat="58.16317" lon="-4.49606">
        <ele>194.4</ele>
        <time>2021-03-20T14:59:29Z</time>
      </trkpt>
      <trkpt lat="58.16063" lon="-4.49274">
        <ele>198.14</ele>
        <time>2021-03-20T14:59:34Z</time>
      </trkpt>
      <trkpt lat="58.15911" lon="-4.49139">
        <ele>198.23</ele>
        <time>2021-03-20T14:59:38Z</time>
      </trkpt>
      <trkpt lat="58.15613" lon="-4.48891">
        <ele>203.96</ele>
        <time>2021-03-20T14:59:42Z</time>
      </trkpt>
      <trkpt lat="58.15434" lon="-4.48725">
        <ele>207.44</ele>
        <time>2021-03-20T14:59:46Z</time>
      </trkpt>
      <trkpt lat="58.15319" lon="-4.48603">
        <ele>205.66</ele>
        <time>2021-03-20T14:59:50Z</time>
      </trkpt>
      <trkpt lat="58.15255" lon="-4.48543">
        <ele>205.36</ele>
        <time>2021-03-20T14:59:55Z</time>
      </trkpt>
      <trkpt lat="58.15186" lon="-4.48473">
        <ele>206.35</ele>
        <time>2021-03-20T14:59:59Z</time>
      </trkpt>
      <trkpt lat="58.15147" lon="-4.48426">
        <ele>205.78</ele>
        <time>2021-03-20T15:00:03Z</time>
      </trkpt>
      <trkpt lat="58.14992" lon="-4.48077">
        <ele>205.04</ele>
        <time>2021-03-20T15:00:07Z</time>
      </trkpt>
      <trkpt lat="58.14953" lon="-4.48015">
        <ele>204.55</ele>
        <time>2021-03-20T15:00:11Z</time>
      </trkpt>
      <trkpt lat="58.14888" lon="-4.47927">
        <ele>201.98</ele>
        <time>2021-03-20T15:00:16Z</time>
      </trkpt>
      <trkpt lat="58.14853" lon="-4.47856">
        <ele>203</ele>
        <time>2021-03-20T15:00:20Z</time>
      </trkpt>
      <trkpt lat="58.14769" lon="-4.47598">
        <ele>207.34</ele>
        <time>2021-03-20T15:00:24Z</time>
      </trkpt>
      <trkpt lat="58.14663" lon="-4.47253">
        <ele>203.1</ele>
        <time>2021-03-20T15:00:28Z</time>
      </trkpt>
      <trkpt lat="58.14624" lon="-4.47118">
        <ele>202.84</ele>
        <time>2021-03-20T15:00:32Z</time>
      </trkpt>
      <trkpt lat="58.14611" lon="-4.47075">
        <ele>202.43</ele>
        <time>2021-03-20T15:00:37Z</time>
      </trkpt>
      <trkpt lat="58.14588" lon="-4.47042">
        <ele>201</ele>
        <time>2021-03-20T15:00:41Z</time>
      </trkpt>
      <trkpt lat="58.14563" lon="-4.47022">
        <ele>199.67</ele>
        <time>2021-03-20T15:00:45Z</time>
      </trkpt>
      <trkpt lat="58.14538" lon="-4.47015">
        <ele>198.86</ele>
        <time>2021-03-20T15:00:49Z</time>
      </trkpt>
      <trkpt lat="58.14495" lon="-4.47012">
        <ele>198.1</ele>
        <time>2021-03-20T15:00:53Z</time>
      </trkpt>
      <trkpt lat="58.14406" lon="-4.47019">
        <ele>197.65</ele>
        <time>2021-03-20T15:00:58Z</time>
      </trkpt>
      <trkpt lat="58.14379" lon="-4.46995">
        <ele>198.45</ele>
        <time>2021-03-20T15:01:02Z</time>
      </trkpt>
      <trkpt lat="58.14324" lon="-4.46909">
        <ele>200.19</ele>
        <time>2021-03-20T15:01:06Z</time>
      </trkpt>
      <trkpt lat="58.14302" lon="-4.46879">
        <ele>201.11</ele>
        <time>2021-03-20T15:01:10Z</time>
      </trkpt>
      <trkpt lat="58.14264" lon="-4.46855">
        <ele>199.93</ele>
        <time>2021-03-20T15:01:14Z</time>
      </trkpt>
      <trkpt lat="58.14191" lon="-4.46828">
        <ele>199.97</ele>
        <time>2021-03-20T15:01:19Z</time>
      </trkpt>
      <trkpt lat="58.14132" lon="-4.46798">
        <ele>199.14</ele>
        <time>2021-03-20T15:01:23Z</time>
      </trkpt>
      <trkpt lat="58.14027" lon="-4.46713">
        <ele>199.59</ele>
        <time>2021-03-20T15:01:27Z</time>
      </trkpt>
      <trkpt lat="58.13984" lon="-4.46671">
        <ele>199.82</ele>
        <time>2021-03-20T15:01:31Z</time>
      </trkpt>
      <trkpt lat="58.13949" lon="-4.46613">
        <ele>200.62</ele>
        <time>2021-03-20T15:01:35Z</time>
      </trkpt>
      <trkpt lat="58.139" lon="-4.46522">
        <ele>200.74</ele>
        <time>2021-03-20T15:01:40Z</time>
      </trkpt>
      <trkpt lat="58.1386" lon="-4.46459">
        <ele>197.85</ele>
        <time>2021-03-20T15:01:44Z</time>
      </trkpt>
      <trkpt lat="58.13691" lon="-4.46299">
        <ele>199.15</ele>
        <time>2021-03-20T15:01:48Z</time>
      </trkpt>
      <trkpt lat="58.13575" lon="-4.46285">
        <ele>200.54</ele>
        <time>2021-03-20T15:01:52Z</time>
      </trkpt>
      <trkpt lat="58.1349" lon="-4.46266">
        <ele>201.3</ele>
        <time>2021-03-20T15:01:56Z</time>
      </trkpt>
      <trkpt lat="58.13364" lon="-4.46231">
        <ele>199.36</ele>
        <time>2021-03-20T15:02:01Z</time>
      </trkpt>
      <trkpt lat="58.13319" lon="-4.4621">
        <ele>200.6</ele>
        <time>2021-03-20T15:02:05Z</time>
      </trkpt>
      <trkpt lat="58.13263" lon="-4.46141">
        <ele>200.75</ele>
        <time>2021-03-20T15:02:09Z</time>
      </trkpt>
      <trkpt lat="58.13185" lon="-4.46053">
        <ele>198.15</ele>
        <time>2021-03-20T15:02:13Z</time>
      </trkpt>
      <trkpt lat="58.13082" lon="-4.45961">
        <ele>196.93</ele>
        <time>2021-03-20T15:02:17Z</time>
      </trkpt>
      <trkpt lat="58.12848" lon="-4.45726">
        <ele>191.22</ele>
        <time>2021-03-20T15:02:22Z</time>
      </trkpt>
      <trkpt lat="58.12673" lon="-4.45576">
        <ele>184.74</ele>
        <time>2021-03-20T15:02:26Z</time>
      </trkpt>
      <trkpt lat="58.12612" lon="-4.45511">
        <ele>181.44</ele>
        <time>2021-03-20T15:02:30Z</time>
      </trkpt>
      <trkpt lat="58.12541" lon="-4.45416">
        <ele>178.97</ele>
        <time>2021-03-20T15:02:34Z</time>
      </trkpt>
      <trkpt lat="58.12391" lon="-4.45191">
        <ele>176.8</ele>
        <time>2021-03-20T15:02:38Z</time>
      </trkpt>
      <trkpt lat="58.12333" lon="-4.4509">
        <ele>174.27</ele>
        <time>2021-03-20T15:02:43Z</time>
      </trkpt>
      <trkpt lat="58.12145" lon="-4.44784">
        <ele>169.23</ele>
        <time>2021-03-20T15:02:47Z</time>
      </trkpt>
      <trkpt lat="58.12022" lon="-4.44633">
        <ele>167.16</ele>
        <time>2021-03-20T15:02:51Z</time>
      </trkpt>
      <trkpt lat="58.11893" lon="-4.44486">
        <ele>163.24</ele>
        <time>2021-03-20T15:02:55Z</time>
      </trkpt>
      <trkpt lat="58.11807" lon="-4.44384">
        <ele>162.06</ele>
        <time>2021-03-20T15:02:59Z</time>
      </trkpt>
      <trkpt lat="58.11716" lon="-4.44283">
        <ele>158.81</ele>
        <time>2021-03-20T15:03:03Z</time>
      </trkpt>
      <trkpt lat="58.11646" lon="-4.44202">
        <ele>157.25</ele>
        <time>2021-03-20T15:03:08Z</time>
      </trkpt>
      <trkpt lat="58.11573" lon="-4.44112">
        <ele>154.69</ele>
        <time>2021-03-20T15:03:12Z</time>
      </trkpt>
      <trkpt lat="58.11534" lon="-4.44068">
        <ele>152.67</ele>
        <time>2021-03-20T15:03:16Z</time>
      </trkpt>
      <trkpt lat="58.11488" lon="-4.44039">
        <ele>152</ele>
        <time>2021-03-20T15:03:20Z</time>
      </trkpt>
      <trkpt lat="58.11442" lon="-4.43991">
        <ele>153</ele>
        <time>2021-03-20T15:03:24Z</time>
      </trkpt>
      <trkpt lat="58.11343" lon="-4.43867">
        <ele>152.34</ele>
        <time>2021-03-20T15:03:29Z</time>
      </trkpt>
      <trkpt lat="58.10743" lon="-4.43343">
        <ele>146.76</ele>
        <time>2021-03-20T15:03:33Z</time>
      </trkpt>
      <trkpt lat="58.104" lon="-4.42912">
        <ele>141.57</ele>
        <time>2021-03-20T15:03:37Z</time>
      </trkpt>
      <trkpt lat="58.10246" lon="-4.42722">
        <ele>138.85</ele>
        <time>2021-03-20T15:03:41Z</time>
      </trkpt>
      <trkpt lat="58.10068" lon="-4.42493">
        <ele>142.02</ele>
        <time>2021-03-20T15:03:45Z</time>
      </trkpt>
      <trkpt lat="58.09939" lon="-4.42339">
        <ele>138.62</ele>
        <time>2021-03-20T15:03:50Z</time>
      </trkpt>
      <trkpt lat="58.09898" lon="-4.42301">
        <ele>135.01</ele>
        <time>2021-03-20T15:03:54Z</time>
      </trkpt>
      <trkpt lat="58.09848" lon="-4.42268">
        <ele>134.18</ele>
        <time>2021-03-20T15:03:58Z</time>
      </trkpt>
      <trkpt lat="58.09641" lon="-4.42185">
        <ele>131.32</ele>
        <time>2021-03-20T15:04:02Z</time>
      </trkpt>
      <trkpt lat="58.09416" lon="-4.42099">
        <ele>131</ele>
        <time>2021-03-20T15:04:06Z</time>
      </trkpt>
      <trkpt lat="58.09333" lon="-4.42063">
        <ele>130</ele>
        <time>2021-03-20T15:04:11Z</time>
      </trkpt>
      <trkpt lat="58.0927" lon="-4.42024">
        <ele>130.12</ele>
        <time>2021-03-20T15:04:15Z</time>
      </trkpt>
      <trkpt lat="58.09182" lon="-4.41963">
        <ele>128.69</ele>
        <time>2021-03-20T15:04:19Z</time>
      </trkpt>
      <trkpt lat="58.09162" lon="-4.41934">
        <ele>129</ele>
        <time>2021-03-20T15:04:23Z</time>
      </trkpt>
      <trkpt lat="58.09143" lon="-4.41893">
        <ele>129.85</ele>
        <time>2021-03-20T15:04:27Z</time>
      </trkpt>
      <trkpt lat="58.09115" lon="-4.41856">
        <ele>131.33</ele>
        <time>2021-03-20T15:04:32Z</time>
      </trkpt>
      <trkpt lat="58.09084" lon="-4.41863">
        <ele>131.93</ele>
        <time>2021-03-20T15:04:36Z</time>
      </trkpt>
      <trkpt lat="58.09046" lon="-4.41881">
        <ele>131.3</ele>
        <time>2021-03-20T15:04:40Z</time>
      </trkpt>
      <trkpt lat="58.09008" lon="-4.41923">
        <ele>129.78</ele>
        <time>2021-03-20T15:04:44Z</time>
      </trkpt>
      <trkpt lat="58.08977" lon="-4.4194">
        <ele>130.1</ele>
        <time>2021-03-20T15:04:48Z</time>
      </trkpt>
      <trkpt lat="58.08927" lon="-4.41951">
        <ele>129.75</ele>
        <time>2021-03-20T15:04:53Z</time>
      </trkpt>
      <trkpt lat="58.08879" lon="-4.41954">
        <ele>129.3</ele>
        <time>2021-03-20T15:04:57Z</time>
      </trkpt>
      <trkpt lat="58.08833" lon="-4.41943">
        <ele>129</ele>
        <time>2021-03-20T15:05:01Z</time>
      </trkpt>
      <trkpt lat="58.08712" lon="-4.41862">
        <ele>127.33</ele>
        <time>2021-03-20T15:05:05Z</time>
      </trkpt>
      <trkpt lat="58.08661" lon="-4.41853">
        <ele>129.34</ele>
        <time>2021-03-20T15:05:09Z</time>
      </trkpt>
      <trkpt lat="58.08629" lon="-4.41835">
        <ele>129.2</ele>
        <time>2021-03-20T15:05:14Z</time>
      </trkpt>
      <trkpt lat="58.08563" lon="-4.41743">
        <ele>126.79</ele>
        <time>2021-03-20T15:05:18Z</time>
      </trkpt>
      <trkpt lat="58.08478" lon="-4.41642">
        <ele>127</ele>
        <time>2021-03-20T15:05:22Z</time>
      </trkpt>
      <trkpt lat="58.08277" lon="-4.41519">
        <ele>126.98</ele>
        <time>2021-03-20T15:05:26Z</time>
      </trkpt>
      <trkpt lat="58.08229" lon="-4.41495">
        <ele>126.75</ele>
        <time>2021-03-20T15:05:30Z</time>
      </trkpt>
      <trkpt lat="58.08147" lon="-4.41439">
        <ele>125.29</ele>
        <time>2021-03-20T15:05:35Z</time>
      </trkpt>
      <trkpt lat="58.08114" lon="-4.41432">
        <ele>124.09</ele>
        <time>2021-03-20T15:05:39Z</time>
      </trkpt>
      <trkpt lat="58.0808" lon="-4.41454">
        <ele>122.71</ele>
        <time>2021-03-20T15:05:43Z</time>
      </trkpt>
      <trkpt lat="58.07973" lon="-4.41548">
        <ele>123.98</ele>
        <time>2021-03-20T15:05:47Z</time>
      </trkpt>
      <trkpt lat="58.07948" lon="-4.41552">
        <ele>124</ele>
        <time>2021-03-20T15:05:51Z</time>
      </trkpt>
      <trkpt lat="58.07905" lon="-4.41538">
        <ele>124</ele>
        <time>2021-03-20T15:05:56Z</time>
      </trkpt>
      <trkpt lat="58.07733" lon="-4.41429">
        <ele>122.39</ele>
        <time>2021-03-20T15:06:00Z</time>
      </trkpt>
      <trkpt lat="58.07662" lon="-4.41331">
        <ele>122.72</ele>
        <time>2021-03-20T15:06:04Z</time>
      </trkpt>
      <trkpt lat="58.07606" lon="-4.41277">
        <ele>120.87</ele>
        <time>2021-03-20T15:06:08Z</time>
      </trkpt>
      <trkpt lat="58.07561" lon="-4.41246">
        <ele>121.14</ele>
        <time>2021-03-20T15:06:12Z</time>
      </trkpt>
      <trkpt lat="58.0748" lon="-4.41211">
        <ele>123.81</ele>
        <time>2021-03-20T15:06:17Z</time>
      </trkpt>
      <trkpt lat="58.07425" lon="-4.41212">
        <ele>122.07</ele>
        <time>2021-03-20T15:06:21Z</time>
      </trkpt>
      <trkpt lat="58.07373" lon="-4.41235">
        <ele>122.09</ele>
        <time>2021-03-20T15:06:25Z</time>
      </trkpt>
      <trkpt lat="58.07221" lon="-4.41357">
        <ele>120.36</ele>
        <time>2021-03-20T15:06:29Z</time>
      </trkpt>
      <trkpt lat="58.06989" lon="-4.41448">
        <ele>117.87</ele>
        <time>2021-03-20T15:06:33Z</time>
      </trkpt>
      <trkpt lat="58.06232" lon="-4.41645">
        <ele>108</ele>
        <time>2021-03-20T15:06:38Z</time>
      </trkpt>
      <trkpt lat="58.06053" lon="-4.41714">
        <ele>109.55</ele>
        <time>2021-03-20T15:06:42Z</time>
      </trkpt>
      <trkpt lat="58.05562" lon="-4.41917">
        <ele>100</ele>
        <time>2021-03-20T15:06:46Z</time>
      </trkpt>
      <trkpt lat="58.05459" lon="-4.41954">
        <ele>99.5</ele>
        <time>2021-03-20T15:06:50Z</time>
      </trkpt>
      <trkpt lat="58.04954" lon="-4.42112">
        <ele>97.99</ele>
        <time>2021-03-20T15:06:54Z</time>
      </trkpt>
      <trkpt lat="58.04733" lon="-4.42185">
        <ele>107.56</ele>
        <time>2021-03-20T15:06:59Z</time>
      </trkpt>
      <trkpt lat="58.04645" lon="-4.42216">
        <ele>111.58</ele>
        <time>2021-03-20T15:07:03Z</time>
      </trkpt>
      <trkpt lat="58.04548" lon="-4.42255">
        <ele>110.19</ele>
        <time>2021-03-20T15:07:07Z</time>
      </trkpt>
      <trkpt lat="58.04502" lon="-4.42279">
        <ele>110.11</ele>
        <time>2021-03-20T15:07:11Z</time>
      </trkpt>
      <trkpt lat="58.04376" lon="-4.42367">
        <ele>110.16</ele>
        <time>2021-03-20T15:07:15Z</time>
      </trkpt>
      <trkpt lat="58.04324" lon="-4.4239">
        <ele>107.22</ele>
        <time>2021-03-20T15:07:20Z</time>
      </trkpt>
      <trkpt lat="58.04258" lon="-4.42412">
        <ele>107.18</ele>
        <time>2021-03-20T15:07:24Z</time>
      </trkpt>
      <trkpt lat="58.04101" lon="-4.42455">
        <ele>106.6</ele>
        <time>2021-03-20T15:07:28Z</time>
      </trkpt>
      <trkpt lat="58.03907" lon="-4.42501">
        <ele>107.96</ele>
        <time>2021-03-20T15:07:32Z</time>
      </trkpt>
      <trkpt lat="58.03865" lon="-4.42507">
        <ele>106.44</ele>
        <time>2021-03-20T15:07:36Z</time>
      </trkpt>
      <trkpt lat="58.03837" lon="-4.42499">
        <ele>105.26</ele>
        <time>2021-03-20T15:07:40Z</time>
      </trkpt>
      <trkpt lat="58.03766" lon="-4.42469">
        <ele>103.39</ele>
        <time>2021-03-20T15:07:45Z</time>
      </trkpt>
      <trkpt lat="58.03671" lon="-4.42408">
        <ele>105.88</ele>
        <time>2021-03-20T15:07:49Z</time>
      </trkpt>
      <trkpt lat="58.03615" lon="-4.42356">
        <ele>105.11</ele>
        <time>2021-03-20T15:07:53Z</time>
      </trkpt>
      <trkpt lat="58.03563" lon="-4.42314">
        <ele>105</ele>
        <time>2021-03-20T15:07:57Z</time>
      </trkpt>
      <trkpt lat="58.03526" lon="-4.42276">
        <ele>104.93</ele>
        <time>2021-03-20T15:08:01Z</time>
      </trkpt>
      <trkpt lat="58.03462" lon="-4.42225">
        <ele>102.14</ele>
        <time>2021-03-20T15:08:06Z</time>
      </trkpt>
      <trkpt lat="58.0342" lon="-4.42186">
        <ele>99.93</ele>
        <time>2021-03-20T15:08:10Z</time>
      </trkpt>
      <trkpt lat="58.03385" lon="-4.42142">
        <ele>100.48</ele>
        <time>2021-03-20T15:08:14Z</time>
      </trkpt>
      <trkpt lat="58.03235" lon="-4.41926">
        <ele>99.75</ele>
        <time>2021-03-20T15:08:18Z</time>
      </trkpt>
      <trkpt lat="58.03216" lon="-4.41882">
        <ele>100.23</ele>
        <time>2021-03-20T15:08:22Z</time>
      </trkpt>
      <trkpt lat="58.03203" lon="-4.41826">
        <ele>101.28</ele>
        <time>2021-03-20T15:08:27Z</time>
      </trkpt>
      <trkpt lat="58.03176" lon="-4.41692">
        <ele>99.51</ele>
        <time>2021-03-20T15:08:31Z</time>
      </trkpt>
      <trkpt lat="58.0316" lon="-4.41652">
        <ele>98.58</ele>
        <time>2021-03-20T15:08:35Z</time>
      </trkpt>
      <trkpt lat="58.03105" lon="-4.41533">
        <ele>99.76</ele>
        <time>2021-03-20T15:08:39Z</time>
      </trkpt>
      <trkpt lat="58.03082" lon="-4.41461">
        <ele>100.23</ele>
        <time>2021-03-20T15:08:43Z</time>
      </trkpt>
      <trkpt lat="58.03058" lon="-4.41295">
        <ele>100.58</ele>
        <time>2021-03-20T15:08:48Z</time>
      </trkpt>
      <trkpt lat="58.03037" lon="-4.41212">
        <ele>100.45</ele>
        <time>2021-03-20T15:08:52Z</time>
      </trkpt>
      <trkpt lat="58.03015" lon="-4.41163">
        <ele>100.12</ele>
        <time>2021-03-20T15:08:56Z</time>
      </trkpt>
      <trkpt lat="58.029" lon="-4.4094">
        <ele>91.77</ele>
        <time>2021-03-20T15:09:00Z</time>
      </trkpt>
      <trkpt lat="58.02867" lon="-4.40854">
        <ele>89.89</ele>
        <time>2021-03-20T15:09:04Z</time>
      </trkpt>
      <trkpt lat="58.02856" lon="-4.40814">
        <ele>90.31</ele>
        <time>2021-03-20T15:09:09Z</time>
      </trkpt>
      <trkpt lat="58.02847" lon="-4.40774">
        <ele>91.13</ele>
        <time>2021-03-20T15:09:13Z</time>
      </trkpt>
      <trkpt lat="58.02814" lon="-4.4058">
        <ele>91.68</ele>
        <time>2021-03-20T15:09:17Z</time>
      </trkpt>
      <trkpt lat="58.02802" lon="-4.4052">
        <ele>90.79</ele>
        <time>2021-03-20T15:09:21Z</time>
      </trkpt>
      <trkpt lat="58.0279" lon="-4.4048">
        <ele>90.16</ele>
        <time>2021-03-20T15:09:25Z</time>
      </trkpt>
      <trkpt lat="58.02771" lon="-4.40432">
        <ele>89.94</ele>
        <time>2021-03-20T15:09:30Z</time>
      </trkpt>
      <trkpt lat="58.02705" lon="-4.40322">
        <ele>88.74</ele>
        <time>2021-03-20T15:09:34Z</time>
      </trkpt>
      <trkpt lat="58.02687" lon="-4.40278">
        <ele>88.75</ele>
        <time>2021-03-20T15:09:38Z</time>
      </trkpt>
      <trkpt lat="58.02671" lon="-4.40204">
        <ele>88.14</ele>
        <time>2021-03-20T15:09:42Z</time>
      </trkpt>
      <trkpt lat="58.0266" lon="-4.40167">
        <ele>87.49</ele>
        <time>2021-03-20T15:09:46Z</time>
      </trkpt>
      <trkpt lat="58.02653" lon="-4.40153">
        <ele>87.52</ele>
        <time>2021-03-20T15:09:51Z</time>
      </trkpt>
      <trkpt lat="58.02645" lon="-4.40143">
        <ele>87.28</ele>
        <time>2021-03-20T15:09:55Z</time>
      </trkpt>
      <trkpt lat="58.02636" lon="-4.40139">
        <ele>87.01</ele>
        <time>2021-03-20T15:09:59Z</time>
      </trkpt>
      <trkpt lat="58.02617" lon="-4.4014">
        <ele>86.96</ele>
        <time>2021-03-20T15:10:03Z</time>
      </trkpt>
      <trkpt lat="58.02513" lon="-4.40162">
        <ele>86.73</ele>
        <time>2021-03-20T15:10:07Z</time>
      </trkpt>
      <trkpt lat="58.02455" lon="-4.40184">
        <ele>85.72</ele>
        <time>2021-03-20T15:10:12Z</time>
      </trkpt>
      <trkpt lat="58.02427" lon="-4.40201">
        <ele>86.29</ele>
        <time>2021-03-20T15:10:16Z</time>
      </trkpt>
      <trkpt lat="58.02265" lon="-4.40343">
        <ele>86.45</ele>
        <time>2021-03-20T15:10:20Z</time>
      </trkpt>
      <trkpt lat="58.02219" lon="-4.40381">
        <ele>87.03</ele>
        <time>2021-03-20T15:10:24Z</time>
      </trkpt>
      <trkpt lat="58.02185" lon="-4.40403">
        <ele>86.49</ele>
        <time>2021-03-20T15:10:28Z</time>
      </trkpt>
      <trkpt lat="58.02156" lon="-4.40417">
        <ele>86.38</ele>
        <time>2021-03-20T15:10:33Z</time>
      </trkpt>
      <trkpt lat="58.02136" lon="-4.4042">
        <ele>86.76</ele>
        <time>2021-03-20T15:10:37Z</time>
      </trkpt>
      <trkpt lat="58.02047" lon="-4.40399">
        <ele>86.96</ele>
        <time>2021-03-20T15:10:41Z</time>
      </trkpt>
      <trkpt lat="58.02031" lon="-4.40485">
        <ele>85.89</ele>
        <time>2021-03-20T15:10:45Z</time>
      </trkpt>
      <trkpt lat="58.02026" lon="-4.40499">
        <ele>86</ele>
        <time>2021-03-20T15:10:49Z</time>
      </trkpt>
      <trkpt lat="58.0202" lon="-4.40507">
        <ele>86.27</ele>
        <time>2021-03-20T15:10:53Z</time>
      </trkpt>
      <trkpt lat="58.0201" lon="-4.40515">
        <ele>86.54</ele>
        <time>2021-03-20T15:10:57Z</time>
      </trkpt>
      <trkpt lat="58.01873" lon="-4.40486">
        <ele>88.22</ele>
        <time>2021-03-20T15:11:01Z</time>
      </trkpt>
      <trkpt lat="58.01849" lon="-4.40485">
        <ele>88</ele>
        <time>2021-03-20T15:11:04Z</time>
      </trkpt>
      <trkpt lat="58.01823" lon="-4.40496">
        <ele>87.62</ele>
        <time>2021-03-20T15:11:08Z</time>
      </trkpt>
      <trkpt lat="58.0181" lon="-4.40508">
        <ele>87.43</ele>
        <time>2021-03-20T15:11:12Z</time>
      </trkpt>
      <trkpt lat="58.01795" lon="-4.40525">
        <ele>88.28</ele>
        <time>2021-03-20T15:11:16Z</time>
      </trkpt>
      <trkpt lat="58.01779" lon="-4.40552">
        <ele>88.97</ele>
        <time>2021-03-20T15:11:20Z</time>
      </trkpt>
      <trkpt lat="58.01746" lon="-4.40618">
        <ele>92.11</ele>
        <time>2021-03-20T15:11:24Z</time>
      </trkpt>
      <trkpt lat="58.01731" lon="-4.40641">
        <ele>92</ele>
        <time>2021-03-20T15:11:28Z</time>
      </trkpt>
      <trkpt lat="58.01719" lon="-4.40651">
        <ele>92.24</ele>
        <time>2021-03-20T15:11:32Z</time>
      </trkpt>
      <trkpt lat="58.01703" lon="-4.40656">
        <ele>93.4</ele>
        <time>2021-03-20T15:11:36Z</time>
      </trkpt>
      <trkpt lat="58.01688" lon="-4.40655">
        <ele>94.23</ele>
        <time>2021-03-20T15:11:39Z</time>
      </trkpt>
      <trkpt lat="58.01674" lon="-4.40648">
        <ele>94.75</ele>
        <time>2021-03-20T15:11:43Z</time>
      </trkpt>
      <trkpt lat="58.01509" lon="-4.405">
        <ele>88</ele>
        <time>2021-03-20T15:11:47Z</time>
      </trkpt>
      <trkpt lat="58.01425" lon="-4.40435">
        <ele>87.71</ele>
        <time>2021-03-20T15:11:51Z</time>
      </trkpt>
      <trkpt lat="58.01213" lon="-4.40325">
        <ele>91.01</ele>
        <time>2021-03-20T15:11:55Z</time>
      </trkpt>
      <trkpt lat="58.01195" lon="-4.40326">
        <ele>91.74</ele>
        <time>2021-03-20T15:11:59Z</time>
      </trkpt>
      <trkpt lat="58.01168" lon="-4.4034">
        <ele>92.23</ele>
        <time>2021-03-20T15:12:03Z</time>
      </trkpt>
      <trkpt lat="58.01162" lon="-4.40317">
        <ele>91.39</ele>
        <time>2021-03-20T15:12:06Z</time>
      </trkpt>
      <trkpt lat="58.01148" lon="-4.40293">
        <ele>90.26</ele>
        <time>2021-03-20T15:12:09Z</time>
      </trkpt>
      <trkpt lat="58.01138" lon="-4.40289">
        <ele>89.83</ele>
        <time>2021-03-20T15:12:12Z</time>
      </trkpt>
      <trkpt lat="58.0111" lon="-4.40286">
        <ele>90.31</ele>
        <time>2021-03-20T15:12:15Z</time>
      </trkpt>
      <trkpt lat="58.01062" lon="-4.40287">
        <ele>89.56</ele>
        <time>2021-03-20T15:12:17Z</time>
      </trkpt>
      <trkpt lat="58.01011" lon="-4.40299">
        <ele>88.9</ele>
        <time>2021-03-20T15:12:20Z</time>
      </trkpt>
      <trkpt lat="58.00882" lon="-4.40356">
        <ele>87.57</ele>
        <time>2021-03-20T15:12:23Z</time>
      </trkpt>
      <trkpt lat="58.00802" lon="-4.40395">
        <ele>86.43</ele>
        <time>2021-03-20T15:12:26Z</time>
      </trkpt>
      <trkpt lat="58.00721" lon="-4.40454">
        <ele>86.35</ele>
        <time>2021-03-20T15:12:29Z</time>
      </trkpt>
      <trkpt lat="58.00612" lon="-4.40542">
        <ele>85.55</ele>
        <time>2021-03-20T15:12:32Z</time>
      </trkpt>
      <trkpt lat="58.00518" lon="-4.40609">
        <ele>84.57</ele>
        <time>2021-03-20T15:12:35Z</time>
      </trkpt>
      <trkpt lat="58.00474" lon="-4.40653">
        <ele>83.69</ele>
        <time>2021-03-20T15:12:38Z</time>
      </trkpt>
      <trkpt lat="58.00422" lon="-4.40715">
        <ele>83.16</ele>
        <time>2021-03-20T15:12:41Z</time>
      </trkpt>
      <trkpt lat="58.00354" lon="-4.40759">
        <ele>82.06</ele>
        <time>2021-03-20T15:12:44Z</time>
      </trkpt>
      <trkpt lat="58.00297" lon="-4.40789">
        <ele>81.47</ele>
        <time>2021-03-20T15:12:47Z</time>
      </trkpt>
      <trkpt lat="58.00205" lon="-4.40822">
        <ele>82.56</ele>
        <time>2021-03-20T15:12:50Z</time>
      </trkpt>
      <trkpt lat="58.00183" lon="-4.40833">
        <ele>82.14</ele>
        <time>2021-03-20T15:12:52Z</time>
      </trkpt>
      <trkpt lat="58.00025" lon="-4.409">
        <ele>79.38</ele>
        <time>2021-03-20T15:12:55Z</time>
      </trkpt>
      <trkpt lat="57.99948" lon="-4.40925">
        <ele>77.26</ele>
        <time>2021-03-20T15:12:58Z</time>
      </trkpt>
      <trkpt lat="57.99855" lon="-4.40963">
        <ele>75.65</ele>
        <time>2021-03-20T15:13:01Z</time>
      </trkpt>
      <trkpt lat="57.99807" lon="-4.40978">
        <ele>75.25</ele>
        <time>2021-03-20T15:13:04Z</time>
      </trkpt>
      <trkpt lat="57.99779" lon="-4.40982">
        <ele>76.31</ele>
        <time>2021-03-20T15:13:07Z</time>
      </trkpt>
      <trkpt lat="57.99711" lon="-4.40976">
        <ele>76.58</ele>
        <time>2021-03-20T15:13:10Z</time>
      </trkpt>
      <trkpt lat="57.99679" lon="-4.4098">
        <ele>76</ele>
        <time>2021-03-20T15:13:13Z</time>
      </trkpt>
      <trkpt lat="57.99645" lon="-4.4098">
        <ele>76.21</ele>
        <time>2021-03-20T15:13:16Z</time>
      </trkpt>
      <trkpt lat="57.99583" lon="-4.40971">
        <ele>74.96</ele>
        <time>2021-03-20T15:13:19Z</time>
      </trkpt>
      <trkpt lat="57.99555" lon="-4.40974">
        <ele>73.98</ele>
        <time>2021-03-20T15:13:22Z</time>
      </trkpt>
      <trkpt lat="57.99523" lon="-4.40983">
        <ele>73</ele>
        <time>2021-03-20T15:13:25Z</time>
      </trkpt>
      <trkpt lat="57.99325" lon="-4.4105">
        <ele>74.71</ele>
        <time>2021-03-20T15:13:28Z</time>
      </trkpt>
      <trkpt lat="57.99107" lon="-4.41109">
        <ele>69.84</ele>
        <time>2021-03-20T15:13:30Z</time>
      </trkpt>
      <trkpt lat="57.98971" lon="-4.41132">
        <ele>67.27</ele>
        <time>2021-03-20T15:13:33Z</time>
      </trkpt>
      <trkpt lat="57.98894" lon="-4.41139">
        <ele>67.19</ele>
        <time>2021-03-20T15:13:36Z</time>
      </trkpt>
      <trkpt lat="57.9885" lon="-4.4115">
        <ele>67.39</ele>
        <time>2021-03-20T15:13:39Z</time>
      </trkpt>
      <trkpt lat="57.98815" lon="-4.41172">
        <ele>68</ele>
        <time>2021-03-20T15:13:42Z</time>
      </trkpt>
      <trkpt lat="57.98792" lon="-4.41194">
        <ele>67.5</ele>
        <time>2021-03-20T15:13:45Z</time>
      </trkpt>
      <trkpt lat="57.98759" lon="-4.41234">
        <ele>66.59</ele>
        <time>2021-03-20T15:13:48Z</time>
      </trkpt>
      <trkpt lat="57.98711" lon="-4.413">
        <ele>66.79</ele>
        <time>2021-03-20T15:13:51Z</time>
      </trkpt>
      <trkpt lat="57.98669" lon="-4.41377">
        <ele>67.61</ele>
        <time>2021-03-20T15:13:54Z</time>
      </trkpt>
      <trkpt lat="57.98619" lon="-4.41497">
        <ele>68.72</ele>
        <time>2021-03-20T15:13:57Z</time>
      </trkpt>
      <trkpt lat="57.98591" lon="-4.4158">
        <ele>67.79</ele>
        <time>2021-03-20T15:14:00Z</time>
      </trkpt>
      <trkpt lat="57.98567" lon="-4.41677">
        <ele>66.79</ele>
        <time>2021-03-20T15:14:03Z</time>
      </trkpt>
      <trkpt lat="57.98514" lon="-4.41873">
        <ele>70.45</ele>
        <time>2021-03-20T15:14:05Z</time>
      </trkpt>
      <trkpt lat="57.985" lon="-4.41901">
        <ele>70.45</ele>
        <time>2021-03-20T15:14:08Z</time>
      </trkpt>
      <trkpt lat="57.98483" lon="-4.41906">
        <ele>69.99</ele>
        <time>2021-03-20T15:14:11Z</time>
      </trkpt>
      <trkpt lat="57.9846" lon="-4.419">
        <ele>68.97</ele>
        <time>2021-03-20T15:14:14Z</time>
      </trkpt>
      <trkpt lat="57.98402" lon="-4.41908">
        <ele>68.35</ele>
        <time>2021-03-20T15:14:17Z</time>
      </trkpt>
      <trkpt lat="57.98347" lon="-4.41909">
        <ele>70.25</ele>
        <time>2021-03-20T15:14:20Z</time>
      </trkpt>
      <trkpt lat="57.98326" lon="-4.419">
        <ele>70.47</ele>
        <time>2021-03-20T15:14:23Z</time>
      </trkpt>
      <trkpt lat="57.98288" lon="-4.41867">
        <ele>69.84</ele>
        <time>2021-03-20T15:14:26Z</time>
      </trkpt>
      <trkpt lat="57.98257" lon="-4.41831">
        <ele>70.13</ele>
        <time>2021-03-20T15:14:29Z</time>
      </trkpt>
      <trkpt lat="57.98185" lon="-4.41735">
        <ele>68.04</ele>
        <time>2021-03-20T15:14:32Z</time>
      </trkpt>
      <trkpt lat="57.98146" lon="-4.41676">
        <ele>68.83</ele>
        <time>2021-03-20T15:14:35Z</time>
      </trkpt>
      <trkpt lat="57.98136" lon="-4.41665">
        <ele>69.03</ele>
        <time>2021-03-20T15:14:38Z</time>
      </trkpt>
      <trkpt lat="57.98099" lon="-4.41637">
        <ele>68.5</ele>
        <time>2021-03-20T15:14:41Z</time>
      </trkpt>
      <trkpt lat="57.98057" lon="-4.41599">
        <ele>66.03</ele>
        <time>2021-03-20T15:14:43Z</time>
      </trkpt>
      <trkpt lat="57.98003" lon="-4.41569">
        <ele>63.99</ele>
        <time>2021-03-20T15:14:46Z</time>
      </trkpt>
      <trkpt lat="57.9795" lon="-4.41549">
        <ele>63.82</ele>
        <time>2021-03-20T15:14:49Z</time>
      </trkpt>
      <trkpt lat="57.97754" lon="-4.415">
        <ele>60.87</ele>
        <time>2021-03-20T15:14:52Z</time>
      </trkpt>
      <trkpt lat="57.97607" lon="-4.41519">
        <ele>58.74</ele>
        <time>2021-03-20T15:14:55Z</time>
      </trkpt>
      <trkpt lat="57.97541" lon="-4.41513">
        <ele>58.76</ele>
        <time>2021-03-20T15:14:58Z</time>
      </trkpt>
      <trkpt lat="57.97496" lon="-4.41493">
        <ele>58.74</ele>
        <time>2021-03-20T15:15:01Z</time>
      </trkpt>
      <trkpt lat="57.9746" lon="-4.41488">
        <ele>59.86</ele>
        <time>2021-03-20T15:15:04Z</time>
      </trkpt>
      <trkpt lat="57.97427" lon="-4.41477">
        <ele>60.1</ele>
        <time>2021-03-20T15:15:07Z</time>
      </trkpt>
      <trkpt lat="57.97235" lon="-4.41382">
        <ele>60.3</ele>
        <time>2021-03-20T15:15:10Z</time>
      </trkpt>
      <trkpt lat="57.97185" lon="-4.4136">
        <ele>61.52</ele>
        <time>2021-03-20T15:15:13Z</time>
      </trkpt>
      <trkpt lat="57.97147" lon="-4.41337">
        <ele>60.25</ele>
        <time>2021-03-20T15:15:16Z</time>
      </trkpt>
      <trkpt lat="57.97097" lon="-4.41297">
        <ele>57.62</ele>
        <time>2021-03-20T15:15:18Z</time>
      </trkpt>
      <trkpt lat="57.97021" lon="-4.41254">
        <ele>55.28</ele>
        <time>2021-03-20T15:15:21Z</time>
      </trkpt>
      <trkpt lat="57.97" lon="-4.4125">
        <ele>55</ele>
        <time>2021-03-20T15:15:24Z</time>
      </trkpt>
      <trkpt lat="57.96981" lon="-4.41256">
        <ele>55.62</ele>
        <time>2021-03-20T15:15:27Z</time>
      </trkpt>
      <trkpt lat="57.96962" lon="-4.41254">
        <ele>55.45</ele>
        <time>2021-03-20T15:15:30Z</time>
      </trkpt>
      <trkpt lat="57.96932" lon="-4.41242">
        <ele>54.48</ele>
        <time>2021-03-20T15:15:33Z</time>
      </trkpt>
      <trkpt lat="57.96887" lon="-4.41212">
        <ele>52.32</ele>
        <time>2021-03-20T15:15:36Z</time>
      </trkpt>
      <trkpt lat="57.96849" lon="-4.41197">
        <ele>53.02</ele>
        <time>2021-03-20T15:15:39Z</time>
      </trkpt>
      <trkpt lat="57.96678" lon="-4.41162">
        <ele>47</ele>
        <time>2021-03-20T15:15:42Z</time>
      </trkpt>
      <trkpt lat="57.96637" lon="-4.41148">
        <ele>47.71</ele>
        <time>2021-03-20T15:15:45Z</time>
      </trkpt>
      <trkpt lat="57.96608" lon="-4.4113">
        <ele>49.95</ele>
        <time>2021-03-20T15:15:48Z</time>
      </trkpt>
      <trkpt lat="57.96578" lon="-4.41122">
        <ele>51.32</ele>
        <time>2021-03-20T15:15:51Z</time>
      </trkpt>
      <trkpt lat="57.96552" lon="-4.41109">
        <ele>50.96</ele>
        <time>2021-03-20T15:15:53Z</time>
      </trkpt>
      <trkpt lat="57.96524" lon="-4.41104">
        <ele>51.16</ele>
        <time>2021-03-20T15:15:56Z</time>
      </trkpt>
      <trkpt lat="57.96489" lon="-4.41092">
        <ele>51.21</ele>
        <time>2021-03-20T15:15:59Z</time>
      </trkpt>
      <trkpt lat="57.96464" lon="-4.41078">
        <ele>53.12</ele>
        <time>2021-03-20T15:16:02Z</time>
      </trkpt>
      <trkpt lat="57.96444" lon="-4.41051">
        <ele>52.39</ele>
        <time>2021-03-20T15:16:05Z</time>
      </trkpt>
      <trkpt lat="57.96403" lon="-4.40982">
        <ele>50.56</ele>
        <time>2021-03-20T15:16:08Z</time>
      </trkpt>
      <trkpt lat="57.96315" lon="-4.40872">
        <ele>49.97</ele>
        <time>2021-03-20T15:16:11Z</time>
      </trkpt>
      <trkpt lat="57.96266" lon="-4.40829">
        <ele>49.73</ele>
        <time>2021-03-20T15:16:14Z</time>
      </trkpt>
      <trkpt lat="57.96241" lon="-4.40811">
        <ele>49.77</ele>
        <time>2021-03-20T15:16:17Z</time>
      </trkpt>
      <trkpt lat="57.96188" lon="-4.40798">
        <ele>51.88</ele>
        <time>2021-03-20T15:16:20Z</time>
      </trkpt>
      <trkpt lat="57.96162" lon="-4.40809">
        <ele>54.36</ele>
        <time>2021-03-20T15:16:23Z</time>
      </trkpt>
      <trkpt lat="57.9613" lon="-4.40815">
        <ele>54.07</ele>
        <time>2021-03-20T15:16:26Z</time>
      </trkpt>
      <trkpt lat="57.96103" lon="-4.40812">
        <ele>52.49</ele>
        <time>2021-03-20T15:16:29Z</time>
      </trkpt>
      <trkpt lat="57.96052" lon="-4.40798">
        <ele>53.68</ele>
        <time>2021-03-20T15:16:31Z</time>
      </trkpt>
      <trkpt lat="57.95963" lon="-4.40746">
        <ele>56.21</ele>
        <time>2021-03-20T15:16:34Z</time>
      </trkpt>
      <trkpt lat="57.95924" lon="-4.40728">
        <ele>54</ele>
        <time>2021-03-20T15:16:37Z</time>
      </trkpt>
      <trkpt lat="57.95906" lon="-4.40728">
        <ele>51.6</ele>
        <time>2021-03-20T15:16:40Z</time>
      </trkpt>
      <trkpt lat="57.95897" lon="-4.40733">
        <ele>50.14</ele>
        <time>2021-03-20T15:16:43Z</time>
      </trkpt>
      <trkpt lat="57.95888" lon="-4.40747">
        <ele>49.53</ele>
        <time>2021-03-20T15:16:46Z</time>
      </trkpt>
      <trkpt lat="57.95866" lon="-4.40807">
        <ele>46.38</ele>
        <time>2021-03-20T15:16:49Z</time>
      </trkpt>
      <trkpt lat="57.95847" lon="-4.40847">
        <ele>44.38</ele>
        <time>2021-03-20T15:16:52Z</time>
      </trkpt>
      <trkpt lat="57.95821" lon="-4.40885">
        <ele>46.15</ele>
        <time>2021-03-20T15:16:55Z</time>
      </trkpt>
      <trkpt lat="57.95785" lon="-4.40907">
        <ele>45.17</ele>
        <time>2021-03-20T15:16:58Z</time>
      </trkpt>
      <trkpt lat="57.95764" lon="-4.40914">
        <ele>45.44</ele>
        <time>2021-03-20T15:17:01Z</time>
      </trkpt>
      <trkpt lat="57.95742" lon="-4.40906">
        <ele>44.74</ele>
        <time>2021-03-20T15:17:04Z</time>
      </trkpt>
      <trkpt lat="57.95705" lon="-4.4087">
        <ele>41.28</ele>
        <time>2021-03-20T15:17:06Z</time>
      </trkpt>
      <trkpt lat="57.9566" lon="-4.40848">
        <ele>38.12</ele>
        <time>2021-03-20T15:17:09Z</time>
      </trkpt>
      <trkpt lat="57.95633" lon="-4.40852">
        <ele>38.19</ele>
        <time>2021-03-20T15:17:12Z</time>
      </trkpt>
      <trkpt lat="57.95605" lon="-4.40861">
        <ele>38.52</ele>
        <time>2021-03-20T15:17:15Z</time>
      </trkpt>
      <trkpt lat="57.95581" lon="-4.40864">
        <ele>37.51</ele>
        <time>2021-03-20T15:17:18Z</time>
      </trkpt>
      <trkpt lat="57.95553" lon="-4.40861">
        <ele>38</ele>
        <time>2021-03-20T15:17:21Z</time>
      </trkpt>
      <trkpt lat="57.95531" lon="-4.4085">
        <ele>37.12</ele>
        <time>2021-03-20T15:17:24Z</time>
      </trkpt>
      <trkpt lat="57.95512" lon="-4.40822">
        <ele>36.37</ele>
        <time>2021-03-20T15:17:27Z</time>
      </trkpt>
      <trkpt lat="57.95468" lon="-4.40783">
        <ele>36.74</ele>
        <time>2021-03-20T15:17:30Z</time>
      </trkpt>
      <trkpt lat="57.9543" lon="-4.40768">
        <ele>33.46</ele>
        <time>2021-03-20T15:17:33Z</time>
      </trkpt>
      <trkpt lat="57.95335" lon="-4.40773">
        <ele>33.33</ele>
        <time>2021-03-20T15:17:36Z</time>
      </trkpt>
      <trkpt lat="57.95302" lon="-4.40755">
        <ele>32.77</ele>
        <time>2021-03-20T15:17:39Z</time>
      </trkpt>
      <trkpt lat="57.95251" lon="-4.4072">
        <ele>31.66</ele>
        <time>2021-03-20T15:17:41Z</time>
      </trkpt>
      <trkpt lat="57.95229" lon="-4.40712">
        <ele>32.42</ele>
        <time>2021-03-20T15:17:44Z</time>
      </trkpt>
      <trkpt lat="57.95202" lon="-4.40686">
        <ele>32.66</ele>
        <time>2021-03-20T15:17:47Z</time>
      </trkpt>
      <trkpt lat="57.95174" lon="-4.4062">
        <ele>29.88</ele>
        <time>2021-03-20T15:17:50Z</time>
      </trkpt>
      <trkpt lat="57.9515" lon="-4.4058">
        <ele>30.56</ele>
        <time>2021-03-20T15:17:53Z</time>
      </trkpt>
      <trkpt lat="57.95102" lon="-4.40514">
        <ele>28.47</ele>
        <time>2021-03-20T15:17:56Z</time>
      </trkpt>
      <trkpt lat="57.9504" lon="-4.40455">
        <ele>29.19</ele>
        <time>2021-03-20T15:17:59Z</time>
      </trkpt>
      <trkpt lat="57.95" lon="-4.40398">
        <ele>28.68</ele>
        <time>2021-03-20T15:18:02Z</time>
      </trkpt>
      <trkpt lat="57.94961" lon="-4.40357">
        <ele>28.87</ele>
        <time>2021-03-20T15:18:05Z</time>
      </trkpt>
      <trkpt lat="57.94938" lon="-4.40322">
        <ele>29.05</ele>
        <time>2021-03-20T15:18:08Z</time>
      </trkpt>
      <trkpt lat="57.9492" lon="-4.403">
        <ele>27.78</ele>
        <time>2021-03-20T15:18:11Z</time>
      </trkpt>
      <trkpt lat="57.94903" lon="-4.40293">
        <ele>27.32</ele>
        <time>2021-03-20T15:18:14Z</time>
      </trkpt>
      <trkpt lat="57.9482" lon="-4.40434">
        <ele>21.51</ele>
        <time>2021-03-20T15:18:17Z</time>
      </trkpt>
      <trkpt lat="57.94749" lon="-4.40577">
        <ele>19.25</ele>
        <time>2021-03-20T15:18:19Z</time>
      </trkpt>
      <trkpt lat="57.94715" lon="-4.40599">
        <ele>18.71</ele>
        <time>2021-03-20T15:18:22Z</time>
      </trkpt>
      <trkpt lat="57.94703" lon="-4.40618">
        <ele>20.28</ele>
        <time>2021-03-20T15:18:25Z</time>
      </trkpt>
      <trkpt lat="57.94655" lon="-4.40682">
        <ele>24.72</ele>
        <time>2021-03-20T15:18:28Z</time>
      </trkpt>
      <trkpt lat="57.94629" lon="-4.40705">
        <ele>24.13</ele>
        <time>2021-03-20T15:18:31Z</time>
      </trkpt>
      <trkpt lat="57.94614" lon="-4.40726">
        <ele>24.97</ele>
        <time>2021-03-20T15:18:34Z</time>
      </trkpt>
      <trkpt lat="57.94578" lon="-4.40767">
        <ele>24.07</ele>
        <time>2021-03-20T15:18:37Z</time>
      </trkpt>
      <trkpt lat="57.94512" lon="-4.40868">
        <ele>19.74</ele>
        <time>2021-03-20T15:18:40Z</time>
      </trkpt>
      <trkpt lat="57.94458" lon="-4.40958">
        <ele>16.86</ele>
        <time>2021-03-20T15:18:43Z</time>
      </trkpt>
      <trkpt lat="57.94439" lon="-4.40957">
        <ele>13.86</ele>
        <time>2021-03-20T15:18:44Z</time>
      </trkpt>
      <trkpt lat="57.9441" lon="-4.40872">
        <ele>13.96</ele>
        <time>2021-03-20T15:18:47Z</time>
      </trkpt>
      <trkpt lat="57.94389" lon="-4.40815">
        <ele>19.63</ele>
        <time>2021-03-20T15:18:49Z</time>
      </trkpt>
      <trkpt lat="57.94375" lon="-4.40788">
        <ele>20.32</ele>
        <time>2021-03-20T15:18:52Z</time>
      </trkpt>
      <trkpt lat="57.94357" lon="-4.40763">
        <ele>20.47</ele>
        <time>2021-03-20T15:18:55Z</time>
      </trkpt>
      <trkpt lat="57.94341" lon="-4.40751">
        <ele>20.26</ele>
        <time>2021-03-20T15:18:58Z</time>
      </trkpt>
      <trkpt lat="57.9431" lon="-4.40736">
        <ele>19.67</ele>
        <time>2021-03-20T15:19:01Z</time>
      </trkpt>
      <trkpt lat="57.94267" lon="-4.40722">
        <ele>19.6</ele>
        <time>2021-03-20T15:19:03Z</time>
      </trkpt>
      <trkpt lat="57.94105" lon="-4.40691">
        <ele>18.24</ele>
        <time>2021-03-20T15:19:06Z</time>
      </trkpt>
      <trkpt lat="57.93986" lon="-4.40643">
        <ele>20.36</ele>
        <time>2021-03-20T15:19:09Z</time>
      </trkpt>
      <trkpt lat="57.93872" lon="-4.40568">
        <ele>26.76</ele>
        <time>2021-03-20T15:19:12Z</time>
      </trkpt>
      <trkpt lat="57.93768" lon="-4.4051">
        <ele>26.91</ele>
        <time>2021-03-20T15:19:15Z</time>
      </trkpt>
      <trkpt lat="57.93733" lon="-4.40499">
        <ele>25.86</ele>
        <time>2021-03-20T15:19:17Z</time>
      </trkpt>
      <trkpt lat="57.93668" lon="-4.4049">
        <ele>24.1</ele>
        <time>2021-03-20T15:19:20Z</time>
      </trkpt>
      <trkpt lat="57.93585" lon="-4.40505">
        <ele>23.5</ele>
        <time>2021-03-20T15:19:23Z</time>
      </trkpt>
      <trkpt lat="57.93559" lon="-4.40501">
        <ele>23.02</ele>
        <time>2021-03-20T15:19:26Z</time>
      </trkpt>
      <trkpt lat="57.93541" lon="-4.40496">
        <ele>22.63</ele>
        <time>2021-03-20T15:19:29Z</time>
      </trkpt>
      <trkpt lat="57.93523" lon="-4.40479">
        <ele>22.31</ele>
        <time>2021-03-20T15:19:31Z</time>
      </trkpt>
      <trkpt lat="57.93511" lon="-4.40457">
        <ele>21.71</ele>
        <time>2021-03-20T15:19:34Z</time>
      </trkpt>
      <trkpt lat="57.93506" lon="-4.40435">
        <ele>22.27</ele>
        <time>2021-03-20T15:19:37Z</time>
      </trkpt>
      <trkpt lat="57.93505" lon="-4.40412">
        <ele>23.84</ele>
        <time>2021-03-20T15:19:40Z</time>
      </trkpt>
      <trkpt lat="57.93387" lon="-4.40413">
        <ele>18.45</ele>
        <time>2021-03-20T15:19:46Z</time>
      </trkpt>
      <trkpt lat="57.9332" lon="-4.40404">
        <ele>20.92</ele>
        <time>2021-03-20T15:19:53Z</time>
      </trkpt>
      <trkpt lat="57.93283" lon="-4.40391">
        <ele>20.1</ele>
        <time>2021-03-20T15:20:00Z</time>
      </trkpt>
      <trkpt lat="57.93233" lon="-4.40361">
        <ele>17.19</ele>
        <time>2021-03-20T15:20:06Z</time>
      </trkpt>
      <trkpt lat="57.93097" lon="-4.4021">
        <ele>22.95</ele>
        <time>2021-03-20T15:20:13Z</time>
      </trkpt>
      <trkpt lat="57.93041" lon="-4.40172">
        <ele>20.72</ele>
        <time>2021-03-20T15:20:19Z</time>
      </trkpt>
      <trkpt lat="57.92915" lon="-4.40105">
        <ele>19.07</ele>
        <time>2021-03-20T15:20:26Z</time>
      </trkpt>
      <trkpt lat="57.92799" lon="-4.40049">
        <ele>15</ele>
        <time>2021-03-20T15:20:33Z</time>
      </trkpt>
      <trkpt lat="57.92731" lon="-4.40045">
        <ele>15.26</ele>
        <time>2021-03-20T15:20:39Z</time>
      </trkpt>
      <trkpt lat="57.92681" lon="-4.40058">
        <ele>15.46</ele>
        <time>2021-03-20T15:20:46Z</time>
      </trkpt>
      <trkpt lat="57.92611" lon="-4.40093">
        <ele>14.67</ele>
        <time>2021-03-20T15:20:52Z</time>
      </trkpt>
      <trkpt lat="57.92585" lon="-4.40099">
        <ele>13.89</ele>
        <time>2021-03-20T15:20:59Z</time>
      </trkpt>
      <trkpt lat="57.92546" lon="-4.40098">
        <ele>12.79</ele>
        <time>2021-03-20T15:21:06Z</time>
      </trkpt>
      <trkpt lat="57.92524" lon="-4.40092">
        <ele>12.83</ele>
        <time>2021-03-20T15:21:12Z</time>
      </trkpt>
      <trkpt lat="57.92502" lon="-4.40082">
        <ele>12.31</ele>
        <time>2021-03-20T15:21:19Z</time>
      </trkpt>
      <trkpt lat="57.92472" lon="-4.40061">
        <ele>10.6</ele>
        <time>2021-03-20T15:21:25Z</time>
      </trkpt>
      <trkpt lat="57.92389" lon="-4.39974">
        <ele>7.95</ele>
        <time>2021-03-20T15:21:32Z</time>
      </trkpt>
      <trkpt lat="57.92342" lon="-4.39938">
        <ele>9.56</ele>
        <time>2021-03-20T15:21:39Z</time>
      </trkpt>
      <trkpt lat="57.92292" lon="-4.39915">
        <ele>9.1</ele>
        <time>2021-03-20T15:21:45Z</time>
      </trkpt>
      <trkpt lat="57.92209" lon="-4.39892">
        <ele>7.4</ele>
        <time>2021-03-20T15:21:52Z</time>
      </trkpt>
      <trkpt lat="57.92136" lon="-4.39864">
        <ele>7.86</ele>
        <time>2021-03-20T15:21:58Z</time>
      </trkpt>
      <trkpt lat="57.92012" lon="-4.39798">
        <ele>9.01</ele>
        <time>2021-03-20T15:22:05Z</time>
      </trkpt>
      <trkpt lat="57.9192" lon="-4.39715">
        <ele>12.37</ele>
        <time>2021-03-20T15:22:12Z</time>
      </trkpt>
      <trkpt lat="57.91883" lon="-4.39676">
        <ele>13.47</ele>
        <time>2021-03-20T15:22:18Z</time>
      </trkpt>
      <trkpt lat="57.91846" lon="-4.39613">
        <ele>14.41</ele>
        <time>2021-03-20T15:22:25Z</time>
      </trkpt>
      <trkpt lat="57.91808" lon="-4.39524">
        <ele>15.21</ele>
        <time>2021-03-20T15:22:32Z</time>
      </trkpt>
      <trkpt lat="57.91771" lon="-4.39407">
        <ele>17.14</ele>
        <time>2021-03-20T15:22:38Z</time>
      </trkpt>
      <trkpt lat="57.91728" lon="-4.39277">
        <ele>14.99</ele>
        <time>2021-03-20T15:22:45Z</time>
      </trkpt>
      <trkpt lat="57.91203" lon="-4.37603">
        <ele>11.29</ele>
        <time>2021-03-20T15:22:51Z</time>
      </trkpt>
      <trkpt lat="57.91121" lon="-4.37371">
        <ele>6.34</ele>
        <time>2021-03-20T15:22:58Z</time>
      </trkpt>
      <trkpt lat="57.91077" lon="-4.37298">
        <ele>7.05</ele>
        <time>2021-03-20T15:23:05Z</time>
      </trkpt>
      <trkpt lat="57.91022" lon="-4.37163">
        <ele>9.91</ele>
        <time>2021-03-20T15:23:11Z</time>
      </trkpt>
      <trkpt lat="57.90983" lon="-4.37028">
        <ele>11.79</ele>
        <time>2021-03-20T15:23:18Z</time>
      </trkpt>
      <trkpt lat="57.90949" lon="-4.3687">
        <ele>11.64</ele>
        <time>2021-03-20T15:23:24Z</time>
      </trkpt>
      <trkpt lat="57.90906" lon="-4.36686">
        <ele>13.01</ele>
        <time>2021-03-20T15:23:31Z</time>
      </trkpt>
      <trkpt lat="57.90849" lon="-4.36482">
        <ele>16.87</ele>
        <time>2021-03-20T15:23:38Z</time>
      </trkpt>
      <trkpt lat="57.90802" lon="-4.36345">
        <ele>20.54</ele>
        <time>2021-03-20T15:23:44Z</time>
      </trkpt>
      <trkpt lat="57.9074" lon="-4.362">
        <ele>19.32</ele>
        <time>2021-03-20T15:23:51Z</time>
      </trkpt>
      <trkpt lat="57.90687" lon="-4.36119">
        <ele>19.24</ele>
        <time>2021-03-20T15:23:57Z</time>
      </trkpt>
      <trkpt lat="57.90633" lon="-4.36069">
        <ele>20.81</ele>
        <time>2021-03-20T15:24:04Z</time>
      </trkpt>
      <trkpt lat="57.90523" lon="-4.35973">
        <ele>22.64</ele>
        <time>2021-03-20T15:24:11Z</time>
      </trkpt>
      <trkpt lat="57.90465" lon="-4.35909">
        <ele>22.5</ele>
        <time>2021-03-20T15:24:17Z</time>
      </trkpt>
      <trkpt lat="57.90409" lon="-4.35835">
        <ele>19.8</ele>
        <time>2021-03-20T15:24:24Z</time>
      </trkpt>
      <trkpt lat="57.90143" lon="-4.35453">
        <ele>13.86</ele>
        <time>2021-03-20T15:24:30Z</time>
      </trkpt>
      <trkpt lat="57.90022" lon="-4.35296">
        <ele>13.74</ele>
        <time>2021-03-20T15:24:37Z</time>
      </trkpt>
      <trkpt lat="57.89926" lon="-4.35191">
        <ele>12.87</ele>
        <time>2021-03-20T15:24:44Z</time>
      </trkpt>
      <trkpt lat="57.89767" lon="-4.3503">
        <ele>11.08</ele>
        <time>2021-03-20T15:24:50Z</time>
      </trkpt>
      <trkpt lat="57.89678" lon="-4.34943">
        <ele>12.47</ele>
        <time>2021-03-20T15:24:57Z</time>
      </trkpt>
      <trkpt lat="57.8958" lon="-4.34863">
        <ele>12.94</ele>
        <time>2021-03-20T15:25:03Z</time>
      </trkpt>
      <trkpt lat="57.89507" lon="-4.34809">
        <ele>13.35</ele>
        <time>2021-03-20T15:25:10Z</time>
      </trkpt>
      <trkpt lat="57.89275" lon="-4.34674">
        <ele>13.31</ele>
        <time>2021-03-20T15:25:17Z</time>
      </trkpt>
      <trkpt lat="57.89188" lon="-4.34634">
        <ele>8.3</ele>
        <time>2021-03-20T15:25:23Z</time>
      </trkpt>
      <trkpt lat="57.89176" lon="-4.34636">
        <ele>7.64</ele>
        <time>2021-03-20T15:25:30Z</time>
      </trkpt>
      <trkpt lat="57.89171" lon="-4.3464">
        <ele>7.04</ele>
        <time>2021-03-20T15:25:37Z</time>
      </trkpt>
      <trkpt lat="57.89174" lon="-4.34656">
        <ele>5.87</ele>
        <time>2021-03-20T15:25:42Z</time>
      </trkpt>
      <trkpt lat="57.89172" lon="-4.34683">
        <ele>5.12</ele>
        <time>2021-03-20T15:25:47Z</time>
      </trkpt>
      <trkpt lat="57.89142" lon="-4.34836">
        <ele>3</ele>
        <time>2021-03-20T15:25:53Z</time>
      </trkpt>
      <trkpt lat="57.89123" lon="-4.34922">
        <ele>2.59</ele>
        <time>2021-03-20T15:25:58Z</time>
      </trkpt>
      <trkpt lat="57.89111" lon="-4.34965">
        <ele>2.99</ele>
        <time>2021-03-20T15:26:03Z</time>
      </trkpt>
      <trkpt lat="57.89092" lon="-4.35028">
        <ele>3.71</ele>
        <time>2021-03-20T15:26:09Z</time>
      </trkpt>
      <trkpt lat="57.89061" lon="-4.35103">
        <ele>4</ele>
        <time>2021-03-20T15:26:14Z</time>
      </trkpt>
      <trkpt lat="57.89019" lon="-4.35201">
        <ele>4</ele>
        <time>2021-03-20T15:26:19Z</time>
      </trkpt>
      <trkpt lat="57.8894" lon="-4.35373">
        <ele>2</ele>
        <time>2021-03-20T15:26:25Z</time>
      </trkpt>
      <trkpt lat="57.88886" lon="-4.35485">
        <ele>3</ele>
        <time>2021-03-20T15:26:30Z</time>
      </trkpt>
      <trkpt lat="57.88789" lon="-4.35672">
        <ele>3.4</ele>
        <time>2021-03-20T15:26:36Z</time>
      </trkpt>
      <trkpt lat="57.88701" lon="-4.35822">
        <ele>4</ele>
        <time>2021-03-20T15:26:41Z</time>
      </trkpt>
      <trkpt lat="57.88661" lon="-4.35879">
        <ele>3.8</ele>
        <time>2021-03-20T15:26:46Z</time>
      </trkpt>
      <trkpt lat="57.88635" lon="-4.35913">
        <ele>3.02</ele>
        <time>2021-03-20T15:26:52Z</time>
      </trkpt>
      <trkpt lat="57.886" lon="-4.35953">
        <ele>3.52</ele>
        <time>2021-03-20T15:26:57Z</time>
      </trkpt>
      <trkpt lat="57.88509" lon="-4.3604">
        <ele>5.67</ele>
        <time>2021-03-20T15:27:02Z</time>
      </trkpt>
      <trkpt lat="57.8845" lon="-4.36092">
        <ele>5.18</ele>
        <time>2021-03-20T15:27:08Z</time>
      </trkpt>
      <trkpt lat="57.88393" lon="-4.36133">
        <ele>5.8</ele>
        <time>2021-03-20T15:27:13Z</time>
      </trkpt>
      <trkpt lat="57.88249" lon="-4.36242">
        <ele>9.81</ele>
        <time>2021-03-20T15:27:19Z</time>
      </trkpt>
      <trkpt lat="57.88226" lon="-4.36271">
        <ele>12.49</ele>
        <time>2021-03-20T15:27:24Z</time>
      </trkpt>
      <trkpt lat="57.88187" lon="-4.36311">
        <ele>14.73</ele>
        <time>2021-03-20T15:27:29Z</time>
      </trkpt>
      <trkpt lat="57.88177" lon="-4.36315">
        <ele>14.37</ele>
        <time>2021-03-20T15:27:35Z</time>
      </trkpt>
      <trkpt lat="57.8816" lon="-4.36316">
        <ele>13.76</ele>
        <time>2021-03-20T15:27:40Z</time>
      </trkpt>
      <trkpt lat="57.88145" lon="-4.36311">
        <ele>13.22</ele>
        <time>2021-03-20T15:27:45Z</time>
      </trkpt>
      <trkpt lat="57.88114" lon="-4.36288">
        <ele>13.91</ele>
        <time>2021-03-20T15:27:51Z</time>
      </trkpt>
      <trkpt lat="57.88056" lon="-4.36237">
        <ele>14.49</ele>
        <time>2021-03-20T15:27:56Z</time>
      </trkpt>
      <trkpt lat="57.88021" lon="-4.36198">
        <ele>13.77</ele>
        <time>2021-03-20T15:28:02Z</time>
      </trkpt>
      <trkpt lat="57.87956" lon="-4.36122">
        <ele>13.89</ele>
        <time>2021-03-20T15:28:07Z</time>
      </trkpt>
      <trkpt lat="57.87912" lon="-4.36064">
        <ele>14.8</ele>
        <time>2021-03-20T15:28:12Z</time>
      </trkpt>
      <trkpt lat="57.87855" lon="-4.3599">
        <ele>16.97</ele>
        <time>2021-03-20T15:28:18Z</time>
      </trkpt>
      <trkpt lat="57.87795" lon="-4.35933">
        <ele>19.2</ele>
        <time>2021-03-20T15:28:23Z</time>
      </trkpt>
      <trkpt lat="57.87698" lon="-4.35834">
        <ele>16.9</ele>
        <time>2021-03-20T15:28:28Z</time>
      </trkpt>
      <trkpt lat="57.87617" lon="-4.35755">
        <ele>16.17</ele>
        <time>2021-03-20T15:28:34Z</time>
      </trkpt>
      <trkpt lat="57.87576" lon="-4.35698">
        <ele>14.39</ele>
        <time>2021-03-20T15:28:39Z</time>
      </trkpt>
      <trkpt lat="57.87537" lon="-4.35634">
        <ele>14.15</ele>
        <time>2021-03-20T15:28:45Z</time>
      </trkpt>
      <trkpt lat="57.87465" lon="-4.35492">
        <ele>11.73</ele>
        <time>2021-03-20T15:28:50Z</time>
      </trkpt>
      <trkpt lat="57.87398" lon="-4.35391">
        <ele>10.71</ele>
        <time>2021-03-20T15:28:55Z</time>
      </trkpt>
      <trkpt lat="57.87303" lon="-4.35304">
        <ele>17.21</ele>
        <time>2021-03-20T15:29:01Z</time>
      </trkpt>
      <trkpt lat="57.87269" lon="-4.35269">
        <ele>19.33</ele>
        <time>2021-03-20T15:29:06Z</time>
      </trkpt>
      <trkpt lat="57.87224" lon="-4.3521">
        <ele>18.49</ele>
        <time>2021-03-20T15:29:11Z</time>
      </trkpt>
      <trkpt lat="57.87216" lon="-4.35194">
        <ele>18.47</ele>
        <time>2021-03-20T15:29:17Z</time>
      </trkpt>
      <trkpt lat="57.87197" lon="-4.35142">
        <ele>18.77</ele>
        <time>2021-03-20T15:29:22Z</time>
      </trkpt>
      <trkpt lat="57.87164" lon="-4.35024">
        <ele>20.18</ele>
        <time>2021-03-20T15:29:27Z</time>
      </trkpt>
      <trkpt lat="57.8711" lon="-4.34805">
        <ele>19.1</ele>
        <time>2021-03-20T15:29:33Z</time>
      </trkpt>
      <trkpt lat="57.87059" lon="-4.34574">
        <ele>21.05</ele>
        <time>2021-03-20T15:29:38Z</time>
      </trkpt>
      <trkpt lat="57.87041" lon="-4.34497">
        <ele>20.99</ele>
        <time>2021-03-20T15:29:44Z</time>
      </trkpt>
      <trkpt lat="57.86949" lon="-4.34138">
        <ele>19.88</ele>
        <time>2021-03-20T15:29:49Z</time>
      </trkpt>
      <trkpt lat="57.86909" lon="-4.33974">
        <ele>17.11</ele>
        <time>2021-03-20T15:29:54Z</time>
      </trkpt>
      <trkpt lat="57.86888" lon="-4.33895">
        <ele>17.36</ele>
        <time>2021-03-20T15:30:00Z</time>
      </trkpt>
      <trkpt lat="57.86863" lon="-4.33818">
        <ele>17.28</ele>
        <time>2021-03-20T15:30:05Z</time>
      </trkpt>
      <trkpt lat="57.8672" lon="-4.33435">
        <ele>14.01</ele>
        <time>2021-03-20T15:30:10Z</time>
      </trkpt>
      <trkpt lat="57.86552" lon="-4.33001">
        <ele>16.51</ele>
        <time>2021-03-20T15:30:16Z</time>
      </trkpt>
      <trkpt lat="57.86479" lon="-4.32827">
        <ele>21.03</ele>
        <time>2021-03-20T15:30:21Z</time>
      </trkpt>
      <trkpt lat="57.86448" lon="-4.32758">
        <ele>24.4</ele>
        <time>2021-03-20T15:30:27Z</time>
      </trkpt>
      <trkpt lat="57.86428" lon="-4.32692">
        <ele>24.56</ele>
        <time>2021-03-20T15:30:32Z</time>
      </trkpt>
      <trkpt lat="57.86356" lon="-4.3239">
        <ele>17.61</ele>
        <time>2021-03-20T15:30:37Z</time>
      </trkpt>
      <trkpt lat="57.86325" lon="-4.32294">
        <ele>19.53</ele>
        <time>2021-03-20T15:30:43Z</time>
      </trkpt>
      <trkpt lat="57.86292" lon="-4.32171">
        <ele>17.6</ele>
        <time>2021-03-20T15:30:48Z</time>
      </trkpt>
      <trkpt lat="57.86257" lon="-4.31973">
        <ele>16.68</ele>
        <time>2021-03-20T15:30:53Z</time>
      </trkpt>
      <trkpt lat="57.86215" lon="-4.31853">
        <ele>12.58</ele>
        <time>2021-03-20T15:30:59Z</time>
      </trkpt>
      <trkpt lat="57.86197" lon="-4.3179">
        <ele>8.27</ele>
        <time>2021-03-20T15:31:04Z</time>
      </trkpt>
      <trkpt lat="57.86179" lon="-4.3175">
        <ele>9.23</ele>
        <time>2021-03-20T15:31:10Z</time>
      </trkpt>
      <trkpt lat="57.86097" lon="-4.31656">
        <ele>13.6</ele>
        <time>2021-03-20T15:31:15Z</time>
      </trkpt>
      <trkpt lat="57.86063" lon="-4.31592">
        <ele>11.79</ele>
        <time>2021-03-20T15:31:20Z</time>
      </trkpt>
      <trkpt lat="57.86032" lon="-4.31501">
        <ele>10.48</ele>
        <time>2021-03-20T15:31:26Z</time>
      </trkpt>
      <trkpt lat="57.85999" lon="-4.31443">
        <ele>11.12</ele>
        <time>2021-03-20T15:31:31Z</time>
      </trkpt>
      <trkpt lat="57.85874" lon="-4.31238">
        <ele>14.44</ele>
        <time>2021-03-20T15:31:36Z</time>
      </trkpt>
      <trkpt lat="57.85839" lon="-4.31218">
        <ele>14</ele>
        <time>2021-03-20T15:31:42Z</time>
      </trkpt>
      <trkpt lat="57.85739" lon="-4.31195">
        <ele>13.4</ele>
        <time>2021-03-20T15:31:47Z</time>
      </trkpt>
      <trkpt lat="57.85685" lon="-4.31165">
        <ele>15.67</ele>
        <time>2021-03-20T15:31:52Z</time>
      </trkpt>
      <trkpt lat="57.85654" lon="-4.31142">
        <ele>17.44</ele>
        <time>2021-03-20T15:31:58Z</time>
      </trkpt>
      <trkpt lat="57.85644" lon="-4.31124">
        <ele>17.37</ele>
        <time>2021-03-20T15:32:03Z</time>
      </trkpt>
      <trkpt lat="57.85621" lon="-4.31066">
        <ele>18.03</ele>
        <time>2021-03-20T15:32:09Z</time>
      </trkpt>
      <trkpt lat="57.85517" lon="-4.30745">
        <ele>28.39</ele>
        <time>2021-03-20T15:32:14Z</time>
      </trkpt>
      <trkpt lat="57.85488" lon="-4.30565">
        <ele>27.52</ele>
        <time>2021-03-20T15:32:19Z</time>
      </trkpt>
      <trkpt lat="57.85474" lon="-4.30531">
        <ele>24.29</ele>
        <time>2021-03-20T15:32:25Z</time>
      </trkpt>
      <trkpt lat="57.85456" lon="-4.30508">
        <ele>22.44</ele>
        <time>2021-03-20T15:32:30Z</time>
      </trkpt>
      <trkpt lat="57.85393" lon="-4.30478">
        <ele>23.11</ele>
        <time>2021-03-20T15:32:35Z</time>
      </trkpt>
      <trkpt lat="57.85382" lon="-4.30469">
        <ele>23.76</ele>
        <time>2021-03-20T15:32:41Z</time>
      </trkpt>
      <trkpt lat="57.85376" lon="-4.30473">
        <ele>24.91</ele>
        <time>2021-03-20T15:32:46Z</time>
      </trkpt>
      <trkpt lat="57.85373" lon="-4.30471">
        <ele>25.28</ele>
        <time>2021-03-20T15:32:50Z</time>
      </trkpt>
      <trkpt lat="57.85358" lon="-4.30447">
        <ele>25.68</ele>
        <time>2021-03-20T15:32:55Z</time>
      </trkpt>
      <trkpt lat="57.85312" lon="-4.30345">
        <ele>29.93</ele>
        <time>2021-03-20T15:33:00Z</time>
      </trkpt>
      <trkpt lat="57.85227" lon="-4.30101">
        <ele>43.1</ele>
        <time>2021-03-20T15:33:04Z</time>
      </trkpt>
      <trkpt lat="57.85191" lon="-4.29974">
        <ele>41.51</ele>
        <time>2021-03-20T15:33:09Z</time>
      </trkpt>
      <trkpt lat="57.85164" lon="-4.2987">
        <ele>42.99</ele>
        <time>2021-03-20T15:33:14Z</time>
      </trkpt>
      <trkpt lat="57.85113" lon="-4.29736">
        <ele>46.06</ele>
        <time>2021-03-20T15:33:18Z</time>
      </trkpt>
      <trkpt lat="57.85103" lon="-4.29692">
        <ele>47.41</ele>
        <time>2021-03-20T15:33:23Z</time>
      </trkpt>
      <trkpt lat="57.85086" lon="-4.29525">
        <ele>51.87</ele>
        <time>2021-03-20T15:33:28Z</time>
      </trkpt>
      <trkpt lat="57.85053" lon="-4.29224">
        <ele>55.96</ele>
        <time>2021-03-20T15:33:32Z</time>
      </trkpt>
      <trkpt lat="57.8503" lon="-4.29123">
        <ele>59.91</ele>
        <time>2021-03-20T15:33:37Z</time>
      </trkpt>
      <trkpt lat="57.85" lon="-4.29028">
        <ele>64.89</ele>
        <time>2021-03-20T15:33:42Z</time>
      </trkpt>
      <trkpt lat="57.8496" lon="-4.28958">
        <ele>67.99</ele>
        <time>2021-03-20T15:33:47Z</time>
      </trkpt>
      <trkpt lat="57.84936" lon="-4.28905">
        <ele>70.49</ele>
        <time>2021-03-20T15:33:51Z</time>
      </trkpt>
      <trkpt lat="57.84909" lon="-4.288">
        <ele>68.68</ele>
        <time>2021-03-20T15:33:56Z</time>
      </trkpt>
      <trkpt lat="57.84895" lon="-4.28791">
        <ele>67.43</ele>
        <time>2021-03-20T15:34:01Z</time>
      </trkpt>
      <trkpt lat="57.84875" lon="-4.28801">
        <ele>68.88</ele>
        <time>2021-03-20T15:34:05Z</time>
      </trkpt>
      <trkpt lat="57.84854" lon="-4.28832">
        <ele>76.33</ele>
        <time>2021-03-20T15:34:10Z</time>
      </trkpt>
      <trkpt lat="57.84832" lon="-4.28895">
        <ele>86.38</ele>
        <time>2021-03-20T15:34:15Z</time>
      </trkpt>
      <trkpt lat="57.84811" lon="-4.28934">
        <ele>94.57</ele>
        <time>2021-03-20T15:34:19Z</time>
      </trkpt>
      <trkpt lat="57.84727" lon="-4.29016">
        <ele>102.68</ele>
        <time>2021-03-20T15:34:24Z</time>
      </trkpt>
      <trkpt lat="57.84647" lon="-4.29085">
        <ele>98.63</ele>
        <time>2021-03-20T15:34:29Z</time>
      </trkpt>
      <trkpt lat="57.84562" lon="-4.29226">
        <ele>100.27</ele>
        <time>2021-03-20T15:34:33Z</time>
      </trkpt>
      <trkpt lat="57.84552" lon="-4.2923">
        <ele>98.91</ele>
        <time>2021-03-20T15:34:38Z</time>
      </trkpt>
      <trkpt lat="57.84544" lon="-4.29228">
        <ele>97.29</ele>
        <time>2021-03-20T15:34:43Z</time>
      </trkpt>
      <trkpt lat="57.84542" lon="-4.29212">
        <ele>95.1</ele>
        <time>2021-03-20T15:34:47Z</time>
      </trkpt>
      <trkpt lat="57.84539" lon="-4.29176">
        <ele>91.28</ele>
        <time>2021-03-20T15:34:52Z</time>
      </trkpt>
      <trkpt lat="57.84533" lon="-4.29146">
        <ele>90.04</ele>
        <time>2021-03-20T15:34:57Z</time>
      </trkpt>
      <trkpt lat="57.84521" lon="-4.29114">
        <ele>92.25</ele>
        <time>2021-03-20T15:35:02Z</time>
      </trkpt>
      <trkpt lat="57.84508" lon="-4.29094">
        <ele>95.68</ele>
        <time>2021-03-20T15:35:06Z</time>
      </trkpt>
      <trkpt lat="57.84494" lon="-4.29081">
        <ele>98.57</ele>
        <time>2021-03-20T15:35:11Z</time>
      </trkpt>
      <trkpt lat="57.84428" lon="-4.29055">
        <ele>103.02</ele>
        <time>2021-03-20T15:35:16Z</time>
      </trkpt>
      <trkpt lat="57.84373" lon="-4.29023">
        <ele>109.86</ele>
        <time>2021-03-20T15:35:20Z</time>
      </trkpt>
      <trkpt lat="57.84345" lon="-4.28994">
        <ele>115.45</ele>
        <time>2021-03-20T15:35:25Z</time>
      </trkpt>
      <trkpt lat="57.8433" lon="-4.28945">
        <ele>119.04</ele>
        <time>2021-03-20T15:35:30Z</time>
      </trkpt>
      <trkpt lat="57.84329" lon="-4.28854">
        <ele>120.81</ele>
        <time>2021-03-20T15:35:34Z</time>
      </trkpt>
      <trkpt lat="57.8433" lon="-4.28735">
        <ele>123.42</ele>
        <time>2021-03-20T15:35:39Z</time>
      </trkpt>
      <trkpt lat="57.84313" lon="-4.28426">
        <ele>130.74</ele>
        <time>2021-03-20T15:35:44Z</time>
      </trkpt>
      <trkpt lat="57.84265" lon="-4.27976">
        <ele>146.62</ele>
        <time>2021-03-20T15:35:48Z</time>
      </trkpt>
      <trkpt lat="57.84146" lon="-4.27304">
        <ele>173.23</ele>
        <time>2021-03-20T15:35:53Z</time>
      </trkpt>
      <trkpt lat="57.84115" lon="-4.27171">
        <ele>179.32</ele>
        <time>2021-03-20T15:35:58Z</time>
      </trkpt>
      <trkpt lat="57.84086" lon="-4.27084">
        <ele>183.73</ele>
        <time>2021-03-20T15:36:02Z</time>
      </trkpt>
      <trkpt lat="57.84046" lon="-4.26996">
        <ele>189.73</ele>
        <time>2021-03-20T15:36:07Z</time>
      </trkpt>
      <trkpt lat="57.84" lon="-4.26912">
        <ele>195.83</ele>
        <time>2021-03-20T15:36:12Z</time>
      </trkpt>
      <trkpt lat="57.8395" lon="-4.26863">
        <ele>200.23</ele>
        <time>2021-03-20T15:36:17Z</time>
      </trkpt>
      <trkpt lat="57.83916" lon="-4.2685">
        <ele>203.32</ele>
        <time>2021-03-20T15:36:21Z</time>
      </trkpt>
      <trkpt lat="57.83875" lon="-4.26866">
        <ele>209.34</ele>
        <time>2021-03-20T15:36:26Z</time>
      </trkpt>
      <trkpt lat="57.83851" lon="-4.26881">
        <ele>213.25</ele>
        <time>2021-03-20T15:36:31Z</time>
      </trkpt>
      <trkpt lat="57.83814" lon="-4.26925">
        <ele>217.08</ele>
        <time>2021-03-20T15:36:35Z</time>
      </trkpt>
      <trkpt lat="57.83768" lon="-4.26994">
        <ele>218</ele>
        <time>2021-03-20T15:36:40Z</time>
      </trkpt>
      <trkpt lat="57.83683" lon="-4.27149">
        <ele>217.26</ele>
        <time>2021-03-20T15:36:45Z</time>
      </trkpt>
      <trkpt lat="57.8359" lon="-4.27288">
        <ele>215.4</ele>
        <time>2021-03-20T15:36:49Z</time>
      </trkpt>
      <trkpt lat="57.83404" lon="-4.27403">
        <ele>209.04</ele>
        <time>2021-03-20T15:36:54Z</time>
      </trkpt>
      <trkpt lat="57.83373" lon="-4.27409">
        <ele>209.15</ele>
        <time>2021-03-20T15:36:59Z</time>
      </trkpt>
      <trkpt lat="57.8335" lon="-4.27403">
        <ele>209.65</ele>
        <time>2021-03-20T15:37:03Z</time>
      </trkpt>
      <trkpt lat="57.83301" lon="-4.27353">
        <ele>209.87</ele>
        <time>2021-03-20T15:37:08Z</time>
      </trkpt>
      <trkpt lat="57.8321" lon="-4.27203">
        <ele>208.48</ele>
        <time>2021-03-20T15:37:13Z</time>
      </trkpt>
      <trkpt lat="57.83149" lon="-4.27118">
        <ele>206.88</ele>
        <time>2021-03-20T15:37:17Z</time>
      </trkpt>
      <trkpt lat="57.82953" lon="-4.26907">
        <ele>207.7</ele>
        <time>2021-03-20T15:37:22Z</time>
      </trkpt>
      <trkpt lat="57.82691" lon="-4.26673">
        <ele>209.24</ele>
        <time>2021-03-20T15:37:27Z</time>
      </trkpt>
      <trkpt lat="57.82577" lon="-4.2651">
        <ele>208.68</ele>
        <time>2021-03-20T15:37:32Z</time>
      </trkpt>
      <trkpt lat="57.82498" lon="-4.26359">
        <ele>207.95</ele>
        <time>2021-03-20T15:37:36Z</time>
      </trkpt>
      <trkpt lat="57.82387" lon="-4.26187">
        <ele>207.57</ele>
        <time>2021-03-20T15:37:41Z</time>
      </trkpt>
      <trkpt lat="57.82257" lon="-4.25922">
        <ele>206.36</ele>
        <time>2021-03-20T15:37:46Z</time>
      </trkpt>
      <trkpt lat="57.82201" lon="-4.25817">
        <ele>206.53</ele>
        <time>2021-03-20T15:37:50Z</time>
      </trkpt>
      <trkpt lat="57.82161" lon="-4.25766">
        <ele>206.61</ele>
        <time>2021-03-20T15:37:55Z</time>
      </trkpt>
      <trkpt lat="57.82108" lon="-4.25741">
        <ele>207.15</ele>
        <time>2021-03-20T15:38:00Z</time>
      </trkpt>
      <trkpt lat="57.82018" lon="-4.25711">
        <ele>208.87</ele>
        <time>2021-03-20T15:38:04Z</time>
      </trkpt>
      <trkpt lat="57.81924" lon="-4.2567">
        <ele>210.14</ele>
        <time>2021-03-20T15:38:09Z</time>
      </trkpt>
      <trkpt lat="57.81888" lon="-4.25653">
        <ele>210.03</ele>
        <time>2021-03-20T15:38:14Z</time>
      </trkpt>
      <trkpt lat="57.8179" lon="-4.25573">
        <ele>211.18</ele>
        <time>2021-03-20T15:38:18Z</time>
      </trkpt>
      <trkpt lat="57.81724" lon="-4.25552">
        <ele>212.68</ele>
        <time>2021-03-20T15:38:23Z</time>
      </trkpt>
      <trkpt lat="57.81521" lon="-4.25563">
        <ele>213.29</ele>
        <time>2021-03-20T15:38:28Z</time>
      </trkpt>
      <trkpt lat="57.81232" lon="-4.25613">
        <ele>208.06</ele>
        <time>2021-03-20T15:38:32Z</time>
      </trkpt>
      <trkpt lat="57.81091" lon="-4.25641">
        <ele>204.07</ele>
        <time>2021-03-20T15:38:37Z</time>
      </trkpt>
      <trkpt lat="57.8105" lon="-4.25639">
        <ele>204</ele>
        <time>2021-03-20T15:38:42Z</time>
      </trkpt>
      <trkpt lat="57.81015" lon="-4.25629">
        <ele>204.44</ele>
        <time>2021-03-20T15:38:47Z</time>
      </trkpt>
      <trkpt lat="57.80909" lon="-4.25569">
        <ele>204.04</ele>
        <time>2021-03-20T15:38:51Z</time>
      </trkpt>
      <trkpt lat="57.80532" lon="-4.25095">
        <ele>210.86</ele>
        <time>2021-03-20T15:38:56Z</time>
      </trkpt>
      <trkpt lat="57.79684" lon="-4.24153">
        <ele>211.52</ele>
        <time>2021-03-20T15:39:01Z</time>
      </trkpt>
      <trkpt lat="57.79647" lon="-4.2413">
        <ele>211.39</ele>
        <time>2021-03-20T15:39:05Z</time>
      </trkpt>
      <trkpt lat="57.79598" lon="-4.24109">
        <ele>210.44</ele>
        <time>2021-03-20T15:39:10Z</time>
      </trkpt>
      <trkpt lat="57.79547" lon="-4.24095">
        <ele>207.4</ele>
        <time>2021-03-20T15:39:15Z</time>
      </trkpt>
      <trkpt lat="57.79512" lon="-4.24077">
        <ele>207.93</ele>
        <time>2021-03-20T15:39:19Z</time>
      </trkpt>
      <trkpt lat="57.79476" lon="-4.2403">
        <ele>209.55</ele>
        <time>2021-03-20T15:39:24Z</time>
      </trkpt>
      <trkpt lat="57.79445" lon="-4.23936">
        <ele>210.98</ele>
        <time>2021-03-20T15:39:29Z</time>
      </trkpt>
      <trkpt lat="57.79411" lon="-4.23869">
        <ele>216.78</ele>
        <time>2021-03-20T15:39:33Z</time>
      </trkpt>
      <trkpt lat="57.79379" lon="-4.23846">
        <ele>220.51</ele>
        <time>2021-03-20T15:39:38Z</time>
      </trkpt>
      <trkpt lat="57.79343" lon="-4.23832">
        <ele>221</ele>
        <time>2021-03-20T15:39:43Z</time>
      </trkpt>
      <trkpt lat="57.79258" lon="-4.23861">
        <ele>224</ele>
        <time>2021-03-20T15:39:48Z</time>
      </trkpt>
      <trkpt lat="57.79102" lon="-4.2388">
        <ele>229.91</ele>
        <time>2021-03-20T15:39:52Z</time>
      </trkpt>
      <trkpt lat="57.79026" lon="-4.23905">
        <ele>232.08</ele>
        <time>2021-03-20T15:39:57Z</time>
      </trkpt>
      <trkpt lat="57.78946" lon="-4.23958">
        <ele>232.07</ele>
        <time>2021-03-20T15:40:02Z</time>
      </trkpt>
      <trkpt lat="57.78601" lon="-4.24355">
        <ele>240.72</ele>
        <time>2021-03-20T15:40:06Z</time>
      </trkpt>
      <trkpt lat="57.78565" lon="-4.24381">
        <ele>240.73</ele>
        <time>2021-03-20T15:40:11Z</time>
      </trkpt>
      <trkpt lat="57.78479" lon="-4.244">
        <ele>241.24</ele>
        <time>2021-03-20T15:40:16Z</time>
      </trkpt>
      <trkpt lat="57.78394" lon="-4.24411">
        <ele>241.75</ele>
        <time>2021-03-20T15:40:20Z</time>
      </trkpt>
      <trkpt lat="57.78365" lon="-4.24428">
        <ele>241.99</ele>
        <time>2021-03-20T15:40:25Z</time>
      </trkpt>
      <trkpt lat="57.78336" lon="-4.24455">
        <ele>242.88</ele>
        <time>2021-03-20T15:40:30Z</time>
      </trkpt>
      <trkpt lat="57.78291" lon="-4.24528">
        <ele>242.44</ele>
        <time>2021-03-20T15:40:34Z</time>
      </trkpt>
      <trkpt lat="57.78266" lon="-4.24552">
        <ele>242.35</ele>
        <time>2021-03-20T15:40:39Z</time>
      </trkpt>
      <trkpt lat="57.7823" lon="-4.24569">
        <ele>243.54</ele>
        <time>2021-03-20T15:40:44Z</time>
      </trkpt>
      <trkpt lat="57.78198" lon="-4.24564">
        <ele>242.61</ele>
        <time>2021-03-20T15:40:48Z</time>
      </trkpt>
      <trkpt lat="57.78174" lon="-4.24549">
        <ele>241.54</ele>
        <time>2021-03-20T15:40:53Z</time>
      </trkpt>
      <trkpt lat="57.78098" lon="-4.24439">
        <ele>244.78</ele>
        <time>2021-03-20T15:40:58Z</time>
      </trkpt>
      <trkpt lat="57.7806" lon="-4.24413">
        <ele>243.98</ele>
        <time>2021-03-20T15:41:03Z</time>
      </trkpt>
      <trkpt lat="57.77864" lon="-4.2437">
        <ele>240.72</ele>
        <time>2021-03-20T15:41:07Z</time>
      </trkpt>
      <trkpt lat="57.77632" lon="-4.24376">
        <ele>232.13</ele>
        <time>2021-03-20T15:41:12Z</time>
      </trkpt>
      <trkpt lat="57.77572" lon="-4.24354">
        <ele>229.83</ele>
        <time>2021-03-20T15:41:17Z</time>
      </trkpt>
      <trkpt lat="57.77511" lon="-4.24298">
        <ele>230.06</ele>
        <time>2021-03-20T15:41:21Z</time>
      </trkpt>
      <trkpt lat="57.77281" lon="-4.24247">
        <ele>217.21</ele>
        <time>2021-03-20T15:41:26Z</time>
      </trkpt>
      <trkpt lat="57.77115" lon="-4.24197">
        <ele>207.04</ele>
        <time>2021-03-20T15:41:31Z</time>
      </trkpt>
      <trkpt lat="57.77059" lon="-4.24201">
        <ele>205.26</ele>
        <time>2021-03-20T15:41:35Z</time>
      </trkpt>
      <trkpt lat="57.77019" lon="-4.24236">
        <ele>201.58</ele>
        <time>2021-03-20T15:41:40Z</time>
      </trkpt>
      <trkpt lat="57.76986" lon="-4.24299">
        <ele>198.42</ele>
        <time>2021-03-20T15:41:45Z</time>
      </trkpt>
      <trkpt lat="57.76975" lon="-4.24337">
        <ele>196.8</ele>
        <time>2021-03-20T15:41:49Z</time>
      </trkpt>
      <trkpt lat="57.76964" lon="-4.24403">
        <ele>196.12</ele>
        <time>2021-03-20T15:41:54Z</time>
      </trkpt>
      <trkpt lat="57.76955" lon="-4.24467">
        <ele>195.4</ele>
        <time>2021-03-20T15:41:59Z</time>
      </trkpt>
      <trkpt lat="57.76941" lon="-4.24732">
        <ele>190.96</ele>
        <time>2021-03-20T15:42:03Z</time>
      </trkpt>
      <trkpt lat="57.76942" lon="-4.24904">
        <ele>189.04</ele>
        <time>2021-03-20T15:42:08Z</time>
      </trkpt>
      <trkpt lat="57.76941" lon="-4.25025">
        <ele>186.69</ele>
        <time>2021-03-20T15:42:13Z</time>
      </trkpt>
      <trkpt lat="57.76935" lon="-4.25095">
        <ele>185.94</ele>
        <time>2021-03-20T15:42:18Z</time>
      </trkpt>
      <trkpt lat="57.76925" lon="-4.2516">
        <ele>184.85</ele>
        <time>2021-03-20T15:42:22Z</time>
      </trkpt>
      <trkpt lat="57.76891" lon="-4.25274">
        <ele>184.26</ele>
        <time>2021-03-20T15:42:27Z</time>
      </trkpt>
      <trkpt lat="57.76864" lon="-4.25326">
        <ele>183.23</ele>
        <time>2021-03-20T15:42:32Z</time>
      </trkpt>
      <trkpt lat="57.7684" lon="-4.25347">
        <ele>182.35</ele>
        <time>2021-03-20T15:42:36Z</time>
      </trkpt>
      <trkpt lat="57.76782" lon="-4.2536">
        <ele>181.82</ele>
        <time>2021-03-20T15:42:41Z</time>
      </trkpt>
      <trkpt lat="57.76753" lon="-4.2537">
        <ele>184.73</ele>
        <time>2021-03-20T15:42:46Z</time>
      </trkpt>
      <trkpt lat="57.76746" lon="-4.25373">
        <ele>186.13</ele>
        <time>2021-03-20T15:42:50Z</time>
      </trkpt>
      <trkpt lat="57.76739" lon="-4.25382">
        <ele>187.87</ele>
        <time>2021-03-20T15:42:55Z</time>
      </trkpt>
      <trkpt lat="57.76735" lon="-4.25392">
        <ele>188.69</ele>
        <time>2021-03-20T15:43:00Z</time>
      </trkpt>
      <trkpt lat="57.76733" lon="-4.25405">
        <ele>188.96</ele>
        <time>2021-03-20T15:43:04Z</time>
      </trkpt>
      <trkpt lat="57.76736" lon="-4.25504">
        <ele>188.73</ele>
        <time>2021-03-20T15:43:09Z</time>
      </trkpt>
      <trkpt lat="57.76734" lon="-4.25554">
        <ele>190.64</ele>
        <time>2021-03-20T15:43:14Z</time>
      </trkpt>
      <trkpt lat="57.767" lon="-4.2587">
        <ele>195.37</ele>
        <time>2021-03-20T15:43:18Z</time>
      </trkpt>
      <trkpt lat="57.76681" lon="-4.25998">
        <ele>197.98</ele>
        <time>2021-03-20T15:43:23Z</time>
      </trkpt>
      <trkpt lat="57.76633" lon="-4.26248">
        <ele>204.89</ele>
        <time>2021-03-20T15:43:28Z</time>
      </trkpt>
      <trkpt lat="57.76596" lon="-4.26391">
        <ele>209.78</ele>
        <time>2021-03-20T15:43:33Z</time>
      </trkpt>
      <trkpt lat="57.7656" lon="-4.26478">
        <ele>212.82</ele>
        <time>2021-03-20T15:43:37Z</time>
      </trkpt>
      <trkpt lat="57.76532" lon="-4.26523">
        <ele>211.04</ele>
        <time>2021-03-20T15:43:42Z</time>
      </trkpt>
      <trkpt lat="57.76497" lon="-4.2655">
        <ele>214.46</ele>
        <time>2021-03-20T15:43:47Z</time>
      </trkpt>
      <trkpt lat="57.76391" lon="-4.26566">
        <ele>217.43</ele>
        <time>2021-03-20T15:43:51Z</time>
      </trkpt>
      <trkpt lat="57.7636" lon="-4.26565">
        <ele>217.96</ele>
        <time>2021-03-20T15:43:56Z</time>
      </trkpt>
      <trkpt lat="57.76332" lon="-4.26557">
        <ele>218.92</ele>
        <time>2021-03-20T15:44:01Z</time>
      </trkpt>
      <trkpt lat="57.76287" lon="-4.26531">
        <ele>220.66</ele>
        <time>2021-03-20T15:44:05Z</time>
      </trkpt>
      <trkpt lat="57.76197" lon="-4.26438">
        <ele>221.91</ele>
        <time>2021-03-20T15:44:10Z</time>
      </trkpt>
      <trkpt lat="57.7607" lon="-4.26293">
        <ele>220.41</ele>
        <time>2021-03-20T15:44:15Z</time>
      </trkpt>
      <trkpt lat="57.7601" lon="-4.26248">
        <ele>217.98</ele>
        <time>2021-03-20T15:44:19Z</time>
      </trkpt>
      <trkpt lat="57.75962" lon="-4.26227">
        <ele>218.11</ele>
        <time>2021-03-20T15:44:24Z</time>
      </trkpt>
      <trkpt lat="57.75895" lon="-4.26205">
        <ele>216.04</ele>
        <time>2021-03-20T15:44:29Z</time>
      </trkpt>
      <trkpt lat="57.75745" lon="-4.26186">
        <ele>213.31</ele>
        <time>2021-03-20T15:44:33Z</time>
      </trkpt>
      <trkpt lat="57.75661" lon="-4.26204">
        <ele>208.87</ele>
        <time>2021-03-20T15:44:38Z</time>
      </trkpt>
      <trkpt lat="57.75449" lon="-4.26316">
        <ele>208.98</ele>
        <time>2021-03-20T15:44:43Z</time>
      </trkpt>
      <trkpt lat="57.75384" lon="-4.26366">
        <ele>205.84</ele>
        <time>2021-03-20T15:44:48Z</time>
      </trkpt>
      <trkpt lat="57.75336" lon="-4.26413">
        <ele>205.96</ele>
        <time>2021-03-20T15:44:52Z</time>
      </trkpt>
      <trkpt lat="57.75293" lon="-4.26475">
        <ele>203.59</ele>
        <time>2021-03-20T15:44:57Z</time>
      </trkpt>
      <trkpt lat="57.75252" lon="-4.26526">
        <ele>200.1</ele>
        <time>2021-03-20T15:45:02Z</time>
      </trkpt>
      <trkpt lat="57.7521" lon="-4.26546">
        <ele>200.84</ele>
        <time>2021-03-20T15:45:06Z</time>
      </trkpt>
      <trkpt lat="57.75171" lon="-4.26556">
        <ele>199.97</ele>
        <time>2021-03-20T15:45:11Z</time>
      </trkpt>
      <trkpt lat="57.74993" lon="-4.26563">
        <ele>198.77</ele>
        <time>2021-03-20T15:45:16Z</time>
      </trkpt>
      <trkpt lat="57.74723" lon="-4.26561">
        <ele>191.36</ele>
        <time>2021-03-20T15:45:20Z</time>
      </trkpt>
      <trkpt lat="57.74614" lon="-4.26596">
        <ele>182.17</ele>
        <time>2021-03-20T15:45:25Z</time>
      </trkpt>
      <trkpt lat="57.74562" lon="-4.2661">
        <ele>185.4</ele>
        <time>2021-03-20T15:45:30Z</time>
      </trkpt>
      <trkpt lat="57.74521" lon="-4.26615">
        <ele>189.54</ele>
        <time>2021-03-20T15:45:34Z</time>
      </trkpt>
      <trkpt lat="57.74491" lon="-4.266">
        <ele>188.75</ele>
        <time>2021-03-20T15:45:39Z</time>
      </trkpt>
      <trkpt lat="57.74443" lon="-4.26566">
        <ele>185.06</ele>
        <time>2021-03-20T15:45:44Z</time>
      </trkpt>
      <trkpt lat="57.74348" lon="-4.26513">
        <ele>182.34</ele>
        <time>2021-03-20T15:45:48Z</time>
      </trkpt>
      <trkpt lat="57.74267" lon="-4.26526">
        <ele>179.94</ele>
        <time>2021-03-20T15:45:53Z</time>
      </trkpt>
      <trkpt lat="57.74186" lon="-4.26576">
        <ele>181.12</ele>
        <time>2021-03-20T15:45:58Z</time>
      </trkpt>
      <trkpt lat="57.74145" lon="-4.26612">
        <ele>179.65</ele>
        <time>2021-03-20T15:46:03Z</time>
      </trkpt>
      <trkpt lat="57.74079" lon="-4.26656">
        <ele>177.07</ele>
        <time>2021-03-20T15:46:07Z</time>
      </trkpt>
      <trkpt lat="57.74017" lon="-4.26665">
        <ele>175.86</ele>
        <time>2021-03-20T15:46:12Z</time>
      </trkpt>
      <trkpt lat="57.73959" lon="-4.26666">
        <ele>175.96</ele>
        <time>2021-03-20T15:46:17Z</time>
      </trkpt>
      <trkpt lat="57.73848" lon="-4.26716">
        <ele>174.53</ele>
        <time>2021-03-20T15:46:21Z</time>
      </trkpt>
      <trkpt lat="57.73775" lon="-4.26787">
        <ele>172.83</ele>
        <time>2021-03-20T15:46:26Z</time>
      </trkpt>
      <trkpt lat="57.73748" lon="-4.26854">
        <ele>170.02</ele>
        <time>2021-03-20T15:46:31Z</time>
      </trkpt>
      <trkpt lat="57.73741" lon="-4.26915">
        <ele>167.8</ele>
        <time>2021-03-20T15:46:35Z</time>
      </trkpt>
      <trkpt lat="57.73755" lon="-4.27044">
        <ele>164.57</ele>
        <time>2021-03-20T15:46:40Z</time>
      </trkpt>
      <trkpt lat="57.73748" lon="-4.27103">
        <ele>163.86</ele>
        <time>2021-03-20T15:46:45Z</time>
      </trkpt>
      <trkpt lat="57.73717" lon="-4.27145">
        <ele>163.22</ele>
        <time>2021-03-20T15:46:49Z</time>
      </trkpt>
      <trkpt lat="57.7346" lon="-4.2738">
        <ele>156.55</ele>
        <time>2021-03-20T15:46:54Z</time>
      </trkpt>
      <trkpt lat="57.73027" lon="-4.28065">
        <ele>136.64</ele>
        <time>2021-03-20T15:46:59Z</time>
      </trkpt>
      <trkpt lat="57.72926" lon="-4.28222">
        <ele>134</ele>
        <time>2021-03-20T15:47:03Z</time>
      </trkpt>
      <trkpt lat="57.72877" lon="-4.28293">
        <ele>132.44</ele>
        <time>2021-03-20T15:47:08Z</time>
      </trkpt>
      <trkpt lat="57.72849" lon="-4.28313">
        <ele>132</ele>
        <time>2021-03-20T15:47:13Z</time>
      </trkpt>
      <trkpt lat="57.72804" lon="-4.28336">
        <ele>132.75</ele>
        <time>2021-03-20T15:47:18Z</time>
      </trkpt>
      <trkpt lat="57.72754" lon="-4.28353">
        <ele>128.55</ele>
        <time>2021-03-20T15:47:22Z</time>
      </trkpt>
      <trkpt lat="57.72666" lon="-4.28365">
        <ele>124.85</ele>
        <time>2021-03-20T15:47:27Z</time>
      </trkpt>
      <trkpt lat="57.72642" lon="-4.28375">
        <ele>124.49</ele>
        <time>2021-03-20T15:47:32Z</time>
      </trkpt>
      <trkpt lat="57.72599" lon="-4.28403">
        <ele>123.66</ele>
        <time>2021-03-20T15:47:36Z</time>
      </trkpt>
      <trkpt lat="57.72494" lon="-4.28489">
        <ele>122.4</ele>
        <time>2021-03-20T15:47:41Z</time>
      </trkpt>
      <trkpt lat="57.72455" lon="-4.28516">
        <ele>124.35</ele>
        <time>2021-03-20T15:47:46Z</time>
      </trkpt>
      <trkpt lat="57.7241" lon="-4.28538">
        <ele>123.65</ele>
        <time>2021-03-20T15:47:50Z</time>
      </trkpt>
      <trkpt lat="57.72381" lon="-4.28528">
        <ele>123.72</ele>
        <time>2021-03-20T15:47:55Z</time>
      </trkpt>
      <trkpt lat="57.72358" lon="-4.28516">
        <ele>123.69</ele>
        <time>2021-03-20T15:48:00Z</time>
      </trkpt>
      <trkpt lat="57.72332" lon="-4.28492">
        <ele>124.12</ele>
        <time>2021-03-20T15:48:04Z</time>
      </trkpt>
      <trkpt lat="57.72299" lon="-4.28446">
        <ele>123.15</ele>
        <time>2021-03-20T15:48:09Z</time>
      </trkpt>
      <trkpt lat="57.72193" lon="-4.28289">
        <ele>119.13</ele>
        <time>2021-03-20T15:48:14Z</time>
      </trkpt>
      <trkpt lat="57.7216" lon="-4.28243">
        <ele>118.8</ele>
        <time>2021-03-20T15:48:18Z</time>
      </trkpt>
      <trkpt lat="57.72125" lon="-4.28206">
        <ele>118.86</ele>
        <time>2021-03-20T15:48:23Z</time>
      </trkpt>
      <trkpt lat="57.7209" lon="-4.28174">
        <ele>118.23</ele>
        <time>2021-03-20T15:48:28Z</time>
      </trkpt>
      <trkpt lat="57.7205" lon="-4.2815">
        <ele>116.42</ele>
        <time>2021-03-20T15:48:33Z</time>
      </trkpt>
      <trkpt lat="57.72023" lon="-4.28137">
        <ele>118.12</ele>
        <time>2021-03-20T15:48:37Z</time>
      </trkpt>
      <trkpt lat="57.71945" lon="-4.28111">
        <ele>119.11</ele>
        <time>2021-03-20T15:48:42Z</time>
      </trkpt>
      <trkpt lat="57.71864" lon="-4.2805">
        <ele>114.32</ele>
        <time>2021-03-20T15:48:47Z</time>
      </trkpt>
      <trkpt lat="57.71772" lon="-4.2801">
        <ele>105.61</ele>
        <time>2021-03-20T15:48:51Z</time>
      </trkpt>
      <trkpt lat="57.71629" lon="-4.27999">
        <ele>91.36</ele>
        <time>2021-03-20T15:48:56Z</time>
      </trkpt>
      <trkpt lat="57.71573" lon="-4.28022">
        <ele>82.76</ele>
        <time>2021-03-20T15:49:01Z</time>
      </trkpt>
      <trkpt lat="57.71507" lon="-4.27989">
        <ele>74.16</ele>
        <time>2021-03-20T15:49:05Z</time>
      </trkpt>
      <trkpt lat="57.71466" lon="-4.28012">
        <ele>64.8</ele>
        <time>2021-03-20T15:49:10Z</time>
      </trkpt>
      <trkpt lat="57.71415" lon="-4.2807">
        <ele>59.38</ele>
        <time>2021-03-20T15:49:15Z</time>
      </trkpt>
      <trkpt lat="57.71389" lon="-4.28123">
        <ele>58.41</ele>
        <time>2021-03-20T15:49:19Z</time>
      </trkpt>
      <trkpt lat="57.71372" lon="-4.28175">
        <ele>58.81</ele>
        <time>2021-03-20T15:49:24Z</time>
      </trkpt>
      <trkpt lat="57.71373" lon="-4.28281">
        <ele>69.34</ele>
        <time>2021-03-20T15:49:29Z</time>
      </trkpt>
      <trkpt lat="57.71363" lon="-4.28317">
        <ele>77.84</ele>
        <time>2021-03-20T15:49:34Z</time>
      </trkpt>
      <trkpt lat="57.71334" lon="-4.28322">
        <ele>83.71</ele>
        <time>2021-03-20T15:49:38Z</time>
      </trkpt>
      <trkpt lat="57.7131" lon="-4.2831">
        <ele>84.53</ele>
        <time>2021-03-20T15:49:43Z</time>
      </trkpt>
      <trkpt lat="57.71272" lon="-4.2827">
        <ele>82.9</ele>
        <time>2021-03-20T15:49:48Z</time>
      </trkpt>
      <trkpt lat="57.71223" lon="-4.28187">
        <ele>86.89</ele>
        <time>2021-03-20T15:49:52Z</time>
      </trkpt>
      <trkpt lat="57.71204" lon="-4.28101">
        <ele>85.4</ele>
        <time>2021-03-20T15:49:57Z</time>
      </trkpt>
      <trkpt lat="57.71194" lon="-4.28004">
        <ele>89.88</ele>
        <time>2021-03-20T15:50:02Z</time>
      </trkpt>
      <trkpt lat="57.71174" lon="-4.27959">
        <ele>92.32</ele>
        <time>2021-03-20T15:50:06Z</time>
      </trkpt>
      <trkpt lat="57.71127" lon="-4.27951">
        <ele>93.22</ele>
        <time>2021-03-20T15:50:11Z</time>
      </trkpt>
      <trkpt lat="57.71034" lon="-4.28016">
        <ele>94.24</ele>
        <time>2021-03-20T15:50:16Z</time>
      </trkpt>
      <trkpt lat="57.70898" lon="-4.28147">
        <ele>90.31</ele>
        <time>2021-03-20T15:50:20Z</time>
      </trkpt>
      <trkpt lat="57.70717" lon="-4.28388">
        <ele>85.8</ele>
        <time>2021-03-20T15:50:25Z</time>
      </trkpt>
      <trkpt lat="57.70586" lon="-4.28484">
        <ele>82.53</ele>
        <time>2021-03-20T15:50:30Z</time>
      </trkpt>
      <trkpt lat="57.70341" lon="-4.28586">
        <ele>77.27</ele>
        <time>2021-03-20T15:50:34Z</time>
      </trkpt>
      <trkpt lat="57.70077" lon="-4.28736">
        <ele>71.27</ele>
        <time>2021-03-20T15:50:39Z</time>
      </trkpt>
      <trkpt lat="57.69968" lon="-4.288">
        <ele>69</ele>
        <time>2021-03-20T15:50:44Z</time>
      </trkpt>
      <trkpt lat="57.69887" lon="-4.2883">
        <ele>68.06</ele>
        <time>2021-03-20T15:50:49Z</time>
      </trkpt>
      <trkpt lat="57.69852" lon="-4.2883">
        <ele>68.89</ele>
        <time>2021-03-20T15:50:53Z</time>
      </trkpt>
      <trkpt lat="57.69756" lon="-4.28812">
        <ele>66.65</ele>
        <time>2021-03-20T15:50:58Z</time>
      </trkpt>
      <trkpt lat="57.69732" lon="-4.2882">
        <ele>65.68</ele>
        <time>2021-03-20T15:51:03Z</time>
      </trkpt>
      <trkpt lat="57.69696" lon="-4.28861">
        <ele>65.27</ele>
        <time>2021-03-20T15:51:07Z</time>
      </trkpt>
      <trkpt lat="57.6962" lon="-4.28965">
        <ele>61.13</ele>
        <time>2021-03-20T15:51:12Z</time>
      </trkpt>
      <trkpt lat="57.69551" lon="-4.29079">
        <ele>56.6</ele>
        <time>2021-03-20T15:51:17Z</time>
      </trkpt>
      <trkpt lat="57.69453" lon="-4.29244">
        <ele>51.87</ele>
        <time>2021-03-20T15:51:21Z</time>
      </trkpt>
      <trkpt lat="57.69383" lon="-4.29327">
        <ele>51.1</ele>
        <time>2021-03-20T15:51:26Z</time>
      </trkpt>
      <trkpt lat="57.69296" lon="-4.29377">
        <ele>47.79</ele>
        <time>2021-03-20T15:51:31Z</time>
      </trkpt>
      <trkpt lat="57.69214" lon="-4.29412">
        <ele>46.16</ele>
        <time>2021-03-20T15:51:35Z</time>
      </trkpt>
      <trkpt lat="57.69083" lon="-4.29417">
        <ele>36.97</ele>
        <time>2021-03-20T15:51:40Z</time>
      </trkpt>
      <trkpt lat="57.69007" lon="-4.29411">
        <ele>33.03</ele>
        <time>2021-03-20T15:51:45Z</time>
      </trkpt>
      <trkpt lat="57.68789" lon="-4.29406">
        <ele>32.38</ele>
        <time>2021-03-20T15:51:49Z</time>
      </trkpt>
      <trkpt lat="57.68409" lon="-4.29521">
        <ele>20.54</ele>
        <time>2021-03-20T15:51:54Z</time>
      </trkpt>
      <trkpt lat="57.68318" lon="-4.29559">
        <ele>21.38</ele>
        <time>2021-03-20T15:52:06Z</time>
      </trkpt>
      <trkpt lat="57.68185" lon="-4.29654">
        <ele>19</ele>
        <time>2021-03-20T15:52:18Z</time>
      </trkpt>
      <trkpt lat="57.68201" lon="-4.2973">
        <ele>20.84</ele>
        <time>2021-03-20T15:52:24Z</time>
      </trkpt>
      <trkpt lat="57.68201" lon="-4.2975">
        <ele>21.73</ele>
        <time>2021-03-20T15:52:30Z</time>
      </trkpt>
      <trkpt lat="57.68196" lon="-4.2977">
        <ele>21.97</ele>
        <time>2021-03-20T15:52:36Z</time>
      </trkpt>
      <trkpt lat="57.68188" lon="-4.29786">
        <ele>22.35</ele>
        <time>2021-03-20T15:52:43Z</time>
      </trkpt>
      <trkpt lat="57.68163" lon="-4.29803">
        <ele>22.82</ele>
        <time>2021-03-20T15:52:49Z</time>
      </trkpt>
      <trkpt lat="57.68132" lon="-4.29831">
        <ele>24.61</ele>
        <time>2021-03-20T15:52:55Z</time>
      </trkpt>
      <trkpt lat="57.68097" lon="-4.29879">
        <ele>25.16</ele>
        <time>2021-03-20T15:53:01Z</time>
      </trkpt>
      <trkpt lat="57.68064" lon="-4.29934">
        <ele>24.96</ele>
        <time>2021-03-20T15:53:07Z</time>
      </trkpt>
      <trkpt lat="57.67969" lon="-4.30123">
        <ele>24.62</ele>
        <time>2021-03-20T15:53:13Z</time>
      </trkpt>
      <trkpt lat="57.6795" lon="-4.30165">
        <ele>26.26</ele>
        <time>2021-03-20T15:53:19Z</time>
      </trkpt>
      <trkpt lat="57.67896" lon="-4.30325">
        <ele>23.9</ele>
        <time>2021-03-20T15:53:25Z</time>
      </trkpt>
      <trkpt lat="57.67868" lon="-4.30412">
        <ele>24.61</ele>
        <time>2021-03-20T15:53:31Z</time>
      </trkpt>
      <trkpt lat="57.67805" lon="-4.30688">
        <ele>24.96</ele>
        <time>2021-03-20T15:53:37Z</time>
      </trkpt>
      <trkpt lat="57.67789" lon="-4.30752">
        <ele>23.39</ele>
        <time>2021-03-20T15:53:43Z</time>
      </trkpt>
      <trkpt lat="57.67765" lon="-4.30839">
        <ele>23.67</ele>
        <time>2021-03-20T15:53:49Z</time>
      </trkpt>
      <trkpt lat="57.67736" lon="-4.30921">
        <ele>25.58</ele>
        <time>2021-03-20T15:53:55Z</time>
      </trkpt>
      <trkpt lat="57.67673" lon="-4.31087">
        <ele>27.1</ele>
        <time>2021-03-20T15:54:01Z</time>
      </trkpt>
      <trkpt lat="57.67627" lon="-4.31266">
        <ele>31.16</ele>
        <time>2021-03-20T15:54:07Z</time>
      </trkpt>
      <trkpt lat="57.67577" lon="-4.31415">
        <ele>28.81</ele>
        <time>2021-03-20T15:54:13Z</time>
      </trkpt>
      <trkpt lat="57.67495" lon="-4.31608">
        <ele>33.5</ele>
        <time>2021-03-20T15:54:19Z</time>
      </trkpt>
      <trkpt lat="57.67425" lon="-4.31797">
        <ele>34.41</ele>
        <time>2021-03-20T15:54:25Z</time>
      </trkpt>
      <trkpt lat="57.67399" lon="-4.31862">
        <ele>33</ele>
        <time>2021-03-20T15:54:31Z</time>
      </trkpt>
      <trkpt lat="57.67379" lon="-4.31897">
        <ele>32.38</ele>
        <time>2021-03-20T15:54:37Z</time>
      </trkpt>
      <trkpt lat="57.67251" lon="-4.32064">
        <ele>26.82</ele>
        <time>2021-03-20T15:54:43Z</time>
      </trkpt>
      <trkpt lat="57.67235" lon="-4.32082">
        <ele>25.47</ele>
        <time>2021-03-20T15:54:49Z</time>
      </trkpt>
      <trkpt lat="57.67007" lon="-4.32383">
        <ele>25</ele>
        <time>2021-03-20T15:54:55Z</time>
      </trkpt>
      <trkpt lat="57.6688" lon="-4.32548">
        <ele>24.33</ele>
        <time>2021-03-20T15:55:01Z</time>
      </trkpt>
      <trkpt lat="57.66675" lon="-4.32811">
        <ele>25.98</ele>
        <time>2021-03-20T15:55:07Z</time>
      </trkpt>
      <trkpt lat="57.66667" lon="-4.32833">
        <ele>26.99</ele>
        <time>2021-03-20T15:55:13Z</time>
      </trkpt>
      <trkpt lat="57.66658" lon="-4.32892">
        <ele>28.2</ele>
        <time>2021-03-20T15:55:19Z</time>
      </trkpt>
      <trkpt lat="57.66612" lon="-4.33249">
        <ele>32.99</ele>
        <time>2021-03-20T15:55:25Z</time>
      </trkpt>
      <trkpt lat="57.66604" lon="-4.33334">
        <ele>31.25</ele>
        <time>2021-03-20T15:55:31Z</time>
      </trkpt>
      <trkpt lat="57.66591" lon="-4.3337">
        <ele>29.14</ele>
        <time>2021-03-20T15:55:37Z</time>
      </trkpt>
      <trkpt lat="57.66492" lon="-4.33529">
        <ele>26.64</ele>
        <time>2021-03-20T15:55:43Z</time>
      </trkpt>
      <trkpt lat="57.66477" lon="-4.33546">
        <ele>28.83</ele>
        <time>2021-03-20T15:55:49Z</time>
      </trkpt>
      <trkpt lat="57.66437" lon="-4.33579">
        <ele>31.85</ele>
        <time>2021-03-20T15:55:55Z</time>
      </trkpt>
      <trkpt lat="57.66419" lon="-4.3359">
        <ele>32.02</ele>
        <time>2021-03-20T15:56:01Z</time>
      </trkpt>
      <trkpt lat="57.66357" lon="-4.3364">
        <ele>30</ele>
        <time>2021-03-20T15:56:07Z</time>
      </trkpt>
      <trkpt lat="57.66142" lon="-4.33827">
        <ele>25.3</ele>
        <time>2021-03-20T15:56:13Z</time>
      </trkpt>
      <trkpt lat="57.66067" lon="-4.33888">
        <ele>26.97</ele>
        <time>2021-03-20T15:56:19Z</time>
      </trkpt>
      <trkpt lat="57.66039" lon="-4.33905">
        <ele>27.58</ele>
        <time>2021-03-20T15:56:25Z</time>
      </trkpt>
      <trkpt lat="57.66001" lon="-4.33923">
        <ele>28</ele>
        <time>2021-03-20T15:56:31Z</time>
      </trkpt>
      <trkpt lat="57.65961" lon="-4.33928">
        <ele>30.4</ele>
        <time>2021-03-20T15:56:37Z</time>
      </trkpt>
      <trkpt lat="57.65922" lon="-4.33924">
        <ele>31.81</ele>
        <time>2021-03-20T15:56:43Z</time>
      </trkpt>
      <trkpt lat="57.65871" lon="-4.33911">
        <ele>34.59</ele>
        <time>2021-03-20T15:56:49Z</time>
      </trkpt>
      <trkpt lat="57.65792" lon="-4.33872">
        <ele>35.52</ele>
        <time>2021-03-20T15:56:55Z</time>
      </trkpt>
      <trkpt lat="57.65738" lon="-4.33877">
        <ele>33.57</ele>
        <time>2021-03-20T15:57:01Z</time>
      </trkpt>
      <trkpt lat="57.65724" lon="-4.33881">
        <ele>33.71</ele>
        <time>2021-03-20T15:57:07Z</time>
      </trkpt>
      <trkpt lat="57.65729" lon="-4.33919">
        <ele>35.07</ele>
        <time>2021-03-20T15:57:11Z</time>
      </trkpt>
      <trkpt lat="57.65776" lon="-4.34134">
        <ele>37.84</ele>
        <time>2021-03-20T15:57:15Z</time>
      </trkpt>
      <trkpt lat="57.65785" lon="-4.34192">
        <ele>36.62</ele>
        <time>2021-03-20T15:57:19Z</time>
      </trkpt>
      <trkpt lat="57.65789" lon="-4.34279">
        <ele>34.58</ele>
        <time>2021-03-20T15:57:23Z</time>
      </trkpt>
      <trkpt lat="57.65787" lon="-4.34563">
        <ele>32.6</ele>
        <time>2021-03-20T15:57:27Z</time>
      </trkpt>
      <trkpt lat="57.6577" lon="-4.34606">
        <ele>33.29</ele>
        <time>2021-03-20T15:57:33Z</time>
      </trkpt>
      <trkpt lat="57.65759" lon="-4.34649">
        <ele>33.39</ele>
        <time>2021-03-20T15:57:38Z</time>
      </trkpt>
      <trkpt lat="57.65734" lon="-4.34701">
        <ele>35.58</ele>
        <time>2021-03-20T15:57:43Z</time>
      </trkpt>
      <trkpt lat="57.65616" lon="-4.34895">
        <ele>37.04</ele>
        <time>2021-03-20T15:57:49Z</time>
      </trkpt>
      <trkpt lat="57.65492" lon="-4.35156">
        <ele>38.3</ele>
        <time>2021-03-20T15:57:54Z</time>
      </trkpt>
      <trkpt lat="57.65447" lon="-4.35259">
        <ele>40</ele>
        <time>2021-03-20T15:57:59Z</time>
      </trkpt>
      <trkpt lat="57.65417" lon="-4.35322">
        <ele>40.99</ele>
        <time>2021-03-20T15:58:05Z</time>
      </trkpt>
      <trkpt lat="57.65406" lon="-4.35339">
        <ele>41.4</ele>
        <time>2021-03-20T15:58:10Z</time>
      </trkpt>
      <trkpt lat="57.65372" lon="-4.3536">
        <ele>42.6</ele>
        <time>2021-03-20T15:58:16Z</time>
      </trkpt>
      <trkpt lat="57.65334" lon="-4.35376">
        <ele>44.97</ele>
        <time>2021-03-20T15:58:21Z</time>
      </trkpt>
      <trkpt lat="57.65268" lon="-4.35389">
        <ele>47.34</ele>
        <time>2021-03-20T15:58:26Z</time>
      </trkpt>
      <trkpt lat="57.65226" lon="-4.35384">
        <ele>49.76</ele>
        <time>2021-03-20T15:58:32Z</time>
      </trkpt>
      <trkpt lat="57.6513" lon="-4.3534">
        <ele>48.24</ele>
        <time>2021-03-20T15:58:37Z</time>
      </trkpt>
      <trkpt lat="57.65058" lon="-4.35296">
        <ele>47.21</ele>
        <time>2021-03-20T15:58:42Z</time>
      </trkpt>
      <trkpt lat="57.65014" lon="-4.35263">
        <ele>45.62</ele>
        <time>2021-03-20T15:58:48Z</time>
      </trkpt>
      <trkpt lat="57.64942" lon="-4.35195">
        <ele>41.22</ele>
        <time>2021-03-20T15:58:53Z</time>
      </trkpt>
      <trkpt lat="57.64911" lon="-4.3517">
        <ele>41.8</ele>
        <time>2021-03-20T15:58:58Z</time>
      </trkpt>
      <trkpt lat="57.64894" lon="-4.35162">
        <ele>43.26</ele>
        <time>2021-03-20T15:59:04Z</time>
      </trkpt>
      <trkpt lat="57.64862" lon="-4.35154">
        <ele>45.08</ele>
        <time>2021-03-20T15:59:09Z</time>
      </trkpt>
      <trkpt lat="57.6478" lon="-4.35158">
        <ele>42.48</ele>
        <time>2021-03-20T15:59:14Z</time>
      </trkpt>
      <trkpt lat="57.64761" lon="-4.35162">
        <ele>42.08</ele>
        <time>2021-03-20T15:59:20Z</time>
      </trkpt>
      <trkpt lat="57.64723" lon="-4.35184">
        <ele>43.89</ele>
        <time>2021-03-20T15:59:25Z</time>
      </trkpt>
      <trkpt lat="57.64438" lon="-4.35512">
        <ele>44.87</ele>
        <time>2021-03-20T15:59:30Z</time>
      </trkpt>
      <trkpt lat="57.64274" lon="-4.35695">
        <ele>47.39</ele>
        <time>2021-03-20T15:59:36Z</time>
      </trkpt>
      <trkpt lat="57.6421" lon="-4.35763">
        <ele>54.3</ele>
        <time>2021-03-20T15:59:41Z</time>
      </trkpt>
      <trkpt lat="57.64134" lon="-4.35855">
        <ele>55.75</ele>
        <time>2021-03-20T15:59:47Z</time>
      </trkpt>
      <trkpt lat="57.64075" lon="-4.35919">
        <ele>51.78</ele>
        <time>2021-03-20T15:59:52Z</time>
      </trkpt>
      <trkpt lat="57.64004" lon="-4.36009">
        <ele>46.33</ele>
        <time>2021-03-20T15:59:57Z</time>
      </trkpt>
      <trkpt lat="57.63758" lon="-4.36364">
        <ele>46.29</ele>
        <time>2021-03-20T16:00:03Z</time>
      </trkpt>
      <trkpt lat="57.63743" lon="-4.36396">
        <ele>45.98</ele>
        <time>2021-03-20T16:00:08Z</time>
      </trkpt>
      <trkpt lat="57.6371" lon="-4.36471">
        <ele>47.94</ele>
        <time>2021-03-20T16:00:13Z</time>
      </trkpt>
      <trkpt lat="57.63691" lon="-4.36524">
        <ele>49.72</ele>
        <time>2021-03-20T16:00:19Z</time>
      </trkpt>
      <trkpt lat="57.63672" lon="-4.36581">
        <ele>50.93</ele>
        <time>2021-03-20T16:00:24Z</time>
      </trkpt>
      <trkpt lat="57.63594" lon="-4.36849">
        <ele>56</ele>
        <time>2021-03-20T16:00:29Z</time>
      </trkpt>
      <trkpt lat="57.63532" lon="-4.37081">
        <ele>59.9</ele>
        <time>2021-03-20T16:00:35Z</time>
      </trkpt>
      <trkpt lat="57.63518" lon="-4.37154">
        <ele>61.83</ele>
        <time>2021-03-20T16:00:40Z</time>
      </trkpt>
      <trkpt lat="57.63507" lon="-4.37242">
        <ele>63.45</ele>
        <time>2021-03-20T16:00:45Z</time>
      </trkpt>
      <trkpt lat="57.63503" lon="-4.37304">
        <ele>64.82</ele>
        <time>2021-03-20T16:00:51Z</time>
      </trkpt>
      <trkpt lat="57.63503" lon="-4.37409">
        <ele>66.88</ele>
        <time>2021-03-20T16:00:56Z</time>
      </trkpt>
      <trkpt lat="57.63498" lon="-4.37433">
        <ele>66.94</ele>
        <time>2021-03-20T16:01:01Z</time>
      </trkpt>
      <trkpt lat="57.63489" lon="-4.37453">
        <ele>66.27</ele>
        <time>2021-03-20T16:01:07Z</time>
      </trkpt>
      <trkpt lat="57.63368" lon="-4.37613">
        <ele>64</ele>
        <time>2021-03-20T16:01:12Z</time>
      </trkpt>
      <trkpt lat="57.63297" lon="-4.37713">
        <ele>65</ele>
        <time>2021-03-20T16:01:17Z</time>
      </trkpt>
      <trkpt lat="57.63223" lon="-4.37809">
        <ele>66</ele>
        <time>2021-03-20T16:01:23Z</time>
      </trkpt>
      <trkpt lat="57.63159" lon="-4.37885">
        <ele>67.54</ele>
        <time>2021-03-20T16:01:28Z</time>
      </trkpt>
      <trkpt lat="57.63097" lon="-4.37949">
        <ele>72.52</ele>
        <time>2021-03-20T16:01:34Z</time>
      </trkpt>
      <trkpt lat="57.63076" lon="-4.37996">
        <ele>74</ele>
        <time>2021-03-20T16:01:39Z</time>
      </trkpt>
      <trkpt lat="57.63054" lon="-4.38053">
        <ele>72.93</ele>
        <time>2021-03-20T16:01:44Z</time>
      </trkpt>
      <trkpt lat="57.63008" lon="-4.38151">
        <ele>72.72</ele>
        <time>2021-03-20T16:01:50Z</time>
      </trkpt>
      <trkpt lat="57.62969" lon="-4.38241">
        <ele>76.08</ele>
        <time>2021-03-20T16:01:55Z</time>
      </trkpt>
      <trkpt lat="57.62923" lon="-4.38385">
        <ele>78.56</ele>
        <time>2021-03-20T16:02:00Z</time>
      </trkpt>
      <trkpt lat="57.62885" lon="-4.38523">
        <ele>83.99</ele>
        <time>2021-03-20T16:02:06Z</time>
      </trkpt>
      <trkpt lat="57.62861" lon="-4.38571">
        <ele>86.87</ele>
        <time>2021-03-20T16:02:11Z</time>
      </trkpt>
      <trkpt lat="57.62813" lon="-4.38654">
        <ele>87.76</ele>
        <time>2021-03-20T16:02:16Z</time>
      </trkpt>
      <trkpt lat="57.62782" lon="-4.38706">
        <ele>86.44</ele>
        <time>2021-03-20T16:02:22Z</time>
      </trkpt>
      <trkpt lat="57.62748" lon="-4.38751">
        <ele>86</ele>
        <time>2021-03-20T16:02:27Z</time>
      </trkpt>
      <trkpt lat="57.62705" lon="-4.38838">
        <ele>88.58</ele>
        <time>2021-03-20T16:02:32Z</time>
      </trkpt>
      <trkpt lat="57.62569" lon="-4.39125">
        <ele>94.47</ele>
        <time>2021-03-20T16:02:38Z</time>
      </trkpt>
      <trkpt lat="57.62535" lon="-4.39204">
        <ele>94.51</ele>
        <time>2021-03-20T16:02:43Z</time>
      </trkpt>
      <trkpt lat="57.62499" lon="-4.39279">
        <ele>97.04</ele>
        <time>2021-03-20T16:02:48Z</time>
      </trkpt>
      <trkpt lat="57.62474" lon="-4.39317">
        <ele>97.1</ele>
        <time>2021-03-20T16:02:54Z</time>
      </trkpt>
      <trkpt lat="57.62452" lon="-4.39345">
        <ele>96.69</ele>
        <time>2021-03-20T16:02:59Z</time>
      </trkpt>
      <trkpt lat="57.62437" lon="-4.39355">
        <ele>96.77</ele>
        <time>2021-03-20T16:03:05Z</time>
      </trkpt>
      <trkpt lat="57.62383" lon="-4.39378">
        <ele>96.38</ele>
        <time>2021-03-20T16:03:10Z</time>
      </trkpt>
      <trkpt lat="57.62361" lon="-4.39394">
        <ele>96.19</ele>
        <time>2021-03-20T16:03:15Z</time>
      </trkpt>
      <trkpt lat="57.62338" lon="-4.39421">
        <ele>96.18</ele>
        <time>2021-03-20T16:03:21Z</time>
      </trkpt>
      <trkpt lat="57.62305" lon="-4.39478">
        <ele>97</ele>
        <time>2021-03-20T16:03:26Z</time>
      </trkpt>
      <trkpt lat="57.62269" lon="-4.39548">
        <ele>98.69</ele>
        <time>2021-03-20T16:03:31Z</time>
      </trkpt>
      <trkpt lat="57.62226" lon="-4.39615">
        <ele>97.57</ele>
        <time>2021-03-20T16:03:37Z</time>
      </trkpt>
      <trkpt lat="57.62197" lon="-4.39678">
        <ele>98.92</ele>
        <time>2021-03-20T16:03:42Z</time>
      </trkpt>
      <trkpt lat="57.62167" lon="-4.39756">
        <ele>101.23</ele>
        <time>2021-03-20T16:03:47Z</time>
      </trkpt>
      <trkpt lat="57.62135" lon="-4.39826">
        <ele>103.35</ele>
        <time>2021-03-20T16:03:53Z</time>
      </trkpt>
      <trkpt lat="57.62084" lon="-4.39932">
        <ele>106.57</ele>
        <time>2021-03-20T16:03:58Z</time>
      </trkpt>
      <trkpt lat="57.62062" lon="-4.39991">
        <ele>108.89</ele>
        <time>2021-03-20T16:04:03Z</time>
      </trkpt>
      <trkpt lat="57.62036" lon="-4.40075">
        <ele>111</ele>
        <time>2021-03-20T16:04:09Z</time>
      </trkpt>
      <trkpt lat="57.62003" lon="-4.40152">
        <ele>113.64</ele>
        <time>2021-03-20T16:04:14Z</time>
      </trkpt>
      <trkpt lat="57.61976" lon="-4.402">
        <ele>113.49</ele>
        <time>2021-03-20T16:04:19Z</time>
      </trkpt>
      <trkpt lat="57.61914" lon="-4.40281">
        <ele>112.21</ele>
        <time>2021-03-20T16:04:25Z</time>
      </trkpt>
      <trkpt lat="57.61885" lon="-4.40314">
        <ele>112.35</ele>
        <time>2021-03-20T16:04:30Z</time>
      </trkpt>
      <trkpt lat="57.61836" lon="-4.40384">
        <ele>112.86</ele>
        <time>2021-03-20T16:04:36Z</time>
      </trkpt>
      <trkpt lat="57.61592" lon="-4.40747">
        <ele>105.96</ele>
        <time>2021-03-20T16:04:41Z</time>
      </trkpt>
      <trkpt lat="57.6156" lon="-4.408">
        <ele>104.25</ele>
        <time>2021-03-20T16:04:46Z</time>
      </trkpt>
      <trkpt lat="57.6152" lon="-4.40897">
        <ele>103.49</ele>
        <time>2021-03-20T16:04:52Z</time>
      </trkpt>
      <trkpt lat="57.61463" lon="-4.41057">
        <ele>105.76</ele>
        <time>2021-03-20T16:04:57Z</time>
      </trkpt>
      <trkpt lat="57.61427" lon="-4.41142">
        <ele>105.67</ele>
        <time>2021-03-20T16:05:02Z</time>
      </trkpt>
      <trkpt lat="57.61326" lon="-4.41336">
        <ele>95.41</ele>
        <time>2021-03-20T16:05:08Z</time>
      </trkpt>
      <trkpt lat="57.61274" lon="-4.41439">
        <ele>88.44</ele>
        <time>2021-03-20T16:05:13Z</time>
      </trkpt>
      <trkpt lat="57.61145" lon="-4.41609">
        <ele>78.23</ele>
        <time>2021-03-20T16:05:18Z</time>
      </trkpt>
      <trkpt lat="57.61122" lon="-4.41647">
        <ele>76.78</ele>
        <time>2021-03-20T16:05:24Z</time>
      </trkpt>
      <trkpt lat="57.61108" lon="-4.4168">
        <ele>76.37</ele>
        <time>2021-03-20T16:05:29Z</time>
      </trkpt>
      <trkpt lat="57.61061" lon="-4.41807">
        <ele>79.4</ele>
        <time>2021-03-20T16:05:34Z</time>
      </trkpt>
      <trkpt lat="57.61021" lon="-4.41892">
        <ele>77.86</ele>
        <time>2021-03-20T16:05:40Z</time>
      </trkpt>
      <trkpt lat="57.60994" lon="-4.41944">
        <ele>77.54</ele>
        <time>2021-03-20T16:05:45Z</time>
      </trkpt>
      <trkpt lat="57.60974" lon="-4.41968">
        <ele>76.96</ele>
        <time>2021-03-20T16:05:50Z</time>
      </trkpt>
      <trkpt lat="57.60935" lon="-4.41993">
        <ele>73.32</ele>
        <time>2021-03-20T16:05:56Z</time>
      </trkpt>
      <trkpt lat="57.60894" lon="-4.42041">
        <ele>70.58</ele>
        <time>2021-03-20T16:06:01Z</time>
      </trkpt>
      <trkpt lat="57.60787" lon="-4.42177">
        <ele>60.23</ele>
        <time>2021-03-20T16:06:06Z</time>
      </trkpt>
      <trkpt lat="57.60696" lon="-4.42288">
        <ele>54.25</ele>
        <time>2021-03-20T16:06:12Z</time>
      </trkpt>
      <trkpt lat="57.60684" lon="-4.42318">
        <ele>52.82</ele>
        <time>2021-03-20T16:06:17Z</time>
      </trkpt>
      <trkpt lat="57.60615" lon="-4.4255">
        <ele>50.3</ele>
        <time>2021-03-20T16:06:23Z</time>
      </trkpt>
      <trkpt lat="57.60577" lon="-4.42669">
        <ele>45.64</ele>
        <time>2021-03-20T16:06:28Z</time>
      </trkpt>
      <trkpt lat="57.60473" lon="-4.4302">
        <ele>39.03</ele>
        <time>2021-03-20T16:06:33Z</time>
      </trkpt>
      <trkpt lat="57.60454" lon="-4.43076">
        <ele>38.6</ele>
        <time>2021-03-20T16:06:39Z</time>
      </trkpt>
      <trkpt lat="57.60304" lon="-4.42984">
        <ele>26.86</ele>
        <time>2021-03-20T16:06:51Z</time>
      </trkpt>
      <trkpt lat="57.60146" lon="-4.4288">
        <ele>8.5</ele>
        <time>2021-03-20T16:07:03Z</time>
      </trkpt>
      <trkpt lat="57.60114" lon="-4.4285">
        <ele>7.62</ele>
        <time>2021-03-20T16:07:16Z</time>
      </trkpt>
      <trkpt lat="57.60105" lon="-4.42837">
        <ele>7.09</ele>
        <time>2021-03-20T16:07:28Z</time>
      </trkpt>
      <trkpt lat="57.60065" lon="-4.42931">
        <ele>7</ele>
        <time>2021-03-20T16:07:36Z</time>
      </trkpt>
      <trkpt lat="57.60052" lon="-4.42917">
        <ele>6.87</ele>
        <time>2021-03-20T16:07:41Z</time>
      </trkpt>
      <trkpt lat="57.60045" lon="-4.42916">
        <ele>6.64</ele>
        <time>2021-03-20T16:07:45Z</time>
      </trkpt>
      <trkpt lat="57.6002" lon="-4.42925">
        <ele>5.72</ele>
        <time>2021-03-20T16:07:50Z</time>
      </trkpt>
      <trkpt lat="57.60002" lon="-4.42927">
        <ele>5.08</ele>
        <time>2021-03-20T16:07:55Z</time>
      </trkpt>
      <trkpt lat="57.59868" lon="-4.42907">
        <ele>4</ele>
        <time>2021-03-20T16:07:59Z</time>
      </trkpt>
      <trkpt lat="57.59837" lon="-4.42899">
        <ele>3.69</ele>
        <time>2021-03-20T16:08:04Z</time>
      </trkpt>
      <trkpt lat="57.59817" lon="-4.42888">
        <ele>4.59</ele>
        <time>2021-03-20T16:08:08Z</time>
      </trkpt>
      <trkpt lat="57.59801" lon="-4.42872">
        <ele>5.15</ele>
        <time>2021-03-20T16:08:13Z</time>
      </trkpt>
      <trkpt lat="57.59733" lon="-4.42794">
        <ele>6.38</ele>
        <time>2021-03-20T16:08:17Z</time>
      </trkpt>
      <trkpt lat="57.59716" lon="-4.42778">
        <ele>6</ele>
        <time>2021-03-20T16:08:22Z</time>
      </trkpt>
      <trkpt lat="57.59676" lon="-4.42748">
        <ele>6</ele>
        <time>2021-03-20T16:08:27Z</time>
      </trkpt>
      <trkpt lat="57.5965" lon="-4.42733">
        <ele>6</ele>
        <time>2021-03-20T16:08:31Z</time>
      </trkpt>
      <trkpt lat="57.59621" lon="-4.42726">
        <ele>6.09</ele>
        <time>2021-03-20T16:08:36Z</time>
      </trkpt>
      <trkpt lat="57.59551" lon="-4.42723">
        <ele>8.18</ele>
        <time>2021-03-20T16:08:40Z</time>
      </trkpt>
      <trkpt lat="57.59543" lon="-4.42719">
        <ele>8.46</ele>
        <time>2021-03-20T16:08:45Z</time>
      </trkpt>
      <trkpt lat="57.59536" lon="-4.4271">
        <ele>8.69</ele>
        <time>2021-03-20T16:08:49Z</time>
      </trkpt>
      <trkpt lat="57.59526" lon="-4.42534">
        <ele>8</ele>
        <time>2021-03-20T16:08:55Z</time>
      </trkpt>
      <trkpt lat="57.59509" lon="-4.42425">
        <ele>7.68</ele>
        <time>2021-03-20T16:09:00Z</time>
      </trkpt>
      <trkpt lat="57.59502" lon="-4.42393">
        <ele>7.92</ele>
        <time>2021-03-20T16:09:05Z</time>
      </trkpt>
      <trkpt lat="57.59493" lon="-4.42363">
        <ele>8.26</ele>
        <time>2021-03-20T16:09:10Z</time>
      </trkpt>
      <trkpt lat="57.59483" lon="-4.42347">
        <ele>8.12</ele>
        <time>2021-03-20T16:09:15Z</time>
      </trkpt>
      <trkpt lat="57.59461" lon="-4.42331">
        <ele>8</ele>
        <time>2021-03-20T16:09:20Z</time>
      </trkpt>
      <trkpt lat="57.59454" lon="-4.42329">
        <ele>8</ele>
        <time>2021-03-20T16:09:25Z</time>
      </trkpt>
      <trkpt lat="57.59306" lon="-4.42361">
        <ele>7</ele>
        <time>2021-03-20T16:09:31Z</time>
      </trkpt>
      <trkpt lat="57.59258" lon="-4.42362">
        <ele>7.01</ele>
        <time>2021-03-20T16:09:36Z</time>
      </trkpt>
      <trkpt lat="57.59252" lon="-4.42363">
        <ele>7.06</ele>
        <time>2021-03-20T16:09:41Z</time>
      </trkpt>
      <trkpt lat="57.59237" lon="-4.42385">
        <ele>8.68</ele>
        <time>2021-03-20T16:09:46Z</time>
      </trkpt>
      <trkpt lat="57.59227" lon="-4.42392">
        <ele>10.11</ele>
        <time>2021-03-20T16:09:51Z</time>
      </trkpt>
      <trkpt lat="57.59178" lon="-4.42388">
        <ele>9.37</ele>
        <time>2021-03-20T16:10:01Z</time>
      </trkpt>
      <trkpt lat="57.59129" lon="-4.42396">
        <ele>8.92</ele>
        <time>2021-03-20T16:10:10Z</time>
      </trkpt>
      <trkpt lat="57.59015" lon="-4.4242">
        <ele>10.12</ele>
        <time>2021-03-20T16:10:19Z</time>
      </trkpt>
      <trkpt lat="57.58985" lon="-4.42431">
        <ele>10.81</ele>
        <time>2021-03-20T16:10:29Z</time>
      </trkpt>
      <trkpt lat="57.5893" lon="-4.42462">
        <ele>14.12</ele>
        <time>2021-03-20T16:10:38Z</time>
      </trkpt>
      <trkpt lat="57.58889" lon="-4.42499">
        <ele>15.87</ele>
        <time>2021-03-20T16:10:48Z</time>
      </trkpt>
      <trkpt lat="57.58833" lon="-4.42571">
        <ele>14.07</ele>
        <time>2021-03-20T16:10:57Z</time>
      </trkpt>
      <trkpt lat="57.58784" lon="-4.42641">
        <ele>14.64</ele>
        <time>2021-03-20T16:11:07Z</time>
      </trkpt>
      <trkpt lat="57.58721" lon="-4.42708">
        <ele>14.89</ele>
        <time>2021-03-20T16:11:16Z</time>
      </trkpt>
      <trkpt lat="57.58685" lon="-4.42745">
        <ele>13.61</ele>
        <time>2021-03-20T16:11:25Z</time>
      </trkpt>
      <trkpt lat="57.58643" lon="-4.42803">
        <ele>12.2</ele>
        <time>2021-03-20T16:11:35Z</time>
      </trkpt>
      <trkpt lat="57.58464" lon="-4.43071">
        <ele>13.25</ele>
        <time>2021-03-20T16:11:44Z</time>
      </trkpt>
      <trkpt lat="57.58331" lon="-4.43264">
        <ele>14.54</ele>
        <time>2021-03-20T16:11:54Z</time>
      </trkpt>
      <trkpt lat="57.58331" lon="-4.43264">
        <ele>14.54</ele>
        <time>2021-03-20T16:11:54Z</time>
      </trkpt>
      <trkpt lat="57.58206" lon="-4.43444">
        <ele>15.82</ele>
        <time>2021-03-20T16:12:03Z</time>
      </trkpt>
      <trkpt lat="57.5802" lon="-4.43686">
        <ele>12.49</ele>
        <time>2021-03-20T16:12:13Z</time>
      </trkpt>
      <trkpt lat="57.57989" lon="-4.43716">
        <ele>11.61</ele>
        <time>2021-03-20T16:12:23Z</time>
      </trkpt>
      <trkpt lat="57.57961" lon="-4.43739">
        <ele>11.61</ele>
        <time>2021-03-20T16:12:32Z</time>
      </trkpt>
      <trkpt lat="57.5794" lon="-4.43738">
        <ele>11.58</ele>
        <time>2021-03-20T16:12:42Z</time>
      </trkpt>
      <trkpt lat="57.57934" lon="-4.43735">
        <ele>11.45</ele>
        <time>2021-03-20T16:12:50Z</time>
      </trkpt>
      <trkpt lat="57.57901" lon="-4.43692">
        <ele>10.4</ele>
        <time>2021-03-20T16:12:58Z</time>
      </trkpt>
      <trkpt lat="57.57849" lon="-4.43594">
        <ele>10</ele>
        <time>2021-03-20T16:13:07Z</time>
      </trkpt>
      <trkpt lat="57.57798" lon="-4.43517">
        <ele>8.71</ele>
        <time>2021-03-20T16:13:15Z</time>
      </trkpt>
      <trkpt lat="57.57785" lon="-4.43499">
        <ele>8.69</ele>
        <time>2021-03-20T16:13:23Z</time>
      </trkpt>
      <trkpt lat="57.57716" lon="-4.43418">
        <ele>6.79</ele>
        <time>2021-03-20T16:13:31Z</time>
      </trkpt>
      <trkpt lat="57.57534" lon="-4.43245">
        <ele>6.81</ele>
        <time>2021-03-20T16:13:39Z</time>
      </trkpt>
      <trkpt lat="57.57429" lon="-4.43136">
        <ele>3.87</ele>
        <time>2021-03-20T16:13:48Z</time>
      </trkpt>
      <trkpt lat="57.57317" lon="-4.43027">
        <ele>4.57</ele>
        <time>2021-03-20T16:13:56Z</time>
      </trkpt>
      <trkpt lat="57.56642" lon="-4.42387">
        <ele>28</ele>
        <time>2021-03-20T16:14:04Z</time>
      </trkpt>
      <trkpt lat="57.56658" lon="-4.42329">
        <ele>28.32</ele>
        <time>2021-03-20T16:14:09Z</time>
      </trkpt>
      <trkpt lat="57.56668" lon="-4.42309">
        <ele>27.97</ele>
        <time>2021-03-20T16:14:13Z</time>
      </trkpt>
      <trkpt lat="57.56681" lon="-4.42292">
        <ele>27.74</ele>
        <time>2021-03-20T16:14:18Z</time>
      </trkpt>
      <trkpt lat="57.56722" lon="-4.42257">
        <ele>27.01</ele>
        <time>2021-03-20T16:14:23Z</time>
      </trkpt>
      <trkpt lat="57.56737" lon="-4.42239">
        <ele>26.47</ele>
        <time>2021-03-20T16:14:27Z</time>
      </trkpt>
      <trkpt lat="57.56757" lon="-4.42202">
        <ele>26</ele>
        <time>2021-03-20T16:14:32Z</time>
      </trkpt>
      <trkpt lat="57.5683" lon="-4.42005">
        <ele>26.98</ele>
        <time>2021-03-20T16:14:36Z</time>
      </trkpt>
      <trkpt lat="57.56876" lon="-4.41801">
        <ele>27.53</ele>
        <time>2021-03-20T16:14:41Z</time>
      </trkpt>
      <trkpt lat="57.56914" lon="-4.41713">
        <ele>27.43</ele>
        <time>2021-03-20T16:14:46Z</time>
      </trkpt>
      <trkpt lat="57.57029" lon="-4.4147">
        <ele>29.04</ele>
        <time>2021-03-20T16:14:50Z</time>
      </trkpt>
      <trkpt lat="57.57148" lon="-4.41248">
        <ele>27.84</ele>
        <time>2021-03-20T16:14:55Z</time>
      </trkpt>
      <trkpt lat="57.5732" lon="-4.41026">
        <ele>25.56</ele>
        <time>2021-03-20T16:14:59Z</time>
      </trkpt>
      <trkpt lat="57.57621" lon="-4.40702">
        <ele>25.76</ele>
        <time>2021-03-20T16:15:04Z</time>
      </trkpt>
      <trkpt lat="57.5785" lon="-4.40416">
        <ele>22</ele>
        <time>2021-03-20T16:15:09Z</time>
      </trkpt>
      <trkpt lat="57.57875" lon="-4.40358">
        <ele>21.49</ele>
        <time>2021-03-20T16:15:13Z</time>
      </trkpt>
      <trkpt lat="57.57909" lon="-4.40265">
        <ele>19.29</ele>
        <time>2021-03-20T16:15:18Z</time>
      </trkpt>
      <trkpt lat="57.57928" lon="-4.40223">
        <ele>19</ele>
        <time>2021-03-20T16:15:23Z</time>
      </trkpt>
      <trkpt lat="57.57954" lon="-4.40178">
        <ele>18.65</ele>
        <time>2021-03-20T16:15:27Z</time>
      </trkpt>
      <trkpt lat="57.57991" lon="-4.40133">
        <ele>18</ele>
        <time>2021-03-20T16:15:32Z</time>
      </trkpt>
      <trkpt lat="57.58189" lon="-4.39956">
        <ele>14.67</ele>
        <time>2021-03-20T16:15:36Z</time>
      </trkpt>
      <trkpt lat="57.58206" lon="-4.39928">
        <ele>15</ele>
        <time>2021-03-20T16:15:41Z</time>
      </trkpt>
      <trkpt lat="57.58212" lon="-4.39903">
        <ele>15</ele>
        <time>2021-03-20T16:15:46Z</time>
      </trkpt>
      <trkpt lat="57.58213" lon="-4.39864">
        <ele>15</ele>
        <time>2021-03-20T16:15:50Z</time>
      </trkpt>
      <trkpt lat="57.5821" lon="-4.3985">
        <ele>15</ele>
        <time>2021-03-20T16:15:55Z</time>
      </trkpt>
      <trkpt lat="57.58203" lon="-4.39827">
        <ele>15</ele>
        <time>2021-03-20T16:16:00Z</time>
      </trkpt>
      <trkpt lat="57.58176" lon="-4.39775">
        <ele>15</ele>
        <time>2021-03-20T16:16:04Z</time>
      </trkpt>
      <trkpt lat="57.58339" lon="-4.39413">
        <ele>14.32</ele>
        <time>2021-03-20T16:16:10Z</time>
      </trkpt>
      <trkpt lat="57.58416" lon="-4.39252">
        <ele>19.05</ele>
        <time>2021-03-20T16:16:16Z</time>
      </trkpt>
      <trkpt lat="57.58901" lon="-4.38362">
        <ele>14.58</ele>
        <time>2021-03-20T16:16:22Z</time>
      </trkpt>
      <trkpt lat="57.58911" lon="-4.38335">
        <ele>14.94</ele>
        <time>2021-03-20T16:16:28Z</time>
      </trkpt>
      <trkpt lat="57.5892" lon="-4.38284">
        <ele>14.86</ele>
        <time>2021-03-20T16:16:35Z</time>
      </trkpt>
      <trkpt lat="57.58932" lon="-4.38132">
        <ele>17.56</ele>
        <time>2021-03-20T16:16:41Z</time>
      </trkpt>
      <trkpt lat="57.58932" lon="-4.38115">
        <ele>17.84</ele>
        <time>2021-03-20T16:16:47Z</time>
      </trkpt>
      <trkpt lat="57.58928" lon="-4.38098">
        <ele>18.17</ele>
        <time>2021-03-20T16:16:53Z</time>
      </trkpt>
      <trkpt lat="57.58897" lon="-4.38039">
        <ele>21.39</ele>
        <time>2021-03-20T16:16:59Z</time>
      </trkpt>
      <trkpt lat="57.58836" lon="-4.3793">
        <ele>26.9</ele>
        <time>2021-03-20T16:17:05Z</time>
      </trkpt>
      <trkpt lat="57.58831" lon="-4.37917">
        <ele>27.1</ele>
        <time>2021-03-20T16:17:11Z</time>
      </trkpt>
      <trkpt lat="57.5883" lon="-4.37895">
        <ele>27.1</ele>
        <time>2021-03-20T16:17:17Z</time>
      </trkpt>
      <trkpt lat="57.58921" lon="-4.37817">
        <ele>25.6</ele>
        <time>2021-03-20T16:17:21Z</time>
      </trkpt>
      <trkpt lat="57.59023" lon="-4.37725">
        <ele>24.24</ele>
        <time>2021-03-20T16:17:24Z</time>
      </trkpt>
      <trkpt lat="57.59073" lon="-4.37669">
        <ele>23.29</ele>
        <time>2021-03-20T16:17:28Z</time>
      </trkpt>
      <trkpt lat="57.59106" lon="-4.37645">
        <ele>23.78</ele>
        <time>2021-03-20T16:17:31Z</time>
      </trkpt>
      <trkpt lat="57.59249" lon="-4.37571">
        <ele>19.52</ele>
        <time>2021-03-20T16:17:35Z</time>
      </trkpt>
      <trkpt lat="57.59343" lon="-4.3756">
        <ele>13.48</ele>
        <time>2021-03-20T16:17:38Z</time>
      </trkpt>
      <trkpt lat="57.59394" lon="-4.37506">
        <ele>13.61</ele>
        <time>2021-03-20T16:17:42Z</time>
      </trkpt>
      <trkpt lat="57.5946" lon="-4.37473">
        <ele>11.41</ele>
        <time>2021-03-20T16:17:45Z</time>
      </trkpt>
      <trkpt lat="57.59498" lon="-4.37417">
        <ele>12.98</ele>
        <time>2021-03-20T16:17:49Z</time>
      </trkpt>
      <trkpt lat="57.59548" lon="-4.37365">
        <ele>13.12</ele>
        <time>2021-03-20T16:17:52Z</time>
      </trkpt>
      <trkpt lat="57.59619" lon="-4.37325">
        <ele>12.73</ele>
        <time>2021-03-20T16:17:56Z</time>
      </trkpt>
      <trkpt lat="57.5964" lon="-4.37247">
        <ele>10.94</ele>
        <time>2021-03-20T16:17:59Z</time>
      </trkpt>
      <trkpt lat="57.59703" lon="-4.37145">
        <ele>8</ele>
        <time>2021-03-20T16:18:03Z</time>
      </trkpt>
      <trkpt lat="57.5976" lon="-4.37063">
        <ele>8.74</ele>
        <time>2021-03-20T16:18:06Z</time>
      </trkpt>
      <trkpt lat="57.59793" lon="-4.37041">
        <ele>9.52</ele>
        <time>2021-03-20T16:18:10Z</time>
      </trkpt>
      <trkpt lat="57.59836" lon="-4.37044">
        <ele>8.3</ele>
        <time>2021-03-20T16:18:13Z</time>
      </trkpt>
      <trkpt lat="57.59909" lon="-4.37064">
        <ele>3.97</ele>
        <time>2021-03-20T16:18:17Z</time>
      </trkpt>
      <trkpt lat="57.59937" lon="-4.37052">
        <ele>4.11</ele>
        <time>2021-03-20T16:18:21Z</time>
      </trkpt>
      <trkpt lat="57.5998" lon="-4.37003">
        <ele>4.04</ele>
        <time>2021-03-20T16:18:24Z</time>
      </trkpt>
      <trkpt lat="57.60002" lon="-4.36954">
        <ele>3.41</ele>
        <time>2021-03-20T16:18:28Z</time>
      </trkpt>
      <trkpt lat="57.60013" lon="-4.36916">
        <ele>3.09</ele>
        <time>2021-03-20T16:18:31Z</time>
      </trkpt>
      <trkpt lat="57.60018" lon="-4.36832">
        <ele>5.39</ele>
        <time>2021-03-20T16:18:35Z</time>
      </trkpt>
      <trkpt lat="57.60023" lon="-4.36808">
        <ele>6.05</ele>
        <time>2021-03-20T16:18:38Z</time>
      </trkpt>
      <trkpt lat="57.60035" lon="-4.36783">
        <ele>7.37</ele>
        <time>2021-03-20T16:18:42Z</time>
      </trkpt>
      <trkpt lat="57.60054" lon="-4.36733">
        <ele>7.68</ele>
        <time>2021-03-20T16:18:45Z</time>
      </trkpt>
      <trkpt lat="57.6008" lon="-4.3669">
        <ele>7.41</ele>
        <time>2021-03-20T16:18:49Z</time>
      </trkpt>
      <trkpt lat="57.60128" lon="-4.36648">
        <ele>5.49</ele>
        <time>2021-03-20T16:18:52Z</time>
      </trkpt>
      <trkpt lat="57.60225" lon="-4.36513">
        <ele>7.08</ele>
        <time>2021-03-20T16:18:56Z</time>
      </trkpt>
      <trkpt lat="57.60243" lon="-4.36471">
        <ele>9.34</ele>
        <time>2021-03-20T16:18:59Z</time>
      </trkpt>
      <trkpt lat="57.60262" lon="-4.36386">
        <ele>14.8</ele>
        <time>2021-03-20T16:19:03Z</time>
      </trkpt>
      <trkpt lat="57.60299" lon="-4.36263">
        <ele>16.67</ele>
        <time>2021-03-20T16:19:06Z</time>
      </trkpt>
      <trkpt lat="57.60339" lon="-4.36181">
        <ele>13.67</ele>
        <time>2021-03-20T16:19:10Z</time>
      </trkpt>
      <trkpt lat="57.60392" lon="-4.36082">
        <ele>13.04</ele>
        <time>2021-03-20T16:19:13Z</time>
      </trkpt>
      <trkpt lat="57.60481" lon="-4.35898">
        <ele>13.67</ele>
        <time>2021-03-20T16:19:17Z</time>
      </trkpt>
      <trkpt lat="57.60556" lon="-4.35785">
        <ele>13.73</ele>
        <time>2021-03-20T16:19:20Z</time>
      </trkpt>
      <trkpt lat="57.60594" lon="-4.35707">
        <ele>14.61</ele>
        <time>2021-03-20T16:19:24Z</time>
      </trkpt>
      <trkpt lat="57.60858" lon="-4.35475">
        <ele>10.1</ele>
        <time>2021-03-20T16:19:27Z</time>
      </trkpt>
      <trkpt lat="57.60874" lon="-4.35451">
        <ele>10.29</ele>
        <time>2021-03-20T16:19:31Z</time>
      </trkpt>
      <trkpt lat="57.60888" lon="-4.35408">
        <ele>10.36</ele>
        <time>2021-03-20T16:19:35Z</time>
      </trkpt>
      <trkpt lat="57.60895" lon="-4.35366">
        <ele>11.84</ele>
        <time>2021-03-20T16:19:38Z</time>
      </trkpt>
      <trkpt lat="57.60845" lon="-4.3533">
        <ele>13.1</ele>
        <time>2021-03-20T16:19:41Z</time>
      </trkpt>
      <trkpt lat="57.60856" lon="-4.35281">
        <ele>14.89</ele>
        <time>2021-03-20T16:19:46Z</time>
      </trkpt>
      <trkpt lat="57.61011" lon="-4.34874">
        <ele>18.6</ele>
        <time>2021-03-20T16:19:50Z</time>
      </trkpt>
      <trkpt lat="57.61063" lon="-4.34749">
        <ele>22.29</ele>
        <time>2021-03-20T16:19:55Z</time>
      </trkpt>
      <trkpt lat="57.61091" lon="-4.34698">
        <ele>24</ele>
        <time>2021-03-20T16:20:00Z</time>
      </trkpt>
      <trkpt lat="57.61124" lon="-4.34654">
        <ele>23.05</ele>
        <time>2021-03-20T16:20:05Z</time>
      </trkpt>
      <trkpt lat="57.61173" lon="-4.34608">
        <ele>19.78</ele>
        <time>2021-03-20T16:20:09Z</time>
      </trkpt>
      <trkpt lat="57.61199" lon="-4.34567">
        <ele>19.42</ele>
        <time>2021-03-20T16:20:14Z</time>
      </trkpt>
      <trkpt lat="57.61231" lon="-4.34501">
        <ele>19.33</ele>
        <time>2021-03-20T16:20:19Z</time>
      </trkpt>
      <trkpt lat="57.614" lon="-4.34316">
        <ele>19.21</ele>
        <time>2021-03-20T16:20:24Z</time>
      </trkpt>
      <trkpt lat="57.61425" lon="-4.34285">
        <ele>18.46</ele>
        <time>2021-03-20T16:20:29Z</time>
      </trkpt>
      <trkpt lat="57.61484" lon="-4.34171">
        <ele>18.83</ele>
        <time>2021-03-20T16:20:33Z</time>
      </trkpt>
      <trkpt lat="57.61609" lon="-4.34067">
        <ele>18.04</ele>
        <time>2021-03-20T16:20:38Z</time>
      </trkpt>
      <trkpt lat="57.61618" lon="-4.34055">
        <ele>18</ele>
        <time>2021-03-20T16:20:43Z</time>
      </trkpt>
      <trkpt lat="57.61671" lon="-4.33912">
        <ele>19</ele>
        <time>2021-03-20T16:20:48Z</time>
      </trkpt>
      <trkpt lat="57.61713" lon="-4.33848">
        <ele>18.66</ele>
        <time>2021-03-20T16:20:52Z</time>
      </trkpt>
      <trkpt lat="57.61786" lon="-4.33777">
        <ele>20.02</ele>
        <time>2021-03-20T16:20:57Z</time>
      </trkpt>
      <trkpt lat="57.61825" lon="-4.33712">
        <ele>21</ele>
        <time>2021-03-20T16:21:02Z</time>
      </trkpt>
      <trkpt lat="57.61843" lon="-4.33645">
        <ele>21.65</ele>
        <time>2021-03-20T16:21:07Z</time>
      </trkpt>
      <trkpt lat="57.6185" lon="-4.33529">
        <ele>23.38</ele>
        <time>2021-03-20T16:21:11Z</time>
      </trkpt>
      <trkpt lat="57.61902" lon="-4.33313">
        <ele>26.39</ele>
        <time>2021-03-20T16:21:16Z</time>
      </trkpt>
      <trkpt lat="57.6193" lon="-4.33141">
        <ele>29.93</ele>
        <time>2021-03-20T16:21:21Z</time>
      </trkpt>
      <trkpt lat="57.61972" lon="-4.32998">
        <ele>35.08</ele>
        <time>2021-03-20T16:21:26Z</time>
      </trkpt>
      <trkpt lat="57.62038" lon="-4.32861">
        <ele>39.01</ele>
        <time>2021-03-20T16:21:30Z</time>
      </trkpt>
      <trkpt lat="57.62074" lon="-4.32716">
        <ele>44.04</ele>
        <time>2021-03-20T16:21:35Z</time>
      </trkpt>
      <trkpt lat="57.6216" lon="-4.32529">
        <ele>53.21</ele>
        <time>2021-03-20T16:21:40Z</time>
      </trkpt>
      <trkpt lat="57.62297" lon="-4.3228">
        <ele>64.16</ele>
        <time>2021-03-20T16:21:45Z</time>
      </trkpt>
      <trkpt lat="57.62376" lon="-4.32017">
        <ele>74.89</ele>
        <time>2021-03-20T16:21:50Z</time>
      </trkpt>
      <trkpt lat="57.62464" lon="-4.31622">
        <ele>84.89</ele>
        <time>2021-03-20T16:21:54Z</time>
      </trkpt>
      <trkpt lat="57.62475" lon="-4.3155">
        <ele>87.17</ele>
        <time>2021-03-20T16:21:59Z</time>
      </trkpt>
      <trkpt lat="57.62482" lon="-4.31455">
        <ele>89.28</ele>
        <time>2021-03-20T16:22:04Z</time>
      </trkpt>
      <trkpt lat="57.62505" lon="-4.31347">
        <ele>91.53</ele>
        <time>2021-03-20T16:22:09Z</time>
      </trkpt>
      <trkpt lat="57.62521" lon="-4.31251">
        <ele>93.26</ele>
        <time>2021-03-20T16:22:13Z</time>
      </trkpt>
      <trkpt lat="57.62513" lon="-4.31222">
        <ele>94.53</ele>
        <time>2021-03-20T16:22:18Z</time>
      </trkpt>
      <trkpt lat="57.62552" lon="-4.31165">
        <ele>95.86</ele>
        <time>2021-03-20T16:22:25Z</time>
      </trkpt>
      <trkpt lat="57.6262" lon="-4.31055">
        <ele>98</ele>
        <time>2021-03-20T16:22:32Z</time>
      </trkpt>
      <trkpt lat="57.62704" lon="-4.30908">
        <ele>100.34</ele>
        <time>2021-03-20T16:22:39Z</time>
      </trkpt>
      <trkpt lat="57.62966" lon="-4.30436">
        <ele>111.77</ele>
        <time>2021-03-20T16:22:46Z</time>
      </trkpt>
      <trkpt lat="57.63542" lon="-4.2937">
        <ele>119.5</ele>
        <time>2021-03-20T16:22:53Z</time>
      </trkpt>
      <trkpt lat="57.63617" lon="-4.29226">
        <ele>121.54</ele>
        <time>2021-03-20T16:23:00Z</time>
      </trkpt>
      <trkpt lat="57.63884" lon="-4.2847">
        <ele>108.18</ele>
        <time>2021-03-20T16:23:07Z</time>
      </trkpt>
      <trkpt lat="57.64151" lon="-4.27721">
        <ele>95.57</ele>
        <time>2021-03-20T16:23:14Z</time>
      </trkpt>
      <trkpt lat="57.64405" lon="-4.26982">
        <ele>86.58</ele>
        <time>2021-03-20T16:23:21Z</time>
      </trkpt>
      <trkpt lat="57.64588" lon="-4.26483">
        <ele>83.85</ele>
        <time>2021-03-20T16:23:28Z</time>
      </trkpt>
      <trkpt lat="57.64669" lon="-4.26238">
        <ele>81.57</ele>
        <time>2021-03-20T16:23:35Z</time>
      </trkpt>
      <trkpt lat="57.64877" lon="-4.25659">
        <ele>75</ele>
        <time>2021-03-20T16:23:42Z</time>
      </trkpt>
      <trkpt lat="57.65476" lon="-4.23974">
        <ele>67</ele>
        <time>2021-03-20T16:23:48Z</time>
      </trkpt>
      <trkpt lat="57.65531" lon="-4.23831">
        <ele>65</ele>
        <time>2021-03-20T16:23:55Z</time>
      </trkpt>
      <trkpt lat="57.65606" lon="-4.23741">
        <ele>66.66</ele>
        <time>2021-03-20T16:24:02Z</time>
      </trkpt>
      <trkpt lat="57.65616" lon="-4.23726">
        <ele>66.1</ele>
        <time>2021-03-20T16:24:09Z</time>
      </trkpt>
      <trkpt lat="57.65624" lon="-4.23705">
        <ele>66</ele>
        <time>2021-03-20T16:24:16Z</time>
      </trkpt>
      <trkpt lat="57.65719" lon="-4.23381">
        <ele>68</ele>
        <time>2021-03-20T16:24:23Z</time>
      </trkpt>
      <trkpt lat="57.65969" lon="-4.2264">
        <ele>68.1</ele>
        <time>2021-03-20T16:24:30Z</time>
      </trkpt>
      <trkpt lat="57.66033" lon="-4.22463">
        <ele>69.87</ele>
        <time>2021-03-20T16:24:37Z</time>
      </trkpt>
      <trkpt lat="57.66045" lon="-4.22422">
        <ele>70</ele>
        <time>2021-03-20T16:24:44Z</time>
      </trkpt>
      <trkpt lat="57.66134" lon="-4.21864">
        <ele>73</ele>
        <time>2021-03-20T16:24:51Z</time>
      </trkpt>
      <trkpt lat="57.66238" lon="-4.21468">
        <ele>73.35</ele>
        <time>2021-03-20T16:24:58Z</time>
      </trkpt>
      <trkpt lat="57.66338" lon="-4.21115">
        <ele>71.03</ele>
        <time>2021-03-20T16:25:05Z</time>
      </trkpt>
      <trkpt lat="57.66384" lon="-4.20959">
        <ele>69.58</ele>
        <time>2021-03-20T16:25:12Z</time>
      </trkpt>
      <trkpt lat="57.66449" lon="-4.2071">
        <ele>67.82</ele>
        <time>2021-03-20T16:25:19Z</time>
      </trkpt>
      <trkpt lat="57.6652" lon="-4.20473">
        <ele>64.29</ele>
        <time>2021-03-20T16:25:26Z</time>
      </trkpt>
      <trkpt lat="57.66553" lon="-4.20334">
        <ele>63.09</ele>
        <time>2021-03-20T16:25:33Z</time>
      </trkpt>
      <trkpt lat="57.666" lon="-4.20089">
        <ele>63.62</ele>
        <time>2021-03-20T16:25:40Z</time>
      </trkpt>
      <trkpt lat="57.66623" lon="-4.19944">
        <ele>60.57</ele>
        <time>2021-03-20T16:25:47Z</time>
      </trkpt>
      <trkpt lat="57.66649" lon="-4.19785">
        <ele>59.09</ele>
        <time>2021-03-20T16:25:54Z</time>
      </trkpt>
      <trkpt lat="57.66684" lon="-4.196">
        <ele>57.63</ele>
        <time>2021-03-20T16:26:01Z</time>
      </trkpt>
      <trkpt lat="57.66712" lon="-4.19409">
        <ele>56.08</ele>
        <time>2021-03-20T16:26:08Z</time>
      </trkpt>
      <trkpt lat="57.66747" lon="-4.19074">
        <ele>53.48</ele>
        <time>2021-03-20T16:26:14Z</time>
      </trkpt>
      <trkpt lat="57.66811" lon="-4.18526">
        <ele>45.13</ele>
        <time>2021-03-20T16:26:21Z</time>
      </trkpt>
      <trkpt lat="57.66931" lon="-4.18109">
        <ele>42</ele>
        <time>2021-03-20T16:26:28Z</time>
      </trkpt>
      <trkpt lat="57.66966" lon="-4.17993">
        <ele>41</ele>
        <time>2021-03-20T16:26:35Z</time>
      </trkpt>
      <trkpt lat="57.66983" lon="-4.17953">
        <ele>41</ele>
        <time>2021-03-20T16:26:42Z</time>
      </trkpt>
      <trkpt lat="57.67023" lon="-4.17887">
        <ele>40</ele>
        <time>2021-03-20T16:26:49Z</time>
      </trkpt>
      <trkpt lat="57.67036" lon="-4.17856">
        <ele>39.56</ele>
        <time>2021-03-20T16:26:56Z</time>
      </trkpt>
      <trkpt lat="57.67044" lon="-4.17822">
        <ele>39</ele>
        <time>2021-03-20T16:27:03Z</time>
      </trkpt>
      <trkpt lat="57.67047" lon="-4.17787">
        <ele>39</ele>
        <time>2021-03-20T16:27:10Z</time>
      </trkpt>
      <trkpt lat="57.67047" lon="-4.17746">
        <ele>39</ele>
        <time>2021-03-20T16:27:17Z</time>
      </trkpt>
      <trkpt lat="57.67045" lon="-4.17705">
        <ele>39</ele>
        <time>2021-03-20T16:27:24Z</time>
      </trkpt>
      <trkpt lat="57.67036" lon="-4.17654">
        <ele>38</ele>
        <time>2021-03-20T16:27:31Z</time>
      </trkpt>
      <trkpt lat="57.67028" lon="-4.17624">
        <ele>37.47</ele>
        <time>2021-03-20T16:27:38Z</time>
      </trkpt>
      <trkpt lat="57.67019" lon="-4.17602">
        <ele>37</ele>
        <time>2021-03-20T16:27:45Z</time>
      </trkpt>
      <trkpt lat="57.66937" lon="-4.17461">
        <ele>34.58</ele>
        <time>2021-03-20T16:27:52Z</time>
      </trkpt>
      <trkpt lat="57.66846" lon="-4.17277">
        <ele>29</ele>
        <time>2021-03-20T16:27:59Z</time>
      </trkpt>
      <trkpt lat="57.66829" lon="-4.17271">
        <ele>28.83</ele>
        <time>2021-03-20T16:28:06Z</time>
      </trkpt>
      <trkpt lat="57.6681" lon="-4.1727">
        <ele>28.17</ele>
        <time>2021-03-20T16:28:13Z</time>
      </trkpt>
      <trkpt lat="57.66756" lon="-4.17216">
        <ele>25.03</ele>
        <time>2021-03-20T16:28:20Z</time>
      </trkpt>
      <trkpt lat="57.66739" lon="-4.17204">
        <ele>23.79</ele>
        <time>2021-03-20T16:28:27Z</time>
      </trkpt>
      <trkpt lat="57.66707" lon="-4.17189">
        <ele>22.23</ele>
        <time>2021-03-20T16:28:34Z</time>
      </trkpt>
      <trkpt lat="57.66691" lon="-4.17179">
        <ele>21.3</ele>
        <time>2021-03-20T16:28:41Z</time>
      </trkpt>
      <trkpt lat="57.66674" lon="-4.17165">
        <ele>20.22</ele>
        <time>2021-03-20T16:28:47Z</time>
      </trkpt>
      <trkpt lat="57.66662" lon="-4.17159">
        <ele>19.55</ele>
        <time>2021-03-20T16:28:54Z</time>
      </trkpt>
      <trkpt lat="57.66649" lon="-4.17161">
        <ele>19.14</ele>
        <time>2021-03-20T16:29:01Z</time>
      </trkpt>
      <trkpt lat="57.66612" lon="-4.17177">
        <ele>18.42</ele>
        <time>2021-03-20T16:29:08Z</time>
      </trkpt>
      <trkpt lat="57.66594" lon="-4.17181">
        <ele>17.91</ele>
        <time>2021-03-20T16:29:15Z</time>
      </trkpt>
      <trkpt lat="57.66579" lon="-4.17182">
        <ele>17.39</ele>
        <time>2021-03-20T16:29:22Z</time>
      </trkpt>
      <trkpt lat="57.66541" lon="-4.17168">
        <ele>15.52</ele>
        <time>2021-03-20T16:29:29Z</time>
      </trkpt>
      <trkpt lat="57.66531" lon="-4.1717">
        <ele>15.23</ele>
        <time>2021-03-20T16:29:36Z</time>
      </trkpt>
      <trkpt lat="57.66465" lon="-4.17212">
        <ele>13.45</ele>
        <time>2021-03-20T16:29:43Z</time>
      </trkpt>
      <trkpt lat="57.66445" lon="-4.17216">
        <ele>13</ele>
        <time>2021-03-20T16:29:50Z</time>
      </trkpt>
      <trkpt lat="57.66429" lon="-4.17204">
        <ele>12.45</ele>
        <time>2021-03-20T16:29:57Z</time>
      </trkpt>
      <trkpt lat="57.66403" lon="-4.17195">
        <ele>11.52</ele>
        <time>2021-03-20T16:30:04Z</time>
      </trkpt>
      <trkpt lat="57.6639" lon="-4.17195">
        <ele>11.04</ele>
        <time>2021-03-20T16:30:11Z</time>
      </trkpt>
      <trkpt lat="57.66367" lon="-4.17206">
        <ele>8.98</ele>
        <time>2021-03-20T16:30:18Z</time>
      </trkpt>
      <trkpt lat="57.66359" lon="-4.17214">
        <ele>8.52</ele>
        <time>2021-03-20T16:30:25Z</time>
      </trkpt>
      <trkpt lat="57.66343" lon="-4.17239">
        <ele>8.33</ele>
        <time>2021-03-20T16:30:32Z</time>
      </trkpt>
      <trkpt lat="57.6628" lon="-4.17374">
        <ele>8.16</ele>
        <time>2021-03-20T16:30:39Z</time>
      </trkpt>
      <trkpt lat="57.66244" lon="-4.17427">
        <ele>8.37</ele>
        <time>2021-03-20T16:30:46Z</time>
      </trkpt>
      <trkpt lat="57.66229" lon="-4.17439">
        <ele>8.81</ele>
        <time>2021-03-20T16:30:53Z</time>
      </trkpt>
      <trkpt lat="57.66208" lon="-4.17451">
        <ele>8.72</ele>
        <time>2021-03-20T16:31:00Z</time>
      </trkpt>
      <trkpt lat="57.65954" lon="-4.17585">
        <ele>11.32</ele>
        <time>2021-03-20T16:31:07Z</time>
      </trkpt>
      <trkpt lat="57.65913" lon="-4.17613">
        <ele>15.01</ele>
        <time>2021-03-20T16:31:13Z</time>
      </trkpt>
      <trkpt lat="57.65841" lon="-4.1768">
        <ele>13.42</ele>
        <time>2021-03-20T16:31:20Z</time>
      </trkpt>
      <trkpt lat="57.65826" lon="-4.17689">
        <ele>12.48</ele>
        <time>2021-03-20T16:31:27Z</time>
      </trkpt>
      <trkpt lat="57.65818" lon="-4.17689">
        <ele>11.92</ele>
        <time>2021-03-20T16:31:34Z</time>
      </trkpt>
      <trkpt lat="57.65807" lon="-4.1767">
        <ele>11.1</ele>
        <time>2021-03-20T16:31:37Z</time>
      </trkpt>
      <trkpt lat="57.65768" lon="-4.17563">
        <ele>8.93</ele>
        <time>2021-03-20T16:31:39Z</time>
      </trkpt>
      <trkpt lat="57.65749" lon="-4.17522">
        <ele>7.79</ele>
        <time>2021-03-20T16:31:41Z</time>
      </trkpt>
      <trkpt lat="57.6573" lon="-4.17495">
        <ele>7</ele>
        <time>2021-03-20T16:31:44Z</time>
      </trkpt>
      <trkpt lat="57.65698" lon="-4.17473">
        <ele>7.88</ele>
        <time>2021-03-20T16:31:46Z</time>
      </trkpt>
      <trkpt lat="57.6561" lon="-4.17439">
        <ele>9</ele>
        <time>2021-03-20T16:31:49Z</time>
      </trkpt>
      <trkpt lat="57.6561" lon="-4.17424">
        <ele>9</ele>
        <time>2021-03-20T16:31:54Z</time>
      </trkpt>
      <trkpt lat="57.65606" lon="-4.17386">
        <ele>8</ele>
        <time>2021-03-20T16:32:00Z</time>
      </trkpt>
      <trkpt lat="57.65589" lon="-4.17174">
        <ele>7.78</ele>
        <time>2021-03-20T16:32:06Z</time>
      </trkpt>
      <trkpt lat="57.6556" lon="-4.16742">
        <ele>9.02</ele>
        <time>2021-03-20T16:32:11Z</time>
      </trkpt>
      <trkpt lat="57.6556" lon="-4.16708">
        <ele>9.98</ele>
        <time>2021-03-20T16:32:17Z</time>
      </trkpt>
      <trkpt lat="57.65562" lon="-4.1666">
        <ele>11.27</ele>
        <time>2021-03-20T16:32:23Z</time>
      </trkpt>
      <trkpt lat="57.6559" lon="-4.16511">
        <ele>8.12</ele>
        <time>2021-03-20T16:32:28Z</time>
      </trkpt>
      <trkpt lat="57.65653" lon="-4.16272">
        <ele>5.55</ele>
        <time>2021-03-20T16:32:34Z</time>
      </trkpt>
      <trkpt lat="57.65674" lon="-4.16174">
        <ele>5.45</ele>
        <time>2021-03-20T16:32:40Z</time>
      </trkpt>
      <trkpt lat="57.6573" lon="-4.15732">
        <ele>5.22</ele>
        <time>2021-03-20T16:32:45Z</time>
      </trkpt>
      <trkpt lat="57.65733" lon="-4.15685">
        <ele>5.22</ele>
        <time>2021-03-20T16:32:51Z</time>
      </trkpt>
      <trkpt lat="57.65732" lon="-4.15535">
        <ele>4.92</ele>
        <time>2021-03-20T16:32:57Z</time>
      </trkpt>
      <trkpt lat="57.65736" lon="-4.15432">
        <ele>4.45</ele>
        <time>2021-03-20T16:33:02Z</time>
      </trkpt>
      <trkpt lat="57.65744" lon="-4.15381">
        <ele>2.92</ele>
        <time>2021-03-20T16:33:08Z</time>
      </trkpt>
      <trkpt lat="57.65778" lon="-4.15221">
        <ele>5.06</ele>
        <time>2021-03-20T16:33:14Z</time>
      </trkpt>
      <trkpt lat="57.65785" lon="-4.15186">
        <ele>5.81</ele>
        <time>2021-03-20T16:33:19Z</time>
      </trkpt>
      <trkpt lat="57.65801" lon="-4.15014">
        <ele>9.16</ele>
        <time>2021-03-20T16:33:25Z</time>
      </trkpt>
      <trkpt lat="57.65822" lon="-4.14771">
        <ele>8.42</ele>
        <time>2021-03-20T16:33:31Z</time>
      </trkpt>
      <trkpt lat="57.65846" lon="-4.14441">
        <ele>9.53</ele>
        <time>2021-03-20T16:33:36Z</time>
      </trkpt>
      <trkpt lat="57.65853" lon="-4.14336">
        <ele>9.56</ele>
        <time>2021-03-20T16:33:42Z</time>
      </trkpt>
      <trkpt lat="57.6586" lon="-4.14206">
        <ele>6.49</ele>
        <time>2021-03-20T16:33:48Z</time>
      </trkpt>
      <trkpt lat="57.65862" lon="-4.14065">
        <ele>4.63</ele>
        <time>2021-03-20T16:33:53Z</time>
      </trkpt>
      <trkpt lat="57.65871" lon="-4.13991">
        <ele>5.9</ele>
        <time>2021-03-20T16:33:59Z</time>
      </trkpt>
      <trkpt lat="57.65894" lon="-4.13893">
        <ele>2.79</ele>
        <time>2021-03-20T16:34:05Z</time>
      </trkpt>
      <trkpt lat="57.65899" lon="-4.13775">
        <ele>2.28</ele>
        <time>2021-03-20T16:34:10Z</time>
      </trkpt>
      <trkpt lat="57.65887" lon="-4.13563">
        <ele>5.38</ele>
        <time>2021-03-20T16:34:16Z</time>
      </trkpt>
      <trkpt lat="57.65895" lon="-4.13474">
        <ele>5.04</ele>
        <time>2021-03-20T16:34:22Z</time>
      </trkpt>
      <trkpt lat="57.65922" lon="-4.13388">
        <ele>6.43</ele>
        <time>2021-03-20T16:34:27Z</time>
      </trkpt>
      <trkpt lat="57.65932" lon="-4.13326">
        <ele>7.1</ele>
        <time>2021-03-20T16:34:33Z</time>
      </trkpt>
      <trkpt lat="57.65933" lon="-4.13263">
        <ele>4.84</ele>
        <time>2021-03-20T16:34:39Z</time>
      </trkpt>
      <trkpt lat="57.65927" lon="-4.13199">
        <ele>4.24</ele>
        <time>2021-03-20T16:34:44Z</time>
      </trkpt>
      <trkpt lat="57.65909" lon="-4.12876">
        <ele>4.39</ele>
        <time>2021-03-20T16:34:50Z</time>
      </trkpt>
      <trkpt lat="57.65907" lon="-4.12791">
        <ele>4.81</ele>
        <time>2021-03-20T16:34:56Z</time>
      </trkpt>
      <trkpt lat="57.65912" lon="-4.12713">
        <ele>3.9</ele>
        <time>2021-03-20T16:35:01Z</time>
      </trkpt>
      <trkpt lat="57.65924" lon="-4.1264">
        <ele>2.69</ele>
        <time>2021-03-20T16:35:07Z</time>
      </trkpt>
      <trkpt lat="57.6594" lon="-4.12572">
        <ele>3.92</ele>
        <time>2021-03-20T16:35:13Z</time>
      </trkpt>
      <trkpt lat="57.65948" lon="-4.12495">
        <ele>2.86</ele>
        <time>2021-03-20T16:35:18Z</time>
      </trkpt>
      <trkpt lat="57.65955" lon="-4.12274">
        <ele>3.52</ele>
        <time>2021-03-20T16:35:24Z</time>
      </trkpt>
      <trkpt lat="57.65969" lon="-4.12109">
        <ele>10.04</ele>
        <time>2021-03-20T16:35:30Z</time>
      </trkpt>
      <trkpt lat="57.65998" lon="-4.11969">
        <ele>12.18</ele>
        <time>2021-03-20T16:35:35Z</time>
      </trkpt>
      <trkpt lat="57.66026" lon="-4.1181">
        <ele>10.76</ele>
        <time>2021-03-20T16:35:41Z</time>
      </trkpt>
      <trkpt lat="57.66053" lon="-4.11731">
        <ele>6.81</ele>
        <time>2021-03-20T16:35:47Z</time>
      </trkpt>
      <trkpt lat="57.66099" lon="-4.11647">
        <ele>3.63</ele>
        <time>2021-03-20T16:35:52Z</time>
      </trkpt>
      <trkpt lat="57.66119" lon="-4.11574">
        <ele>4.77</ele>
        <time>2021-03-20T16:35:58Z</time>
      </trkpt>
      <trkpt lat="57.66133" lon="-4.11456">
        <ele>3.7</ele>
        <time>2021-03-20T16:36:04Z</time>
      </trkpt>
      <trkpt lat="57.66185" lon="-4.11154">
        <ele>5.72</ele>
        <time>2021-03-20T16:36:09Z</time>
      </trkpt>
      <trkpt lat="57.66226" lon="-4.11013">
        <ele>4.86</ele>
        <time>2021-03-20T16:36:15Z</time>
      </trkpt>
      <trkpt lat="57.66252" lon="-4.10908">
        <ele>3.14</ele>
        <time>2021-03-20T16:36:21Z</time>
      </trkpt>
      <trkpt lat="57.66285" lon="-4.10761">
        <ele>4.9</ele>
        <time>2021-03-20T16:36:26Z</time>
      </trkpt>
      <trkpt lat="57.66341" lon="-4.10328">
        <ele>3.18</ele>
        <time>2021-03-20T16:36:32Z</time>
      </trkpt>
      <trkpt lat="57.66364" lon="-4.10088">
        <ele>3.75</ele>
        <time>2021-03-20T16:36:38Z</time>
      </trkpt>
      <trkpt lat="57.6637" lon="-4.09924">
        <ele>2.67</ele>
        <time>2021-03-20T16:36:43Z</time>
      </trkpt>
      <trkpt lat="57.66373" lon="-4.09721">
        <ele>4.32</ele>
        <time>2021-03-20T16:36:49Z</time>
      </trkpt>
      <trkpt lat="57.66382" lon="-4.09331">
        <ele>4.47</ele>
        <time>2021-03-20T16:36:55Z</time>
      </trkpt>
      <trkpt lat="57.66403" lon="-4.08931">
        <ele>8.09</ele>
        <time>2021-03-20T16:37:00Z</time>
      </trkpt>
      <trkpt lat="57.66425" lon="-4.08769">
        <ele>5.45</ele>
        <time>2021-03-20T16:37:06Z</time>
      </trkpt>
      <trkpt lat="57.66473" lon="-4.08565">
        <ele>5.59</ele>
        <time>2021-03-20T16:37:12Z</time>
      </trkpt>
      <trkpt lat="57.66519" lon="-4.08431">
        <ele>6.65</ele>
        <time>2021-03-20T16:37:17Z</time>
      </trkpt>
      <trkpt lat="57.66529" lon="-4.08407">
        <ele>6.89</ele>
        <time>2021-03-20T16:37:23Z</time>
      </trkpt>
      <trkpt lat="57.66598" lon="-4.08273">
        <ele>7.79</ele>
        <time>2021-03-20T16:37:29Z</time>
      </trkpt>
      <trkpt lat="57.66641" lon="-4.08185">
        <ele>6.77</ele>
        <time>2021-03-20T16:37:34Z</time>
      </trkpt>
      <trkpt lat="57.66691" lon="-4.08059">
        <ele>5.67</ele>
        <time>2021-03-20T16:37:40Z</time>
      </trkpt>
      <trkpt lat="57.66738" lon="-4.07958">
        <ele>5.77</ele>
        <time>2021-03-20T16:37:46Z</time>
      </trkpt>
      <trkpt lat="57.66783" lon="-4.0783">
        <ele>6.02</ele>
        <time>2021-03-20T16:37:51Z</time>
      </trkpt>
      <trkpt lat="57.66832" lon="-4.07585">
        <ele>7.35</ele>
        <time>2021-03-20T16:37:57Z</time>
      </trkpt>
      <trkpt lat="57.66946" lon="-4.07277">
        <ele>7.82</ele>
        <time>2021-03-20T16:38:03Z</time>
      </trkpt>
      <trkpt lat="57.66992" lon="-4.07106">
        <ele>5.47</ele>
        <time>2021-03-20T16:38:08Z</time>
      </trkpt>
      <trkpt lat="57.6702" lon="-4.07029">
        <ele>7.49</ele>
        <time>2021-03-20T16:38:14Z</time>
      </trkpt>
      <trkpt lat="57.67089" lon="-4.06913">
        <ele>9.57</ele>
        <time>2021-03-20T16:38:20Z</time>
      </trkpt>
      <trkpt lat="57.67151" lon="-4.06778">
        <ele>7.05</ele>
        <time>2021-03-20T16:38:25Z</time>
      </trkpt>
      <trkpt lat="57.67231" lon="-4.06586">
        <ele>6.94</ele>
        <time>2021-03-20T16:38:31Z</time>
      </trkpt>
      <trkpt lat="57.67383" lon="-4.06244">
        <ele>2.67</ele>
        <time>2021-03-20T16:38:37Z</time>
      </trkpt>
      <trkpt lat="57.6739" lon="-4.06223">
        <ele>3.03</ele>
        <time>2021-03-20T16:38:42Z</time>
      </trkpt>
      <trkpt lat="57.67447" lon="-4.06074">
        <ele>2.7</ele>
        <time>2021-03-20T16:38:48Z</time>
      </trkpt>
      <trkpt lat="57.67532" lon="-4.05754">
        <ele>2.72</ele>
        <time>2021-03-20T16:38:54Z</time>
      </trkpt>
      <trkpt lat="57.67549" lon="-4.05585">
        <ele>3.74</ele>
        <time>2021-03-20T16:38:59Z</time>
      </trkpt>
      <trkpt lat="57.6756" lon="-4.05408">
        <ele>4.06</ele>
        <time>2021-03-20T16:39:05Z</time>
      </trkpt>
      <trkpt lat="57.67575" lon="-4.0523">
        <ele>2.29</ele>
        <time>2021-03-20T16:39:11Z</time>
      </trkpt>
      <trkpt lat="57.67601" lon="-4.0503">
        <ele>3.53</ele>
        <time>2021-03-20T16:39:16Z</time>
      </trkpt>
      <trkpt lat="57.67619" lon="-4.04844">
        <ele>3.6</ele>
        <time>2021-03-20T16:39:22Z</time>
      </trkpt>
      <trkpt lat="57.67644" lon="-4.04667">
        <ele>4.31</ele>
        <time>2021-03-20T16:39:28Z</time>
      </trkpt>
      <trkpt lat="57.67678" lon="-4.04478">
        <ele>6.15</ele>
        <time>2021-03-20T16:39:33Z</time>
      </trkpt>
      <trkpt lat="57.67727" lon="-4.04312">
        <ele>3.95</ele>
        <time>2021-03-20T16:39:39Z</time>
      </trkpt>
      <trkpt lat="57.67747" lon="-4.04258">
        <ele>3.98</ele>
        <time>2021-03-20T16:39:45Z</time>
      </trkpt>
      <trkpt lat="57.67797" lon="-4.0416">
        <ele>4.3</ele>
        <time>2021-03-20T16:39:50Z</time>
      </trkpt>
      <trkpt lat="57.67836" lon="-4.04103">
        <ele>1.26</ele>
        <time>2021-03-20T16:39:56Z</time>
      </trkpt>
      <trkpt lat="57.67899" lon="-4.04027">
        <ele>1.66</ele>
        <time>2021-03-20T16:40:02Z</time>
      </trkpt>
      <trkpt lat="57.67992" lon="-4.03774">
        <ele>7.76</ele>
        <time>2021-03-20T16:40:07Z</time>
      </trkpt>
      <trkpt lat="57.68019" lon="-4.03715">
        <ele>9</ele>
        <time>2021-03-20T16:40:13Z</time>
      </trkpt>
      <trkpt lat="57.68028" lon="-4.03684">
        <ele>9.37</ele>
        <time>2021-03-20T16:40:19Z</time>
      </trkpt>
      <trkpt lat="57.68035" lon="-4.03682">
        <ele>9.46</ele>
        <time>2021-03-20T16:40:24Z</time>
      </trkpt>
      <trkpt lat="57.68041" lon="-4.03676">
        <ele>9.68</ele>
        <time>2021-03-20T16:40:28Z</time>
      </trkpt>
      <trkpt lat="57.68052" lon="-4.03647">
        <ele>10.61</ele>
        <time>2021-03-20T16:40:33Z</time>
      </trkpt>
      <trkpt lat="57.68063" lon="-4.03556">
        <ele>11.74</ele>
        <time>2021-03-20T16:40:38Z</time>
      </trkpt>
      <trkpt lat="57.68082" lon="-4.03469">
        <ele>11.04</ele>
        <time>2021-03-20T16:40:43Z</time>
      </trkpt>
      <trkpt lat="57.68171" lon="-4.03608">
        <ele>9</ele>
        <time>2021-03-20T16:41:05Z</time>
      </trkpt>
      <trkpt lat="57.68179" lon="-4.03592">
        <ele>9</ele>
        <time>2021-03-20T16:41:07Z</time>
      </trkpt>
      <trkpt lat="57.68184" lon="-4.036">
        <ele>9</ele>
        <time>2021-03-20T16:41:09Z</time>
      </trkpt>
      <trkpt lat="57.68184" lon="-4.036">
        <ele>9</ele>
        <time>2021-03-20T16:41:09Z</time>
      </trkpt>
      <trkpt lat="57.68179" lon="-4.03592">
        <ele>9</ele>
        <time>2021-03-20T16:41:11Z</time>
      </trkpt>
      <trkpt lat="57.68171" lon="-4.03608">
        <ele>9</ele>
        <time>2021-03-20T16:41:13Z</time>
      </trkpt>
      <trkpt lat="57.68082" lon="-4.03469">
        <ele>11.04</ele>
        <time>2021-03-20T16:41:34Z</time>
      </trkpt>
      <trkpt lat="57.68063" lon="-4.03556">
        <ele>11.74</ele>
        <time>2021-03-20T16:41:38Z</time>
      </trkpt>
      <trkpt lat="57.68052" lon="-4.03647">
        <ele>10.61</ele>
        <time>2021-03-20T16:41:42Z</time>
      </trkpt>
      <trkpt lat="57.68045" lon="-4.03668">
        <ele>9.95</ele>
        <time>2021-03-20T16:41:46Z</time>
      </trkpt>
      <trkpt lat="57.68041" lon="-4.03676">
        <ele>9.68</ele>
        <time>2021-03-20T16:41:49Z</time>
      </trkpt>
      <trkpt lat="57.68035" lon="-4.03682">
        <ele>9.46</ele>
        <time>2021-03-20T16:41:53Z</time>
      </trkpt>
      <trkpt lat="57.68021" lon="-4.03685">
        <ele>9.26</ele>
        <time>2021-03-20T16:41:57Z</time>
      </trkpt>
      <trkpt lat="57.68007" lon="-4.03675">
        <ele>9.18</ele>
        <time>2021-03-20T16:42:01Z</time>
      </trkpt>
      <trkpt lat="57.67987" lon="-4.0365">
        <ele>9</ele>
        <time>2021-03-20T16:42:05Z</time>
      </trkpt>
      <trkpt lat="57.67911" lon="-4.03559">
        <ele>16.82</ele>
        <time>2021-03-20T16:42:08Z</time>
      </trkpt>
      <trkpt lat="57.67851" lon="-4.0348">
        <ele>30.35</ele>
        <time>2021-03-20T16:42:12Z</time>
      </trkpt>
      <trkpt lat="57.67799" lon="-4.03437">
        <ele>31.23</ele>
        <time>2021-03-20T16:42:16Z</time>
      </trkpt>
      <trkpt lat="57.67771" lon="-4.03435">
        <ele>32</ele>
        <time>2021-03-20T16:42:20Z</time>
      </trkpt>
      <trkpt lat="57.67736" lon="-4.03443">
        <ele>32.52</ele>
        <time>2021-03-20T16:42:23Z</time>
      </trkpt>
      <trkpt lat="57.67683" lon="-4.03485">
        <ele>38.11</ele>
        <time>2021-03-20T16:42:27Z</time>
      </trkpt>
      <trkpt lat="57.67649" lon="-4.03524">
        <ele>39.64</ele>
        <time>2021-03-20T16:42:31Z</time>
      </trkpt>
      <trkpt lat="57.67628" lon="-4.03553">
        <ele>39.62</ele>
        <time>2021-03-20T16:42:35Z</time>
      </trkpt>
      <trkpt lat="57.67617" lon="-4.03574">
        <ele>39.06</ele>
        <time>2021-03-20T16:42:39Z</time>
      </trkpt>
      <trkpt lat="57.676" lon="-4.03605">
        <ele>39.81</ele>
        <time>2021-03-20T16:42:42Z</time>
      </trkpt>
      <trkpt lat="57.67543" lon="-4.03726">
        <ele>44.38</ele>
        <time>2021-03-20T16:42:46Z</time>
      </trkpt>
      <trkpt lat="57.67522" lon="-4.0376">
        <ele>45.22</ele>
        <time>2021-03-20T16:42:50Z</time>
      </trkpt>
      <trkpt lat="57.67443" lon="-4.03864">
        <ele>47.04</ele>
        <time>2021-03-20T16:42:54Z</time>
      </trkpt>
      <trkpt lat="57.67426" lon="-4.03902">
        <ele>47.83</ele>
        <time>2021-03-20T16:42:57Z</time>
      </trkpt>
      <trkpt lat="57.67383" lon="-4.04001">
        <ele>50.01</ele>
        <time>2021-03-20T16:43:01Z</time>
      </trkpt>
      <trkpt lat="57.67373" lon="-4.04029">
        <ele>50.58</ele>
        <time>2021-03-20T16:43:05Z</time>
      </trkpt>
      <trkpt lat="57.67341" lon="-4.04139">
        <ele>52</ele>
        <time>2021-03-20T16:43:09Z</time>
      </trkpt>
      <trkpt lat="57.67289" lon="-4.04279">
        <ele>53.61</ele>
        <time>2021-03-20T16:43:13Z</time>
      </trkpt>
      <trkpt lat="57.67218" lon="-4.04483">
        <ele>59.13</ele>
        <time>2021-03-20T16:43:16Z</time>
      </trkpt>
      <trkpt lat="57.67195" lon="-4.0453">
        <ele>59</ele>
        <time>2021-03-20T16:43:20Z</time>
      </trkpt>
      <trkpt lat="57.67157" lon="-4.046">
        <ele>60.69</ele>
        <time>2021-03-20T16:43:24Z</time>
      </trkpt>
      <trkpt lat="57.67098" lon="-4.04728">
        <ele>63.01</ele>
        <time>2021-03-20T16:43:28Z</time>
      </trkpt>
      <trkpt lat="57.67085" lon="-4.04751">
        <ele>64.8</ele>
        <time>2021-03-20T16:43:31Z</time>
      </trkpt>
      <trkpt lat="57.67066" lon="-4.04779">
        <ele>65.65</ele>
        <time>2021-03-20T16:43:35Z</time>
      </trkpt>
      <trkpt lat="57.67046" lon="-4.04797">
        <ele>67.02</ele>
        <time>2021-03-20T16:43:39Z</time>
      </trkpt>
      <trkpt lat="57.67008" lon="-4.04819">
        <ele>68.48</ele>
        <time>2021-03-20T16:43:43Z</time>
      </trkpt>
      <trkpt lat="57.66967" lon="-4.04848">
        <ele>69</ele>
        <time>2021-03-20T16:43:47Z</time>
      </trkpt>
      <trkpt lat="57.6694" lon="-4.0487">
        <ele>69.15</ele>
        <time>2021-03-20T16:43:50Z</time>
      </trkpt>
      <trkpt lat="57.6692" lon="-4.04893">
        <ele>69.88</ele>
        <time>2021-03-20T16:43:54Z</time>
      </trkpt>
      <trkpt lat="57.66899" lon="-4.0487">
        <ele>70</ele>
        <time>2021-03-20T16:43:58Z</time>
      </trkpt>
      <trkpt lat="57.66864" lon="-4.04841">
        <ele>69.92</ele>
        <time>2021-03-20T16:44:01Z</time>
      </trkpt>
      <trkpt lat="57.6683" lon="-4.04772">
        <ele>72.14</ele>
        <time>2021-03-20T16:44:05Z</time>
      </trkpt>
      <trkpt lat="57.66788" lon="-4.04713">
        <ele>75.25</ele>
        <time>2021-03-20T16:44:08Z</time>
      </trkpt>
      <trkpt lat="57.66596" lon="-4.04488">
        <ele>89.53</ele>
        <time>2021-03-20T16:44:12Z</time>
      </trkpt>
      <trkpt lat="57.66494" lon="-4.04373">
        <ele>96.43</ele>
        <time>2021-03-20T16:44:15Z</time>
      </trkpt>
      <trkpt lat="57.66298" lon="-4.04141">
        <ele>113.32</ele>
        <time>2021-03-20T16:44:19Z</time>
      </trkpt>
      <trkpt lat="57.66168" lon="-4.03995">
        <ele>114</ele>
        <time>2021-03-20T16:44:23Z</time>
      </trkpt>
      <trkpt lat="57.66142" lon="-4.03983">
        <ele>114</ele>
        <time>2021-03-20T16:44:26Z</time>
      </trkpt>
      <trkpt lat="57.66109" lon="-4.04">
        <ele>114.01</ele>
        <time>2021-03-20T16:44:30Z</time>
      </trkpt>
      <trkpt lat="57.65936" lon="-4.04201">
        <ele>118.76</ele>
        <time>2021-03-20T16:44:33Z</time>
      </trkpt>
      <trkpt lat="57.65876" lon="-4.04245">
        <ele>118.42</ele>
        <time>2021-03-20T16:44:37Z</time>
      </trkpt>
      <trkpt lat="57.65735" lon="-4.04405">
        <ele>119.05</ele>
        <time>2021-03-20T16:44:40Z</time>
      </trkpt>
      <trkpt lat="57.65665" lon="-4.04537">
        <ele>118.26</ele>
        <time>2021-03-20T16:44:44Z</time>
      </trkpt>
      <trkpt lat="57.65622" lon="-4.04654">
        <ele>119.39</ele>
        <time>2021-03-20T16:44:48Z</time>
      </trkpt>
      <trkpt lat="57.65563" lon="-4.0475">
        <ele>116.84</ele>
        <time>2021-03-20T16:44:51Z</time>
      </trkpt>
      <trkpt lat="57.65342" lon="-4.05204">
        <ele>113.11</ele>
        <time>2021-03-20T16:44:55Z</time>
      </trkpt>
      <trkpt lat="57.65288" lon="-4.05297">
        <ele>113.04</ele>
        <time>2021-03-20T16:44:58Z</time>
      </trkpt>
      <trkpt lat="57.65198" lon="-4.05439">
        <ele>111.76</ele>
        <time>2021-03-20T16:45:02Z</time>
      </trkpt>
      <trkpt lat="57.65189" lon="-4.05447">
        <ele>111.9</ele>
        <time>2021-03-20T16:45:05Z</time>
      </trkpt>
      <trkpt lat="57.65145" lon="-4.05465">
        <ele>109.94</ele>
        <time>2021-03-20T16:45:09Z</time>
      </trkpt>
      <trkpt lat="57.65074" lon="-4.05571">
        <ele>105.16</ele>
        <time>2021-03-20T16:45:12Z</time>
      </trkpt>
      <trkpt lat="57.65068" lon="-4.05577">
        <ele>104.86</ele>
        <time>2021-03-20T16:45:16Z</time>
      </trkpt>
      <trkpt lat="57.65042" lon="-4.05589">
        <ele>102.53</ele>
        <time>2021-03-20T16:45:20Z</time>
      </trkpt>
      <trkpt lat="57.65033" lon="-4.05598">
        <ele>101.95</ele>
        <time>2021-03-20T16:45:23Z</time>
      </trkpt>
      <trkpt lat="57.65029" lon="-4.05616">
        <ele>102.38</ele>
        <time>2021-03-20T16:45:27Z</time>
      </trkpt>
      <trkpt lat="57.65022" lon="-4.05728">
        <ele>105.51</ele>
        <time>2021-03-20T16:45:30Z</time>
      </trkpt>
      <trkpt lat="57.65017" lon="-4.0575">
        <ele>106.48</ele>
        <time>2021-03-20T16:45:34Z</time>
      </trkpt>
      <trkpt lat="57.65002" lon="-4.05791">
        <ele>107.14</ele>
        <time>2021-03-20T16:45:37Z</time>
      </trkpt>
      <trkpt lat="57.64986" lon="-4.05811">
        <ele>106.22</ele>
        <time>2021-03-20T16:45:41Z</time>
      </trkpt>
      <trkpt lat="57.64967" lon="-4.05846">
        <ele>105.11</ele>
        <time>2021-03-20T16:45:45Z</time>
      </trkpt>
      <trkpt lat="57.64963" lon="-4.05857">
        <ele>104.97</ele>
        <time>2021-03-20T16:45:48Z</time>
      </trkpt>
      <trkpt lat="57.64953" lon="-4.05912">
        <ele>103.15</ele>
        <time>2021-03-20T16:45:52Z</time>
      </trkpt>
      <trkpt lat="57.64943" lon="-4.05927">
        <ele>102.14</ele>
        <time>2021-03-20T16:45:55Z</time>
      </trkpt>
      <trkpt lat="57.6493" lon="-4.05932">
        <ele>103.6</ele>
        <time>2021-03-20T16:45:59Z</time>
      </trkpt>
      <trkpt lat="57.64916" lon="-4.05922">
        <ele>105.06</ele>
        <time>2021-03-20T16:46:02Z</time>
      </trkpt>
      <trkpt lat="57.64912" lon="-4.05908">
        <ele>106.45</ele>
        <time>2021-03-20T16:46:06Z</time>
      </trkpt>
      <trkpt lat="57.64904" lon="-4.05857">
        <ele>109.26</ele>
        <time>2021-03-20T16:46:09Z</time>
      </trkpt>
      <trkpt lat="57.64902" lon="-4.05808">
        <ele>110.65</ele>
        <time>2021-03-20T16:46:13Z</time>
      </trkpt>
      <trkpt lat="57.64904" lon="-4.05768">
        <ele>111.42</ele>
        <time>2021-03-20T16:46:17Z</time>
      </trkpt>
      <trkpt lat="57.64904" lon="-4.05734">
        <ele>112.78</ele>
        <time>2021-03-20T16:46:20Z</time>
      </trkpt>
      <trkpt lat="57.64899" lon="-4.05723">
        <ele>113.83</ele>
        <time>2021-03-20T16:46:24Z</time>
      </trkpt>
      <trkpt lat="57.64891" lon="-4.05714">
        <ele>114.75</ele>
        <time>2021-03-20T16:46:27Z</time>
      </trkpt>
      <trkpt lat="57.64869" lon="-4.05698">
        <ele>115</ele>
        <time>2021-03-20T16:46:31Z</time>
      </trkpt>
      <trkpt lat="57.64848" lon="-4.05701">
        <ele>115.49</ele>
        <time>2021-03-20T16:46:34Z</time>
      </trkpt>
      <trkpt lat="57.64826" lon="-4.05718">
        <ele>116</ele>
        <time>2021-03-20T16:46:38Z</time>
      </trkpt>
      <trkpt lat="57.648" lon="-4.05771">
        <ele>117.21</ele>
        <time>2021-03-20T16:46:42Z</time>
      </trkpt>
      <trkpt lat="57.64775" lon="-4.05941">
        <ele>120.09</ele>
        <time>2021-03-20T16:46:45Z</time>
      </trkpt>
      <trkpt lat="57.64743" lon="-4.06201">
        <ele>125.26</ele>
        <time>2021-03-20T16:46:49Z</time>
      </trkpt>
      <trkpt lat="57.64716" lon="-4.06313">
        <ele>126.43</ele>
        <time>2021-03-20T16:46:52Z</time>
      </trkpt>
      <trkpt lat="57.64707" lon="-4.06342">
        <ele>127.09</ele>
        <time>2021-03-20T16:46:56Z</time>
      </trkpt>
      <trkpt lat="57.64702" lon="-4.06349">
        <ele>127.48</ele>
        <time>2021-03-20T16:46:59Z</time>
      </trkpt>
      <trkpt lat="57.64694" lon="-4.06352">
        <ele>128.02</ele>
        <time>2021-03-20T16:47:03Z</time>
      </trkpt>
      <trkpt lat="57.64564" lon="-4.06319">
        <ele>136.38</ele>
        <time>2021-03-20T16:47:06Z</time>
      </trkpt>
      <trkpt lat="57.64557" lon="-4.06318">
        <ele>136.9</ele>
        <time>2021-03-20T16:47:10Z</time>
      </trkpt>
      <trkpt lat="57.64548" lon="-4.06323">
        <ele>137.58</ele>
        <time>2021-03-20T16:47:14Z</time>
      </trkpt>
      <trkpt lat="57.64529" lon="-4.06335">
        <ele>138.94</ele>
        <time>2021-03-20T16:47:17Z</time>
      </trkpt>
      <trkpt lat="57.64466" lon="-4.06393">
        <ele>149.05</ele>
        <time>2021-03-20T16:47:21Z</time>
      </trkpt>
      <trkpt lat="57.6441" lon="-4.06453">
        <ele>154.77</ele>
        <time>2021-03-20T16:47:24Z</time>
      </trkpt>
      <trkpt lat="57.64365" lon="-4.06512">
        <ele>160.03</ele>
        <time>2021-03-20T16:47:28Z</time>
      </trkpt>
      <trkpt lat="57.64328" lon="-4.06551">
        <ele>162.88</ele>
        <time>2021-03-20T16:47:31Z</time>
      </trkpt>
      <trkpt lat="57.6429" lon="-4.06575">
        <ele>166.64</ele>
        <time>2021-03-20T16:47:35Z</time>
      </trkpt>
      <trkpt lat="57.64206" lon="-4.06622">
        <ele>176.35</ele>
        <time>2021-03-20T16:47:39Z</time>
      </trkpt>
      <trkpt lat="57.64176" lon="-4.06644">
        <ele>178.17</ele>
        <time>2021-03-20T16:47:42Z</time>
      </trkpt>
      <trkpt lat="57.6411" lon="-4.06663">
        <ele>181.18</ele>
        <time>2021-03-20T16:47:46Z</time>
      </trkpt>
      <trkpt lat="57.64049" lon="-4.06684">
        <ele>182.82</ele>
        <time>2021-03-20T16:47:49Z</time>
      </trkpt>
      <trkpt lat="57.64021" lon="-4.06701">
        <ele>183.82</ele>
        <time>2021-03-20T16:47:53Z</time>
      </trkpt>
      <trkpt lat="57.63994" lon="-4.06729">
        <ele>184.2</ele>
        <time>2021-03-20T16:47:56Z</time>
      </trkpt>
      <trkpt lat="57.63921" lon="-4.06833">
        <ele>189.54</ele>
        <time>2021-03-20T16:48:00Z</time>
      </trkpt>
      <trkpt lat="57.6383" lon="-4.0694">
        <ele>193.25</ele>
        <time>2021-03-20T16:48:03Z</time>
      </trkpt>
      <trkpt lat="57.63642" lon="-4.07179">
        <ele>201.72</ele>
        <time>2021-03-20T16:48:07Z</time>
      </trkpt>
      <trkpt lat="57.63583" lon="-4.0726">
        <ele>205</ele>
        <time>2021-03-20T16:48:11Z</time>
      </trkpt>
      <trkpt lat="57.63529" lon="-4.07351">
        <ele>206.9</ele>
        <time>2021-03-20T16:48:14Z</time>
      </trkpt>
      <trkpt lat="57.63494" lon="-4.07418">
        <ele>208.21</ele>
        <time>2021-03-20T16:48:18Z</time>
      </trkpt>
      <trkpt lat="57.63469" lon="-4.07475">
        <ele>208.3</ele>
        <time>2021-03-20T16:48:21Z</time>
      </trkpt>
      <trkpt lat="57.63447" lon="-4.07511">
        <ele>210.38</ele>
        <time>2021-03-20T16:48:25Z</time>
      </trkpt>
      <trkpt lat="57.63363" lon="-4.07624">
        <ele>211.54</ele>
        <time>2021-03-20T16:48:28Z</time>
      </trkpt>
      <trkpt lat="57.63337" lon="-4.07686">
        <ele>210.05</ele>
        <time>2021-03-20T16:48:32Z</time>
      </trkpt>
      <trkpt lat="57.63321" lon="-4.07738">
        <ele>208.67</ele>
        <time>2021-03-20T16:48:36Z</time>
      </trkpt>
      <trkpt lat="57.63299" lon="-4.07793">
        <ele>206.81</ele>
        <time>2021-03-20T16:48:39Z</time>
      </trkpt>
      <trkpt lat="57.63259" lon="-4.07867">
        <ele>205</ele>
        <time>2021-03-20T16:48:43Z</time>
      </trkpt>
      <trkpt lat="57.6312" lon="-4.08173">
        <ele>204</ele>
        <time>2021-03-20T16:48:46Z</time>
      </trkpt>
      <trkpt lat="57.63063" lon="-4.08326">
        <ele>207.49</ele>
        <time>2021-03-20T16:48:50Z</time>
      </trkpt>
      <trkpt lat="57.63055" lon="-4.08342">
        <ele>208.3</ele>
        <time>2021-03-20T16:48:53Z</time>
      </trkpt>
      <trkpt lat="57.63037" lon="-4.08395">
        <ele>210.38</ele>
        <time>2021-03-20T16:48:57Z</time>
      </trkpt>
      <trkpt lat="57.63035" lon="-4.08397">
        <ele>210.51</ele>
        <time>2021-03-20T16:49:00Z</time>
      </trkpt>
      <trkpt lat="57.62931" lon="-4.08711">
        <ele>220.9</ele>
        <time>2021-03-20T16:49:04Z</time>
      </trkpt>
      <trkpt lat="57.62922" lon="-4.08748">
        <ele>222.87</ele>
        <time>2021-03-20T16:49:08Z</time>
      </trkpt>
      <trkpt lat="57.62823" lon="-4.09051">
        <ele>224.64</ele>
        <time>2021-03-20T16:49:11Z</time>
      </trkpt>
      <trkpt lat="57.62808" lon="-4.09089">
        <ele>222.98</ele>
        <time>2021-03-20T16:49:15Z</time>
      </trkpt>
      <trkpt lat="57.62792" lon="-4.09113">
        <ele>223.03</ele>
        <time>2021-03-20T16:49:18Z</time>
      </trkpt>
      <trkpt lat="57.62743" lon="-4.09141">
        <ele>220.36</ele>
        <time>2021-03-20T16:49:22Z</time>
      </trkpt>
      <trkpt lat="57.62697" lon="-4.092">
        <ele>217.62</ele>
        <time>2021-03-20T16:49:25Z</time>
      </trkpt>
      <trkpt lat="57.62643" lon="-4.09238">
        <ele>212.11</ele>
        <time>2021-03-20T16:49:29Z</time>
      </trkpt>
      <trkpt lat="57.62573" lon="-4.09283">
        <ele>204.57</ele>
        <time>2021-03-20T16:49:33Z</time>
      </trkpt>
      <trkpt lat="57.62545" lon="-4.09314">
        <ele>203.38</ele>
        <time>2021-03-20T16:49:36Z</time>
      </trkpt>
      <trkpt lat="57.6243" lon="-4.09493">
        <ele>204.38</ele>
        <time>2021-03-20T16:49:40Z</time>
      </trkpt>
      <trkpt lat="57.62387" lon="-4.0959">
        <ele>204.08</ele>
        <time>2021-03-20T16:49:43Z</time>
      </trkpt>
      <trkpt lat="57.62349" lon="-4.09645">
        <ele>203</ele>
        <time>2021-03-20T16:49:47Z</time>
      </trkpt>
      <trkpt lat="57.62313" lon="-4.09707">
        <ele>203</ele>
        <time>2021-03-20T16:49:50Z</time>
      </trkpt>
      <trkpt lat="57.62274" lon="-4.09785">
        <ele>203.68</ele>
        <time>2021-03-20T16:49:54Z</time>
      </trkpt>
      <trkpt lat="57.62247" lon="-4.09832">
        <ele>206.2</ele>
        <time>2021-03-20T16:49:57Z</time>
      </trkpt>
      <trkpt lat="57.62123" lon="-4.09928">
        <ele>200.57</ele>
        <time>2021-03-20T16:50:01Z</time>
      </trkpt>
      <trkpt lat="57.6209" lon="-4.09959">
        <ele>195.36</ele>
        <time>2021-03-20T16:50:05Z</time>
      </trkpt>
      <trkpt lat="57.62056" lon="-4.10011">
        <ele>192.9</ele>
        <time>2021-03-20T16:50:08Z</time>
      </trkpt>
      <trkpt lat="57.61926" lon="-4.10247">
        <ele>187.11</ele>
        <time>2021-03-20T16:50:12Z</time>
      </trkpt>
      <trkpt lat="57.6172" lon="-4.10636">
        <ele>182.97</ele>
        <time>2021-03-20T16:50:15Z</time>
      </trkpt>
      <trkpt lat="57.61686" lon="-4.10705">
        <ele>180.35</ele>
        <time>2021-03-20T16:50:19Z</time>
      </trkpt>
      <trkpt lat="57.61271" lon="-4.11507">
        <ele>154.52</ele>
        <time>2021-03-20T16:50:24Z</time>
      </trkpt>
      <trkpt lat="57.61211" lon="-4.11634">
        <ele>151.63</ele>
        <time>2021-03-20T16:50:29Z</time>
      </trkpt>
      <trkpt lat="57.61187" lon="-4.11677">
        <ele>150.58</ele>
        <time>2021-03-20T16:50:35Z</time>
      </trkpt>
      <trkpt lat="57.6097" lon="-4.12004">
        <ele>143.06</ele>
        <time>2021-03-20T16:50:40Z</time>
      </trkpt>
      <trkpt lat="57.60949" lon="-4.12046">
        <ele>143.15</ele>
        <time>2021-03-20T16:50:45Z</time>
      </trkpt>
      <trkpt lat="57.60857" lon="-4.12298">
        <ele>139.76</ele>
        <time>2021-03-20T16:50:51Z</time>
      </trkpt>
      <trkpt lat="57.60829" lon="-4.1237">
        <ele>138.71</ele>
        <time>2021-03-20T16:50:56Z</time>
      </trkpt>
      <trkpt lat="57.60792" lon="-4.12447">
        <ele>135.69</ele>
        <time>2021-03-20T16:51:01Z</time>
      </trkpt>
      <trkpt lat="57.6072" lon="-4.12566">
        <ele>132.43</ele>
        <time>2021-03-20T16:51:06Z</time>
      </trkpt>
      <trkpt lat="57.607" lon="-4.12604">
        <ele>133.11</ele>
        <time>2021-03-20T16:51:12Z</time>
      </trkpt>
      <trkpt lat="57.60585" lon="-4.12838">
        <ele>129.59</ele>
        <time>2021-03-20T16:51:17Z</time>
      </trkpt>
      <trkpt lat="57.60489" lon="-4.13048">
        <ele>120.83</ele>
        <time>2021-03-20T16:51:22Z</time>
      </trkpt>
      <trkpt lat="57.60443" lon="-4.1316">
        <ele>113.77</ele>
        <time>2021-03-20T16:51:27Z</time>
      </trkpt>
      <trkpt lat="57.60354" lon="-4.13426">
        <ele>97.5</ele>
        <time>2021-03-20T16:51:33Z</time>
      </trkpt>
      <trkpt lat="57.60336" lon="-4.13464">
        <ele>95.54</ele>
        <time>2021-03-20T16:51:38Z</time>
      </trkpt>
      <trkpt lat="57.60312" lon="-4.13487">
        <ele>93.07</ele>
        <time>2021-03-20T16:51:43Z</time>
      </trkpt>
      <trkpt lat="57.60285" lon="-4.13503">
        <ele>90.39</ele>
        <time>2021-03-20T16:51:48Z</time>
      </trkpt>
      <trkpt lat="57.60222" lon="-4.13501">
        <ele>87.93</ele>
        <time>2021-03-20T16:51:54Z</time>
      </trkpt>
      <trkpt lat="57.60199" lon="-4.13487">
        <ele>86.76</ele>
        <time>2021-03-20T16:51:59Z</time>
      </trkpt>
      <trkpt lat="57.60031" lon="-4.133">
        <ele>76.71</ele>
        <time>2021-03-20T16:52:04Z</time>
      </trkpt>
      <trkpt lat="57.60023" lon="-4.13287">
        <ele>75.99</ele>
        <time>2021-03-20T16:52:10Z</time>
      </trkpt>
      <trkpt lat="57.60015" lon="-4.13257">
        <ele>75.9</ele>
        <time>2021-03-20T16:52:15Z</time>
      </trkpt>
      <trkpt lat="57.59991" lon="-4.13226">
        <ele>74.76</ele>
        <time>2021-03-20T16:52:20Z</time>
      </trkpt>
      <trkpt lat="57.59978" lon="-4.13214">
        <ele>73.94</ele>
        <time>2021-03-20T16:52:25Z</time>
      </trkpt>
      <trkpt lat="57.59968" lon="-4.13217">
        <ele>72.79</ele>
        <time>2021-03-20T16:52:31Z</time>
      </trkpt>
      <trkpt lat="57.5994" lon="-4.13177">
        <ele>71.76</ele>
        <time>2021-03-20T16:52:34Z</time>
      </trkpt>
      <trkpt lat="57.59866" lon="-4.13059">
        <ele>67.69</ele>
        <time>2021-03-20T16:52:37Z</time>
      </trkpt>
      <trkpt lat="57.59792" lon="-4.12966">
        <ele>66.88</ele>
        <time>2021-03-20T16:52:40Z</time>
      </trkpt>
      <trkpt lat="57.59762" lon="-4.12944">
        <ele>63.59</ele>
        <time>2021-03-20T16:52:44Z</time>
      </trkpt>
      <trkpt lat="57.59732" lon="-4.12929">
        <ele>59.99</ele>
        <time>2021-03-20T16:52:47Z</time>
      </trkpt>
      <trkpt lat="57.59708" lon="-4.12914">
        <ele>57.28</ele>
        <time>2021-03-20T16:52:50Z</time>
      </trkpt>
      <trkpt lat="57.59685" lon="-4.12893">
        <ele>54.62</ele>
        <time>2021-03-20T16:52:53Z</time>
      </trkpt>
      <trkpt lat="57.59609" lon="-4.12719">
        <ele>51.6</ele>
        <time>2021-03-20T16:52:57Z</time>
      </trkpt>
      <trkpt lat="57.59572" lon="-4.12617">
        <ele>50.17</ele>
        <time>2021-03-20T16:53:00Z</time>
      </trkpt>
      <trkpt lat="57.59544" lon="-4.12557">
        <ele>51.71</ele>
        <time>2021-03-20T16:53:03Z</time>
      </trkpt>
      <trkpt lat="57.59459" lon="-4.12473">
        <ele>45.07</ele>
        <time>2021-03-20T16:53:06Z</time>
      </trkpt>
      <trkpt lat="57.59412" lon="-4.12419">
        <ele>38.04</ele>
        <time>2021-03-20T16:53:09Z</time>
      </trkpt>
      <trkpt lat="57.59405" lon="-4.12403">
        <ele>37.6</ele>
        <time>2021-03-20T16:53:13Z</time>
      </trkpt>
      <trkpt lat="57.59398" lon="-4.12378">
        <ele>36.9</ele>
        <time>2021-03-20T16:53:16Z</time>
      </trkpt>
      <trkpt lat="57.59345" lon="-4.1203">
        <ele>30.16</ele>
        <time>2021-03-20T16:53:19Z</time>
      </trkpt>
      <trkpt lat="57.59322" lon="-4.11893">
        <ele>31.53</ele>
        <time>2021-03-20T16:53:22Z</time>
      </trkpt>
      <trkpt lat="57.59317" lon="-4.11878">
        <ele>30.67</ele>
        <time>2021-03-20T16:53:26Z</time>
      </trkpt>
      <trkpt lat="57.59309" lon="-4.11875">
        <ele>28.84</ele>
        <time>2021-03-20T16:53:29Z</time>
      </trkpt>
      <trkpt lat="57.59302" lon="-4.11874">
        <ele>27.38</ele>
        <time>2021-03-20T16:53:32Z</time>
      </trkpt>
      <trkpt lat="57.5928" lon="-4.1188">
        <ele>23.31</ele>
        <time>2021-03-20T16:53:35Z</time>
      </trkpt>
      <trkpt lat="57.5927" lon="-4.11872">
        <ele>23.51</ele>
        <time>2021-03-20T16:53:39Z</time>
      </trkpt>
      <trkpt lat="57.59263" lon="-4.11853">
        <ele>23.36</ele>
        <time>2021-03-20T16:53:42Z</time>
      </trkpt>
      <trkpt lat="57.59243" lon="-4.11705">
        <ele>15.91</ele>
        <time>2021-03-20T16:53:45Z</time>
      </trkpt>
      <trkpt lat="57.59243" lon="-4.11705">
        <ele>15.91</ele>
        <time>2021-03-20T16:53:45Z</time>
      </trkpt>
      <trkpt lat="57.59228" lon="-4.11594">
        <ele>13.8</ele>
        <time>2021-03-20T16:53:49Z</time>
      </trkpt>
      <trkpt lat="57.59221" lon="-4.11571">
        <ele>12.98</ele>
        <time>2021-03-20T16:53:54Z</time>
      </trkpt>
      <trkpt lat="57.59213" lon="-4.11554">
        <ele>12.67</ele>
        <time>2021-03-20T16:53:58Z</time>
      </trkpt>
      <trkpt lat="57.59182" lon="-4.11501">
        <ele>12.01</ele>
        <time>2021-03-20T16:54:02Z</time>
      </trkpt>
      <trkpt lat="57.59155" lon="-4.11492">
        <ele>13.25</ele>
        <time>2021-03-20T16:54:06Z</time>
      </trkpt>
      <trkpt lat="57.59144" lon="-4.11491">
        <ele>14.48</ele>
        <time>2021-03-20T16:54:11Z</time>
      </trkpt>
      <trkpt lat="57.59114" lon="-4.11499">
        <ele>15.91</ele>
        <time>2021-03-20T16:54:15Z</time>
      </trkpt>
      <trkpt lat="57.59054" lon="-4.11526">
        <ele>16.86</ele>
        <time>2021-03-20T16:54:19Z</time>
      </trkpt>
      <trkpt lat="57.59" lon="-4.11556">
        <ele>16.03</ele>
        <time>2021-03-20T16:54:24Z</time>
      </trkpt>
      <trkpt lat="57.58999" lon="-4.1156">
        <ele>16.18</ele>
        <time>2021-03-20T16:54:30Z</time>
      </trkpt>
      <trkpt lat="57.58996" lon="-4.11633">
        <ele>20.25</ele>
        <time>2021-03-20T16:54:37Z</time>
      </trkpt>
      <trkpt lat="57.5899" lon="-4.11667">
        <ele>22.67</ele>
        <time>2021-03-20T16:54:44Z</time>
      </trkpt>
      <trkpt lat="57.58987" lon="-4.11676">
        <ele>23.64</ele>
        <time>2021-03-20T16:54:51Z</time>
      </trkpt>
      <trkpt lat="57.58917" lon="-4.11745">
        <ele>25.47</ele>
        <time>2021-03-20T16:54:58Z</time>
      </trkpt>
      <trkpt lat="57.58898" lon="-4.11766">
        <ele>26.34</ele>
        <time>2021-03-20T16:55:05Z</time>
      </trkpt>
      <trkpt lat="57.58884" lon="-4.11785">
        <ele>27.69</ele>
        <time>2021-03-20T16:55:12Z</time>
      </trkpt>
      <trkpt lat="57.58832" lon="-4.11875">
        <ele>31.94</ele>
        <time>2021-03-20T16:55:19Z</time>
      </trkpt>
      <trkpt lat="57.58795" lon="-4.11945">
        <ele>31.36</ele>
        <time>2021-03-20T16:55:26Z</time>
      </trkpt>
      <trkpt lat="57.58773" lon="-4.12001">
        <ele>31.13</ele>
        <time>2021-03-20T16:55:32Z</time>
      </trkpt>
      <trkpt lat="57.58765" lon="-4.12018">
        <ele>30.83</ele>
        <time>2021-03-20T16:55:39Z</time>
      </trkpt>
      <trkpt lat="57.5869" lon="-4.12111">
        <ele>30.17</ele>
        <time>2021-03-20T16:55:46Z</time>
      </trkpt>
      <trkpt lat="57.5866" lon="-4.12153">
        <ele>30.11</ele>
        <time>2021-03-20T16:55:53Z</time>
      </trkpt>
      <trkpt lat="57.58632" lon="-4.12201">
        <ele>30</ele>
        <time>2021-03-20T16:56:00Z</time>
      </trkpt>
      <trkpt lat="57.58429" lon="-4.12581">
        <ele>28.95</ele>
        <time>2021-03-20T16:56:07Z</time>
      </trkpt>
      <trkpt lat="57.5834" lon="-4.12735">
        <ele>29.44</ele>
        <time>2021-03-20T16:56:14Z</time>
      </trkpt>
      <trkpt lat="57.58227" lon="-4.12952">
        <ele>28.18</ele>
        <time>2021-03-20T16:56:21Z</time>
      </trkpt>
      <trkpt lat="57.58208" lon="-4.12992">
        <ele>27.47</ele>
        <time>2021-03-20T16:56:28Z</time>
      </trkpt>
      <trkpt lat="57.58165" lon="-4.13097">
        <ele>27</ele>
        <time>2021-03-20T16:56:34Z</time>
      </trkpt>
      <trkpt lat="57.58117" lon="-4.13198">
        <ele>25</ele>
        <time>2021-03-20T16:56:41Z</time>
      </trkpt>
      <trkpt lat="57.58094" lon="-4.13258">
        <ele>25</ele>
        <time>2021-03-20T16:56:48Z</time>
      </trkpt>
      <trkpt lat="57.58058" lon="-4.13362">
        <ele>24.96</ele>
        <time>2021-03-20T16:56:55Z</time>
      </trkpt>
      <trkpt lat="57.58027" lon="-4.1343">
        <ele>22.92</ele>
        <time>2021-03-20T16:57:02Z</time>
      </trkpt>
      <trkpt lat="57.5801" lon="-4.13457">
        <ele>22.02</ele>
        <time>2021-03-20T16:57:09Z</time>
      </trkpt>
      <trkpt lat="57.57922" lon="-4.13576">
        <ele>16.9</ele>
        <time>2021-03-20T16:57:16Z</time>
      </trkpt>
      <trkpt lat="57.57906" lon="-4.13607">
        <ele>16</ele>
        <time>2021-03-20T16:57:23Z</time>
      </trkpt>
      <trkpt lat="57.57889" lon="-4.13652">
        <ele>14.44</ele>
        <time>2021-03-20T16:57:30Z</time>
      </trkpt>
      <trkpt lat="57.57841" lon="-4.13806">
        <ele>13.9</ele>
        <time>2021-03-20T16:57:36Z</time>
      </trkpt>
      <trkpt lat="57.57791" lon="-4.13981">
        <ele>16.2</ele>
        <time>2021-03-20T16:57:43Z</time>
      </trkpt>
      <trkpt lat="57.57738" lon="-4.14184">
        <ele>18.43</ele>
        <time>2021-03-20T16:57:50Z</time>
      </trkpt>
      <trkpt lat="57.5773" lon="-4.1421">
        <ele>18.58</ele>
        <time>2021-03-20T16:57:57Z</time>
      </trkpt>
      <trkpt lat="57.57717" lon="-4.14238">
        <ele>18.93</ele>
        <time>2021-03-20T16:58:04Z</time>
      </trkpt>
      <trkpt lat="57.57673" lon="-4.14326">
        <ele>21.45</ele>
        <time>2021-03-20T16:58:11Z</time>
      </trkpt>
      <trkpt lat="57.57655" lon="-4.14367">
        <ele>21.07</ele>
        <time>2021-03-20T16:58:18Z</time>
      </trkpt>
      <trkpt lat="57.57601" lon="-4.14522">
        <ele>20.98</ele>
        <time>2021-03-20T16:58:25Z</time>
      </trkpt>
      <trkpt lat="57.57551" lon="-4.14645">
        <ele>18.71</ele>
        <time>2021-03-20T16:58:32Z</time>
      </trkpt>
      <trkpt lat="57.57463" lon="-4.14811">
        <ele>21.9</ele>
        <time>2021-03-20T16:58:38Z</time>
      </trkpt>
      <trkpt lat="57.57416" lon="-4.14929">
        <ele>27.7</ele>
        <time>2021-03-20T16:58:45Z</time>
      </trkpt>
      <trkpt lat="57.57342" lon="-4.15137">
        <ele>26.43</ele>
        <time>2021-03-20T16:58:52Z</time>
      </trkpt>
      <trkpt lat="57.57302" lon="-4.15236">
        <ele>19.47</ele>
        <time>2021-03-20T16:58:59Z</time>
      </trkpt>
      <trkpt lat="57.57274" lon="-4.15336">
        <ele>23.44</ele>
        <time>2021-03-20T16:59:06Z</time>
      </trkpt>
      <trkpt lat="57.57265" lon="-4.15374">
        <ele>26.2</ele>
        <time>2021-03-20T16:59:13Z</time>
      </trkpt>
      <trkpt lat="57.57248" lon="-4.1543">
        <ele>27.44</ele>
        <time>2021-03-20T16:59:20Z</time>
      </trkpt>
      <trkpt lat="57.57226" lon="-4.15491">
        <ele>28.03</ele>
        <time>2021-03-20T16:59:27Z</time>
      </trkpt>
      <trkpt lat="57.57207" lon="-4.15521">
        <ele>26.14</ele>
        <time>2021-03-20T16:59:34Z</time>
      </trkpt>
      <trkpt lat="57.57166" lon="-4.15633">
        <ele>20.65</ele>
        <time>2021-03-20T16:59:40Z</time>
      </trkpt>
      <trkpt lat="57.57156" lon="-4.15691">
        <ele>23.52</ele>
        <time>2021-03-20T16:59:47Z</time>
      </trkpt>
      <trkpt lat="57.57136" lon="-4.15752">
        <ele>27.22</ele>
        <time>2021-03-20T16:59:54Z</time>
      </trkpt>
      <trkpt lat="57.57061" lon="-4.15929">
        <ele>16.64</ele>
        <time>2021-03-20T17:00:01Z</time>
      </trkpt>
      <trkpt lat="57.56979" lon="-4.16101">
        <ele>20.94</ele>
        <time>2021-03-20T17:00:08Z</time>
      </trkpt>
      <trkpt lat="57.56888" lon="-4.16301">
        <ele>20.2</ele>
        <time>2021-03-20T17:00:15Z</time>
      </trkpt>
      <trkpt lat="57.56825" lon="-4.16474">
        <ele>20.6</ele>
        <time>2021-03-20T17:00:22Z</time>
      </trkpt>
      <trkpt lat="57.56777" lon="-4.16633">
        <ele>15.54</ele>
        <time>2021-03-20T17:00:29Z</time>
      </trkpt>
      <trkpt lat="57.56736" lon="-4.16792">
        <ele>10.98</ele>
        <time>2021-03-20T17:00:36Z</time>
      </trkpt>
      <trkpt lat="57.56724" lon="-4.16865">
        <ele>10.28</ele>
        <time>2021-03-20T17:00:42Z</time>
      </trkpt>
      <trkpt lat="57.56721" lon="-4.16975">
        <ele>11.86</ele>
        <time>2021-03-20T17:00:49Z</time>
      </trkpt>
      <trkpt lat="57.56722" lon="-4.17026">
        <ele>12.01</ele>
        <time>2021-03-20T17:00:56Z</time>
      </trkpt>
      <trkpt lat="57.56732" lon="-4.17145">
        <ele>11.27</ele>
        <time>2021-03-20T17:01:03Z</time>
      </trkpt>
      <trkpt lat="57.5674" lon="-4.1722">
        <ele>10.3</ele>
        <time>2021-03-20T17:01:10Z</time>
      </trkpt>
      <trkpt lat="57.56739" lon="-4.17305">
        <ele>9.36</ele>
        <time>2021-03-20T17:01:17Z</time>
      </trkpt>
      <trkpt lat="57.56732" lon="-4.1743">
        <ele>6.7</ele>
        <time>2021-03-20T17:01:24Z</time>
      </trkpt>
      <trkpt lat="57.56727" lon="-4.1748">
        <ele>7.37</ele>
        <time>2021-03-20T17:01:31Z</time>
      </trkpt>
      <trkpt lat="57.56711" lon="-4.17668">
        <ele>13.29</ele>
        <time>2021-03-20T17:01:38Z</time>
      </trkpt>
      <trkpt lat="57.5671" lon="-4.17705">
        <ele>14.55</ele>
        <time>2021-03-20T17:01:44Z</time>
      </trkpt>
      <trkpt lat="57.56711" lon="-4.17735">
        <ele>15.1</ele>
        <time>2021-03-20T17:01:51Z</time>
      </trkpt>
      <trkpt lat="57.56715" lon="-4.17775">
        <ele>15.26</ele>
        <time>2021-03-20T17:01:58Z</time>
      </trkpt>
      <trkpt lat="57.56727" lon="-4.17843">
        <ele>17.25</ele>
        <time>2021-03-20T17:02:05Z</time>
      </trkpt>
      <trkpt lat="57.56747" lon="-4.17927">
        <ele>20.04</ele>
        <time>2021-03-20T17:02:12Z</time>
      </trkpt>
      <trkpt lat="57.56771" lon="-4.18011">
        <ele>20.55</ele>
        <time>2021-03-20T17:02:19Z</time>
      </trkpt>
      <trkpt lat="57.56858" lon="-4.18345">
        <ele>23.54</ele>
        <time>2021-03-20T17:02:26Z</time>
      </trkpt>
      <trkpt lat="57.56869" lon="-4.18396">
        <ele>24.73</ele>
        <time>2021-03-20T17:02:33Z</time>
      </trkpt>
      <trkpt lat="57.56886" lon="-4.18623">
        <ele>23.77</ele>
        <time>2021-03-20T17:02:40Z</time>
      </trkpt>
      <trkpt lat="57.569" lon="-4.18849">
        <ele>24.5</ele>
        <time>2021-03-20T17:02:47Z</time>
      </trkpt>
      <trkpt lat="57.56885" lon="-4.18853">
        <ele>26.11</ele>
        <time>2021-03-20T17:02:48Z</time>
      </trkpt>
      <trkpt lat="57.56862" lon="-4.18971">
        <ele>28.92</ele>
        <time>2021-03-20T17:02:49Z</time>
      </trkpt>
      <trkpt lat="57.56861" lon="-4.19021">
        <ele>29.05</ele>
        <time>2021-03-20T17:02:51Z</time>
      </trkpt>
      <trkpt lat="57.56871" lon="-4.19074">
        <ele>27.51</ele>
        <time>2021-03-20T17:02:52Z</time>
      </trkpt>
      <trkpt lat="57.56875" lon="-4.19115">
        <ele>26.9</ele>
        <time>2021-03-20T17:02:54Z</time>
      </trkpt>
      <trkpt lat="57.56872" lon="-4.19142">
        <ele>26.81</ele>
        <time>2021-03-20T17:02:55Z</time>
      </trkpt>
      <trkpt lat="57.56875" lon="-4.19159">
        <ele>26.52</ele>
        <time>2021-03-20T17:02:57Z</time>
      </trkpt>
      <trkpt lat="57.56777" lon="-4.19586">
        <ele>28.08</ele>
        <time>2021-03-20T17:03:11Z</time>
      </trkpt>
      <trkpt lat="57.56688" lon="-4.19951">
        <ele>30.99</ele>
        <time>2021-03-20T17:03:26Z</time>
      </trkpt>
      <trkpt lat="57.56528" lon="-4.20527">
        <ele>36.11</ele>
        <time>2021-03-20T17:03:41Z</time>
      </trkpt>
      <trkpt lat="57.56528" lon="-4.20527">
        <ele>36.11</ele>
        <time>2021-03-20T17:03:41Z</time>
      </trkpt>
      <trkpt lat="57.56491" lon="-4.20662">
        <ele>37</ele>
        <time>2021-03-20T17:03:57Z</time>
      </trkpt>
      <trkpt lat="57.56237" lon="-4.21494">
        <ele>38.54</ele>
        <time>2021-03-20T17:04:14Z</time>
      </trkpt>
      <trkpt lat="57.56147" lon="-4.21768">
        <ele>35.58</ele>
        <time>2021-03-20T17:04:31Z</time>
      </trkpt>
      <trkpt lat="57.55824" lon="-4.22714">
        <ele>36</ele>
        <time>2021-03-20T17:04:47Z</time>
      </trkpt>
      <trkpt lat="57.55699" lon="-4.23048">
        <ele>33.83</ele>
        <time>2021-03-20T17:05:04Z</time>
      </trkpt>
      <trkpt lat="57.55559" lon="-4.23588">
        <ele>32.13</ele>
        <time>2021-03-20T17:05:21Z</time>
      </trkpt>
      <trkpt lat="57.55466" lon="-4.24208">
        <ele>25.56</ele>
        <time>2021-03-20T17:05:37Z</time>
      </trkpt>
      <trkpt lat="57.554" lon="-4.24838">
        <ele>26.97</ele>
        <time>2021-03-20T17:05:54Z</time>
      </trkpt>
      <trkpt lat="57.55281" lon="-4.25639">
        <ele>35.26</ele>
        <time>2021-03-20T17:06:10Z</time>
      </trkpt>
      <trkpt lat="57.55275" lon="-4.25694">
        <ele>36.78</ele>
        <time>2021-03-20T17:06:27Z</time>
      </trkpt>
      <trkpt lat="57.5525" lon="-4.25701">
        <ele>35.21</ele>
        <time>2021-03-20T17:06:32Z</time>
      </trkpt>
      <trkpt lat="57.55235" lon="-4.25712">
        <ele>34.57</ele>
        <time>2021-03-20T17:06:37Z</time>
      </trkpt>
      <trkpt lat="57.55053" lon="-4.2591">
        <ele>27.56</ele>
        <time>2021-03-20T17:06:42Z</time>
      </trkpt>
      <trkpt lat="57.55003" lon="-4.25962">
        <ele>24.81</ele>
        <time>2021-03-20T17:06:47Z</time>
      </trkpt>
      <trkpt lat="57.54989" lon="-4.25989">
        <ele>24.21</ele>
        <time>2021-03-20T17:06:52Z</time>
      </trkpt>
      <trkpt lat="57.54952" lon="-4.26126">
        <ele>19.52</ele>
        <time>2021-03-20T17:06:57Z</time>
      </trkpt>
      <trkpt lat="57.54944" lon="-4.2615">
        <ele>18.97</ele>
        <time>2021-03-20T17:07:02Z</time>
      </trkpt>
      <trkpt lat="57.54923" lon="-4.2619">
        <ele>19.24</ele>
        <time>2021-03-20T17:07:07Z</time>
      </trkpt>
      <trkpt lat="57.54903" lon="-4.26223">
        <ele>17.06</ele>
        <time>2021-03-20T17:07:11Z</time>
      </trkpt>
      <trkpt lat="57.54855" lon="-4.26329">
        <ele>14.22</ele>
        <time>2021-03-20T17:07:16Z</time>
      </trkpt>
      <trkpt lat="57.54827" lon="-4.2638">
        <ele>16.75</ele>
        <time>2021-03-20T17:07:21Z</time>
      </trkpt>
      <trkpt lat="57.54807" lon="-4.26395">
        <ele>17.23</ele>
        <time>2021-03-20T17:07:26Z</time>
      </trkpt>
      <trkpt lat="57.54788" lon="-4.26401">
        <ele>16.8</ele>
        <time>2021-03-20T17:07:31Z</time>
      </trkpt>
      <trkpt lat="57.54752" lon="-4.26402">
        <ele>14.57</ele>
        <time>2021-03-20T17:07:36Z</time>
      </trkpt>
      <trkpt lat="57.54733" lon="-4.26396">
        <ele>13.02</ele>
        <time>2021-03-20T17:07:41Z</time>
      </trkpt>
      <trkpt lat="57.54708" lon="-4.26377">
        <ele>10.46</ele>
        <time>2021-03-20T17:07:46Z</time>
      </trkpt>
      <trkpt lat="57.54653" lon="-4.26312">
        <ele>9.06</ele>
        <time>2021-03-20T17:07:51Z</time>
      </trkpt>
      <trkpt lat="57.54532" lon="-4.26141">
        <ele>5</ele>
        <time>2021-03-20T17:07:56Z</time>
      </trkpt>
      <trkpt lat="57.54475" lon="-4.2604">
        <ele>5</ele>
        <time>2021-03-20T17:08:01Z</time>
      </trkpt>
      <trkpt lat="57.54451" lon="-4.25981">
        <ele>5</ele>
        <time>2021-03-20T17:08:06Z</time>
      </trkpt>
      <trkpt lat="57.54435" lon="-4.25887">
        <ele>4</ele>
        <time>2021-03-20T17:08:11Z</time>
      </trkpt>
      <trkpt lat="57.54424" lon="-4.2586">
        <ele>4</ele>
        <time>2021-03-20T17:08:15Z</time>
      </trkpt>
      <trkpt lat="57.54406" lon="-4.25836">
        <ele>4.33</ele>
        <time>2021-03-20T17:08:20Z</time>
      </trkpt>
      <trkpt lat="57.54378" lon="-4.25819">
        <ele>6.3</ele>
        <time>2021-03-20T17:08:25Z</time>
      </trkpt>
      <trkpt lat="57.54362" lon="-4.25815">
        <ele>7.57</ele>
        <time>2021-03-20T17:08:30Z</time>
      </trkpt>
      <trkpt lat="57.54344" lon="-4.25819">
        <ele>7.53</ele>
        <time>2021-03-20T17:08:35Z</time>
      </trkpt>
      <trkpt lat="57.54326" lon="-4.25826">
        <ele>7.74</ele>
        <time>2021-03-20T17:08:40Z</time>
      </trkpt>
      <trkpt lat="57.54286" lon="-4.2585">
        <ele>10.82</ele>
        <time>2021-03-20T17:08:45Z</time>
      </trkpt>
      <trkpt lat="57.54076" lon="-4.26044">
        <ele>24.44</ele>
        <time>2021-03-20T17:08:50Z</time>
      </trkpt>
      <trkpt lat="57.54019" lon="-4.26056">
        <ele>31.89</ele>
        <time>2021-03-20T17:08:56Z</time>
      </trkpt>
      <trkpt lat="57.5388" lon="-4.26067">
        <ele>48.6</ele>
        <time>2021-03-20T17:09:02Z</time>
      </trkpt>
      <trkpt lat="57.53824" lon="-4.26078">
        <ele>55.33</ele>
        <time>2021-03-20T17:09:08Z</time>
      </trkpt>
      <trkpt lat="57.5344" lon="-4.26255">
        <ele>73.51</ele>
        <time>2021-03-20T17:09:14Z</time>
      </trkpt>
      <trkpt lat="57.52639" lon="-4.26372">
        <ele>96.39</ele>
        <time>2021-03-20T17:09:20Z</time>
      </trkpt>
      <trkpt lat="57.52598" lon="-4.26321">
        <ele>96.49</ele>
        <time>2021-03-20T17:09:26Z</time>
      </trkpt>
      <trkpt lat="57.52385" lon="-4.26141">
        <ele>90.84</ele>
        <time>2021-03-20T17:09:31Z</time>
      </trkpt>
      <trkpt lat="57.52241" lon="-4.26007">
        <ele>84.92</ele>
        <time>2021-03-20T17:09:37Z</time>
      </trkpt>
      <trkpt lat="57.52179" lon="-4.25955">
        <ele>83.74</ele>
        <time>2021-03-20T17:09:43Z</time>
      </trkpt>
      <trkpt lat="57.52037" lon="-4.25863">
        <ele>89.68</ele>
        <time>2021-03-20T17:09:49Z</time>
      </trkpt>
      <trkpt lat="57.51854" lon="-4.25782">
        <ele>103.54</ele>
        <time>2021-03-20T17:09:55Z</time>
      </trkpt>
      <trkpt lat="57.51753" lon="-4.25705">
        <ele>99.81</ele>
        <time>2021-03-20T17:10:01Z</time>
      </trkpt>
      <trkpt lat="57.51736" lon="-4.257">
        <ele>98.36</ele>
        <time>2021-03-20T17:10:07Z</time>
      </trkpt>
      <trkpt lat="57.51722" lon="-4.25703">
        <ele>97.52</ele>
        <time>2021-03-20T17:10:13Z</time>
      </trkpt>
      <trkpt lat="57.51703" lon="-4.25713">
        <ele>95.99</ele>
        <time>2021-03-20T17:10:19Z</time>
      </trkpt>
      <trkpt lat="57.51676" lon="-4.25734">
        <ele>94.62</ele>
        <time>2021-03-20T17:10:25Z</time>
      </trkpt>
      <trkpt lat="57.51574" lon="-4.25859">
        <ele>90.15</ele>
        <time>2021-03-20T17:10:31Z</time>
      </trkpt>
      <trkpt lat="57.5143" lon="-4.25883">
        <ele>74.67</ele>
        <time>2021-03-20T17:10:37Z</time>
      </trkpt>
      <trkpt lat="57.51415" lon="-4.25881">
        <ele>73.36</ele>
        <time>2021-03-20T17:10:43Z</time>
      </trkpt>
      <trkpt lat="57.51311" lon="-4.25831">
        <ele>65.32</ele>
        <time>2021-03-20T17:10:49Z</time>
      </trkpt>
      <trkpt lat="57.5127" lon="-4.25835">
        <ele>62.54</ele>
        <time>2021-03-20T17:10:55Z</time>
      </trkpt>
      <trkpt lat="57.51259" lon="-4.25832">
        <ele>61.59</ele>
        <time>2021-03-20T17:11:01Z</time>
      </trkpt>
      <trkpt lat="57.51226" lon="-4.25811">
        <ele>59.16</ele>
        <time>2021-03-20T17:11:06Z</time>
      </trkpt>
      <trkpt lat="57.51214" lon="-4.25811">
        <ele>58.72</ele>
        <time>2021-03-20T17:11:12Z</time>
      </trkpt>
      <trkpt lat="57.51168" lon="-4.25842">
        <ele>58.33</ele>
        <time>2021-03-20T17:11:18Z</time>
      </trkpt>
      <trkpt lat="57.51157" lon="-4.2584">
        <ele>58.5</ele>
        <time>2021-03-20T17:11:24Z</time>
      </trkpt>
      <trkpt lat="57.51139" lon="-4.25825">
        <ele>59</ele>
        <time>2021-03-20T17:11:30Z</time>
      </trkpt>
      <trkpt lat="57.51122" lon="-4.25816">
        <ele>59</ele>
        <time>2021-03-20T17:11:36Z</time>
      </trkpt>
      <trkpt lat="57.51116" lon="-4.25818">
        <ele>59</ele>
        <time>2021-03-20T17:11:42Z</time>
      </trkpt>
      <trkpt lat="57.51104" lon="-4.25835">
        <ele>59.25</ele>
        <time>2021-03-20T17:11:48Z</time>
      </trkpt>
      <trkpt lat="57.51096" lon="-4.25852">
        <ele>59.55</ele>
        <time>2021-03-20T17:11:54Z</time>
      </trkpt>
      <trkpt lat="57.51072" lon="-4.25986">
        <ele>58.4</ele>
        <time>2021-03-20T17:12:00Z</time>
      </trkpt>
      <trkpt lat="57.51048" lon="-4.26065">
        <ele>56.93</ele>
        <time>2021-03-20T17:12:06Z</time>
      </trkpt>
      <trkpt lat="57.51012" lon="-4.26138">
        <ele>56.43</ele>
        <time>2021-03-20T17:12:12Z</time>
      </trkpt>
      <trkpt lat="57.50964" lon="-4.26194">
        <ele>55.37</ele>
        <time>2021-03-20T17:12:18Z</time>
      </trkpt>
      <trkpt lat="57.50928" lon="-4.26225">
        <ele>52.83</ele>
        <time>2021-03-20T17:12:24Z</time>
      </trkpt>
      <trkpt lat="57.50907" lon="-4.26238">
        <ele>50.07</ele>
        <time>2021-03-20T17:12:30Z</time>
      </trkpt>
      <trkpt lat="57.50892" lon="-4.26256">
        <ele>46.6</ele>
        <time>2021-03-20T17:12:35Z</time>
      </trkpt>
      <trkpt lat="57.50885" lon="-4.26246">
        <ele>45.32</ele>
        <time>2021-03-20T17:12:43Z</time>
      </trkpt>
      <trkpt lat="57.50879" lon="-4.26242">
        <ele>44.23</ele>
        <time>2021-03-20T17:12:50Z</time>
      </trkpt>
      <trkpt lat="57.50872" lon="-4.26238">
        <ele>42.83</ele>
        <time>2021-03-20T17:12:58Z</time>
      </trkpt>
      <trkpt lat="57.50861" lon="-4.26239">
        <ele>40.34</ele>
        <time>2021-03-20T17:13:05Z</time>
      </trkpt>
      <trkpt lat="57.50838" lon="-4.26228">
        <ele>35.88</ele>
        <time>2021-03-20T17:13:13Z</time>
      </trkpt>
      <trkpt lat="57.5083" lon="-4.26209">
        <ele>35.05</ele>
        <time>2021-03-20T17:13:20Z</time>
      </trkpt>
      <trkpt lat="57.50812" lon="-4.26135">
        <ele>35.45</ele>
        <time>2021-03-20T17:13:28Z</time>
      </trkpt>
      <trkpt lat="57.50799" lon="-4.26067">
        <ele>36.1</ele>
        <time>2021-03-20T17:13:35Z</time>
      </trkpt>
      <trkpt lat="57.50767" lon="-4.25941">
        <ele>39.27</ele>
        <time>2021-03-20T17:13:43Z</time>
      </trkpt>
      <trkpt lat="57.50694" lon="-4.25747">
        <ele>34.12</ele>
        <time>2021-03-20T17:13:50Z</time>
      </trkpt>
      <trkpt lat="57.50618" lon="-4.25574">
        <ele>35.89</ele>
        <time>2021-03-20T17:13:58Z</time>
      </trkpt>
      <trkpt lat="57.50531" lon="-4.25388">
        <ele>39.38</ele>
        <time>2021-03-20T17:14:05Z</time>
      </trkpt>
      <trkpt lat="57.50358" lon="-4.25007">
        <ele>36.05</ele>
        <time>2021-03-20T17:14:12Z</time>
      </trkpt>
      <trkpt lat="57.5032" lon="-4.24901">
        <ele>32.59</ele>
        <time>2021-03-20T17:14:20Z</time>
      </trkpt>
      <trkpt lat="57.50296" lon="-4.24824">
        <ele>29.39</ele>
        <time>2021-03-20T17:14:27Z</time>
      </trkpt>
      <trkpt lat="57.50276" lon="-4.24744">
        <ele>29.27</ele>
        <time>2021-03-20T17:14:35Z</time>
      </trkpt>
      <trkpt lat="57.50255" lon="-4.24645">
        <ele>31.58</ele>
        <time>2021-03-20T17:14:42Z</time>
      </trkpt>
      <trkpt lat="57.50236" lon="-4.24531">
        <ele>32.46</ele>
        <time>2021-03-20T17:14:50Z</time>
      </trkpt>
      <trkpt lat="57.50223" lon="-4.24425">
        <ele>34.92</ele>
        <time>2021-03-20T17:14:57Z</time>
      </trkpt>
      <trkpt lat="57.50216" lon="-4.24348">
        <ele>37.62</ele>
        <time>2021-03-20T17:15:05Z</time>
      </trkpt>
      <trkpt lat="57.50201" lon="-4.23843">
        <ele>33.43</ele>
        <time>2021-03-20T17:15:12Z</time>
      </trkpt>
      <trkpt lat="57.50198" lon="-4.23755">
        <ele>32.33</ele>
        <time>2021-03-20T17:15:20Z</time>
      </trkpt>
      <trkpt lat="57.5019" lon="-4.23683">
        <ele>32.22</ele>
        <time>2021-03-20T17:15:27Z</time>
      </trkpt>
      <trkpt lat="57.5018" lon="-4.23613">
        <ele>30.57</ele>
        <time>2021-03-20T17:15:34Z</time>
      </trkpt>
      <trkpt lat="57.50139" lon="-4.23441">
        <ele>28.12</ele>
        <time>2021-03-20T17:15:42Z</time>
      </trkpt>
      <trkpt lat="57.50129" lon="-4.23408">
        <ele>27.64</ele>
        <time>2021-03-20T17:15:49Z</time>
      </trkpt>
      <trkpt lat="57.50012" lon="-4.23135">
        <ele>23.53</ele>
        <time>2021-03-20T17:15:57Z</time>
      </trkpt>
      <trkpt lat="57.49869" lon="-4.22825">
        <ele>18.8</ele>
        <time>2021-03-20T17:16:04Z</time>
      </trkpt>
      <trkpt lat="57.49602" lon="-4.22222">
        <ele>9.63</ele>
        <time>2021-03-20T17:16:12Z</time>
      </trkpt>
      <trkpt lat="57.49492" lon="-4.21995">
        <ele>5</ele>
        <time>2021-03-20T17:16:19Z</time>
      </trkpt>
      <trkpt lat="57.49358" lon="-4.21741">
        <ele>6.08</ele>
        <time>2021-03-20T17:16:27Z</time>
      </trkpt>
      <trkpt lat="57.49216" lon="-4.21535">
        <ele>4</ele>
        <time>2021-03-20T17:16:34Z</time>
      </trkpt>
      <trkpt lat="57.49211" lon="-4.21523">
        <ele>4</ele>
        <time>2021-03-20T17:16:42Z</time>
      </trkpt>
      <trkpt lat="57.49205" lon="-4.21505">
        <ele>4</ele>
        <time>2021-03-20T17:16:49Z</time>
      </trkpt>
      <trkpt lat="57.49204" lon="-4.21488">
        <ele>4.42</ele>
        <time>2021-03-20T17:16:54Z</time>
      </trkpt>
      <trkpt lat="57.492" lon="-4.21475">
        <ele>4.91</ele>
        <time>2021-03-20T17:16:58Z</time>
      </trkpt>
      <trkpt lat="57.49189" lon="-4.21456">
        <ele>5.58</ele>
        <time>2021-03-20T17:17:03Z</time>
      </trkpt>
      <trkpt lat="57.49178" lon="-4.2145">
        <ele>5.8</ele>
        <time>2021-03-20T17:17:08Z</time>
      </trkpt>
      <trkpt lat="57.49166" lon="-4.21452">
        <ele>5.71</ele>
        <time>2021-03-20T17:17:12Z</time>
      </trkpt>
      <trkpt lat="57.49155" lon="-4.21462">
        <ele>5.21</ele>
        <time>2021-03-20T17:17:17Z</time>
      </trkpt>
      <trkpt lat="57.49149" lon="-4.21476">
        <ele>5</ele>
        <time>2021-03-20T17:17:22Z</time>
      </trkpt>
      <trkpt lat="57.49145" lon="-4.21491">
        <ele>5</ele>
        <time>2021-03-20T17:17:27Z</time>
      </trkpt>
      <trkpt lat="57.49143" lon="-4.21537">
        <ele>5.87</ele>
        <time>2021-03-20T17:17:31Z</time>
      </trkpt>
      <trkpt lat="57.49138" lon="-4.21561">
        <ele>5.97</ele>
        <time>2021-03-20T17:17:36Z</time>
      </trkpt>
      <trkpt lat="57.49132" lon="-4.2158">
        <ele>5.76</ele>
        <time>2021-03-20T17:17:41Z</time>
      </trkpt>
      <trkpt lat="57.49089" lon="-4.21669">
        <ele>4.21</ele>
        <time>2021-03-20T17:17:45Z</time>
      </trkpt>
      <trkpt lat="57.49051" lon="-4.21737">
        <ele>3.68</ele>
        <time>2021-03-20T17:17:50Z</time>
      </trkpt>
      <trkpt lat="57.4902" lon="-4.21781">
        <ele>4.91</ele>
        <time>2021-03-20T17:17:55Z</time>
      </trkpt>
      <trkpt lat="57.48976" lon="-4.2183">
        <ele>5</ele>
        <time>2021-03-20T17:17:59Z</time>
      </trkpt>
      <trkpt lat="57.48941" lon="-4.21861">
        <ele>4.01</ele>
        <time>2021-03-20T17:18:04Z</time>
      </trkpt>
      <trkpt lat="57.48774" lon="-4.2196">
        <ele>5.39</ele>
        <time>2021-03-20T17:18:09Z</time>
      </trkpt>
      <trkpt lat="57.48615" lon="-4.22049">
        <ele>5</ele>
        <time>2021-03-20T17:18:13Z</time>
      </trkpt>
      <trkpt lat="57.4859" lon="-4.22051">
        <ele>5.76</ele>
        <time>2021-03-20T17:18:18Z</time>
      </trkpt>
      <trkpt lat="57.48581" lon="-4.22041">
        <ele>6</ele>
        <time>2021-03-20T17:18:22Z</time>
      </trkpt>
      <trkpt lat="57.48571" lon="-4.22041">
        <ele>6</ele>
        <time>2021-03-20T17:18:27Z</time>
      </trkpt>
      <trkpt lat="57.48561" lon="-4.22053">
        <ele>6</ele>
        <time>2021-03-20T17:18:31Z</time>
      </trkpt>
      <trkpt lat="57.48559" lon="-4.22063">
        <ele>5.77</ele>
        <time>2021-03-20T17:18:35Z</time>
      </trkpt>
      <trkpt lat="57.48558" lon="-4.22084">
        <ele>5.1</ele>
        <time>2021-03-20T17:18:40Z</time>
      </trkpt>
      <trkpt lat="57.48561" lon="-4.22094">
        <ele>5.19</ele>
        <time>2021-03-20T17:18:44Z</time>
      </trkpt>
      <trkpt lat="57.4857" lon="-4.22106">
        <ele>5.5</ele>
        <time>2021-03-20T17:18:49Z</time>
      </trkpt>
      <trkpt lat="57.4858" lon="-4.22108">
        <ele>5.89</ele>
        <time>2021-03-20T17:18:53Z</time>
      </trkpt>
      <trkpt lat="57.48607" lon="-4.22565">
        <ele>5</ele>
        <time>2021-03-20T17:18:57Z</time>
      </trkpt>
      <trkpt lat="57.48609" lon="-4.2262">
        <ele>4.97</ele>
        <time>2021-03-20T17:19:02Z</time>
      </trkpt>
      <trkpt lat="57.48607" lon="-4.22647">
        <ele>4.87</ele>
        <time>2021-03-20T17:19:06Z</time>
      </trkpt>
      <trkpt lat="57.48603" lon="-4.22709">
        <ele>3.34</ele>
        <time>2021-03-20T17:19:10Z</time>
      </trkpt>
      <trkpt lat="57.48596" lon="-4.22772">
        <ele>3</ele>
        <time>2021-03-20T17:19:15Z</time>
      </trkpt>
      <trkpt lat="57.486" lon="-4.22847">
        <ele>2.5</ele>
        <time>2021-03-20T17:19:19Z</time>
      </trkpt>
      <trkpt lat="57.48604" lon="-4.22881">
        <ele>2</ele>
        <time>2021-03-20T17:19:23Z</time>
      </trkpt>
      <trkpt lat="57.48569" lon="-4.22927">
        <ele>0.82</ele>
        <time>2021-03-20T17:19:32Z</time>
      </trkpt>
      <trkpt lat="57.48493" lon="-4.2296">
        <ele>1.44</ele>
        <time>2021-03-20T17:19:41Z</time>
      </trkpt>
      <trkpt lat="57.48414" lon="-4.22986">
        <ele>3.1</ele>
        <time>2021-03-20T17:19:50Z</time>
      </trkpt>
      <trkpt lat="57.48368" lon="-4.23005">
        <ele>3.82</ele>
        <time>2021-03-20T17:19:59Z</time>
      </trkpt>
      <trkpt lat="57.48285" lon="-4.23052">
        <ele>4</ele>
        <time>2021-03-20T17:20:07Z</time>
      </trkpt>
      <trkpt lat="57.4828" lon="-4.23034">
        <ele>4</ele>
        <time>2021-03-20T17:20:11Z</time>
      </trkpt>
      <trkpt lat="57.4827" lon="-4.23023">
        <ele>4.34</ele>
        <time>2021-03-20T17:20:15Z</time>
      </trkpt>
      <trkpt lat="57.48263" lon="-4.23022">
        <ele>4.63</ele>
        <time>2021-03-20T17:20:19Z</time>
      </trkpt>
      <trkpt lat="57.48256" lon="-4.23026">
        <ele>4.84</ele>
        <time>2021-03-20T17:20:23Z</time>
      </trkpt>
      <trkpt lat="57.48251" lon="-4.23032">
        <ele>4.97</ele>
        <time>2021-03-20T17:20:26Z</time>
      </trkpt>
      <trkpt lat="57.48248" lon="-4.2304">
        <ele>5.06</ele>
        <time>2021-03-20T17:20:30Z</time>
      </trkpt>
      <trkpt lat="57.48208" lon="-4.23038">
        <ele>6</ele>
        <time>2021-03-20T17:20:34Z</time>
      </trkpt>
      <trkpt lat="57.48191" lon="-4.2303">
        <ele>5.87</ele>
        <time>2021-03-20T17:20:38Z</time>
      </trkpt>
      <trkpt lat="57.48132" lon="-4.22926">
        <ele>7</ele>
        <time>2021-03-20T17:20:41Z</time>
      </trkpt>
      <trkpt lat="57.48081" lon="-4.22832">
        <ele>8.14</ele>
        <time>2021-03-20T17:20:45Z</time>
      </trkpt>
      <trkpt lat="57.48073" lon="-4.22852">
        <ele>9.41</ele>
        <time>2021-03-20T17:20:56Z</time>
      </trkpt>
      <trkpt lat="57.48062" lon="-4.22869">
        <ele>10.74</ele>
        <time>2021-03-20T17:21:07Z</time>
      </trkpt>
      <trkpt lat="57.48055" lon="-4.22875">
        <ele>11.5</ele>
        <time>2021-03-20T17:21:19Z</time>
      </trkpt>
      <trkpt lat="57.48019" lon="-4.22936">
        <ele>11.19</ele>
        <time>2021-03-20T17:21:30Z</time>
      </trkpt>
      <trkpt lat="57.47992" lon="-4.22972">
        <ele>6.47</ele>
        <time>2021-03-20T17:21:41Z</time>
      </trkpt>
      <trkpt lat="57.47986" lon="-4.22975">
        <ele>5.91</ele>
        <time>2021-03-20T17:21:52Z</time>
      </trkpt>
      <trkpt lat="57.47976" lon="-4.22964">
        <ele>5.59</ele>
        <time>2021-03-20T17:22:03Z</time>
      </trkpt>
      <trkpt lat="57.47945" lon="-4.22912">
        <ele>4.19</ele>
        <time>2021-03-20T17:22:14Z</time>
      </trkpt>
      <trkpt lat="57.47925" lon="-4.22886">
        <ele>5</ele>
        <time>2021-03-20T17:22:25Z</time>
      </trkpt>
      <trkpt lat="57.4787" lon="-4.22823">
        <ele>8.06</ele>
        <time>2021-03-20T17:22:36Z</time>
      </trkpt>
      <trkpt lat="57.47794" lon="-4.22752">
        <ele>6.93</ele>
        <time>2021-03-20T17:22:47Z</time>
      </trkpt>
      <trkpt lat="57.47709" lon="-4.22685">
        <ele>7.18</ele>
        <time>2021-03-20T17:22:58Z</time>
      </trkpt>
      <trkpt lat="57.47674" lon="-4.22665">
        <ele>9.66</ele>
        <time>2021-03-20T17:23:10Z</time>
      </trkpt>
      <trkpt lat="57.47464" lon="-4.22582">
        <ele>11.56</ele>
        <time>2021-03-20T17:23:21Z</time>
      </trkpt>
      <trkpt lat="57.47428" lon="-4.2257">
        <ele>10.55</ele>
        <time>2021-03-20T17:23:32Z</time>
      </trkpt>
      <trkpt lat="57.47413" lon="-4.22576">
        <ele>9.34</ele>
        <time>2021-03-20T17:23:43Z</time>
      </trkpt>
      <trkpt lat="57.47364" lon="-4.22592">
        <ele>8.61</ele>
        <time>2021-03-20T17:23:54Z</time>
      </trkpt>
      <trkpt lat="57.47291" lon="-4.22624">
        <ele>7.72</ele>
        <time>2021-03-20T17:24:05Z</time>
      </trkpt>
      <trkpt lat="57.47103" lon="-4.22718">
        <ele>7.7</ele>
        <time>2021-03-20T17:24:16Z</time>
      </trkpt>
      <trkpt lat="57.46907" lon="-4.22734">
        <ele>8.85</ele>
        <time>2021-03-20T17:24:27Z</time>
      </trkpt>
      <trkpt lat="57.46647" lon="-4.22745">
        <ele>12.49</ele>
        <time>2021-03-20T17:24:38Z</time>
      </trkpt>
      <trkpt lat="57.46563" lon="-4.22761">
        <ele>12.34</ele>
        <time>2021-03-20T17:24:50Z</time>
      </trkpt>
      <trkpt lat="57.46535" lon="-4.2277">
        <ele>14.45</ele>
        <time>2021-03-20T17:25:01Z</time>
      </trkpt>
      <trkpt lat="57.46477" lon="-4.22806">
        <ele>13.99</ele>
        <time>2021-03-20T17:25:12Z</time>
      </trkpt>
      <trkpt lat="57.46381" lon="-4.22884">
        <ele>12.47</ele>
        <time>2021-03-20T17:25:23Z</time>
      </trkpt>
      <trkpt lat="57.46358" lon="-4.22905">
        <ele>12.4</ele>
        <time>2021-03-20T17:25:34Z</time>
      </trkpt>
      <trkpt lat="57.46181" lon="-4.23116">
        <ele>14.8</ele>
        <time>2021-03-20T17:25:45Z</time>
      </trkpt>
      <trkpt lat="57.46132" lon="-4.23177">
        <ele>15.9</ele>
        <time>2021-03-20T17:25:56Z</time>
      </trkpt>
      <trkpt lat="57.46118" lon="-4.23199">
        <ele>15.76</ele>
        <time>2021-03-20T17:26:07Z</time>
      </trkpt>
      <trkpt lat="57.46016" lon="-4.23383">
        <ele>19.61</ele>
        <time>2021-03-20T17:26:18Z</time>
      </trkpt>
      <trkpt lat="57.46" lon="-4.23423">
        <ele>26.02</ele>
        <time>2021-03-20T17:26:29Z</time>
      </trkpt>
      <trkpt lat="57.4594" lon="-4.23627">
        <ele>27.9</ele>
        <time>2021-03-20T17:26:41Z</time>
      </trkpt>
      <trkpt lat="57.45924" lon="-4.23674">
        <ele>24.5</ele>
        <time>2021-03-20T17:26:52Z</time>
      </trkpt>
      <trkpt lat="57.4591" lon="-4.23705">
        <ele>23.63</ele>
        <time>2021-03-20T17:27:03Z</time>
      </trkpt>
      <trkpt lat="57.45856" lon="-4.23807">
        <ele>21.64</ele>
        <time>2021-03-20T17:27:14Z</time>
      </trkpt>
      <trkpt lat="57.45832" lon="-4.23858">
        <ele>18.42</ele>
        <time>2021-03-20T17:27:25Z</time>
      </trkpt>
      <trkpt lat="57.4579" lon="-4.23958">
        <ele>15.5</ele>
        <time>2021-03-20T17:27:36Z</time>
      </trkpt>
      <trkpt lat="57.45764" lon="-4.24003">
        <ele>16.05</ele>
        <time>2021-03-20T17:27:47Z</time>
      </trkpt>
      <trkpt lat="57.45603" lon="-4.24248">
        <ele>17.32</ele>
        <time>2021-03-20T17:27:58Z</time>
      </trkpt>
      <trkpt lat="57.4553" lon="-4.24356">
        <ele>17.68</ele>
        <time>2021-03-20T17:28:09Z</time>
      </trkpt>
      <trkpt lat="57.45404" lon="-4.24549">
        <ele>18</ele>
        <time>2021-03-20T17:28:20Z</time>
      </trkpt>
      <trkpt lat="57.45324" lon="-4.24693">
        <ele>19</ele>
        <time>2021-03-20T17:28:32Z</time>
      </trkpt>
      <trkpt lat="57.45267" lon="-4.24782">
        <ele>20.24</ele>
        <time>2021-03-20T17:28:43Z</time>
      </trkpt>
      <trkpt lat="57.45145" lon="-4.24951">
        <ele>21.36</ele>
        <time>2021-03-20T17:28:54Z</time>
      </trkpt>
      <trkpt lat="57.45086" lon="-4.25036">
        <ele>22</ele>
        <time>2021-03-20T17:29:05Z</time>
      </trkpt>
      <trkpt lat="57.45066" lon="-4.25068">
        <ele>21.83</ele>
        <time>2021-03-20T17:29:16Z</time>
      </trkpt>
      <trkpt lat="57.45053" lon="-4.25066">
        <ele>22.08</ele>
        <time>2021-03-20T17:29:24Z</time>
      </trkpt>
      <trkpt lat="57.45042" lon="-4.25076">
        <ele>22.49</ele>
        <time>2021-03-20T17:29:32Z</time>
      </trkpt>
      <trkpt lat="57.45038" lon="-4.25085">
        <ele>22.64</ele>
        <time>2021-03-20T17:29:40Z</time>
      </trkpt>
      <trkpt lat="57.45035" lon="-4.25097">
        <ele>22.74</ele>
        <time>2021-03-20T17:29:47Z</time>
      </trkpt>
      <trkpt lat="57.45034" lon="-4.25109">
        <ele>22.76</ele>
        <time>2021-03-20T17:29:55Z</time>
      </trkpt>
      <trkpt lat="57.45036" lon="-4.25121">
        <ele>22.08</ele>
        <time>2021-03-20T17:30:03Z</time>
      </trkpt>
      <trkpt lat="57.45015" lon="-4.2514">
        <ele>21.9</ele>
        <time>2021-03-20T17:30:11Z</time>
      </trkpt>
      <trkpt lat="57.44989" lon="-4.25171">
        <ele>22.73</ele>
        <time>2021-03-20T17:30:19Z</time>
      </trkpt>
      <trkpt lat="57.44924" lon="-4.25266">
        <ele>24.59</ele>
        <time>2021-03-20T17:30:27Z</time>
      </trkpt>
      <trkpt lat="57.447" lon="-4.25574">
        <ele>27.01</ele>
        <time>2021-03-20T17:30:34Z</time>
      </trkpt>
      <trkpt lat="57.44574" lon="-4.25752">
        <ele>31.09</ele>
        <time>2021-03-20T17:30:42Z</time>
      </trkpt>
      <trkpt lat="57.44496" lon="-4.25848">
        <ele>32.08</ele>
        <time>2021-03-20T17:30:50Z</time>
      </trkpt>
      <trkpt lat="57.44459" lon="-4.25885">
        <ele>35.55</ele>
        <time>2021-03-20T17:30:58Z</time>
      </trkpt>
      <trkpt lat="57.44264" lon="-4.26171">
        <ele>38.69</ele>
        <time>2021-03-20T17:31:06Z</time>
      </trkpt>
      <trkpt lat="57.44212" lon="-4.26228">
        <ele>37.61</ele>
        <time>2021-03-20T17:31:14Z</time>
      </trkpt>
      <trkpt lat="57.44137" lon="-4.26299">
        <ele>40.41</ele>
        <time>2021-03-20T17:31:21Z</time>
      </trkpt>
      <trkpt lat="57.44117" lon="-4.26314">
        <ele>41.61</ele>
        <time>2021-03-20T17:31:29Z</time>
      </trkpt>
      <trkpt lat="57.44066" lon="-4.26337">
        <ele>42.6</ele>
        <time>2021-03-20T17:31:37Z</time>
      </trkpt>
      <trkpt lat="57.44037" lon="-4.26357">
        <ele>41.1</ele>
        <time>2021-03-20T17:31:45Z</time>
      </trkpt>
      <trkpt lat="57.43986" lon="-4.26402">
        <ele>43.09</ele>
        <time>2021-03-20T17:31:53Z</time>
      </trkpt>
      <trkpt lat="57.43931" lon="-4.26438">
        <ele>46.59</ele>
        <time>2021-03-20T17:32:01Z</time>
      </trkpt>
      <trkpt lat="57.43887" lon="-4.26477">
        <ele>50.36</ele>
        <time>2021-03-20T17:32:08Z</time>
      </trkpt>
      <trkpt lat="57.43857" lon="-4.26514">
        <ele>52.87</ele>
        <time>2021-03-20T17:32:16Z</time>
      </trkpt>
      <trkpt lat="57.43769" lon="-4.26633">
        <ele>57.52</ele>
        <time>2021-03-20T17:32:24Z</time>
      </trkpt>
      <trkpt lat="57.43658" lon="-4.26799">
        <ele>57.53</ele>
        <time>2021-03-20T17:32:32Z</time>
      </trkpt>
      <trkpt lat="57.43619" lon="-4.26871">
        <ele>59</ele>
        <time>2021-03-20T17:32:40Z</time>
      </trkpt>
      <trkpt lat="57.43475" lon="-4.27147">
        <ele>57.08</ele>
        <time>2021-03-20T17:32:48Z</time>
      </trkpt>
      <trkpt lat="57.43275" lon="-4.27512">
        <ele>50.48</ele>
        <time>2021-03-20T17:32:56Z</time>
      </trkpt>
      <trkpt lat="57.43062" lon="-4.27924">
        <ele>38.45</ele>
        <time>2021-03-20T17:33:03Z</time>
      </trkpt>
      <trkpt lat="57.42864" lon="-4.28304">
        <ele>35.93</ele>
        <time>2021-03-20T17:33:11Z</time>
      </trkpt>
      <trkpt lat="57.42597" lon="-4.28826">
        <ele>50.16</ele>
        <time>2021-03-20T17:33:19Z</time>
      </trkpt>
      <trkpt lat="57.42227" lon="-4.2952">
        <ele>59.46</ele>
        <time>2021-03-20T17:33:27Z</time>
      </trkpt>
      <trkpt lat="57.42144" lon="-4.29629">
        <ele>63.6</ele>
        <time>2021-03-20T17:33:35Z</time>
      </trkpt>
      <trkpt lat="57.41766" lon="-4.30047">
        <ele>73.67</ele>
        <time>2021-03-20T17:33:43Z</time>
      </trkpt>
      <trkpt lat="57.41293" lon="-4.30639">
        <ele>91.58</ele>
        <time>2021-03-20T17:33:50Z</time>
      </trkpt>
      <trkpt lat="57.40992" lon="-4.30968">
        <ele>92.04</ele>
        <time>2021-03-20T17:33:58Z</time>
      </trkpt>
      <trkpt lat="57.40696" lon="-4.31265">
        <ele>81.86</ele>
        <time>2021-03-20T17:34:06Z</time>
      </trkpt>
      <trkpt lat="57.40389" lon="-4.31583">
        <ele>71.99</ele>
        <time>2021-03-20T17:34:14Z</time>
      </trkpt>
      <trkpt lat="57.40176" lon="-4.31768">
        <ele>71.29</ele>
        <time>2021-03-20T17:34:22Z</time>
      </trkpt>
      <trkpt lat="57.40026" lon="-4.31858">
        <ele>57.96</ele>
        <time>2021-03-20T17:34:30Z</time>
      </trkpt>
      <trkpt lat="57.39973" lon="-4.31885">
        <ele>55.01</ele>
        <time>2021-03-20T17:34:37Z</time>
      </trkpt>
      <trkpt lat="57.3991" lon="-4.31902">
        <ele>49.78</ele>
        <time>2021-03-20T17:34:45Z</time>
      </trkpt>
      <trkpt lat="57.39821" lon="-4.31901">
        <ele>41.56</ele>
        <time>2021-03-20T17:34:53Z</time>
      </trkpt>
      <trkpt lat="57.39777" lon="-4.31907">
        <ele>40.37</ele>
        <time>2021-03-20T17:35:01Z</time>
      </trkpt>
      <trkpt lat="57.3975" lon="-4.31917">
        <ele>40.99</ele>
        <time>2021-03-20T17:35:09Z</time>
      </trkpt>
      <trkpt lat="57.39724" lon="-4.31931">
        <ele>41</ele>
        <time>2021-03-20T17:35:17Z</time>
      </trkpt>
      <trkpt lat="57.39407" lon="-4.32211">
        <ele>49.4</ele>
        <time>2021-03-20T17:35:24Z</time>
      </trkpt>
      <trkpt lat="57.39342" lon="-4.32263">
        <ele>49.36</ele>
        <time>2021-03-20T17:35:32Z</time>
      </trkpt>
      <trkpt lat="57.39317" lon="-4.32293">
        <ele>46.92</ele>
        <time>2021-03-20T17:35:40Z</time>
      </trkpt>
      <trkpt lat="57.39294" lon="-4.32328">
        <ele>44.28</ele>
        <time>2021-03-20T17:35:48Z</time>
      </trkpt>
      <trkpt lat="57.3927" lon="-4.32376">
        <ele>44</ele>
        <time>2021-03-20T17:35:56Z</time>
      </trkpt>
      <trkpt lat="57.39239" lon="-4.32457">
        <ele>42.17</ele>
        <time>2021-03-20T17:36:04Z</time>
      </trkpt>
      <trkpt lat="57.39217" lon="-4.32509">
        <ele>40.91</ele>
        <time>2021-03-20T17:36:11Z</time>
      </trkpt>
      <trkpt lat="57.39193" lon="-4.32558">
        <ele>39.95</ele>
        <time>2021-03-20T17:36:19Z</time>
      </trkpt>
      <trkpt lat="57.39078" lon="-4.32712">
        <ele>36.2</ele>
        <time>2021-03-20T17:36:27Z</time>
      </trkpt>
      <trkpt lat="57.39012" lon="-4.32769">
        <ele>37.57</ele>
        <time>2021-03-20T17:36:35Z</time>
      </trkpt>
      <trkpt lat="57.38966" lon="-4.32787">
        <ele>37.67</ele>
        <time>2021-03-20T17:36:43Z</time>
      </trkpt>
      <trkpt lat="57.38924" lon="-4.328">
        <ele>36.5</ele>
        <time>2021-03-20T17:36:51Z</time>
      </trkpt>
      <trkpt lat="57.38595" lon="-4.32885">
        <ele>28.56</ele>
        <time>2021-03-20T17:36:59Z</time>
      </trkpt>
      <trkpt lat="57.38516" lon="-4.32908">
        <ele>27.03</ele>
        <time>2021-03-20T17:37:06Z</time>
      </trkpt>
      <trkpt lat="57.38471" lon="-4.32942">
        <ele>26.09</ele>
        <time>2021-03-20T17:37:14Z</time>
      </trkpt>
      <trkpt lat="57.38413" lon="-4.33003">
        <ele>25.93</ele>
        <time>2021-03-20T17:37:22Z</time>
      </trkpt>
      <trkpt lat="57.3827" lon="-4.33189">
        <ele>22.83</ele>
        <time>2021-03-20T17:37:30Z</time>
      </trkpt>
      <trkpt lat="57.3824" lon="-4.33225">
        <ele>21.27</ele>
        <time>2021-03-20T17:37:38Z</time>
      </trkpt>
      <trkpt lat="57.38229" lon="-4.33237">
        <ele>21.23</ele>
        <time>2021-03-20T17:37:46Z</time>
      </trkpt>
      <trkpt lat="57.38203" lon="-4.33259">
        <ele>21.48</ele>
        <time>2021-03-20T17:37:53Z</time>
      </trkpt>
      <trkpt lat="57.38088" lon="-4.33351">
        <ele>22.48</ele>
        <time>2021-03-20T17:38:00Z</time>
      </trkpt>
      <trkpt lat="57.37905" lon="-4.33538">
        <ele>27.72</ele>
        <time>2021-03-20T17:38:06Z</time>
      </trkpt>
      <trkpt lat="57.37811" lon="-4.33626">
        <ele>28.99</ele>
        <time>2021-03-20T17:38:12Z</time>
      </trkpt>
      <trkpt lat="57.37742" lon="-4.33725">
        <ele>27.46</ele>
        <time>2021-03-20T17:38:19Z</time>
      </trkpt>
      <trkpt lat="57.37475" lon="-4.34022">
        <ele>28.41</ele>
        <time>2021-03-20T17:38:25Z</time>
      </trkpt>
      <trkpt lat="57.37311" lon="-4.34219">
        <ele>28.67</ele>
        <time>2021-03-20T17:38:31Z</time>
      </trkpt>
      <trkpt lat="57.37202" lon="-4.34317">
        <ele>31.18</ele>
        <time>2021-03-20T17:38:37Z</time>
      </trkpt>
      <trkpt lat="57.37166" lon="-4.3436">
        <ele>31.33</ele>
        <time>2021-03-20T17:38:44Z</time>
      </trkpt>
      <trkpt lat="57.37146" lon="-4.34386">
        <ele>31.36</ele>
        <time>2021-03-20T17:38:50Z</time>
      </trkpt>
      <trkpt lat="57.3712" lon="-4.34435">
        <ele>29.1</ele>
        <time>2021-03-20T17:38:56Z</time>
      </trkpt>
      <trkpt lat="57.37032" lon="-4.34576">
        <ele>28.6</ele>
        <time>2021-03-20T17:39:02Z</time>
      </trkpt>
      <trkpt lat="57.36737" lon="-4.34955">
        <ele>27.35</ele>
        <time>2021-03-20T17:39:09Z</time>
      </trkpt>
      <trkpt lat="57.3648" lon="-4.35295">
        <ele>32.07</ele>
        <time>2021-03-20T17:39:15Z</time>
      </trkpt>
      <trkpt lat="57.36448" lon="-4.35346">
        <ele>33.65</ele>
        <time>2021-03-20T17:39:21Z</time>
      </trkpt>
      <trkpt lat="57.3638" lon="-4.35429">
        <ele>31.93</ele>
        <time>2021-03-20T17:39:28Z</time>
      </trkpt>
      <trkpt lat="57.36313" lon="-4.35515">
        <ele>28.99</ele>
        <time>2021-03-20T17:39:34Z</time>
      </trkpt>
      <trkpt lat="57.36284" lon="-4.35547">
        <ele>29.13</ele>
        <time>2021-03-20T17:39:40Z</time>
      </trkpt>
      <trkpt lat="57.36225" lon="-4.356">
        <ele>31.82</ele>
        <time>2021-03-20T17:39:46Z</time>
      </trkpt>
      <trkpt lat="57.36191" lon="-4.35639">
        <ele>34.51</ele>
        <time>2021-03-20T17:39:53Z</time>
      </trkpt>
      <trkpt lat="57.3596" lon="-4.35861">
        <ele>32.26</ele>
        <time>2021-03-20T17:39:59Z</time>
      </trkpt>
      <trkpt lat="57.3584" lon="-4.35988">
        <ele>33.43</ele>
        <time>2021-03-20T17:40:05Z</time>
      </trkpt>
      <trkpt lat="57.35822" lon="-4.3601">
        <ele>32.53</ele>
        <time>2021-03-20T17:40:12Z</time>
      </trkpt>
      <trkpt lat="57.35796" lon="-4.36045">
        <ele>31.02</ele>
        <time>2021-03-20T17:40:18Z</time>
      </trkpt>
      <trkpt lat="57.3577" lon="-4.36074">
        <ele>29.99</ele>
        <time>2021-03-20T17:40:24Z</time>
      </trkpt>
      <trkpt lat="57.35644" lon="-4.36153">
        <ele>34.49</ele>
        <time>2021-03-20T17:40:30Z</time>
      </trkpt>
      <trkpt lat="57.356" lon="-4.36185">
        <ele>35.18</ele>
        <time>2021-03-20T17:40:37Z</time>
      </trkpt>
      <trkpt lat="57.35561" lon="-4.36224">
        <ele>34.05</ele>
        <time>2021-03-20T17:40:43Z</time>
      </trkpt>
      <trkpt lat="57.35414" lon="-4.36394">
        <ele>35.53</ele>
        <time>2021-03-20T17:40:49Z</time>
      </trkpt>
      <trkpt lat="57.3505" lon="-4.36781">
        <ele>34.43</ele>
        <time>2021-03-20T17:40:55Z</time>
      </trkpt>
      <trkpt lat="57.34758" lon="-4.37201">
        <ele>30.76</ele>
        <time>2021-03-20T17:41:02Z</time>
      </trkpt>
      <trkpt lat="57.34677" lon="-4.37297">
        <ele>36.2</ele>
        <time>2021-03-20T17:41:08Z</time>
      </trkpt>
      <trkpt lat="57.34482" lon="-4.37502">
        <ele>32.6</ele>
        <time>2021-03-20T17:41:14Z</time>
      </trkpt>
      <trkpt lat="57.34227" lon="-4.37845">
        <ele>34.46</ele>
        <time>2021-03-20T17:41:21Z</time>
      </trkpt>
      <trkpt lat="57.34072" lon="-4.38077">
        <ele>35.91</ele>
        <time>2021-03-20T17:41:27Z</time>
      </trkpt>
      <trkpt lat="57.33837" lon="-4.38423">
        <ele>34.08</ele>
        <time>2021-03-20T17:41:33Z</time>
      </trkpt>
      <trkpt lat="57.33565" lon="-4.3881">
        <ele>40.5</ele>
        <time>2021-03-20T17:41:39Z</time>
      </trkpt>
      <trkpt lat="57.33313" lon="-4.39271">
        <ele>40.05</ele>
        <time>2021-03-20T17:41:46Z</time>
      </trkpt>
      <trkpt lat="57.33162" lon="-4.39586">
        <ele>34.68</ele>
        <time>2021-03-20T17:41:52Z</time>
      </trkpt>
      <trkpt lat="57.33087" lon="-4.39763">
        <ele>34.9</ele>
        <time>2021-03-20T17:41:58Z</time>
      </trkpt>
      <trkpt lat="57.32968" lon="-4.4003">
        <ele>31.26</ele>
        <time>2021-03-20T17:42:05Z</time>
      </trkpt>
      <trkpt lat="57.32854" lon="-4.40244">
        <ele>26.89</ele>
        <time>2021-03-20T17:42:11Z</time>
      </trkpt>
      <trkpt lat="57.32821" lon="-4.40297">
        <ele>29.08</ele>
        <time>2021-03-20T17:42:17Z</time>
      </trkpt>
      <trkpt lat="57.32657" lon="-4.40511">
        <ele>32.13</ele>
        <time>2021-03-20T17:42:23Z</time>
      </trkpt>
      <trkpt lat="57.32539" lon="-4.4065">
        <ele>29.15</ele>
        <time>2021-03-20T17:42:30Z</time>
      </trkpt>
      <trkpt lat="57.32248" lon="-4.40956">
        <ele>26.15</ele>
        <time>2021-03-20T17:42:36Z</time>
      </trkpt>
      <trkpt lat="57.32099" lon="-4.41096">
        <ele>29.37</ele>
        <time>2021-03-20T17:42:42Z</time>
      </trkpt>
      <trkpt lat="57.31962" lon="-4.41183">
        <ele>29.58</ele>
        <time>2021-03-20T17:42:48Z</time>
      </trkpt>
      <trkpt lat="57.31792" lon="-4.41355">
        <ele>26.91</ele>
        <time>2021-03-20T17:42:55Z</time>
      </trkpt>
      <trkpt lat="57.31757" lon="-4.41372">
        <ele>28.24</ele>
        <time>2021-03-20T17:43:01Z</time>
      </trkpt>
      <trkpt lat="57.31689" lon="-4.41379">
        <ele>35.78</ele>
        <time>2021-03-20T17:43:07Z</time>
      </trkpt>
      <trkpt lat="57.31665" lon="-4.41395">
        <ele>38.48</ele>
        <time>2021-03-20T17:43:14Z</time>
      </trkpt>
      <trkpt lat="57.31644" lon="-4.41448">
        <ele>35.37</ele>
        <time>2021-03-20T17:43:20Z</time>
      </trkpt>
      <trkpt lat="57.31605" lon="-4.41528">
        <ele>32.79</ele>
        <time>2021-03-20T17:43:26Z</time>
      </trkpt>
      <trkpt lat="57.31556" lon="-4.41639">
        <ele>29.22</ele>
        <time>2021-03-20T17:43:32Z</time>
      </trkpt>
      <trkpt lat="57.31523" lon="-4.41697">
        <ele>28.24</ele>
        <time>2021-03-20T17:43:39Z</time>
      </trkpt>
      <trkpt lat="57.31404" lon="-4.41833">
        <ele>27.34</ele>
        <time>2021-03-20T17:43:45Z</time>
      </trkpt>
      <trkpt lat="57.31376" lon="-4.41845">
        <ele>29.08</ele>
        <time>2021-03-20T17:43:51Z</time>
      </trkpt>
      <trkpt lat="57.31343" lon="-4.41835">
        <ele>38.06</ele>
        <time>2021-03-20T17:43:58Z</time>
      </trkpt>
      <trkpt lat="57.31317" lon="-4.41859">
        <ele>37.54</ele>
        <time>2021-03-20T17:44:04Z</time>
      </trkpt>
      <trkpt lat="57.31224" lon="-4.42006">
        <ele>34.54</ele>
        <time>2021-03-20T17:44:10Z</time>
      </trkpt>
      <trkpt lat="57.31154" lon="-4.42149">
        <ele>34.4</ele>
        <time>2021-03-20T17:44:16Z</time>
      </trkpt>
      <trkpt lat="57.31117" lon="-4.42246">
        <ele>33.02</ele>
        <time>2021-03-20T17:44:23Z</time>
      </trkpt>
      <trkpt lat="57.31042" lon="-4.42393">
        <ele>27.8</ele>
        <time>2021-03-20T17:44:29Z</time>
      </trkpt>
      <trkpt lat="57.30898" lon="-4.42484">
        <ele>35.47</ele>
        <time>2021-03-20T17:44:35Z</time>
      </trkpt>
      <trkpt lat="57.30823" lon="-4.42555">
        <ele>37.1</ele>
        <time>2021-03-20T17:44:41Z</time>
      </trkpt>
      <trkpt lat="57.30774" lon="-4.42618">
        <ele>37.18</ele>
        <time>2021-03-20T17:44:48Z</time>
      </trkpt>
      <trkpt lat="57.30679" lon="-4.42754">
        <ele>39.96</ele>
        <time>2021-03-20T17:44:54Z</time>
      </trkpt>
      <trkpt lat="57.30583" lon="-4.42943">
        <ele>29.91</ele>
        <time>2021-03-20T17:45:00Z</time>
      </trkpt>
      <trkpt lat="57.30522" lon="-4.43014">
        <ele>40.95</ele>
        <time>2021-03-20T17:45:07Z</time>
      </trkpt>
      <trkpt lat="57.30475" lon="-4.43089">
        <ele>37.23</ele>
        <time>2021-03-20T17:45:13Z</time>
      </trkpt>
      <trkpt lat="57.30429" lon="-4.4313">
        <ele>45.23</ele>
        <time>2021-03-20T17:45:19Z</time>
      </trkpt>
      <trkpt lat="57.30415" lon="-4.43151">
        <ele>45.04</ele>
        <time>2021-03-20T17:45:25Z</time>
      </trkpt>
      <trkpt lat="57.30389" lon="-4.43224">
        <ele>35.76</ele>
        <time>2021-03-20T17:45:32Z</time>
      </trkpt>
      <trkpt lat="57.30373" lon="-4.43252">
        <ele>38.05</ele>
        <time>2021-03-20T17:45:38Z</time>
      </trkpt>
      <trkpt lat="57.30331" lon="-4.43312">
        <ele>37.95</ele>
        <time>2021-03-20T17:45:44Z</time>
      </trkpt>
      <trkpt lat="57.30291" lon="-4.4335">
        <ele>41.31</ele>
        <time>2021-03-20T17:45:51Z</time>
      </trkpt>
      <trkpt lat="57.30221" lon="-4.43405">
        <ele>40.96</ele>
        <time>2021-03-20T17:45:57Z</time>
      </trkpt>
      <trkpt lat="57.3018" lon="-4.43444">
        <ele>40.14</ele>
        <time>2021-03-20T17:46:03Z</time>
      </trkpt>
      <trkpt lat="57.30128" lon="-4.4348">
        <ele>40.96</ele>
        <time>2021-03-20T17:46:09Z</time>
      </trkpt>
      <trkpt lat="57.30105" lon="-4.43493">
        <ele>42.05</ele>
        <time>2021-03-20T17:46:16Z</time>
      </trkpt>
      <trkpt lat="57.3009" lon="-4.43513">
        <ele>40.78</ele>
        <time>2021-03-20T17:46:22Z</time>
      </trkpt>
      <trkpt lat="57.3007" lon="-4.43576">
        <ele>33.46</ele>
        <time>2021-03-20T17:46:28Z</time>
      </trkpt>
      <trkpt lat="57.30051" lon="-4.43603">
        <ele>31.75</ele>
        <time>2021-03-20T17:46:34Z</time>
      </trkpt>
      <trkpt lat="57.29963" lon="-4.43687">
        <ele>31.09</ele>
        <time>2021-03-20T17:46:41Z</time>
      </trkpt>
      <trkpt lat="57.29873" lon="-4.43784">
        <ele>28.92</ele>
        <time>2021-03-20T17:46:47Z</time>
      </trkpt>
      <trkpt lat="57.29797" lon="-4.43849">
        <ele>30.68</ele>
        <time>2021-03-20T17:46:53Z</time>
      </trkpt>
      <trkpt lat="57.29694" lon="-4.4397">
        <ele>31.46</ele>
        <time>2021-03-20T17:47:00Z</time>
      </trkpt>
      <trkpt lat="57.29635" lon="-4.44061">
        <ele>31.72</ele>
        <time>2021-03-20T17:47:06Z</time>
      </trkpt>
      <trkpt lat="57.29575" lon="-4.44169">
        <ele>31.8</ele>
        <time>2021-03-20T17:47:12Z</time>
      </trkpt>
      <trkpt lat="57.29518" lon="-4.44295">
        <ele>32.88</ele>
        <time>2021-03-20T17:47:18Z</time>
      </trkpt>
      <trkpt lat="57.29497" lon="-4.44345">
        <ele>32.82</ele>
        <time>2021-03-20T17:47:25Z</time>
      </trkpt>
      <trkpt lat="57.29487" lon="-4.44391">
        <ele>27.63</ele>
        <time>2021-03-20T17:47:31Z</time>
      </trkpt>
      <trkpt lat="57.29474" lon="-4.44413">
        <ele>27.25</ele>
        <time>2021-03-20T17:47:37Z</time>
      </trkpt>
      <trkpt lat="57.29445" lon="-4.44454">
        <ele>27.13</ele>
        <time>2021-03-20T17:47:44Z</time>
      </trkpt>
      <trkpt lat="57.29416" lon="-4.44485">
        <ele>27.69</ele>
        <time>2021-03-20T17:47:50Z</time>
      </trkpt>
      <trkpt lat="57.29394" lon="-4.44501">
        <ele>26.58</ele>
        <time>2021-03-20T17:47:56Z</time>
      </trkpt>
      <trkpt lat="57.29364" lon="-4.44504">
        <ele>27.39</ele>
        <time>2021-03-20T17:48:02Z</time>
      </trkpt>
      <trkpt lat="57.29342" lon="-4.44516">
        <ele>27.77</ele>
        <time>2021-03-20T17:48:09Z</time>
      </trkpt>
      <trkpt lat="57.29301" lon="-4.44558">
        <ele>27.76</ele>
        <time>2021-03-20T17:48:15Z</time>
      </trkpt>
      <trkpt lat="57.29251" lon="-4.44626">
        <ele>28.68</ele>
        <time>2021-03-20T17:48:21Z</time>
      </trkpt>
      <trkpt lat="57.29209" lon="-4.44678">
        <ele>27.02</ele>
        <time>2021-03-20T17:48:27Z</time>
      </trkpt>
      <trkpt lat="57.29162" lon="-4.44729">
        <ele>26.41</ele>
        <time>2021-03-20T17:48:34Z</time>
      </trkpt>
      <trkpt lat="57.29069" lon="-4.44899">
        <ele>24.2</ele>
        <time>2021-03-20T17:48:40Z</time>
      </trkpt>
      <trkpt lat="57.2903" lon="-4.44937">
        <ele>24.79</ele>
        <time>2021-03-20T17:48:46Z</time>
      </trkpt>
      <trkpt lat="57.28996" lon="-4.44963">
        <ele>24.63</ele>
        <time>2021-03-20T17:48:53Z</time>
      </trkpt>
      <trkpt lat="57.28921" lon="-4.45011">
        <ele>26.91</ele>
        <time>2021-03-20T17:48:59Z</time>
      </trkpt>
      <trkpt lat="57.28725" lon="-4.45151">
        <ele>30.35</ele>
        <time>2021-03-20T17:49:05Z</time>
      </trkpt>
      <trkpt lat="57.28424" lon="-4.45375">
        <ele>42.96</ele>
        <time>2021-03-20T17:49:11Z</time>
      </trkpt>
      <trkpt lat="57.28365" lon="-4.45407">
        <ele>46.36</ele>
        <time>2021-03-20T17:49:18Z</time>
      </trkpt>
      <trkpt lat="57.28337" lon="-4.45415">
        <ele>46.06</ele>
        <time>2021-03-20T17:49:24Z</time>
      </trkpt>
      <trkpt lat="57.28319" lon="-4.45417">
        <ele>45.44</ele>
        <time>2021-03-20T17:49:30Z</time>
      </trkpt>
      <trkpt lat="57.28204" lon="-4.45389">
        <ele>43.58</ele>
        <time>2021-03-20T17:49:37Z</time>
      </trkpt>
      <trkpt lat="57.2817" lon="-4.45392">
        <ele>40.88</ele>
        <time>2021-03-20T17:49:43Z</time>
      </trkpt>
      <trkpt lat="57.28147" lon="-4.45419">
        <ele>38.63</ele>
        <time>2021-03-20T17:49:49Z</time>
      </trkpt>
      <trkpt lat="57.28135" lon="-4.45444">
        <ele>40.42</ele>
        <time>2021-03-20T17:49:55Z</time>
      </trkpt>
      <trkpt lat="57.28119" lon="-4.45485">
        <ele>46.51</ele>
        <time>2021-03-20T17:50:02Z</time>
      </trkpt>
      <trkpt lat="57.28114" lon="-4.45517">
        <ele>46.95</ele>
        <time>2021-03-20T17:50:08Z</time>
      </trkpt>
      <trkpt lat="57.28095" lon="-4.45573">
        <ele>47.81</ele>
        <time>2021-03-20T17:50:14Z</time>
      </trkpt>
      <trkpt lat="57.28057" lon="-4.45669">
        <ele>43.31</ele>
        <time>2021-03-20T17:50:21Z</time>
      </trkpt>
      <trkpt lat="57.28033" lon="-4.45715">
        <ele>41.38</ele>
        <time>2021-03-20T17:50:27Z</time>
      </trkpt>
      <trkpt lat="57.27909" lon="-4.45881">
        <ele>58.01</ele>
        <time>2021-03-20T17:50:33Z</time>
      </trkpt>
      <trkpt lat="57.27875" lon="-4.46033">
        <ele>55.94</ele>
        <time>2021-03-20T17:50:39Z</time>
      </trkpt>
      <trkpt lat="57.27649" lon="-4.46425">
        <ele>72.22</ele>
        <time>2021-03-20T17:50:46Z</time>
      </trkpt>
      <trkpt lat="57.2751" lon="-4.46614">
        <ele>79.64</ele>
        <time>2021-03-20T17:50:52Z</time>
      </trkpt>
      <trkpt lat="57.27158" lon="-4.47057">
        <ele>95.39</ele>
        <time>2021-03-20T17:50:58Z</time>
      </trkpt>
      <trkpt lat="57.27001" lon="-4.47164">
        <ele>91.44</ele>
        <time>2021-03-20T17:51:04Z</time>
      </trkpt>
      <trkpt lat="57.26819" lon="-4.47269">
        <ele>98.53</ele>
        <time>2021-03-20T17:51:11Z</time>
      </trkpt>
      <trkpt lat="57.26752" lon="-4.47316">
        <ele>95.54</ele>
        <time>2021-03-20T17:51:17Z</time>
      </trkpt>
      <trkpt lat="57.2644" lon="-4.47744">
        <ele>95.17</ele>
        <time>2021-03-20T17:51:23Z</time>
      </trkpt>
      <trkpt lat="57.2644" lon="-4.47744">
        <ele>95.17</ele>
        <time>2021-03-20T17:51:23Z</time>
      </trkpt>
      <trkpt lat="57.26251" lon="-4.48005">
        <ele>94.81</ele>
        <time>2021-03-20T17:51:27Z</time>
      </trkpt>
      <trkpt lat="57.26093" lon="-4.48199">
        <ele>96.58</ele>
        <time>2021-03-20T17:51:30Z</time>
      </trkpt>
      <trkpt lat="57.2605" lon="-4.48214">
        <ele>98.88</ele>
        <time>2021-03-20T17:51:34Z</time>
      </trkpt>
      <trkpt lat="57.26028" lon="-4.48246">
        <ele>94.76</ele>
        <time>2021-03-20T17:51:37Z</time>
      </trkpt>
      <trkpt lat="57.25899" lon="-4.48394">
        <ele>94.86</ele>
        <time>2021-03-20T17:51:41Z</time>
      </trkpt>
      <trkpt lat="57.257" lon="-4.48682">
        <ele>95.64</ele>
        <time>2021-03-20T17:51:45Z</time>
      </trkpt>
      <trkpt lat="57.25547" lon="-4.48855">
        <ele>103.98</ele>
        <time>2021-03-20T17:51:48Z</time>
      </trkpt>
      <trkpt lat="57.25415" lon="-4.48923">
        <ele>110.26</ele>
        <time>2021-03-20T17:51:52Z</time>
      </trkpt>
      <trkpt lat="57.25337" lon="-4.48965">
        <ele>115.79</ele>
        <time>2021-03-20T17:51:55Z</time>
      </trkpt>
      <trkpt lat="57.25307" lon="-4.49014">
        <ele>113.35</ele>
        <time>2021-03-20T17:51:59Z</time>
      </trkpt>
      <trkpt lat="57.25281" lon="-4.49039">
        <ele>115.26</ele>
        <time>2021-03-20T17:52:02Z</time>
      </trkpt>
      <trkpt lat="57.25224" lon="-4.49078">
        <ele>121.25</ele>
        <time>2021-03-20T17:52:06Z</time>
      </trkpt>
      <trkpt lat="57.25194" lon="-4.4909">
        <ele>123.36</ele>
        <time>2021-03-20T17:52:09Z</time>
      </trkpt>
      <trkpt lat="57.25136" lon="-4.49097">
        <ele>130.16</ele>
        <time>2021-03-20T17:52:13Z</time>
      </trkpt>
      <trkpt lat="57.25124" lon="-4.49096">
        <ele>132.9</ele>
        <time>2021-03-20T17:52:16Z</time>
      </trkpt>
      <trkpt lat="57.25112" lon="-4.49088">
        <ele>135.72</ele>
        <time>2021-03-20T17:52:20Z</time>
      </trkpt>
      <trkpt lat="57.25076" lon="-4.49049">
        <ele>138.72</ele>
        <time>2021-03-20T17:52:23Z</time>
      </trkpt>
      <trkpt lat="57.25059" lon="-4.49047">
        <ele>139.47</ele>
        <time>2021-03-20T17:52:27Z</time>
      </trkpt>
      <trkpt lat="57.24969" lon="-4.49051">
        <ele>135.71</ele>
        <time>2021-03-20T17:52:30Z</time>
      </trkpt>
      <trkpt lat="57.24914" lon="-4.49033">
        <ele>137.25</ele>
        <time>2021-03-20T17:52:34Z</time>
      </trkpt>
      <trkpt lat="57.24876" lon="-4.49009">
        <ele>139.9</ele>
        <time>2021-03-20T17:52:37Z</time>
      </trkpt>
      <trkpt lat="57.2485" lon="-4.48989">
        <ele>144.67</ele>
        <time>2021-03-20T17:52:41Z</time>
      </trkpt>
      <trkpt lat="57.2484" lon="-4.48986">
        <ele>145.39</ele>
        <time>2021-03-20T17:52:44Z</time>
      </trkpt>
      <trkpt lat="57.2481" lon="-4.48985">
        <ele>143.63</ele>
        <time>2021-03-20T17:52:48Z</time>
      </trkpt>
      <trkpt lat="57.24778" lon="-4.48975">
        <ele>144.35</ele>
        <time>2021-03-20T17:52:52Z</time>
      </trkpt>
      <trkpt lat="57.24704" lon="-4.48926">
        <ele>144.85</ele>
        <time>2021-03-20T17:52:55Z</time>
      </trkpt>
      <trkpt lat="57.24657" lon="-4.4889">
        <ele>143.95</ele>
        <time>2021-03-20T17:52:59Z</time>
      </trkpt>
      <trkpt lat="57.24624" lon="-4.48884">
        <ele>139.13</ele>
        <time>2021-03-20T17:53:02Z</time>
      </trkpt>
      <trkpt lat="57.2461" lon="-4.48872">
        <ele>136.27</ele>
        <time>2021-03-20T17:53:06Z</time>
      </trkpt>
      <trkpt lat="57.24599" lon="-4.48858">
        <ele>133.74</ele>
        <time>2021-03-20T17:53:09Z</time>
      </trkpt>
      <trkpt lat="57.24576" lon="-4.48798">
        <ele>129.06</ele>
        <time>2021-03-20T17:53:13Z</time>
      </trkpt>
      <trkpt lat="57.24549" lon="-4.48765">
        <ele>128.25</ele>
        <time>2021-03-20T17:53:16Z</time>
      </trkpt>
      <trkpt lat="57.24502" lon="-4.48732">
        <ele>130.5</ele>
        <time>2021-03-20T17:53:20Z</time>
      </trkpt>
      <trkpt lat="57.24449" lon="-4.48695">
        <ele>135.24</ele>
        <time>2021-03-20T17:53:23Z</time>
      </trkpt>
      <trkpt lat="57.2442" lon="-4.4869">
        <ele>142.02</ele>
        <time>2021-03-20T17:53:27Z</time>
      </trkpt>
      <trkpt lat="57.24379" lon="-4.48699">
        <ele>148.6</ele>
        <time>2021-03-20T17:53:30Z</time>
      </trkpt>
      <trkpt lat="57.24343" lon="-4.48724">
        <ele>150.84</ele>
        <time>2021-03-20T17:53:34Z</time>
      </trkpt>
      <trkpt lat="57.24309" lon="-4.48757">
        <ele>152.05</ele>
        <time>2021-03-20T17:53:37Z</time>
      </trkpt>
      <trkpt lat="57.24268" lon="-4.48791">
        <ele>153.74</ele>
        <time>2021-03-20T17:53:41Z</time>
      </trkpt>
      <trkpt lat="57.24207" lon="-4.4882">
        <ele>158.35</ele>
        <time>2021-03-20T17:53:44Z</time>
      </trkpt>
      <trkpt lat="57.24164" lon="-4.48817">
        <ele>164.22</ele>
        <time>2021-03-20T17:53:48Z</time>
      </trkpt>
      <trkpt lat="57.24133" lon="-4.48785">
        <ele>172.2</ele>
        <time>2021-03-20T17:53:52Z</time>
      </trkpt>
      <trkpt lat="57.241" lon="-4.48791">
        <ele>171.42</ele>
        <time>2021-03-20T17:53:55Z</time>
      </trkpt>
      <trkpt lat="57.24073" lon="-4.48773">
        <ele>176.9</ele>
        <time>2021-03-20T17:53:59Z</time>
      </trkpt>
      <trkpt lat="57.24048" lon="-4.4877">
        <ele>179.87</ele>
        <time>2021-03-20T17:54:02Z</time>
      </trkpt>
      <trkpt lat="57.24012" lon="-4.48742">
        <ele>183.28</ele>
        <time>2021-03-20T17:54:06Z</time>
      </trkpt>
      <trkpt lat="57.23995" lon="-4.48657">
        <ele>185</ele>
        <time>2021-03-20T17:54:09Z</time>
      </trkpt>
      <trkpt lat="57.23984" lon="-4.48622">
        <ele>186.11</ele>
        <time>2021-03-20T17:54:13Z</time>
      </trkpt>
      <trkpt lat="57.23932" lon="-4.48549">
        <ele>186.57</ele>
        <time>2021-03-20T17:54:16Z</time>
      </trkpt>
      <trkpt lat="57.23923" lon="-4.48406">
        <ele>186.92</ele>
        <time>2021-03-20T17:54:20Z</time>
      </trkpt>
      <trkpt lat="57.23919" lon="-4.48375">
        <ele>185.56</ele>
        <time>2021-03-20T17:54:23Z</time>
      </trkpt>
      <trkpt lat="57.23909" lon="-4.48346">
        <ele>184.34</ele>
        <time>2021-03-20T17:54:27Z</time>
      </trkpt>
      <trkpt lat="57.23889" lon="-4.48334">
        <ele>183.01</ele>
        <time>2021-03-20T17:54:30Z</time>
      </trkpt>
      <trkpt lat="57.23869" lon="-4.48344">
        <ele>185.04</ele>
        <time>2021-03-20T17:54:34Z</time>
      </trkpt>
      <trkpt lat="57.23794" lon="-4.48531">
        <ele>186.09</ele>
        <time>2021-03-20T17:54:37Z</time>
      </trkpt>
      <trkpt lat="57.23735" lon="-4.48856">
        <ele>186.18</ele>
        <time>2021-03-20T17:54:41Z</time>
      </trkpt>
      <trkpt lat="57.23716" lon="-4.48913">
        <ele>186.67</ele>
        <time>2021-03-20T17:54:44Z</time>
      </trkpt>
      <trkpt lat="57.23697" lon="-4.48984">
        <ele>187.11</ele>
        <time>2021-03-20T17:54:48Z</time>
      </trkpt>
      <trkpt lat="57.23638" lon="-4.49176">
        <ele>180.39</ele>
        <time>2021-03-20T17:54:51Z</time>
      </trkpt>
      <trkpt lat="57.23627" lon="-4.49239">
        <ele>176.22</ele>
        <time>2021-03-20T17:54:55Z</time>
      </trkpt>
      <trkpt lat="57.23608" lon="-4.49294">
        <ele>169.69</ele>
        <time>2021-03-20T17:54:59Z</time>
      </trkpt>
      <trkpt lat="57.2356" lon="-4.49303">
        <ele>169.32</ele>
        <time>2021-03-20T17:55:02Z</time>
      </trkpt>
      <trkpt lat="57.23514" lon="-4.49395">
        <ele>157.33</ele>
        <time>2021-03-20T17:55:06Z</time>
      </trkpt>
      <trkpt lat="57.23325" lon="-4.49604">
        <ele>145.61</ele>
        <time>2021-03-20T17:55:09Z</time>
      </trkpt>
      <trkpt lat="57.23311" lon="-4.49611">
        <ele>145.67</ele>
        <time>2021-03-20T17:55:13Z</time>
      </trkpt>
      <trkpt lat="57.23293" lon="-4.49606">
        <ele>146.48</ele>
        <time>2021-03-20T17:55:16Z</time>
      </trkpt>
      <trkpt lat="57.23072" lon="-4.49496">
        <ele>155.57</ele>
        <time>2021-03-20T17:55:20Z</time>
      </trkpt>
      <trkpt lat="57.23045" lon="-4.49497">
        <ele>156.09</ele>
        <time>2021-03-20T17:55:23Z</time>
      </trkpt>
      <trkpt lat="57.22877" lon="-4.49565">
        <ele>156.4</ele>
        <time>2021-03-20T17:55:27Z</time>
      </trkpt>
      <trkpt lat="57.22868" lon="-4.49567">
        <ele>156.56</ele>
        <time>2021-03-20T17:55:30Z</time>
      </trkpt>
      <trkpt lat="57.22857" lon="-4.4956">
        <ele>157.26</ele>
        <time>2021-03-20T17:55:34Z</time>
      </trkpt>
      <trkpt lat="57.22771" lon="-4.49476">
        <ele>163.09</ele>
        <time>2021-03-20T17:55:37Z</time>
      </trkpt>
      <trkpt lat="57.22758" lon="-4.49474">
        <ele>164.23</ele>
        <time>2021-03-20T17:55:41Z</time>
      </trkpt>
      <trkpt lat="57.22749" lon="-4.49485">
        <ele>163.71</ele>
        <time>2021-03-20T17:55:44Z</time>
      </trkpt>
      <trkpt lat="57.22741" lon="-4.49509">
        <ele>162.6</ele>
        <time>2021-03-20T17:55:48Z</time>
      </trkpt>
      <trkpt lat="57.22734" lon="-4.49525">
        <ele>162.87</ele>
        <time>2021-03-20T17:55:51Z</time>
      </trkpt>
      <trkpt lat="57.22665" lon="-4.49572">
        <ele>161.58</ele>
        <time>2021-03-20T17:55:55Z</time>
      </trkpt>
      <trkpt lat="57.2265" lon="-4.4957">
        <ele>159.64</ele>
        <time>2021-03-20T17:55:59Z</time>
      </trkpt>
      <trkpt lat="57.2261" lon="-4.49508">
        <ele>158.7</ele>
        <time>2021-03-20T17:56:02Z</time>
      </trkpt>
      <trkpt lat="57.22594" lon="-4.49511">
        <ele>157.99</ele>
        <time>2021-03-20T17:56:06Z</time>
      </trkpt>
      <trkpt lat="57.22513" lon="-4.49657">
        <ele>156.55</ele>
        <time>2021-03-20T17:56:09Z</time>
      </trkpt>
      <trkpt lat="57.22497" lon="-4.49679">
        <ele>156.07</ele>
        <time>2021-03-20T17:56:13Z</time>
      </trkpt>
      <trkpt lat="57.22478" lon="-4.49681">
        <ele>156.38</ele>
        <time>2021-03-20T17:56:16Z</time>
      </trkpt>
      <trkpt lat="57.22462" lon="-4.49677">
        <ele>156.91</ele>
        <time>2021-03-20T17:56:20Z</time>
      </trkpt>
      <trkpt lat="57.22417" lon="-4.49632">
        <ele>158.99</ele>
        <time>2021-03-20T17:56:23Z</time>
      </trkpt>
      <trkpt lat="57.22384" lon="-4.49612">
        <ele>159.22</ele>
        <time>2021-03-20T17:56:27Z</time>
      </trkpt>
      <trkpt lat="57.22369" lon="-4.49596">
        <ele>160.4</ele>
        <time>2021-03-20T17:56:30Z</time>
      </trkpt>
      <trkpt lat="57.22355" lon="-4.49547">
        <ele>163.64</ele>
        <time>2021-03-20T17:56:34Z</time>
      </trkpt>
      <trkpt lat="57.22342" lon="-4.49533">
        <ele>164.76</ele>
        <time>2021-03-20T17:56:37Z</time>
      </trkpt>
      <trkpt lat="57.22287" lon="-4.49542">
        <ele>163.77</ele>
        <time>2021-03-20T17:56:41Z</time>
      </trkpt>
      <trkpt lat="57.22258" lon="-4.49564">
        <ele>162.7</ele>
        <time>2021-03-20T17:56:44Z</time>
      </trkpt>
      <trkpt lat="57.22229" lon="-4.49554">
        <ele>163.09</ele>
        <time>2021-03-20T17:56:48Z</time>
      </trkpt>
      <trkpt lat="57.22218" lon="-4.49547">
        <ele>163.62</ele>
        <time>2021-03-20T17:56:51Z</time>
      </trkpt>
      <trkpt lat="57.22188" lon="-4.49514">
        <ele>165.79</ele>
        <time>2021-03-20T17:56:55Z</time>
      </trkpt>
      <trkpt lat="57.22159" lon="-4.49491">
        <ele>166.65</ele>
        <time>2021-03-20T17:56:58Z</time>
      </trkpt>
      <trkpt lat="57.22133" lon="-4.49481">
        <ele>167.22</ele>
        <time>2021-03-20T17:57:02Z</time>
      </trkpt>
      <trkpt lat="57.22119" lon="-4.4948">
        <ele>166.92</ele>
        <time>2021-03-20T17:57:06Z</time>
      </trkpt>
      <trkpt lat="57.22088" lon="-4.49493">
        <ele>166.26</ele>
        <time>2021-03-20T17:57:09Z</time>
      </trkpt>
      <trkpt lat="57.22077" lon="-4.49492">
        <ele>166.3</ele>
        <time>2021-03-20T17:57:13Z</time>
      </trkpt>
      <trkpt lat="57.22065" lon="-4.49486">
        <ele>166.49</ele>
        <time>2021-03-20T17:57:16Z</time>
      </trkpt>
      <trkpt lat="57.22054" lon="-4.49478">
        <ele>166.68</ele>
        <time>2021-03-20T17:57:20Z</time>
      </trkpt>
      <trkpt lat="57.22037" lon="-4.49459">
        <ele>166.17</ele>
        <time>2021-03-20T17:57:23Z</time>
      </trkpt>
      <trkpt lat="57.22022" lon="-4.49434">
        <ele>165.79</ele>
        <time>2021-03-20T17:57:27Z</time>
      </trkpt>
      <trkpt lat="57.21981" lon="-4.49489">
        <ele>165.68</ele>
        <time>2021-03-20T17:57:32Z</time>
      </trkpt>
      <trkpt lat="57.21957" lon="-4.49516">
        <ele>165.42</ele>
        <time>2021-03-20T17:57:36Z</time>
      </trkpt>
      <trkpt lat="57.21948" lon="-4.49523">
        <ele>165.16</ele>
        <time>2021-03-20T17:57:41Z</time>
      </trkpt>
      <trkpt lat="57.2192" lon="-4.49537">
        <ele>164.66</ele>
        <time>2021-03-20T17:57:46Z</time>
      </trkpt>
      <trkpt lat="57.21894" lon="-4.49546">
        <ele>164.07</ele>
        <time>2021-03-20T17:57:51Z</time>
      </trkpt>
      <trkpt lat="57.21873" lon="-4.49548">
        <ele>164</ele>
        <time>2021-03-20T17:57:56Z</time>
      </trkpt>
      <trkpt lat="57.21841" lon="-4.49544">
        <ele>164.72</ele>
        <time>2021-03-20T17:58:01Z</time>
      </trkpt>
      <trkpt lat="57.21742" lon="-4.4952">
        <ele>165.39</ele>
        <time>2021-03-20T17:58:05Z</time>
      </trkpt>
      <trkpt lat="57.21676" lon="-4.495">
        <ele>167.67</ele>
        <time>2021-03-20T17:58:10Z</time>
      </trkpt>
      <trkpt lat="57.21644" lon="-4.49494">
        <ele>168.17</ele>
        <time>2021-03-20T17:58:15Z</time>
      </trkpt>
      <trkpt lat="57.21611" lon="-4.49502">
        <ele>169.89</ele>
        <time>2021-03-20T17:58:20Z</time>
      </trkpt>
      <trkpt lat="57.21279" lon="-4.49655">
        <ele>177.35</ele>
        <time>2021-03-20T17:58:25Z</time>
      </trkpt>
      <trkpt lat="57.21098" lon="-4.49746">
        <ele>181.13</ele>
        <time>2021-03-20T17:58:29Z</time>
      </trkpt>
      <trkpt lat="57.21055" lon="-4.49763">
        <ele>182.62</ele>
        <time>2021-03-20T17:58:34Z</time>
      </trkpt>
      <trkpt lat="57.20968" lon="-4.49781">
        <ele>187.2</ele>
        <time>2021-03-20T17:58:39Z</time>
      </trkpt>
      <trkpt lat="57.20918" lon="-4.49795">
        <ele>189.68</ele>
        <time>2021-03-20T17:58:44Z</time>
      </trkpt>
      <trkpt lat="57.2087" lon="-4.49825">
        <ele>189.31</ele>
        <time>2021-03-20T17:58:49Z</time>
      </trkpt>
      <trkpt lat="57.20771" lon="-4.49905">
        <ele>187.78</ele>
        <time>2021-03-20T17:58:54Z</time>
      </trkpt>
      <trkpt lat="57.20644" lon="-4.49998">
        <ele>190.69</ele>
        <time>2021-03-20T17:58:58Z</time>
      </trkpt>
      <trkpt lat="57.20567" lon="-4.50051">
        <ele>188.15</ele>
        <time>2021-03-20T17:59:03Z</time>
      </trkpt>
      <trkpt lat="57.20539" lon="-4.50079">
        <ele>188</ele>
        <time>2021-03-20T17:59:08Z</time>
      </trkpt>
      <trkpt lat="57.20521" lon="-4.50104">
        <ele>188</ele>
        <time>2021-03-20T17:59:13Z</time>
      </trkpt>
      <trkpt lat="57.20415" lon="-4.50299">
        <ele>186.69</ele>
        <time>2021-03-20T17:59:18Z</time>
      </trkpt>
      <trkpt lat="57.20387" lon="-4.50366">
        <ele>191.91</ele>
        <time>2021-03-20T17:59:23Z</time>
      </trkpt>
      <trkpt lat="57.20376" lon="-4.50402">
        <ele>192</ele>
        <time>2021-03-20T17:59:27Z</time>
      </trkpt>
      <trkpt lat="57.20332" lon="-4.50592">
        <ele>195.95</ele>
        <time>2021-03-20T17:59:32Z</time>
      </trkpt>
      <trkpt lat="57.20311" lon="-4.50657">
        <ele>194.19</ele>
        <time>2021-03-20T17:59:37Z</time>
      </trkpt>
      <trkpt lat="57.20254" lon="-4.50778">
        <ele>198.18</ele>
        <time>2021-03-20T17:59:42Z</time>
      </trkpt>
      <trkpt lat="57.20229" lon="-4.50827">
        <ele>201.51</ele>
        <time>2021-03-20T17:59:47Z</time>
      </trkpt>
      <trkpt lat="57.20199" lon="-4.50882">
        <ele>203.26</ele>
        <time>2021-03-20T17:59:51Z</time>
      </trkpt>
      <trkpt lat="57.20166" lon="-4.50929">
        <ele>203.79</ele>
        <time>2021-03-20T17:59:56Z</time>
      </trkpt>
      <trkpt lat="57.20119" lon="-4.50975">
        <ele>202.39</ele>
        <time>2021-03-20T18:00:01Z</time>
      </trkpt>
      <trkpt lat="57.19989" lon="-4.51057">
        <ele>209.48</ele>
        <time>2021-03-20T18:00:06Z</time>
      </trkpt>
      <trkpt lat="57.19962" lon="-4.51083">
        <ele>211.36</ele>
        <time>2021-03-20T18:00:11Z</time>
      </trkpt>
      <trkpt lat="57.197" lon="-4.51485">
        <ele>218.77</ele>
        <time>2021-03-20T18:00:16Z</time>
      </trkpt>
      <trkpt lat="57.19611" lon="-4.5163">
        <ele>212.67</ele>
        <time>2021-03-20T18:00:20Z</time>
      </trkpt>
      <trkpt lat="57.19588" lon="-4.51676">
        <ele>212.48</ele>
        <time>2021-03-20T18:00:25Z</time>
      </trkpt>
      <trkpt lat="57.19496" lon="-4.51885">
        <ele>215.38</ele>
        <time>2021-03-20T18:00:30Z</time>
      </trkpt>
      <trkpt lat="57.19481" lon="-4.51913">
        <ele>215.63</ele>
        <time>2021-03-20T18:00:35Z</time>
      </trkpt>
      <trkpt lat="57.19073" lon="-4.52462">
        <ele>220.31</ele>
        <time>2021-03-20T18:00:40Z</time>
      </trkpt>
      <trkpt lat="57.18912" lon="-4.52688">
        <ele>219.41</ele>
        <time>2021-03-20T18:00:44Z</time>
      </trkpt>
      <trkpt lat="57.18411" lon="-4.53354">
        <ele>239.94</ele>
        <time>2021-03-20T18:00:49Z</time>
      </trkpt>
      <trkpt lat="57.18348" lon="-4.53432">
        <ele>241.31</ele>
        <time>2021-03-20T18:00:54Z</time>
      </trkpt>
      <trkpt lat="57.18315" lon="-4.53464">
        <ele>243.69</ele>
        <time>2021-03-20T18:00:59Z</time>
      </trkpt>
      <trkpt lat="57.18061" lon="-4.53646">
        <ele>273.04</ele>
        <time>2021-03-20T18:01:04Z</time>
      </trkpt>
      <trkpt lat="57.18009" lon="-4.53693">
        <ele>276.38</ele>
        <time>2021-03-20T18:01:09Z</time>
      </trkpt>
      <trkpt lat="57.17957" lon="-4.53745">
        <ele>279.14</ele>
        <time>2021-03-20T18:01:13Z</time>
      </trkpt>
      <trkpt lat="57.17926" lon="-4.53784">
        <ele>278.8</ele>
        <time>2021-03-20T18:01:18Z</time>
      </trkpt>
      <trkpt lat="57.17863" lon="-4.53874">
        <ele>281.15</ele>
        <time>2021-03-20T18:01:23Z</time>
      </trkpt>
      <trkpt lat="57.1777" lon="-4.54021">
        <ele>285.17</ele>
        <time>2021-03-20T18:01:28Z</time>
      </trkpt>
      <trkpt lat="57.17584" lon="-4.54515">
        <ele>306.55</ele>
        <time>2021-03-20T18:01:33Z</time>
      </trkpt>
      <trkpt lat="57.17573" lon="-4.54539">
        <ele>307.24</ele>
        <time>2021-03-20T18:01:38Z</time>
      </trkpt>
      <trkpt lat="57.17559" lon="-4.54558">
        <ele>307.2</ele>
        <time>2021-03-20T18:01:42Z</time>
      </trkpt>
      <trkpt lat="57.16444" lon="-4.55885">
        <ele>357.77</ele>
        <time>2021-03-20T18:01:47Z</time>
      </trkpt>
      <trkpt lat="57.16345" lon="-4.55997">
        <ele>355.56</ele>
        <time>2021-03-20T18:01:52Z</time>
      </trkpt>
      <trkpt lat="57.16321" lon="-4.56015">
        <ele>354.63</ele>
        <time>2021-03-20T18:01:57Z</time>
      </trkpt>
      <trkpt lat="57.163" lon="-4.56024">
        <ele>354.53</ele>
        <time>2021-03-20T18:02:02Z</time>
      </trkpt>
      <trkpt lat="57.16229" lon="-4.56045">
        <ele>355.45</ele>
        <time>2021-03-20T18:02:06Z</time>
      </trkpt>
      <trkpt lat="57.16207" lon="-4.56056">
        <ele>357.14</ele>
        <time>2021-03-20T18:02:11Z</time>
      </trkpt>
      <trkpt lat="57.16137" lon="-4.5611">
        <ele>362.11</ele>
        <time>2021-03-20T18:02:16Z</time>
      </trkpt>
      <trkpt lat="57.16125" lon="-4.56121">
        <ele>363.76</ele>
        <time>2021-03-20T18:02:21Z</time>
      </trkpt>
      <trkpt lat="57.16113" lon="-4.56138">
        <ele>365.78</ele>
        <time>2021-03-20T18:02:26Z</time>
      </trkpt>
      <trkpt lat="57.16079" lon="-4.56222">
        <ele>371.31</ele>
        <time>2021-03-20T18:02:31Z</time>
      </trkpt>
      <trkpt lat="57.16021" lon="-4.56374">
        <ele>381.45</ele>
        <time>2021-03-20T18:02:35Z</time>
      </trkpt>
      <trkpt lat="57.1601" lon="-4.56398">
        <ele>383.93</ele>
        <time>2021-03-20T18:02:40Z</time>
      </trkpt>
      <trkpt lat="57.15943" lon="-4.56478">
        <ele>390.11</ele>
        <time>2021-03-20T18:02:45Z</time>
      </trkpt>
      <trkpt lat="57.15872" lon="-4.56588">
        <ele>388.75</ele>
        <time>2021-03-20T18:02:50Z</time>
      </trkpt>
      <trkpt lat="57.15856" lon="-4.56618">
        <ele>388.6</ele>
        <time>2021-03-20T18:02:55Z</time>
      </trkpt>
      <trkpt lat="57.15646" lon="-4.57092">
        <ele>365.15</ele>
        <time>2021-03-20T18:03:00Z</time>
      </trkpt>
      <trkpt lat="57.15634" lon="-4.57125">
        <ele>362.9</ele>
        <time>2021-03-20T18:03:04Z</time>
      </trkpt>
      <trkpt lat="57.15625" lon="-4.57163">
        <ele>360.34</ele>
        <time>2021-03-20T18:03:09Z</time>
      </trkpt>
      <trkpt lat="57.15606" lon="-4.57276">
        <ele>355.42</ele>
        <time>2021-03-20T18:03:14Z</time>
      </trkpt>
      <trkpt lat="57.15488" lon="-4.57866">
        <ele>334.39</ele>
        <time>2021-03-20T18:03:19Z</time>
      </trkpt>
      <trkpt lat="57.15408" lon="-4.58279">
        <ele>328.07</ele>
        <time>2021-03-20T18:03:24Z</time>
      </trkpt>
      <trkpt lat="57.1535" lon="-4.5864">
        <ele>316.07</ele>
        <time>2021-03-20T18:03:28Z</time>
      </trkpt>
      <trkpt lat="57.15347" lon="-4.58679">
        <ele>315.76</ele>
        <time>2021-03-20T18:03:33Z</time>
      </trkpt>
      <trkpt lat="57.15367" lon="-4.59011">
        <ele>318.03</ele>
        <time>2021-03-20T18:03:38Z</time>
      </trkpt>
      <trkpt lat="57.15369" lon="-4.59073">
        <ele>317.1</ele>
        <time>2021-03-20T18:03:43Z</time>
      </trkpt>
      <trkpt lat="57.15368" lon="-4.59118">
        <ele>315.59</ele>
        <time>2021-03-20T18:03:48Z</time>
      </trkpt>
      <trkpt lat="57.15361" lon="-4.59216">
        <ele>313.91</ele>
        <time>2021-03-20T18:03:53Z</time>
      </trkpt>
      <trkpt lat="57.15356" lon="-4.59245">
        <ele>312.63</ele>
        <time>2021-03-20T18:03:57Z</time>
      </trkpt>
      <trkpt lat="57.15329" lon="-4.59317">
        <ele>308.55</ele>
        <time>2021-03-20T18:04:02Z</time>
      </trkpt>
      <trkpt lat="57.15323" lon="-4.5934">
        <ele>307.62</ele>
        <time>2021-03-20T18:04:07Z</time>
      </trkpt>
      <trkpt lat="57.15318" lon="-4.5937">
        <ele>306.17</ele>
        <time>2021-03-20T18:04:12Z</time>
      </trkpt>
      <trkpt lat="57.15315" lon="-4.5943">
        <ele>305.07</ele>
        <time>2021-03-20T18:04:17Z</time>
      </trkpt>
      <trkpt lat="57.15312" lon="-4.59461">
        <ele>303.48</ele>
        <time>2021-03-20T18:04:22Z</time>
      </trkpt>
      <trkpt lat="57.15304" lon="-4.59494">
        <ele>301.09</ele>
        <time>2021-03-20T18:04:26Z</time>
      </trkpt>
      <trkpt lat="57.15292" lon="-4.5952">
        <ele>298.61</ele>
        <time>2021-03-20T18:04:31Z</time>
      </trkpt>
      <trkpt lat="57.15278" lon="-4.59542">
        <ele>296.51</ele>
        <time>2021-03-20T18:04:36Z</time>
      </trkpt>
      <trkpt lat="57.15259" lon="-4.59557">
        <ele>295.34</ele>
        <time>2021-03-20T18:04:41Z</time>
      </trkpt>
      <trkpt lat="57.15242" lon="-4.59584">
        <ele>295.86</ele>
        <time>2021-03-20T18:04:46Z</time>
      </trkpt>
      <trkpt lat="57.15204" lon="-4.5971">
        <ele>296.39</ele>
        <time>2021-03-20T18:04:50Z</time>
      </trkpt>
      <trkpt lat="57.15194" lon="-4.59755">
        <ele>295.84</ele>
        <time>2021-03-20T18:04:55Z</time>
      </trkpt>
      <trkpt lat="57.15187" lon="-4.59778">
        <ele>295.81</ele>
        <time>2021-03-20T18:05:00Z</time>
      </trkpt>
      <trkpt lat="57.15149" lon="-4.59834">
        <ele>295.92</ele>
        <time>2021-03-20T18:05:05Z</time>
      </trkpt>
      <trkpt lat="57.1514" lon="-4.59856">
        <ele>295.31</ele>
        <time>2021-03-20T18:05:10Z</time>
      </trkpt>
      <trkpt lat="57.15129" lon="-4.5991">
        <ele>294.34</ele>
        <time>2021-03-20T18:05:15Z</time>
      </trkpt>
      <trkpt lat="57.15121" lon="-4.59934">
        <ele>294.5</ele>
        <time>2021-03-20T18:05:19Z</time>
      </trkpt>
      <trkpt lat="57.15114" lon="-4.5995">
        <ele>294.66</ele>
        <time>2021-03-20T18:05:24Z</time>
      </trkpt>
      <trkpt lat="57.15053" lon="-4.60036">
        <ele>299.88</ele>
        <time>2021-03-20T18:05:29Z</time>
      </trkpt>
      <trkpt lat="57.15044" lon="-4.60058">
        <ele>299.91</ele>
        <time>2021-03-20T18:05:34Z</time>
      </trkpt>
      <trkpt lat="57.15035" lon="-4.60085">
        <ele>298.88</ele>
        <time>2021-03-20T18:05:39Z</time>
      </trkpt>
      <trkpt lat="57.14987" lon="-4.60294">
        <ele>294.92</ele>
        <time>2021-03-20T18:05:44Z</time>
      </trkpt>
      <trkpt lat="57.14956" lon="-4.60437">
        <ele>294.26</ele>
        <time>2021-03-20T18:05:48Z</time>
      </trkpt>
      <trkpt lat="57.14954" lon="-4.60482">
        <ele>293.33</ele>
        <time>2021-03-20T18:05:53Z</time>
      </trkpt>
      <trkpt lat="57.14952" lon="-4.60554">
        <ele>294.45</ele>
        <time>2021-03-20T18:05:58Z</time>
      </trkpt>
      <trkpt lat="57.1495" lon="-4.60584">
        <ele>294.62</ele>
        <time>2021-03-20T18:06:03Z</time>
      </trkpt>
      <trkpt lat="57.14936" lon="-4.6066">
        <ele>293.82</ele>
        <time>2021-03-20T18:06:08Z</time>
      </trkpt>
      <trkpt lat="57.14893" lon="-4.60876">
        <ele>295.67</ele>
        <time>2021-03-20T18:06:12Z</time>
      </trkpt>
      <trkpt lat="57.14884" lon="-4.60946">
        <ele>296.14</ele>
        <time>2021-03-20T18:06:17Z</time>
      </trkpt>
      <trkpt lat="57.14892" lon="-4.61016">
        <ele>294.4</ele>
        <time>2021-03-20T18:06:22Z</time>
      </trkpt>
      <trkpt lat="57.14893" lon="-4.61051">
        <ele>294</ele>
        <time>2021-03-20T18:06:27Z</time>
      </trkpt>
      <trkpt lat="57.14886" lon="-4.61091">
        <ele>294.88</ele>
        <time>2021-03-20T18:06:32Z</time>
      </trkpt>
      <trkpt lat="57.14845" lon="-4.61219">
        <ele>297.17</ele>
        <time>2021-03-20T18:06:37Z</time>
      </trkpt>
      <trkpt lat="57.14827" lon="-4.61257">
        <ele>296.73</ele>
        <time>2021-03-20T18:06:41Z</time>
      </trkpt>
      <trkpt lat="57.14762" lon="-4.61342">
        <ele>289.83</ele>
        <time>2021-03-20T18:06:46Z</time>
      </trkpt>
      <trkpt lat="57.14741" lon="-4.61382">
        <ele>286.76</ele>
        <time>2021-03-20T18:06:51Z</time>
      </trkpt>
      <trkpt lat="57.14625" lon="-4.6169">
        <ele>268.73</ele>
        <time>2021-03-20T18:06:56Z</time>
      </trkpt>
      <trkpt lat="57.14592" lon="-4.61826">
        <ele>258.82</ele>
        <time>2021-03-20T18:07:01Z</time>
      </trkpt>
      <trkpt lat="57.14574" lon="-4.61882">
        <ele>254.76</ele>
        <time>2021-03-20T18:07:06Z</time>
      </trkpt>
      <trkpt lat="57.14549" lon="-4.61923">
        <ele>251.52</ele>
        <time>2021-03-20T18:07:10Z</time>
      </trkpt>
      <trkpt lat="57.14527" lon="-4.6195">
        <ele>249.95</ele>
        <time>2021-03-20T18:07:15Z</time>
      </trkpt>
      <trkpt lat="57.14325" lon="-4.62186">
        <ele>238.9</ele>
        <time>2021-03-20T18:07:20Z</time>
      </trkpt>
      <trkpt lat="57.14272" lon="-4.62266">
        <ele>235.09</ele>
        <time>2021-03-20T18:07:25Z</time>
      </trkpt>
      <trkpt lat="57.14252" lon="-4.62311">
        <ele>232.81</ele>
        <time>2021-03-20T18:07:30Z</time>
      </trkpt>
      <trkpt lat="57.1423" lon="-4.62451">
        <ele>219.12</ele>
        <time>2021-03-20T18:07:34Z</time>
      </trkpt>
      <trkpt lat="57.14193" lon="-4.62625">
        <ele>205.8</ele>
        <time>2021-03-20T18:07:39Z</time>
      </trkpt>
      <trkpt lat="57.14166" lon="-4.62957">
        <ele>181.63</ele>
        <time>2021-03-20T18:07:44Z</time>
      </trkpt>
      <trkpt lat="57.1417" lon="-4.62994">
        <ele>179.81</ele>
        <time>2021-03-20T18:07:49Z</time>
      </trkpt>
      <trkpt lat="57.142" lon="-4.63095">
        <ele>177.12</ele>
        <time>2021-03-20T18:07:54Z</time>
      </trkpt>
      <trkpt lat="57.14205" lon="-4.63132">
        <ele>175.4</ele>
        <time>2021-03-20T18:07:59Z</time>
      </trkpt>
      <trkpt lat="57.14205" lon="-4.63193">
        <ele>175.95</ele>
        <time>2021-03-20T18:08:03Z</time>
      </trkpt>
      <trkpt lat="57.14208" lon="-4.63222">
        <ele>177.09</ele>
        <time>2021-03-20T18:08:08Z</time>
      </trkpt>
      <trkpt lat="57.14214" lon="-4.63252">
        <ele>179.83</ele>
        <time>2021-03-20T18:08:13Z</time>
      </trkpt>
      <trkpt lat="57.14254" lon="-4.63367">
        <ele>179.23</ele>
        <time>2021-03-20T18:08:18Z</time>
      </trkpt>
      <trkpt lat="57.14346" lon="-4.6356">
        <ele>170.93</ele>
        <time>2021-03-20T18:08:23Z</time>
      </trkpt>
      <trkpt lat="57.14354" lon="-4.63584">
        <ele>171.07</ele>
        <time>2021-03-20T18:08:28Z</time>
      </trkpt>
      <trkpt lat="57.14357" lon="-4.63618">
        <ele>171.71</ele>
        <time>2021-03-20T18:08:32Z</time>
      </trkpt>
      <trkpt lat="57.14352" lon="-4.63703">
        <ele>173.46</ele>
        <time>2021-03-20T18:08:37Z</time>
      </trkpt>
      <trkpt lat="57.14352" lon="-4.63722">
        <ele>173.63</ele>
        <time>2021-03-20T18:08:42Z</time>
      </trkpt>
      <trkpt lat="57.14355" lon="-4.63742">
        <ele>173.73</ele>
        <time>2021-03-20T18:08:47Z</time>
      </trkpt>
      <trkpt lat="57.14366" lon="-4.63767">
        <ele>173</ele>
        <time>2021-03-20T18:08:52Z</time>
      </trkpt>
      <trkpt lat="57.14377" lon="-4.6378">
        <ele>173.18</ele>
        <time>2021-03-20T18:08:56Z</time>
      </trkpt>
      <trkpt lat="57.14431" lon="-4.63805">
        <ele>175.95</ele>
        <time>2021-03-20T18:09:01Z</time>
      </trkpt>
      <trkpt lat="57.14442" lon="-4.63816">
        <ele>176.37</ele>
        <time>2021-03-20T18:09:06Z</time>
      </trkpt>
      <trkpt lat="57.14451" lon="-4.63832">
        <ele>176.74</ele>
        <time>2021-03-20T18:09:11Z</time>
      </trkpt>
      <trkpt lat="57.14456" lon="-4.63854">
        <ele>177.72</ele>
        <time>2021-03-20T18:09:16Z</time>
      </trkpt>
      <trkpt lat="57.14458" lon="-4.63877">
        <ele>178.32</ele>
        <time>2021-03-20T18:09:21Z</time>
      </trkpt>
      <trkpt lat="57.14428" lon="-4.64425">
        <ele>185.62</ele>
        <time>2021-03-20T18:09:25Z</time>
      </trkpt>
      <trkpt lat="57.14423" lon="-4.64465">
        <ele>188.44</ele>
        <time>2021-03-20T18:09:30Z</time>
      </trkpt>
      <trkpt lat="57.14394" lon="-4.64612">
        <ele>198.55</ele>
        <time>2021-03-20T18:09:35Z</time>
      </trkpt>
      <trkpt lat="57.14391" lon="-4.64658">
        <ele>200.81</ele>
        <time>2021-03-20T18:09:40Z</time>
      </trkpt>
      <trkpt lat="57.14397" lon="-4.64701">
        <ele>202.46</ele>
        <time>2021-03-20T18:09:45Z</time>
      </trkpt>
      <trkpt lat="57.14422" lon="-4.64758">
        <ele>204</ele>
        <time>2021-03-20T18:09:49Z</time>
      </trkpt>
      <trkpt lat="57.14441" lon="-4.64792">
        <ele>203.55</ele>
        <time>2021-03-20T18:09:54Z</time>
      </trkpt>
      <trkpt lat="57.14455" lon="-4.64825">
        <ele>202.48</ele>
        <time>2021-03-20T18:09:59Z</time>
      </trkpt>
      <trkpt lat="57.14466" lon="-4.64871">
        <ele>198.06</ele>
        <time>2021-03-20T18:10:04Z</time>
      </trkpt>
      <trkpt lat="57.14464" lon="-4.64925">
        <ele>193.27</ele>
        <time>2021-03-20T18:10:09Z</time>
      </trkpt>
      <trkpt lat="57.14451" lon="-4.64977">
        <ele>189.8</ele>
        <time>2021-03-20T18:10:14Z</time>
      </trkpt>
      <trkpt lat="57.14432" lon="-4.65026">
        <ele>185.66</ele>
        <time>2021-03-20T18:10:18Z</time>
      </trkpt>
      <trkpt lat="57.1441" lon="-4.65071">
        <ele>180.18</ele>
        <time>2021-03-20T18:10:23Z</time>
      </trkpt>
      <trkpt lat="57.14333" lon="-4.65167">
        <ele>169.98</ele>
        <time>2021-03-20T18:10:28Z</time>
      </trkpt>
      <trkpt lat="57.14294" lon="-4.6521">
        <ele>161.16</ele>
        <time>2021-03-20T18:10:33Z</time>
      </trkpt>
      <trkpt lat="57.14254" lon="-4.65274">
        <ele>153.36</ele>
        <time>2021-03-20T18:10:38Z</time>
      </trkpt>
      <trkpt lat="57.14215" lon="-4.65332">
        <ele>151.09</ele>
        <time>2021-03-20T18:10:43Z</time>
      </trkpt>
      <trkpt lat="57.14157" lon="-4.65397">
        <ele>145.18</ele>
        <time>2021-03-20T18:10:47Z</time>
      </trkpt>
      <trkpt lat="57.14113" lon="-4.65466">
        <ele>140.32</ele>
        <time>2021-03-20T18:10:52Z</time>
      </trkpt>
      <trkpt lat="57.141" lon="-4.655">
        <ele>137.82</ele>
        <time>2021-03-20T18:10:57Z</time>
      </trkpt>
      <trkpt lat="57.14055" lon="-4.65654">
        <ele>128.41</ele>
        <time>2021-03-20T18:11:02Z</time>
      </trkpt>
      <trkpt lat="57.13981" lon="-4.65787">
        <ele>118.47</ele>
        <time>2021-03-20T18:11:07Z</time>
      </trkpt>
      <trkpt lat="57.13939" lon="-4.65906">
        <ele>110.77</ele>
        <time>2021-03-20T18:11:11Z</time>
      </trkpt>
      <trkpt lat="57.13892" lon="-4.6599">
        <ele>103.81</ele>
        <time>2021-03-20T18:11:16Z</time>
      </trkpt>
      <trkpt lat="57.13878" lon="-4.66043">
        <ele>99.14</ele>
        <time>2021-03-20T18:11:21Z</time>
      </trkpt>
      <trkpt lat="57.13867" lon="-4.6607">
        <ele>95.97</ele>
        <time>2021-03-20T18:11:26Z</time>
      </trkpt>
      <trkpt lat="57.13772" lon="-4.66206">
        <ele>82.61</ele>
        <time>2021-03-20T18:11:31Z</time>
      </trkpt>
      <trkpt lat="57.13758" lon="-4.66237">
        <ele>80.13</ele>
        <time>2021-03-20T18:11:36Z</time>
      </trkpt>
      <trkpt lat="57.1375" lon="-4.66262">
        <ele>78.75</ele>
        <time>2021-03-20T18:11:40Z</time>
      </trkpt>
      <trkpt lat="57.13747" lon="-4.66305">
        <ele>75.17</ele>
        <time>2021-03-20T18:11:45Z</time>
      </trkpt>
      <trkpt lat="57.13759" lon="-4.6636">
        <ele>69.75</ele>
        <time>2021-03-20T18:11:50Z</time>
      </trkpt>
      <trkpt lat="57.13786" lon="-4.66402">
        <ele>65.43</ele>
        <time>2021-03-20T18:11:55Z</time>
      </trkpt>
      <trkpt lat="57.13817" lon="-4.66459">
        <ele>61.1</ele>
        <time>2021-03-20T18:12:00Z</time>
      </trkpt>
      <trkpt lat="57.13825" lon="-4.66496">
        <ele>59.92</ele>
        <time>2021-03-20T18:12:05Z</time>
      </trkpt>
      <trkpt lat="57.13823" lon="-4.66541">
        <ele>57.65</ele>
        <time>2021-03-20T18:12:09Z</time>
      </trkpt>
      <trkpt lat="57.13776" lon="-4.66676">
        <ele>51.11</ele>
        <time>2021-03-20T18:12:14Z</time>
      </trkpt>
      <trkpt lat="57.13753" lon="-4.66755">
        <ele>44.03</ele>
        <time>2021-03-20T18:12:19Z</time>
      </trkpt>
      <trkpt lat="57.13747" lon="-4.66794">
        <ele>40.69</ele>
        <time>2021-03-20T18:12:24Z</time>
      </trkpt>
      <trkpt lat="57.13746" lon="-4.66831">
        <ele>37.71</ele>
        <time>2021-03-20T18:12:29Z</time>
      </trkpt>
      <trkpt lat="57.13783" lon="-4.67086">
        <ele>25.93</ele>
        <time>2021-03-20T18:12:33Z</time>
      </trkpt>
      <trkpt lat="57.13807" lon="-4.67214">
        <ele>28.89</ele>
        <time>2021-03-20T18:12:38Z</time>
      </trkpt>
      <trkpt lat="57.13815" lon="-4.67281">
        <ele>30.01</ele>
        <time>2021-03-20T18:12:43Z</time>
      </trkpt>
      <trkpt lat="57.13823" lon="-4.67328">
        <ele>30.2</ele>
        <time>2021-03-20T18:12:48Z</time>
      </trkpt>
      <trkpt lat="57.13849" lon="-4.67413">
        <ele>28.37</ele>
        <time>2021-03-20T18:12:53Z</time>
      </trkpt>
      <trkpt lat="57.13921" lon="-4.67609">
        <ele>18.82</ele>
        <time>2021-03-20T18:12:58Z</time>
      </trkpt>
      <trkpt lat="57.13977" lon="-4.67733">
        <ele>19.4</ele>
        <time>2021-03-20T18:13:02Z</time>
      </trkpt>
      <trkpt lat="57.14029" lon="-4.67806">
        <ele>21</ele>
        <time>2021-03-20T18:13:07Z</time>
      </trkpt>
      <trkpt lat="57.14047" lon="-4.67827">
        <ele>21</ele>
        <time>2021-03-20T18:13:12Z</time>
      </trkpt>
      <trkpt lat="57.14063" lon="-4.67836">
        <ele>20.36</ele>
        <time>2021-03-20T18:13:17Z</time>
      </trkpt>
      <trkpt lat="57.14166" lon="-4.67855">
        <ele>19.98</ele>
        <time>2021-03-20T18:13:22Z</time>
      </trkpt>
      <trkpt lat="57.14182" lon="-4.67873">
        <ele>20.53</ele>
        <time>2021-03-20T18:13:27Z</time>
      </trkpt>
      <trkpt lat="57.14202" lon="-4.67906">
        <ele>21.15</ele>
        <time>2021-03-20T18:13:31Z</time>
      </trkpt>
      <trkpt lat="57.14224" lon="-4.67932">
        <ele>22.55</ele>
        <time>2021-03-20T18:13:36Z</time>
      </trkpt>
      <trkpt lat="57.14234" lon="-4.67934">
        <ele>23.26</ele>
        <time>2021-03-20T18:13:41Z</time>
      </trkpt>
      <trkpt lat="57.14275" lon="-4.6792">
        <ele>25.78</ele>
        <time>2021-03-20T18:13:46Z</time>
      </trkpt>
      <trkpt lat="57.14334" lon="-4.67918">
        <ele>26.04</ele>
        <time>2021-03-20T18:13:51Z</time>
      </trkpt>
      <trkpt lat="57.1435" lon="-4.67922">
        <ele>26.6</ele>
        <time>2021-03-20T18:13:55Z</time>
      </trkpt>
      <trkpt lat="57.14363" lon="-4.67932">
        <ele>26.93</ele>
        <time>2021-03-20T18:14:00Z</time>
      </trkpt>
      <trkpt lat="57.14371" lon="-4.67945">
        <ele>26.64</ele>
        <time>2021-03-20T18:14:05Z</time>
      </trkpt>
      <trkpt lat="57.14375" lon="-4.67967">
        <ele>26.91</ele>
        <time>2021-03-20T18:14:07Z</time>
      </trkpt>
      <trkpt lat="57.14375" lon="-4.6799">
        <ele>27</ele>
        <time>2021-03-20T18:14:09Z</time>
      </trkpt>
      <trkpt lat="57.14373" lon="-4.68023">
        <ele>27.47</ele>
        <time>2021-03-20T18:14:11Z</time>
      </trkpt>
      <trkpt lat="57.14367" lon="-4.68036">
        <ele>28.01</ele>
        <time>2021-03-20T18:14:18Z</time>
      </trkpt>
      <trkpt lat="57.14313" lon="-4.68281">
        <ele>34</ele>
        <time>2021-03-20T18:14:25Z</time>
      </trkpt>
      <trkpt lat="57.14297" lon="-4.68358">
        <ele>33.67</ele>
        <time>2021-03-20T18:14:32Z</time>
      </trkpt>
      <trkpt lat="57.14275" lon="-4.68437">
        <ele>32.7</ele>
        <time>2021-03-20T18:14:40Z</time>
      </trkpt>
      <trkpt lat="57.14262" lon="-4.68473">
        <ele>31.45</ele>
        <time>2021-03-20T18:14:47Z</time>
      </trkpt>
      <trkpt lat="57.14158" lon="-4.68689">
        <ele>34.45</ele>
        <time>2021-03-20T18:14:54Z</time>
      </trkpt>
      <trkpt lat="57.14141" lon="-4.6872">
        <ele>34.91</ele>
        <time>2021-03-20T18:15:01Z</time>
      </trkpt>
      <trkpt lat="57.14127" lon="-4.68738">
        <ele>34.89</ele>
        <time>2021-03-20T18:15:08Z</time>
      </trkpt>
      <trkpt lat="57.14115" lon="-4.68746">
        <ele>35.01</ele>
        <time>2021-03-20T18:15:15Z</time>
      </trkpt>
      <trkpt lat="57.14101" lon="-4.68752">
        <ele>34.93</ele>
        <time>2021-03-20T18:15:23Z</time>
      </trkpt>
      <trkpt lat="57.13997" lon="-4.68777">
        <ele>33.86</ele>
        <time>2021-03-20T18:15:30Z</time>
      </trkpt>
      <trkpt lat="57.13997" lon="-4.68777">
        <ele>33.86</ele>
        <time>2021-03-20T18:15:30Z</time>
      </trkpt>
      <trkpt lat="57.13612" lon="-4.68871">
        <ele>34.98</ele>
        <time>2021-03-20T18:15:34Z</time>
      </trkpt>
      <trkpt lat="57.13476" lon="-4.68911">
        <ele>37.66</ele>
        <time>2021-03-20T18:15:39Z</time>
      </trkpt>
      <trkpt lat="57.13177" lon="-4.69009">
        <ele>45.74</ele>
        <time>2021-03-20T18:15:43Z</time>
      </trkpt>
      <trkpt lat="57.13123" lon="-4.69029">
        <ele>47.04</ele>
        <time>2021-03-20T18:15:48Z</time>
      </trkpt>
      <trkpt lat="57.13114" lon="-4.69036">
        <ele>47.29</ele>
        <time>2021-03-20T18:15:52Z</time>
      </trkpt>
      <trkpt lat="57.13004" lon="-4.69136">
        <ele>45.75</ele>
        <time>2021-03-20T18:15:57Z</time>
      </trkpt>
      <trkpt lat="57.12975" lon="-4.69154">
        <ele>45.11</ele>
        <time>2021-03-20T18:16:02Z</time>
      </trkpt>
      <trkpt lat="57.12955" lon="-4.69161">
        <ele>45.63</ele>
        <time>2021-03-20T18:16:06Z</time>
      </trkpt>
      <trkpt lat="57.12814" lon="-4.69182">
        <ele>43.29</ele>
        <time>2021-03-20T18:16:11Z</time>
      </trkpt>
      <trkpt lat="57.12769" lon="-4.69197">
        <ele>42</ele>
        <time>2021-03-20T18:16:15Z</time>
      </trkpt>
      <trkpt lat="57.12513" lon="-4.69291">
        <ele>48.34</ele>
        <time>2021-03-20T18:16:20Z</time>
      </trkpt>
      <trkpt lat="57.12495" lon="-4.69303">
        <ele>49.44</ele>
        <time>2021-03-20T18:16:24Z</time>
      </trkpt>
      <trkpt lat="57.1248" lon="-4.69315">
        <ele>49.02</ele>
        <time>2021-03-20T18:16:29Z</time>
      </trkpt>
      <trkpt lat="57.12445" lon="-4.69364">
        <ele>48.84</ele>
        <time>2021-03-20T18:16:33Z</time>
      </trkpt>
      <trkpt lat="57.12428" lon="-4.69392">
        <ele>49.09</ele>
        <time>2021-03-20T18:16:38Z</time>
      </trkpt>
      <trkpt lat="57.12384" lon="-4.69481">
        <ele>49.01</ele>
        <time>2021-03-20T18:16:43Z</time>
      </trkpt>
      <trkpt lat="57.12366" lon="-4.69511">
        <ele>48.92</ele>
        <time>2021-03-20T18:16:47Z</time>
      </trkpt>
      <trkpt lat="57.12156" lon="-4.69771">
        <ele>54.82</ele>
        <time>2021-03-20T18:16:52Z</time>
      </trkpt>
      <trkpt lat="57.12113" lon="-4.6982">
        <ele>55.42</ele>
        <time>2021-03-20T18:16:56Z</time>
      </trkpt>
      <trkpt lat="57.12023" lon="-4.69905">
        <ele>56.99</ele>
        <time>2021-03-20T18:17:01Z</time>
      </trkpt>
      <trkpt lat="57.11995" lon="-4.69944">
        <ele>57.22</ele>
        <time>2021-03-20T18:17:05Z</time>
      </trkpt>
      <trkpt lat="57.11768" lon="-4.70355">
        <ele>53.1</ele>
        <time>2021-03-20T18:17:10Z</time>
      </trkpt>
      <trkpt lat="57.11488" lon="-4.70851">
        <ele>50.19</ele>
        <time>2021-03-20T18:17:14Z</time>
      </trkpt>
      <trkpt lat="57.11182" lon="-4.71401">
        <ele>51.36</ele>
        <time>2021-03-20T18:17:19Z</time>
      </trkpt>
      <trkpt lat="57.11145" lon="-4.71454">
        <ele>49.92</ele>
        <time>2021-03-20T18:17:24Z</time>
      </trkpt>
      <trkpt lat="57.11088" lon="-4.71526">
        <ele>50.05</ele>
        <time>2021-03-20T18:17:28Z</time>
      </trkpt>
      <trkpt lat="57.1094" lon="-4.71704">
        <ele>56.17</ele>
        <time>2021-03-20T18:17:33Z</time>
      </trkpt>
      <trkpt lat="57.10915" lon="-4.71729">
        <ele>57.33</ele>
        <time>2021-03-20T18:17:37Z</time>
      </trkpt>
      <trkpt lat="57.10758" lon="-4.71858">
        <ele>58.39</ele>
        <time>2021-03-20T18:17:42Z</time>
      </trkpt>
      <trkpt lat="57.10601" lon="-4.71982">
        <ele>62.58</ele>
        <time>2021-03-20T18:17:46Z</time>
      </trkpt>
      <trkpt lat="57.10568" lon="-4.72015">
        <ele>64.44</ele>
        <time>2021-03-20T18:17:51Z</time>
      </trkpt>
      <trkpt lat="57.10537" lon="-4.72054">
        <ele>65.43</ele>
        <time>2021-03-20T18:17:55Z</time>
      </trkpt>
      <trkpt lat="57.10518" lon="-4.72083">
        <ele>66.08</ele>
        <time>2021-03-20T18:18:00Z</time>
      </trkpt>
      <trkpt lat="57.10468" lon="-4.72171">
        <ele>66.03</ele>
        <time>2021-03-20T18:18:05Z</time>
      </trkpt>
      <trkpt lat="57.10452" lon="-4.7219">
        <ele>65.9</ele>
        <time>2021-03-20T18:18:09Z</time>
      </trkpt>
      <trkpt lat="57.10371" lon="-4.72272">
        <ele>67.65</ele>
        <time>2021-03-20T18:18:14Z</time>
      </trkpt>
      <trkpt lat="57.10289" lon="-4.72387">
        <ele>66.03</ele>
        <time>2021-03-20T18:18:18Z</time>
      </trkpt>
      <trkpt lat="57.10275" lon="-4.72404">
        <ele>65.55</ele>
        <time>2021-03-20T18:18:23Z</time>
      </trkpt>
      <trkpt lat="57.10186" lon="-4.7249">
        <ele>67.4</ele>
        <time>2021-03-20T18:18:27Z</time>
      </trkpt>
      <trkpt lat="57.10137" lon="-4.72519">
        <ele>67.43</ele>
        <time>2021-03-20T18:18:32Z</time>
      </trkpt>
      <trkpt lat="57.10114" lon="-4.72536">
        <ele>68.55</ele>
        <time>2021-03-20T18:18:36Z</time>
      </trkpt>
      <trkpt lat="57.10093" lon="-4.72557">
        <ele>69.26</ele>
        <time>2021-03-20T18:18:41Z</time>
      </trkpt>
      <trkpt lat="57.09904" lon="-4.72767">
        <ele>72.04</ele>
        <time>2021-03-20T18:18:46Z</time>
      </trkpt>
      <trkpt lat="57.0988" lon="-4.72807">
        <ele>70.62</ele>
        <time>2021-03-20T18:18:50Z</time>
      </trkpt>
      <trkpt lat="57.09817" lon="-4.72925">
        <ele>68.53</ele>
        <time>2021-03-20T18:18:55Z</time>
      </trkpt>
      <trkpt lat="57.0979" lon="-4.72963">
        <ele>69.69</ele>
        <time>2021-03-20T18:18:59Z</time>
      </trkpt>
      <trkpt lat="57.09642" lon="-4.73154">
        <ele>73</ele>
        <time>2021-03-20T18:19:04Z</time>
      </trkpt>
      <trkpt lat="57.09624" lon="-4.73184">
        <ele>71.39</ele>
        <time>2021-03-20T18:19:08Z</time>
      </trkpt>
      <trkpt lat="57.09532" lon="-4.73356">
        <ele>59.42</ele>
        <time>2021-03-20T18:19:13Z</time>
      </trkpt>
      <trkpt lat="57.09501" lon="-4.7339">
        <ele>56.91</ele>
        <time>2021-03-20T18:19:17Z</time>
      </trkpt>
      <trkpt lat="57.09483" lon="-4.73406">
        <ele>56.6</ele>
        <time>2021-03-20T18:19:22Z</time>
      </trkpt>
      <trkpt lat="57.09369" lon="-4.7349">
        <ele>58.17</ele>
        <time>2021-03-20T18:19:26Z</time>
      </trkpt>
      <trkpt lat="57.09331" lon="-4.73534">
        <ele>57.6</ele>
        <time>2021-03-20T18:19:31Z</time>
      </trkpt>
      <trkpt lat="57.09313" lon="-4.73562">
        <ele>56.82</ele>
        <time>2021-03-20T18:19:36Z</time>
      </trkpt>
      <trkpt lat="57.093" lon="-4.73589">
        <ele>55.07</ele>
        <time>2021-03-20T18:19:40Z</time>
      </trkpt>
      <trkpt lat="57.09278" lon="-4.73649">
        <ele>51.25</ele>
        <time>2021-03-20T18:19:45Z</time>
      </trkpt>
      <trkpt lat="57.09268" lon="-4.73694">
        <ele>50.05</ele>
        <time>2021-03-20T18:19:49Z</time>
      </trkpt>
      <trkpt lat="57.09262" lon="-4.73734">
        <ele>49.04</ele>
        <time>2021-03-20T18:19:54Z</time>
      </trkpt>
      <trkpt lat="57.09241" lon="-4.73958">
        <ele>38.84</ele>
        <time>2021-03-20T18:19:58Z</time>
      </trkpt>
      <trkpt lat="57.09231" lon="-4.74086">
        <ele>36.69</ele>
        <time>2021-03-20T18:20:03Z</time>
      </trkpt>
      <trkpt lat="57.09239" lon="-4.74177">
        <ele>35.62</ele>
        <time>2021-03-20T18:20:07Z</time>
      </trkpt>
      <trkpt lat="57.0926" lon="-4.74349">
        <ele>34.62</ele>
        <time>2021-03-20T18:20:12Z</time>
      </trkpt>
      <trkpt lat="57.09273" lon="-4.74433">
        <ele>34</ele>
        <time>2021-03-20T18:20:17Z</time>
      </trkpt>
      <trkpt lat="57.09279" lon="-4.7451">
        <ele>35.37</ele>
        <time>2021-03-20T18:20:21Z</time>
      </trkpt>
      <trkpt lat="57.09278" lon="-4.74591">
        <ele>37.28</ele>
        <time>2021-03-20T18:20:26Z</time>
      </trkpt>
      <trkpt lat="57.0927" lon="-4.74739">
        <ele>44.75</ele>
        <time>2021-03-20T18:20:30Z</time>
      </trkpt>
      <trkpt lat="57.09261" lon="-4.74791">
        <ele>49.47</ele>
        <time>2021-03-20T18:20:35Z</time>
      </trkpt>
      <trkpt lat="57.09255" lon="-4.74811">
        <ele>52.08</ele>
        <time>2021-03-20T18:20:39Z</time>
      </trkpt>
      <trkpt lat="57.09249" lon="-4.74825">
        <ele>53.74</ele>
        <time>2021-03-20T18:20:44Z</time>
      </trkpt>
      <trkpt lat="57.09131" lon="-4.74996">
        <ele>61.73</ele>
        <time>2021-03-20T18:20:48Z</time>
      </trkpt>
      <trkpt lat="57.09105" lon="-4.75032">
        <ele>61.97</ele>
        <time>2021-03-20T18:20:53Z</time>
      </trkpt>
      <trkpt lat="57.09084" lon="-4.75059">
        <ele>61.01</ele>
        <time>2021-03-20T18:20:58Z</time>
      </trkpt>
      <trkpt lat="57.09061" lon="-4.7508">
        <ele>61.91</ele>
        <time>2021-03-20T18:21:02Z</time>
      </trkpt>
      <trkpt lat="57.09042" lon="-4.75093">
        <ele>62.14</ele>
        <time>2021-03-20T18:21:07Z</time>
      </trkpt>
      <trkpt lat="57.08951" lon="-4.75134">
        <ele>61.22</ele>
        <time>2021-03-20T18:21:11Z</time>
      </trkpt>
      <trkpt lat="57.08796" lon="-4.75232">
        <ele>52.99</ele>
        <time>2021-03-20T18:21:16Z</time>
      </trkpt>
      <trkpt lat="57.08706" lon="-4.75292">
        <ele>53.24</ele>
        <time>2021-03-20T18:21:20Z</time>
      </trkpt>
      <trkpt lat="57.08673" lon="-4.75318">
        <ele>50.3</ele>
        <time>2021-03-20T18:21:25Z</time>
      </trkpt>
      <trkpt lat="57.08652" lon="-4.75344">
        <ele>47.49</ele>
        <time>2021-03-20T18:21:29Z</time>
      </trkpt>
      <trkpt lat="57.08528" lon="-4.75519">
        <ele>43.11</ele>
        <time>2021-03-20T18:21:34Z</time>
      </trkpt>
      <trkpt lat="57.08501" lon="-4.75545">
        <ele>43.35</ele>
        <time>2021-03-20T18:21:39Z</time>
      </trkpt>
      <trkpt lat="57.08411" lon="-4.75618">
        <ele>41.46</ele>
        <time>2021-03-20T18:21:43Z</time>
      </trkpt>
      <trkpt lat="57.0839" lon="-4.7564">
        <ele>42.97</ele>
        <time>2021-03-20T18:21:48Z</time>
      </trkpt>
      <trkpt lat="57.08287" lon="-4.75776">
        <ele>42.35</ele>
        <time>2021-03-20T18:21:52Z</time>
      </trkpt>
      <trkpt lat="57.0827" lon="-4.75804">
        <ele>41.72</ele>
        <time>2021-03-20T18:21:57Z</time>
      </trkpt>
      <trkpt lat="57.08212" lon="-4.75911">
        <ele>41.99</ele>
        <time>2021-03-20T18:22:01Z</time>
      </trkpt>
      <trkpt lat="57.08193" lon="-4.75951">
        <ele>41.22</ele>
        <time>2021-03-20T18:22:06Z</time>
      </trkpt>
      <trkpt lat="57.08163" lon="-4.76031">
        <ele>43.87</ele>
        <time>2021-03-20T18:22:10Z</time>
      </trkpt>
      <trkpt lat="57.0815" lon="-4.76058">
        <ele>43.96</ele>
        <time>2021-03-20T18:22:15Z</time>
      </trkpt>
      <trkpt lat="57.08134" lon="-4.76081">
        <ele>45.16</ele>
        <time>2021-03-20T18:22:19Z</time>
      </trkpt>
      <trkpt lat="57.08118" lon="-4.76097">
        <ele>45.68</ele>
        <time>2021-03-20T18:22:24Z</time>
      </trkpt>
      <trkpt lat="57.0809" lon="-4.76119">
        <ele>46.95</ele>
        <time>2021-03-20T18:22:29Z</time>
      </trkpt>
      <trkpt lat="57.08068" lon="-4.7613">
        <ele>46.49</ele>
        <time>2021-03-20T18:22:33Z</time>
      </trkpt>
      <trkpt lat="57.07985" lon="-4.76165">
        <ele>40.31</ele>
        <time>2021-03-20T18:22:38Z</time>
      </trkpt>
      <trkpt lat="57.07954" lon="-4.76185">
        <ele>41.12</ele>
        <time>2021-03-20T18:22:42Z</time>
      </trkpt>
      <trkpt lat="57.07944" lon="-4.76199">
        <ele>40.93</ele>
        <time>2021-03-20T18:22:47Z</time>
      </trkpt>
      <trkpt lat="57.07858" lon="-4.76335">
        <ele>45.92</ele>
        <time>2021-03-20T18:22:51Z</time>
      </trkpt>
      <trkpt lat="57.07774" lon="-4.7646">
        <ele>48.6</ele>
        <time>2021-03-20T18:22:56Z</time>
      </trkpt>
      <trkpt lat="57.07683" lon="-4.76583">
        <ele>40.74</ele>
        <time>2021-03-20T18:23:00Z</time>
      </trkpt>
      <trkpt lat="57.07515" lon="-4.76836">
        <ele>45.8</ele>
        <time>2021-03-20T18:23:05Z</time>
      </trkpt>
      <trkpt lat="57.07464" lon="-4.76898">
        <ele>42.03</ele>
        <time>2021-03-20T18:23:10Z</time>
      </trkpt>
      <trkpt lat="57.07407" lon="-4.76947">
        <ele>42.37</ele>
        <time>2021-03-20T18:23:14Z</time>
      </trkpt>
      <trkpt lat="57.07382" lon="-4.76973">
        <ele>42.22</ele>
        <time>2021-03-20T18:23:19Z</time>
      </trkpt>
      <trkpt lat="57.07358" lon="-4.77002">
        <ele>42.11</ele>
        <time>2021-03-20T18:23:23Z</time>
      </trkpt>
      <trkpt lat="57.07326" lon="-4.77049">
        <ele>41.44</ele>
        <time>2021-03-20T18:23:28Z</time>
      </trkpt>
      <trkpt lat="57.07311" lon="-4.77074">
        <ele>42.6</ele>
        <time>2021-03-20T18:23:32Z</time>
      </trkpt>
      <trkpt lat="57.07247" lon="-4.77212">
        <ele>46.33</ele>
        <time>2021-03-20T18:23:37Z</time>
      </trkpt>
      <trkpt lat="57.07219" lon="-4.77267">
        <ele>44.87</ele>
        <time>2021-03-20T18:23:41Z</time>
      </trkpt>
      <trkpt lat="57.07168" lon="-4.774">
        <ele>41.33</ele>
        <time>2021-03-20T18:23:46Z</time>
      </trkpt>
      <trkpt lat="57.07131" lon="-4.77535">
        <ele>46.37</ele>
        <time>2021-03-20T18:23:51Z</time>
      </trkpt>
      <trkpt lat="57.07123" lon="-4.77672">
        <ele>50.57</ele>
        <time>2021-03-20T18:23:55Z</time>
      </trkpt>
      <trkpt lat="57.07103" lon="-4.77905">
        <ele>59.1</ele>
        <time>2021-03-20T18:24:00Z</time>
      </trkpt>
      <trkpt lat="57.07104" lon="-4.77939">
        <ele>59.43</ele>
        <time>2021-03-20T18:24:04Z</time>
      </trkpt>
      <trkpt lat="57.07113" lon="-4.78042">
        <ele>58.12</ele>
        <time>2021-03-20T18:24:09Z</time>
      </trkpt>
      <trkpt lat="57.07116" lon="-4.78109">
        <ele>57.03</ele>
        <time>2021-03-20T18:24:13Z</time>
      </trkpt>
      <trkpt lat="57.07114" lon="-4.78148">
        <ele>56.2</ele>
        <time>2021-03-20T18:24:18Z</time>
      </trkpt>
      <trkpt lat="57.07102" lon="-4.78215">
        <ele>55.43</ele>
        <time>2021-03-20T18:24:23Z</time>
      </trkpt>
      <trkpt lat="57.07051" lon="-4.78281">
        <ele>52.56</ele>
        <time>2021-03-20T18:24:27Z</time>
      </trkpt>
      <trkpt lat="57.0704" lon="-4.78338">
        <ele>50.52</ele>
        <time>2021-03-20T18:24:32Z</time>
      </trkpt>
      <trkpt lat="57.07037" lon="-4.78352">
        <ele>50.78</ele>
        <time>2021-03-20T18:24:37Z</time>
      </trkpt>
      <trkpt lat="57.07037" lon="-4.78407">
        <ele>51.66</ele>
        <time>2021-03-20T18:24:42Z</time>
      </trkpt>
      <trkpt lat="57.07046" lon="-4.78541">
        <ele>56.07</ele>
        <time>2021-03-20T18:24:46Z</time>
      </trkpt>
      <trkpt lat="57.0703" lon="-4.78642">
        <ele>57.19</ele>
        <time>2021-03-20T18:24:51Z</time>
      </trkpt>
      <trkpt lat="57.07027" lon="-4.78725">
        <ele>52.84</ele>
        <time>2021-03-20T18:24:55Z</time>
      </trkpt>
      <trkpt lat="57.07047" lon="-4.79004">
        <ele>56.02</ele>
        <time>2021-03-20T18:25:00Z</time>
      </trkpt>
      <trkpt lat="57.07046" lon="-4.79056">
        <ele>55.99</ele>
        <time>2021-03-20T18:25:04Z</time>
      </trkpt>
      <trkpt lat="57.0704" lon="-4.79106">
        <ele>55.72</ele>
        <time>2021-03-20T18:25:08Z</time>
      </trkpt>
      <trkpt lat="57.07033" lon="-4.79146">
        <ele>56.37</ele>
        <time>2021-03-20T18:25:13Z</time>
      </trkpt>
      <trkpt lat="57.07017" lon="-4.79206">
        <ele>56.88</ele>
        <time>2021-03-20T18:25:17Z</time>
      </trkpt>
      <trkpt lat="57.06999" lon="-4.79239">
        <ele>54.54</ele>
        <time>2021-03-20T18:25:22Z</time>
      </trkpt>
      <trkpt lat="57.06984" lon="-4.79254">
        <ele>52.82</ele>
        <time>2021-03-20T18:25:26Z</time>
      </trkpt>
      <trkpt lat="57.06919" lon="-4.79279">
        <ele>49.86</ele>
        <time>2021-03-20T18:25:31Z</time>
      </trkpt>
      <trkpt lat="57.06884" lon="-4.7929">
        <ele>52</ele>
        <time>2021-03-20T18:25:35Z</time>
      </trkpt>
      <trkpt lat="57.06865" lon="-4.79291">
        <ele>53.62</ele>
        <time>2021-03-20T18:25:39Z</time>
      </trkpt>
      <trkpt lat="57.06822" lon="-4.79272">
        <ele>55.64</ele>
        <time>2021-03-20T18:25:44Z</time>
      </trkpt>
      <trkpt lat="57.06794" lon="-4.79244">
        <ele>57.47</ele>
        <time>2021-03-20T18:25:48Z</time>
      </trkpt>
      <trkpt lat="57.06772" lon="-4.79205">
        <ele>60.21</ele>
        <time>2021-03-20T18:25:53Z</time>
      </trkpt>
      <trkpt lat="57.06752" lon="-4.79154">
        <ele>64.01</ele>
        <time>2021-03-20T18:25:57Z</time>
      </trkpt>
      <trkpt lat="57.06739" lon="-4.79105">
        <ele>67.94</ele>
        <time>2021-03-20T18:26:01Z</time>
      </trkpt>
      <trkpt lat="57.06735" lon="-4.79073">
        <ele>68.91</ele>
        <time>2021-03-20T18:26:06Z</time>
      </trkpt>
      <trkpt lat="57.06725" lon="-4.78912">
        <ele>67.74</ele>
        <time>2021-03-20T18:26:10Z</time>
      </trkpt>
      <trkpt lat="57.06701" lon="-4.788">
        <ele>67.25</ele>
        <time>2021-03-20T18:26:15Z</time>
      </trkpt>
      <trkpt lat="57.06675" lon="-4.7874">
        <ele>65.12</ele>
        <time>2021-03-20T18:26:19Z</time>
      </trkpt>
      <trkpt lat="57.06614" lon="-4.78606">
        <ele>64.53</ele>
        <time>2021-03-20T18:26:24Z</time>
      </trkpt>
      <trkpt lat="57.06549" lon="-4.78447">
        <ele>60.45</ele>
        <time>2021-03-20T18:26:28Z</time>
      </trkpt>
      <trkpt lat="57.0653" lon="-4.78413">
        <ele>60.94</ele>
        <time>2021-03-20T18:26:32Z</time>
      </trkpt>
      <trkpt lat="57.06518" lon="-4.78402">
        <ele>60.64</ele>
        <time>2021-03-20T18:26:37Z</time>
      </trkpt>
      <trkpt lat="57.06501" lon="-4.78394">
        <ele>59.42</ele>
        <time>2021-03-20T18:26:41Z</time>
      </trkpt>
      <trkpt lat="57.06473" lon="-4.78392">
        <ele>58.27</ele>
        <time>2021-03-20T18:26:46Z</time>
      </trkpt>
      <trkpt lat="57.06414" lon="-4.78397">
        <ele>55.76</ele>
        <time>2021-03-20T18:26:50Z</time>
      </trkpt>
      <trkpt lat="57.06325" lon="-4.78419">
        <ele>52.53</ele>
        <time>2021-03-20T18:26:54Z</time>
      </trkpt>
      <trkpt lat="57.0626" lon="-4.78446">
        <ele>51.78</ele>
        <time>2021-03-20T18:26:59Z</time>
      </trkpt>
      <trkpt lat="57.0581" lon="-4.78859">
        <ele>48.38</ele>
        <time>2021-03-20T18:27:03Z</time>
      </trkpt>
      <trkpt lat="57.05692" lon="-4.78977">
        <ele>47.5</ele>
        <time>2021-03-20T18:27:08Z</time>
      </trkpt>
      <trkpt lat="57.05392" lon="-4.79357">
        <ele>54.31</ele>
        <time>2021-03-20T18:27:12Z</time>
      </trkpt>
      <trkpt lat="57.05212" lon="-4.79663">
        <ele>53.13</ele>
        <time>2021-03-20T18:27:17Z</time>
      </trkpt>
      <trkpt lat="57.05164" lon="-4.79735">
        <ele>51.54</ele>
        <time>2021-03-20T18:27:21Z</time>
      </trkpt>
      <trkpt lat="57.05074" lon="-4.79852">
        <ele>48.74</ele>
        <time>2021-03-20T18:27:25Z</time>
      </trkpt>
      <trkpt lat="57.04856" lon="-4.80169">
        <ele>51.21</ele>
        <time>2021-03-20T18:27:30Z</time>
      </trkpt>
      <trkpt lat="57.04785" lon="-4.80268">
        <ele>47.98</ele>
        <time>2021-03-20T18:27:34Z</time>
      </trkpt>
      <trkpt lat="57.04731" lon="-4.80342">
        <ele>47.37</ele>
        <time>2021-03-20T18:27:39Z</time>
      </trkpt>
      <trkpt lat="57.04705" lon="-4.80368">
        <ele>48.33</ele>
        <time>2021-03-20T18:27:43Z</time>
      </trkpt>
      <trkpt lat="57.04561" lon="-4.80438">
        <ele>39.01</ele>
        <time>2021-03-20T18:27:48Z</time>
      </trkpt>
      <trkpt lat="57.04546" lon="-4.80442">
        <ele>38.57</ele>
        <time>2021-03-20T18:27:52Z</time>
      </trkpt>
      <trkpt lat="57.04524" lon="-4.80442">
        <ele>37.78</ele>
        <time>2021-03-20T18:27:56Z</time>
      </trkpt>
      <trkpt lat="57.04508" lon="-4.80438">
        <ele>37.05</ele>
        <time>2021-03-20T18:28:01Z</time>
      </trkpt>
      <trkpt lat="57.04495" lon="-4.80432">
        <ele>36.24</ele>
        <time>2021-03-20T18:28:05Z</time>
      </trkpt>
      <trkpt lat="57.04418" lon="-4.80374">
        <ele>34.94</ele>
        <time>2021-03-20T18:28:10Z</time>
      </trkpt>
      <trkpt lat="57.04398" lon="-4.80363">
        <ele>35.68</ele>
        <time>2021-03-20T18:28:14Z</time>
      </trkpt>
      <trkpt lat="57.04369" lon="-4.80361">
        <ele>36</ele>
        <time>2021-03-20T18:28:18Z</time>
      </trkpt>
      <trkpt lat="57.04347" lon="-4.8037">
        <ele>35.48</ele>
        <time>2021-03-20T18:28:23Z</time>
      </trkpt>
      <trkpt lat="57.04324" lon="-4.80386">
        <ele>35</ele>
        <time>2021-03-20T18:28:27Z</time>
      </trkpt>
      <trkpt lat="57.04178" lon="-4.80529">
        <ele>35.03</ele>
        <time>2021-03-20T18:28:32Z</time>
      </trkpt>
      <trkpt lat="57.04155" lon="-4.80548">
        <ele>35.43</ele>
        <time>2021-03-20T18:28:36Z</time>
      </trkpt>
      <trkpt lat="57.04027" lon="-4.80614">
        <ele>37</ele>
        <time>2021-03-20T18:28:41Z</time>
      </trkpt>
      <trkpt lat="57.04003" lon="-4.80632">
        <ele>37.66</ele>
        <time>2021-03-20T18:28:45Z</time>
      </trkpt>
      <trkpt lat="57.03987" lon="-4.80647">
        <ele>38</ele>
        <time>2021-03-20T18:28:49Z</time>
      </trkpt>
      <trkpt lat="57.03881" lon="-4.80803">
        <ele>44.61</ele>
        <time>2021-03-20T18:28:54Z</time>
      </trkpt>
      <trkpt lat="57.03843" lon="-4.80873">
        <ele>44.96</ele>
        <time>2021-03-20T18:28:58Z</time>
      </trkpt>
      <trkpt lat="57.03719" lon="-4.81167">
        <ele>42.89</ele>
        <time>2021-03-20T18:29:03Z</time>
      </trkpt>
      <trkpt lat="57.03713" lon="-4.81179">
        <ele>42.8</ele>
        <time>2021-03-20T18:29:07Z</time>
      </trkpt>
      <trkpt lat="57.037" lon="-4.81195">
        <ele>43</ele>
        <time>2021-03-20T18:29:11Z</time>
      </trkpt>
      <trkpt lat="57.03689" lon="-4.81206">
        <ele>42.79</ele>
        <time>2021-03-20T18:29:16Z</time>
      </trkpt>
      <trkpt lat="57.03648" lon="-4.81223">
        <ele>41.99</ele>
        <time>2021-03-20T18:29:20Z</time>
      </trkpt>
      <trkpt lat="57.03605" lon="-4.81235">
        <ele>40.55</ele>
        <time>2021-03-20T18:29:25Z</time>
      </trkpt>
      <trkpt lat="57.03491" lon="-4.8125">
        <ele>47.32</ele>
        <time>2021-03-20T18:29:29Z</time>
      </trkpt>
      <trkpt lat="57.03428" lon="-4.81276">
        <ele>48.03</ele>
        <time>2021-03-20T18:29:34Z</time>
      </trkpt>
      <trkpt lat="57.03333" lon="-4.81325">
        <ele>46.99</ele>
        <time>2021-03-20T18:29:38Z</time>
      </trkpt>
      <trkpt lat="57.03302" lon="-4.81357">
        <ele>46.61</ele>
        <time>2021-03-20T18:29:42Z</time>
      </trkpt>
      <trkpt lat="57.0315" lon="-4.8158">
        <ele>44.47</ele>
        <time>2021-03-20T18:29:47Z</time>
      </trkpt>
      <trkpt lat="57.02969" lon="-4.81856">
        <ele>40.17</ele>
        <time>2021-03-20T18:29:51Z</time>
      </trkpt>
      <trkpt lat="57.02946" lon="-4.81886">
        <ele>40</ele>
        <time>2021-03-20T18:29:56Z</time>
      </trkpt>
      <trkpt lat="57.02895" lon="-4.81919">
        <ele>37.93</ele>
        <time>2021-03-20T18:30:00Z</time>
      </trkpt>
      <trkpt lat="57.0286" lon="-4.81947">
        <ele>38.13</ele>
        <time>2021-03-20T18:30:04Z</time>
      </trkpt>
      <trkpt lat="57.02741" lon="-4.81976">
        <ele>35</ele>
        <time>2021-03-20T18:30:09Z</time>
      </trkpt>
      <trkpt lat="57.02672" lon="-4.82009">
        <ele>33.67</ele>
        <time>2021-03-20T18:30:13Z</time>
      </trkpt>
      <trkpt lat="57.02639" lon="-4.82035">
        <ele>33.73</ele>
        <time>2021-03-20T18:30:18Z</time>
      </trkpt>
      <trkpt lat="57.02601" lon="-4.82095">
        <ele>34.17</ele>
        <time>2021-03-20T18:30:22Z</time>
      </trkpt>
      <trkpt lat="57.02585" lon="-4.82128">
        <ele>33.31</ele>
        <time>2021-03-20T18:30:27Z</time>
      </trkpt>
      <trkpt lat="57.02553" lon="-4.82242">
        <ele>36.17</ele>
        <time>2021-03-20T18:30:31Z</time>
      </trkpt>
      <trkpt lat="57.02539" lon="-4.82277">
        <ele>39.44</ele>
        <time>2021-03-20T18:30:35Z</time>
      </trkpt>
      <trkpt lat="57.02524" lon="-4.82296">
        <ele>40.41</ele>
        <time>2021-03-20T18:30:40Z</time>
      </trkpt>
      <trkpt lat="57.02507" lon="-4.82309">
        <ele>39.84</ele>
        <time>2021-03-20T18:30:44Z</time>
      </trkpt>
      <trkpt lat="57.02449" lon="-4.82318">
        <ele>36.5</ele>
        <time>2021-03-20T18:30:49Z</time>
      </trkpt>
      <trkpt lat="57.0236" lon="-4.82345">
        <ele>35.19</ele>
        <time>2021-03-20T18:30:53Z</time>
      </trkpt>
      <trkpt lat="57.02261" lon="-4.82386">
        <ele>38.31</ele>
        <time>2021-03-20T18:30:58Z</time>
      </trkpt>
      <trkpt lat="57.02178" lon="-4.82426">
        <ele>49.46</ele>
        <time>2021-03-20T18:31:02Z</time>
      </trkpt>
      <trkpt lat="57.02102" lon="-4.82479">
        <ele>47.7</ele>
        <time>2021-03-20T18:31:06Z</time>
      </trkpt>
      <trkpt lat="57.02031" lon="-4.82514">
        <ele>44.78</ele>
        <time>2021-03-20T18:31:11Z</time>
      </trkpt>
      <trkpt lat="57.01995" lon="-4.82536">
        <ele>44.92</ele>
        <time>2021-03-20T18:31:15Z</time>
      </trkpt>
      <trkpt lat="57.01838" lon="-4.82687">
        <ele>50.29</ele>
        <time>2021-03-20T18:31:20Z</time>
      </trkpt>
      <trkpt lat="57.01814" lon="-4.82715">
        <ele>51.42</ele>
        <time>2021-03-20T18:31:24Z</time>
      </trkpt>
      <trkpt lat="57.01796" lon="-4.82746">
        <ele>51.78</ele>
        <time>2021-03-20T18:31:28Z</time>
      </trkpt>
      <trkpt lat="57.01785" lon="-4.82777">
        <ele>50.31</ele>
        <time>2021-03-20T18:31:33Z</time>
      </trkpt>
      <trkpt lat="57.01765" lon="-4.82814">
        <ele>49.74</ele>
        <time>2021-03-20T18:31:37Z</time>
      </trkpt>
      <trkpt lat="57.01743" lon="-4.82836">
        <ele>50.41</ele>
        <time>2021-03-20T18:31:42Z</time>
      </trkpt>
      <trkpt lat="57.01714" lon="-4.82853">
        <ele>51.7</ele>
        <time>2021-03-20T18:31:46Z</time>
      </trkpt>
      <trkpt lat="57.01658" lon="-4.82866">
        <ele>54.35</ele>
        <time>2021-03-20T18:31:51Z</time>
      </trkpt>
      <trkpt lat="57.01641" lon="-4.82872">
        <ele>54.78</ele>
        <time>2021-03-20T18:31:55Z</time>
      </trkpt>
      <trkpt lat="57.01623" lon="-4.82888">
        <ele>55.21</ele>
        <time>2021-03-20T18:31:59Z</time>
      </trkpt>
      <trkpt lat="57.01559" lon="-4.82965">
        <ele>58.03</ele>
        <time>2021-03-20T18:32:04Z</time>
      </trkpt>
      <trkpt lat="57.01468" lon="-4.83049">
        <ele>60.04</ele>
        <time>2021-03-20T18:32:08Z</time>
      </trkpt>
      <trkpt lat="57.01379" lon="-4.83172">
        <ele>50.62</ele>
        <time>2021-03-20T18:32:13Z</time>
      </trkpt>
      <trkpt lat="57.01353" lon="-4.83221">
        <ele>52.83</ele>
        <time>2021-03-20T18:32:17Z</time>
      </trkpt>
      <trkpt lat="57.0134" lon="-4.83253">
        <ele>53.51</ele>
        <time>2021-03-20T18:32:21Z</time>
      </trkpt>
      <trkpt lat="57.01322" lon="-4.83322">
        <ele>50.01</ele>
        <time>2021-03-20T18:32:26Z</time>
      </trkpt>
      <trkpt lat="57.01299" lon="-4.83384">
        <ele>47.35</ele>
        <time>2021-03-20T18:32:30Z</time>
      </trkpt>
      <trkpt lat="57.01274" lon="-4.83417">
        <ele>50.19</ele>
        <time>2021-03-20T18:32:35Z</time>
      </trkpt>
      <trkpt lat="57.01261" lon="-4.83429">
        <ele>52.94</ele>
        <time>2021-03-20T18:32:39Z</time>
      </trkpt>
      <trkpt lat="57.01202" lon="-4.83464">
        <ele>54.47</ele>
        <time>2021-03-20T18:32:44Z</time>
      </trkpt>
      <trkpt lat="57.01189" lon="-4.83477">
        <ele>52.74</ele>
        <time>2021-03-20T18:32:48Z</time>
      </trkpt>
      <trkpt lat="57.0117" lon="-4.83506">
        <ele>51.34</ele>
        <time>2021-03-20T18:32:52Z</time>
      </trkpt>
      <trkpt lat="57.01128" lon="-4.8358">
        <ele>48.58</ele>
        <time>2021-03-20T18:32:57Z</time>
      </trkpt>
      <trkpt lat="57.01006" lon="-4.83806">
        <ele>38.85</ele>
        <time>2021-03-20T18:33:01Z</time>
      </trkpt>
      <trkpt lat="57.00986" lon="-4.83838">
        <ele>41.9</ele>
        <time>2021-03-20T18:33:06Z</time>
      </trkpt>
      <trkpt lat="57.00928" lon="-4.83915">
        <ele>50.79</ele>
        <time>2021-03-20T18:33:10Z</time>
      </trkpt>
      <trkpt lat="57.00907" lon="-4.83947">
        <ele>50.92</ele>
        <time>2021-03-20T18:33:15Z</time>
      </trkpt>
      <trkpt lat="57.00885" lon="-4.83985">
        <ele>48.58</ele>
        <time>2021-03-20T18:33:19Z</time>
      </trkpt>
      <trkpt lat="57.00732" lon="-4.84197">
        <ele>44.31</ele>
        <time>2021-03-20T18:33:23Z</time>
      </trkpt>
      <trkpt lat="57.00648" lon="-4.84319">
        <ele>39.26</ele>
        <time>2021-03-20T18:33:28Z</time>
      </trkpt>
      <trkpt lat="57.00481" lon="-4.84554">
        <ele>43.14</ele>
        <time>2021-03-20T18:33:32Z</time>
      </trkpt>
      <trkpt lat="57.00316" lon="-4.84811">
        <ele>44.87</ele>
        <time>2021-03-20T18:33:37Z</time>
      </trkpt>
      <trkpt lat="57.00032" lon="-4.852">
        <ele>49.29</ele>
        <time>2021-03-20T18:33:41Z</time>
      </trkpt>
      <trkpt lat="56.99951" lon="-4.85317">
        <ele>50.26</ele>
        <time>2021-03-20T18:33:45Z</time>
      </trkpt>
      <trkpt lat="56.99876" lon="-4.85418">
        <ele>49.61</ele>
        <time>2021-03-20T18:33:50Z</time>
      </trkpt>
      <trkpt lat="56.99744" lon="-4.85579">
        <ele>53.12</ele>
        <time>2021-03-20T18:33:54Z</time>
      </trkpt>
      <trkpt lat="56.99656" lon="-4.85675">
        <ele>50.24</ele>
        <time>2021-03-20T18:33:59Z</time>
      </trkpt>
      <trkpt lat="56.99595" lon="-4.85757">
        <ele>55.12</ele>
        <time>2021-03-20T18:34:03Z</time>
      </trkpt>
      <trkpt lat="56.99513" lon="-4.85882">
        <ele>52.61</ele>
        <time>2021-03-20T18:34:08Z</time>
      </trkpt>
      <trkpt lat="56.99436" lon="-4.85979">
        <ele>51.19</ele>
        <time>2021-03-20T18:34:12Z</time>
      </trkpt>
      <trkpt lat="56.99389" lon="-4.86046">
        <ele>50.73</ele>
        <time>2021-03-20T18:34:16Z</time>
      </trkpt>
      <trkpt lat="56.9936" lon="-4.86092">
        <ele>45.52</ele>
        <time>2021-03-20T18:34:21Z</time>
      </trkpt>
      <trkpt lat="56.9933" lon="-4.86165">
        <ele>41.42</ele>
        <time>2021-03-20T18:34:25Z</time>
      </trkpt>
      <trkpt lat="56.99295" lon="-4.86272">
        <ele>33.65</ele>
        <time>2021-03-20T18:34:30Z</time>
      </trkpt>
      <trkpt lat="56.99271" lon="-4.86332">
        <ele>33.6</ele>
        <time>2021-03-20T18:34:34Z</time>
      </trkpt>
      <trkpt lat="56.99256" lon="-4.86354">
        <ele>34.55</ele>
        <time>2021-03-20T18:34:38Z</time>
      </trkpt>
      <trkpt lat="56.99234" lon="-4.86381">
        <ele>34.52</ele>
        <time>2021-03-20T18:34:43Z</time>
      </trkpt>
      <trkpt lat="56.9922" lon="-4.86392">
        <ele>35.87</ele>
        <time>2021-03-20T18:34:47Z</time>
      </trkpt>
      <trkpt lat="56.99155" lon="-4.86427">
        <ele>39.99</ele>
        <time>2021-03-20T18:34:52Z</time>
      </trkpt>
      <trkpt lat="56.99133" lon="-4.86445">
        <ele>41.7</ele>
        <time>2021-03-20T18:34:56Z</time>
      </trkpt>
      <trkpt lat="56.99023" lon="-4.86573">
        <ele>46.72</ele>
        <time>2021-03-20T18:35:01Z</time>
      </trkpt>
      <trkpt lat="56.98931" lon="-4.86693">
        <ele>51.5</ele>
        <time>2021-03-20T18:35:05Z</time>
      </trkpt>
      <trkpt lat="56.98746" lon="-4.86968">
        <ele>38.86</ele>
        <time>2021-03-20T18:35:09Z</time>
      </trkpt>
      <trkpt lat="56.98542" lon="-4.87223">
        <ele>41.55</ele>
        <time>2021-03-20T18:35:14Z</time>
      </trkpt>
      <trkpt lat="56.98474" lon="-4.87311">
        <ele>39.53</ele>
        <time>2021-03-20T18:35:18Z</time>
      </trkpt>
      <trkpt lat="56.98331" lon="-4.87486">
        <ele>48.91</ele>
        <time>2021-03-20T18:35:23Z</time>
      </trkpt>
      <trkpt lat="56.98212" lon="-4.8762">
        <ele>39.66</ele>
        <time>2021-03-20T18:35:27Z</time>
      </trkpt>
      <trkpt lat="56.98116" lon="-4.87717">
        <ele>36.42</ele>
        <time>2021-03-20T18:35:31Z</time>
      </trkpt>
      <trkpt lat="56.9807" lon="-4.87772">
        <ele>40.33</ele>
        <time>2021-03-20T18:35:36Z</time>
      </trkpt>
      <trkpt lat="56.98034" lon="-4.8782">
        <ele>37.3</ele>
        <time>2021-03-20T18:35:40Z</time>
      </trkpt>
      <trkpt lat="56.9801" lon="-4.87859">
        <ele>38.62</ele>
        <time>2021-03-20T18:35:45Z</time>
      </trkpt>
      <trkpt lat="56.97987" lon="-4.87907">
        <ele>39.19</ele>
        <time>2021-03-20T18:35:49Z</time>
      </trkpt>
      <trkpt lat="56.97934" lon="-4.88025">
        <ele>45.86</ele>
        <time>2021-03-20T18:35:54Z</time>
      </trkpt>
      <trkpt lat="56.9788" lon="-4.88154">
        <ele>49.17</ele>
        <time>2021-03-20T18:35:58Z</time>
      </trkpt>
      <trkpt lat="56.9785" lon="-4.88218">
        <ele>48.18</ele>
        <time>2021-03-20T18:36:02Z</time>
      </trkpt>
      <trkpt lat="56.97797" lon="-4.88298">
        <ele>45.6</ele>
        <time>2021-03-20T18:36:07Z</time>
      </trkpt>
      <trkpt lat="56.97756" lon="-4.88351">
        <ele>46.18</ele>
        <time>2021-03-20T18:36:11Z</time>
      </trkpt>
      <trkpt lat="56.97731" lon="-4.88376">
        <ele>45.45</ele>
        <time>2021-03-20T18:36:16Z</time>
      </trkpt>
      <trkpt lat="56.97705" lon="-4.88393">
        <ele>44.8</ele>
        <time>2021-03-20T18:36:20Z</time>
      </trkpt>
      <trkpt lat="56.97517" lon="-4.8848">
        <ele>52.21</ele>
        <time>2021-03-20T18:36:25Z</time>
      </trkpt>
      <trkpt lat="56.97448" lon="-4.88521">
        <ele>64.17</ele>
        <time>2021-03-20T18:36:29Z</time>
      </trkpt>
      <trkpt lat="56.97394" lon="-4.88563">
        <ele>69.68</ele>
        <time>2021-03-20T18:36:33Z</time>
      </trkpt>
      <trkpt lat="56.97315" lon="-4.8864">
        <ele>72.16</ele>
        <time>2021-03-20T18:36:38Z</time>
      </trkpt>
      <trkpt lat="56.97258" lon="-4.8869">
        <ele>73.69</ele>
        <time>2021-03-20T18:36:42Z</time>
      </trkpt>
      <trkpt lat="56.97146" lon="-4.88772">
        <ele>81.59</ele>
        <time>2021-03-20T18:36:47Z</time>
      </trkpt>
      <trkpt lat="56.9708" lon="-4.88825">
        <ele>84.54</ele>
        <time>2021-03-20T18:36:51Z</time>
      </trkpt>
      <trkpt lat="56.96963" lon="-4.88935">
        <ele>95.03</ele>
        <time>2021-03-20T18:36:55Z</time>
      </trkpt>
      <trkpt lat="56.96857" lon="-4.89029">
        <ele>107.61</ele>
        <time>2021-03-20T18:37:00Z</time>
      </trkpt>
      <trkpt lat="56.96839" lon="-4.89051">
        <ele>108.93</ele>
        <time>2021-03-20T18:37:04Z</time>
      </trkpt>
      <trkpt lat="56.96763" lon="-4.89177">
        <ele>109.65</ele>
        <time>2021-03-20T18:37:09Z</time>
      </trkpt>
      <trkpt lat="56.96726" lon="-4.89231">
        <ele>107.32</ele>
        <time>2021-03-20T18:37:13Z</time>
      </trkpt>
      <trkpt lat="56.96603" lon="-4.89338">
        <ele>106.99</ele>
        <time>2021-03-20T18:37:18Z</time>
      </trkpt>
      <trkpt lat="56.96582" lon="-4.89362">
        <ele>108.11</ele>
        <time>2021-03-20T18:37:22Z</time>
      </trkpt>
      <trkpt lat="56.96538" lon="-4.89425">
        <ele>107.07</ele>
        <time>2021-03-20T18:37:26Z</time>
      </trkpt>
      <trkpt lat="56.96333" lon="-4.89738">
        <ele>105.88</ele>
        <time>2021-03-20T18:37:31Z</time>
      </trkpt>
      <trkpt lat="56.96269" lon="-4.89847">
        <ele>110.1</ele>
        <time>2021-03-20T18:37:35Z</time>
      </trkpt>
      <trkpt lat="56.96248" lon="-4.89892">
        <ele>113.37</ele>
        <time>2021-03-20T18:37:40Z</time>
      </trkpt>
      <trkpt lat="56.9622" lon="-4.89959">
        <ele>113.24</ele>
        <time>2021-03-20T18:37:44Z</time>
      </trkpt>
      <trkpt lat="56.96161" lon="-4.90134">
        <ele>107.22</ele>
        <time>2021-03-20T18:37:48Z</time>
      </trkpt>
      <trkpt lat="56.9608" lon="-4.90336">
        <ele>96.06</ele>
        <time>2021-03-20T18:37:53Z</time>
      </trkpt>
      <trkpt lat="56.96036" lon="-4.90435">
        <ele>88.56</ele>
        <time>2021-03-20T18:37:57Z</time>
      </trkpt>
      <trkpt lat="56.96007" lon="-4.90494">
        <ele>88.72</ele>
        <time>2021-03-20T18:38:02Z</time>
      </trkpt>
      <trkpt lat="56.95979" lon="-4.90551">
        <ele>89.57</ele>
        <time>2021-03-20T18:38:06Z</time>
      </trkpt>
      <trkpt lat="56.9595" lon="-4.90603">
        <ele>91.33</ele>
        <time>2021-03-20T18:38:11Z</time>
      </trkpt>
      <trkpt lat="56.95884" lon="-4.90696">
        <ele>101.58</ele>
        <time>2021-03-20T18:38:15Z</time>
      </trkpt>
      <trkpt lat="56.95816" lon="-4.90779">
        <ele>102.25</ele>
        <time>2021-03-20T18:38:19Z</time>
      </trkpt>
      <trkpt lat="56.95793" lon="-4.90816">
        <ele>102.78</ele>
        <time>2021-03-20T18:38:24Z</time>
      </trkpt>
      <trkpt lat="56.95752" lon="-4.90898">
        <ele>101.95</ele>
        <time>2021-03-20T18:38:28Z</time>
      </trkpt>
      <trkpt lat="56.95719" lon="-4.9094">
        <ele>98.87</ele>
        <time>2021-03-20T18:38:33Z</time>
      </trkpt>
      <trkpt lat="56.95649" lon="-4.91006">
        <ele>98.77</ele>
        <time>2021-03-20T18:38:37Z</time>
      </trkpt>
      <trkpt lat="56.95624" lon="-4.91041">
        <ele>98.63</ele>
        <time>2021-03-20T18:38:42Z</time>
      </trkpt>
      <trkpt lat="56.95518" lon="-4.91219">
        <ele>94.11</ele>
        <time>2021-03-20T18:38:46Z</time>
      </trkpt>
      <trkpt lat="56.95406" lon="-4.91377">
        <ele>89.66</ele>
        <time>2021-03-20T18:38:50Z</time>
      </trkpt>
      <trkpt lat="56.95347" lon="-4.91462">
        <ele>87.56</ele>
        <time>2021-03-20T18:38:55Z</time>
      </trkpt>
      <trkpt lat="56.95294" lon="-4.91554">
        <ele>87.31</ele>
        <time>2021-03-20T18:38:59Z</time>
      </trkpt>
      <trkpt lat="56.95262" lon="-4.91596">
        <ele>87.46</ele>
        <time>2021-03-20T18:39:04Z</time>
      </trkpt>
      <trkpt lat="56.95231" lon="-4.91629">
        <ele>87.18</ele>
        <time>2021-03-20T18:39:08Z</time>
      </trkpt>
      <trkpt lat="56.95152" lon="-4.91689">
        <ele>83.16</ele>
        <time>2021-03-20T18:39:12Z</time>
      </trkpt>
      <trkpt lat="56.9511" lon="-4.91727">
        <ele>79.67</ele>
        <time>2021-03-20T18:39:17Z</time>
      </trkpt>
      <trkpt lat="56.95061" lon="-4.91778">
        <ele>77.81</ele>
        <time>2021-03-20T18:39:21Z</time>
      </trkpt>
      <trkpt lat="56.95016" lon="-4.91833">
        <ele>79.42</ele>
        <time>2021-03-20T18:39:26Z</time>
      </trkpt>
      <trkpt lat="56.9492" lon="-4.91969">
        <ele>72.24</ele>
        <time>2021-03-20T18:39:30Z</time>
      </trkpt>
      <trkpt lat="56.94871" lon="-4.92034">
        <ele>67.76</ele>
        <time>2021-03-20T18:39:35Z</time>
      </trkpt>
      <trkpt lat="56.94843" lon="-4.92058">
        <ele>66.41</ele>
        <time>2021-03-20T18:39:39Z</time>
      </trkpt>
      <trkpt lat="56.94787" lon="-4.9208">
        <ele>68.4</ele>
        <time>2021-03-20T18:39:43Z</time>
      </trkpt>
      <trkpt lat="56.94565" lon="-4.92154">
        <ele>78</ele>
        <time>2021-03-20T18:39:48Z</time>
      </trkpt>
      <trkpt lat="56.94502" lon="-4.92181">
        <ele>79.98</ele>
        <time>2021-03-20T18:39:52Z</time>
      </trkpt>
      <trkpt lat="56.9447" lon="-4.92204">
        <ele>83.59</ele>
        <time>2021-03-20T18:39:57Z</time>
      </trkpt>
      <trkpt lat="56.9442" lon="-4.9226">
        <ele>83.12</ele>
        <time>2021-03-20T18:40:01Z</time>
      </trkpt>
      <trkpt lat="56.94386" lon="-4.9229">
        <ele>84.79</ele>
        <time>2021-03-20T18:40:05Z</time>
      </trkpt>
      <trkpt lat="56.9435" lon="-4.92303">
        <ele>87.61</ele>
        <time>2021-03-20T18:40:10Z</time>
      </trkpt>
      <trkpt lat="56.94305" lon="-4.92305">
        <ele>86.94</ele>
        <time>2021-03-20T18:40:14Z</time>
      </trkpt>
      <trkpt lat="56.94108" lon="-4.92292">
        <ele>100.31</ele>
        <time>2021-03-20T18:40:19Z</time>
      </trkpt>
      <trkpt lat="56.94073" lon="-4.92287">
        <ele>102.4</ele>
        <time>2021-03-20T18:40:23Z</time>
      </trkpt>
      <trkpt lat="56.94033" lon="-4.92277">
        <ele>101.13</ele>
        <time>2021-03-20T18:40:28Z</time>
      </trkpt>
      <trkpt lat="56.94016" lon="-4.92268">
        <ele>100.1</ele>
        <time>2021-03-20T18:40:32Z</time>
      </trkpt>
      <trkpt lat="56.93992" lon="-4.92247">
        <ele>99.21</ele>
        <time>2021-03-20T18:40:36Z</time>
      </trkpt>
      <trkpt lat="56.93914" lon="-4.92147">
        <ele>102</ele>
        <time>2021-03-20T18:40:41Z</time>
      </trkpt>
      <trkpt lat="56.93901" lon="-4.92135">
        <ele>100.93</ele>
        <time>2021-03-20T18:40:45Z</time>
      </trkpt>
      <trkpt lat="56.93884" lon="-4.92126">
        <ele>100.14</ele>
        <time>2021-03-20T18:40:50Z</time>
      </trkpt>
      <trkpt lat="56.93868" lon="-4.92121">
        <ele>99.49</ele>
        <time>2021-03-20T18:40:54Z</time>
      </trkpt>
      <trkpt lat="56.93834" lon="-4.92129">
        <ele>99.56</ele>
        <time>2021-03-20T18:40:59Z</time>
      </trkpt>
      <trkpt lat="56.93818" lon="-4.92139">
        <ele>99.35</ele>
        <time>2021-03-20T18:41:03Z</time>
      </trkpt>
      <trkpt lat="56.93755" lon="-4.92209">
        <ele>100.37</ele>
        <time>2021-03-20T18:41:07Z</time>
      </trkpt>
      <trkpt lat="56.93725" lon="-4.92234">
        <ele>102.37</ele>
        <time>2021-03-20T18:41:12Z</time>
      </trkpt>
      <trkpt lat="56.93688" lon="-4.9225">
        <ele>102.99</ele>
        <time>2021-03-20T18:41:16Z</time>
      </trkpt>
      <trkpt lat="56.93636" lon="-4.92262">
        <ele>102.33</ele>
        <time>2021-03-20T18:41:21Z</time>
      </trkpt>
      <trkpt lat="56.93507" lon="-4.92271">
        <ele>100.44</ele>
        <time>2021-03-20T18:41:25Z</time>
      </trkpt>
      <trkpt lat="56.93483" lon="-4.92275">
        <ele>100.7</ele>
        <time>2021-03-20T18:41:29Z</time>
      </trkpt>
      <trkpt lat="56.93462" lon="-4.92283">
        <ele>101.51</ele>
        <time>2021-03-20T18:41:34Z</time>
      </trkpt>
      <trkpt lat="56.93438" lon="-4.923">
        <ele>101.87</ele>
        <time>2021-03-20T18:41:38Z</time>
      </trkpt>
      <trkpt lat="56.93415" lon="-4.92322">
        <ele>102.2</ele>
        <time>2021-03-20T18:41:43Z</time>
      </trkpt>
      <trkpt lat="56.93389" lon="-4.92355">
        <ele>104.63</ele>
        <time>2021-03-20T18:41:47Z</time>
      </trkpt>
      <trkpt lat="56.9336" lon="-4.92417">
        <ele>108.75</ele>
        <time>2021-03-20T18:41:52Z</time>
      </trkpt>
      <trkpt lat="56.93283" lon="-4.92641">
        <ele>114.13</ele>
        <time>2021-03-20T18:41:56Z</time>
      </trkpt>
      <trkpt lat="56.93216" lon="-4.92814">
        <ele>112.48</ele>
        <time>2021-03-20T18:42:00Z</time>
      </trkpt>
      <trkpt lat="56.93165" lon="-4.92931">
        <ele>109.98</ele>
        <time>2021-03-20T18:42:05Z</time>
      </trkpt>
      <trkpt lat="56.93084" lon="-4.93062">
        <ele>110.68</ele>
        <time>2021-03-20T18:42:09Z</time>
      </trkpt>
      <trkpt lat="56.92871" lon="-4.93478">
        <ele>115.78</ele>
        <time>2021-03-20T18:42:14Z</time>
      </trkpt>
      <trkpt lat="56.92793" lon="-4.93598">
        <ele>118.45</ele>
        <time>2021-03-20T18:42:18Z</time>
      </trkpt>
      <trkpt lat="56.92574" lon="-4.9391">
        <ele>116.86</ele>
        <time>2021-03-20T18:42:22Z</time>
      </trkpt>
      <trkpt lat="56.92507" lon="-4.93991">
        <ele>118.66</ele>
        <time>2021-03-20T18:42:27Z</time>
      </trkpt>
      <trkpt lat="56.92436" lon="-4.94062">
        <ele>116.68</ele>
        <time>2021-03-20T18:42:31Z</time>
      </trkpt>
      <trkpt lat="56.92257" lon="-4.94282">
        <ele>112.58</ele>
        <time>2021-03-20T18:42:36Z</time>
      </trkpt>
      <trkpt lat="56.92214" lon="-4.9433">
        <ele>111.57</ele>
        <time>2021-03-20T18:42:40Z</time>
      </trkpt>
      <trkpt lat="56.92193" lon="-4.94349">
        <ele>110.99</ele>
        <time>2021-03-20T18:42:45Z</time>
      </trkpt>
      <trkpt lat="56.92169" lon="-4.94367">
        <ele>111.17</ele>
        <time>2021-03-20T18:42:49Z</time>
      </trkpt>
      <trkpt lat="56.92105" lon="-4.94399">
        <ele>111.69</ele>
        <time>2021-03-20T18:42:53Z</time>
      </trkpt>
      <trkpt lat="56.9178" lon="-4.94531">
        <ele>112.91</ele>
        <time>2021-03-20T18:42:58Z</time>
      </trkpt>
      <trkpt lat="56.91767" lon="-4.94551">
        <ele>112.69</ele>
        <time>2021-03-20T18:43:04Z</time>
      </trkpt>
      <trkpt lat="56.91734" lon="-4.94567">
        <ele>111.03</ele>
        <time>2021-03-20T18:43:10Z</time>
      </trkpt>
      <trkpt lat="56.91731" lon="-4.94583">
        <ele>110.34</ele>
        <time>2021-03-20T18:43:32Z</time>
      </trkpt>
      <trkpt lat="56.9166" lon="-4.94689">
        <ele>106</ele>
        <time>2021-03-20T18:43:54Z</time>
      </trkpt>
      <trkpt lat="56.91654" lon="-4.9471">
        <ele>106</ele>
        <time>2021-03-20T18:44:16Z</time>
      </trkpt>
      <trkpt lat="56.91647" lon="-4.9472">
        <ele>106</ele>
        <time>2021-03-20T18:44:38Z</time>
      </trkpt>
      <trkpt lat="56.91639" lon="-4.94725">
        <ele>106.11</ele>
        <time>2021-03-20T18:45:01Z</time>
      </trkpt>
      <trkpt lat="56.91594" lon="-4.94794">
        <ele>107.4</ele>
        <time>2021-03-20T18:45:23Z</time>
      </trkpt>
      <trkpt lat="56.91573" lon="-4.94837">
        <ele>107.25</ele>
        <time>2021-03-20T18:45:45Z</time>
      </trkpt>
      <trkpt lat="56.91556" lon="-4.94878">
        <ele>106.97</ele>
        <time>2021-03-20T18:46:07Z</time>
      </trkpt>
      <trkpt lat="56.91483" lon="-4.95036">
        <ele>105.48</ele>
        <time>2021-03-20T18:46:30Z</time>
      </trkpt>
      <trkpt lat="56.91445" lon="-4.9515">
        <ele>106.36</ele>
        <time>2021-03-20T18:46:52Z</time>
      </trkpt>
      <trkpt lat="56.91402" lon="-4.95267">
        <ele>108.76</ele>
        <time>2021-03-20T18:47:14Z</time>
      </trkpt>
      <trkpt lat="56.91359" lon="-4.95372">
        <ele>102.28</ele>
        <time>2021-03-20T18:47:36Z</time>
      </trkpt>
      <trkpt lat="56.91328" lon="-4.95476">
        <ele>98.17</ele>
        <time>2021-03-20T18:47:58Z</time>
      </trkpt>
      <trkpt lat="56.9125" lon="-4.95699">
        <ele>114.36</ele>
        <time>2021-03-20T18:48:21Z</time>
      </trkpt>
      <trkpt lat="56.91213" lon="-4.95791">
        <ele>121.75</ele>
        <time>2021-03-20T18:48:43Z</time>
      </trkpt>
      <trkpt lat="56.91195" lon="-4.95818">
        <ele>124.42</ele>
        <time>2021-03-20T18:49:05Z</time>
      </trkpt>
      <trkpt lat="56.91179" lon="-4.95831">
        <ele>125.46</ele>
        <time>2021-03-20T18:49:27Z</time>
      </trkpt>
      <trkpt lat="56.90927" lon="-4.95956">
        <ele>126.34</ele>
        <time>2021-03-20T18:49:49Z</time>
      </trkpt>
      <trkpt lat="56.90634" lon="-4.96108">
        <ele>124.93</ele>
        <time>2021-03-20T18:50:12Z</time>
      </trkpt>
      <trkpt lat="56.90614" lon="-4.96111">
        <ele>121.56</ele>
        <time>2021-03-20T18:50:34Z</time>
      </trkpt>
      <trkpt lat="56.90538" lon="-4.96062">
        <ele>119.77</ele>
        <time>2021-03-20T18:50:56Z</time>
      </trkpt>
      <trkpt lat="56.90474" lon="-4.96015">
        <ele>113.21</ele>
        <time>2021-03-20T18:51:18Z</time>
      </trkpt>
      <trkpt lat="56.90445" lon="-4.95999">
        <ele>109.15</ele>
        <time>2021-03-20T18:51:40Z</time>
      </trkpt>
      <trkpt lat="56.90465" lon="-4.96027">
        <ele>110.29</ele>
        <time>2021-03-20T18:51:43Z</time>
      </trkpt>
      <trkpt lat="56.9047" lon="-4.96052">
        <ele>109.68</ele>
        <time>2021-03-20T18:51:45Z</time>
      </trkpt>
      <trkpt lat="56.90471" lon="-4.96144">
        <ele>106.8</ele>
        <time>2021-03-20T18:51:47Z</time>
      </trkpt>
      <trkpt lat="56.90481" lon="-4.96201">
        <ele>107.07</ele>
        <time>2021-03-20T18:51:50Z</time>
      </trkpt>
      <trkpt lat="56.90494" lon="-4.96319">
        <ele>106.45</ele>
        <time>2021-03-20T18:51:52Z</time>
      </trkpt>
      <trkpt lat="56.90523" lon="-4.96475">
        <ele>103.6</ele>
        <time>2021-03-20T18:51:54Z</time>
      </trkpt>
      <trkpt lat="56.90569" lon="-4.96689">
        <ele>99.21</ele>
        <time>2021-03-20T18:51:57Z</time>
      </trkpt>
      <trkpt lat="56.90597" lon="-4.96763">
        <ele>101.91</ele>
        <time>2021-03-20T18:51:59Z</time>
      </trkpt>
      <trkpt lat="56.90607" lon="-4.96812">
        <ele>101.36</ele>
        <time>2021-03-20T18:52:01Z</time>
      </trkpt>
      <trkpt lat="56.90614" lon="-4.96887">
        <ele>99.65</ele>
        <time>2021-03-20T18:52:04Z</time>
      </trkpt>
      <trkpt lat="56.90619" lon="-4.97038">
        <ele>92.89</ele>
        <time>2021-03-20T18:52:06Z</time>
      </trkpt>
      <trkpt lat="56.90629" lon="-4.97099">
        <ele>90.03</ele>
        <time>2021-03-20T18:52:08Z</time>
      </trkpt>
      <trkpt lat="56.90643" lon="-4.97162">
        <ele>87.43</ele>
        <time>2021-03-20T18:52:11Z</time>
      </trkpt>
      <trkpt lat="56.90676" lon="-4.97277">
        <ele>83.03</ele>
        <time>2021-03-20T18:52:13Z</time>
      </trkpt>
      <trkpt lat="56.90685" lon="-4.97328">
        <ele>80.67</ele>
        <time>2021-03-20T18:52:15Z</time>
      </trkpt>
      <trkpt lat="56.90708" lon="-4.97494">
        <ele>72.39</ele>
        <time>2021-03-20T18:52:18Z</time>
      </trkpt>
      <trkpt lat="56.90729" lon="-4.97539">
        <ele>70.78</ele>
        <time>2021-03-20T18:52:20Z</time>
      </trkpt>
      <trkpt lat="56.90766" lon="-4.97604">
        <ele>67.78</ele>
        <time>2021-03-20T18:52:22Z</time>
      </trkpt>
      <trkpt lat="56.90801" lon="-4.97703">
        <ele>65.42</ele>
        <time>2021-03-20T18:52:25Z</time>
      </trkpt>
      <trkpt lat="56.90856" lon="-4.97832">
        <ele>58.46</ele>
        <time>2021-03-20T18:52:27Z</time>
      </trkpt>
      <trkpt lat="56.90893" lon="-4.97916">
        <ele>55.02</ele>
        <time>2021-03-20T18:52:29Z</time>
      </trkpt>
      <trkpt lat="56.90909" lon="-4.97971">
        <ele>50.79</ele>
        <time>2021-03-20T18:52:32Z</time>
      </trkpt>
      <trkpt lat="56.90936" lon="-4.98078">
        <ele>45.88</ele>
        <time>2021-03-20T18:52:34Z</time>
      </trkpt>
      <trkpt lat="56.90967" lon="-4.98216">
        <ele>39.72</ele>
        <time>2021-03-20T18:52:36Z</time>
      </trkpt>
      <trkpt lat="56.9099" lon="-4.98365">
        <ele>35.11</ele>
        <time>2021-03-20T18:52:39Z</time>
      </trkpt>
      <trkpt lat="56.91001" lon="-4.98419">
        <ele>33.88</ele>
        <time>2021-03-20T18:52:41Z</time>
      </trkpt>
      <trkpt lat="56.91007" lon="-4.98443">
        <ele>33.08</ele>
        <time>2021-03-20T18:52:43Z</time>
      </trkpt>
      <trkpt lat="56.90995" lon="-4.98543">
        <ele>30.25</ele>
        <time>2021-03-20T18:52:45Z</time>
      </trkpt>
      <trkpt lat="56.91" lon="-4.98562">
        <ele>30.23</ele>
        <time>2021-03-20T18:52:48Z</time>
      </trkpt>
      <trkpt lat="56.91017" lon="-4.98604">
        <ele>31</ele>
        <time>2021-03-20T18:52:50Z</time>
      </trkpt>
      <trkpt lat="56.91022" lon="-4.98621">
        <ele>31.07</ele>
        <time>2021-03-20T18:52:52Z</time>
      </trkpt>
      <trkpt lat="56.91029" lon="-4.98721">
        <ele>30.03</ele>
        <time>2021-03-20T18:52:55Z</time>
      </trkpt>
      <trkpt lat="56.91062" lon="-4.98957">
        <ele>28.53</ele>
        <time>2021-03-20T18:52:57Z</time>
      </trkpt>
      <trkpt lat="56.91073" lon="-4.991">
        <ele>25.36</ele>
        <time>2021-03-20T18:52:59Z</time>
      </trkpt>
      <trkpt lat="56.9108" lon="-4.99216">
        <ele>26</ele>
        <time>2021-03-20T18:53:02Z</time>
      </trkpt>
      <trkpt lat="56.91091" lon="-4.9931">
        <ele>26</ele>
        <time>2021-03-20T18:53:04Z</time>
      </trkpt>
      <trkpt lat="56.91093" lon="-4.99443">
        <ele>26</ele>
        <time>2021-03-20T18:53:06Z</time>
      </trkpt>
      <trkpt lat="56.91096" lon="-4.99496">
        <ele>26</ele>
        <time>2021-03-20T18:53:09Z</time>
      </trkpt>
      <trkpt lat="56.91102" lon="-4.99564">
        <ele>25.24</ele>
        <time>2021-03-20T18:53:11Z</time>
      </trkpt>
      <trkpt lat="56.91111" lon="-4.9963">
        <ele>25.67</ele>
        <time>2021-03-20T18:53:13Z</time>
      </trkpt>
      <trkpt lat="56.9112" lon="-4.99653">
        <ele>26.15</ele>
        <time>2021-03-20T18:53:16Z</time>
      </trkpt>
      <trkpt lat="56.91138" lon="-4.99678">
        <ele>27.37</ele>
        <time>2021-03-20T18:53:18Z</time>
      </trkpt>
      <trkpt lat="56.91151" lon="-4.99688">
        <ele>27.78</ele>
        <time>2021-03-20T18:53:20Z</time>
      </trkpt>
      <trkpt lat="56.91163" lon="-4.99689">
        <ele>27.8</ele>
        <time>2021-03-20T18:53:23Z</time>
      </trkpt>
      <trkpt lat="56.91176" lon="-4.99683">
        <ele>27.59</ele>
        <time>2021-03-20T18:53:25Z</time>
      </trkpt>
      <trkpt lat="56.91183" lon="-4.99676">
        <ele>27.33</ele>
        <time>2021-03-20T18:53:27Z</time>
      </trkpt>
      <trkpt lat="56.91207" lon="-4.99641">
        <ele>27.43</ele>
        <time>2021-03-20T18:53:30Z</time>
      </trkpt>
      <trkpt lat="56.91215" lon="-4.99634">
        <ele>27.84</ele>
        <time>2021-03-20T18:53:32Z</time>
      </trkpt>
      <trkpt lat="56.9128" lon="-4.99598">
        <ele>29.93</ele>
        <time>2021-03-20T18:53:34Z</time>
      </trkpt>
      <trkpt lat="56.91285" lon="-4.99598">
        <ele>29.72</ele>
        <time>2021-03-20T18:53:37Z</time>
      </trkpt>
      <trkpt lat="56.91291" lon="-4.99601">
        <ele>29.52</ele>
        <time>2021-03-20T18:53:39Z</time>
      </trkpt>
      <trkpt lat="56.91295" lon="-4.99607">
        <ele>29.38</ele>
        <time>2021-03-20T18:53:41Z</time>
      </trkpt>
      <trkpt lat="56.913" lon="-4.99626">
        <ele>28.67</ele>
        <time>2021-03-20T18:53:44Z</time>
      </trkpt>
      <trkpt lat="56.91301" lon="-4.99653">
        <ele>28.17</ele>
        <time>2021-03-20T18:53:46Z</time>
      </trkpt>
      <trkpt lat="56.9129" lon="-4.99703">
        <ele>28</ele>
        <time>2021-03-20T18:53:48Z</time>
      </trkpt>
      <trkpt lat="56.91321" lon="-4.99773">
        <ele>28.11</ele>
        <time>2021-03-20T18:53:50Z</time>
      </trkpt>
      <trkpt lat="56.9133" lon="-4.99804">
        <ele>30.54</ele>
        <time>2021-03-20T18:53:53Z</time>
      </trkpt>
      <trkpt lat="56.91331" lon="-4.99815">
        <ele>31.34</ele>
        <time>2021-03-20T18:53:55Z</time>
      </trkpt>
      <trkpt lat="56.9129" lon="-4.9997">
        <ele>42.48</ele>
        <time>2021-03-20T18:53:58Z</time>
      </trkpt>
      <trkpt lat="56.91246" lon="-5.00102">
        <ele>53.42</ele>
        <time>2021-03-20T18:54:00Z</time>
      </trkpt>
      <trkpt lat="56.91234" lon="-5.00152">
        <ele>57.8</ele>
        <time>2021-03-20T18:54:03Z</time>
      </trkpt>
      <trkpt lat="56.91202" lon="-5.0021">
        <ele>54.83</ele>
        <time>2021-03-20T18:54:05Z</time>
      </trkpt>
      <trkpt lat="56.91143" lon="-5.00363">
        <ele>60.04</ele>
        <time>2021-03-20T18:54:08Z</time>
      </trkpt>
      <trkpt lat="56.91092" lon="-5.00438">
        <ele>56.2</ele>
        <time>2021-03-20T18:54:10Z</time>
      </trkpt>
      <trkpt lat="56.91079" lon="-5.00474">
        <ele>57.28</ele>
        <time>2021-03-20T18:54:13Z</time>
      </trkpt>
      <trkpt lat="56.91057" lon="-5.00503">
        <ele>56.71</ele>
        <time>2021-03-20T18:54:15Z</time>
      </trkpt>
      <trkpt lat="56.91024" lon="-5.00515">
        <ele>53.73</ele>
        <time>2021-03-20T18:54:18Z</time>
      </trkpt>
      <trkpt lat="56.90995" lon="-5.00532">
        <ele>51.73</ele>
        <time>2021-03-20T18:54:20Z</time>
      </trkpt>
      <trkpt lat="56.90973" lon="-5.0057">
        <ele>53.18</ele>
        <time>2021-03-20T18:54:23Z</time>
      </trkpt>
      <trkpt lat="56.90949" lon="-5.00585">
        <ele>51.73</ele>
        <time>2021-03-20T18:54:25Z</time>
      </trkpt>
      <trkpt lat="56.90919" lon="-5.00607">
        <ele>48.97</ele>
        <time>2021-03-20T18:54:28Z</time>
      </trkpt>
      <trkpt lat="56.90909" lon="-5.00628">
        <ele>48.94</ele>
        <time>2021-03-20T18:54:30Z</time>
      </trkpt>
      <trkpt lat="56.90877" lon="-5.00723">
        <ele>50.83</ele>
        <time>2021-03-20T18:54:33Z</time>
      </trkpt>
      <trkpt lat="56.90802" lon="-5.00818">
        <ele>45.4</ele>
        <time>2021-03-20T18:54:35Z</time>
      </trkpt>
      <trkpt lat="56.90789" lon="-5.00839">
        <ele>45.23</ele>
        <time>2021-03-20T18:54:38Z</time>
      </trkpt>
      <trkpt lat="56.90777" lon="-5.00879">
        <ele>46.2</ele>
        <time>2021-03-20T18:54:40Z</time>
      </trkpt>
      <trkpt lat="56.90682" lon="-5.01065">
        <ele>51.08</ele>
        <time>2021-03-20T18:54:43Z</time>
      </trkpt>
      <trkpt lat="56.90668" lon="-5.01087">
        <ele>51.84</ele>
        <time>2021-03-20T18:54:45Z</time>
      </trkpt>
      <trkpt lat="56.90625" lon="-5.01116">
        <ele>47.86</ele>
        <time>2021-03-20T18:54:48Z</time>
      </trkpt>
      <trkpt lat="56.90613" lon="-5.01135">
        <ele>47.11</ele>
        <time>2021-03-20T18:54:50Z</time>
      </trkpt>
      <trkpt lat="56.90606" lon="-5.01152">
        <ele>47.19</ele>
        <time>2021-03-20T18:54:53Z</time>
      </trkpt>
      <trkpt lat="56.906" lon="-5.01182">
        <ele>47.58</ele>
        <time>2021-03-20T18:54:55Z</time>
      </trkpt>
      <trkpt lat="56.90597" lon="-5.01217">
        <ele>48.31</ele>
        <time>2021-03-20T18:54:58Z</time>
      </trkpt>
      <trkpt lat="56.90597" lon="-5.01285">
        <ele>51.4</ele>
        <time>2021-03-20T18:55:00Z</time>
      </trkpt>
      <trkpt lat="56.90594" lon="-5.01307">
        <ele>52.43</ele>
        <time>2021-03-20T18:55:03Z</time>
      </trkpt>
      <trkpt lat="56.90583" lon="-5.01336">
        <ele>51.15</ele>
        <time>2021-03-20T18:55:05Z</time>
      </trkpt>
      <trkpt lat="56.90556" lon="-5.01386">
        <ele>49.76</ele>
        <time>2021-03-20T18:55:08Z</time>
      </trkpt>
      <trkpt lat="56.90534" lon="-5.01432">
        <ele>52.58</ele>
        <time>2021-03-20T18:55:10Z</time>
      </trkpt>
      <trkpt lat="56.90522" lon="-5.0145">
        <ele>53.37</ele>
        <time>2021-03-20T18:55:13Z</time>
      </trkpt>
      <trkpt lat="56.90511" lon="-5.0146">
        <ele>53.64</ele>
        <time>2021-03-20T18:55:15Z</time>
      </trkpt>
      <trkpt lat="56.90494" lon="-5.0146">
        <ele>51.74</ele>
        <time>2021-03-20T18:55:18Z</time>
      </trkpt>
      <trkpt lat="56.90473" lon="-5.01449">
        <ele>47.55</ele>
        <time>2021-03-20T18:55:20Z</time>
      </trkpt>
      <trkpt lat="56.90461" lon="-5.01446">
        <ele>45.64</ele>
        <time>2021-03-20T18:55:23Z</time>
      </trkpt>
      <trkpt lat="56.9045" lon="-5.01459">
        <ele>45.44</ele>
        <time>2021-03-20T18:55:25Z</time>
      </trkpt>
      <trkpt lat="56.90442" lon="-5.01474">
        <ele>45.83</ele>
        <time>2021-03-20T18:55:28Z</time>
      </trkpt>
      <trkpt lat="56.90424" lon="-5.01524">
        <ele>46.94</ele>
        <time>2021-03-20T18:55:30Z</time>
      </trkpt>
      <trkpt lat="56.90418" lon="-5.01552">
        <ele>47.06</ele>
        <time>2021-03-20T18:55:33Z</time>
      </trkpt>
      <trkpt lat="56.90401" lon="-5.01598">
        <ele>48.93</ele>
        <time>2021-03-20T18:55:35Z</time>
      </trkpt>
      <trkpt lat="56.9038" lon="-5.01621">
        <ele>49.38</ele>
        <time>2021-03-20T18:55:38Z</time>
      </trkpt>
      <trkpt lat="56.90239" lon="-5.01693">
        <ele>45.94</ele>
        <time>2021-03-20T18:55:40Z</time>
      </trkpt>
      <trkpt lat="56.9022" lon="-5.01707">
        <ele>45.86</ele>
        <time>2021-03-20T18:55:43Z</time>
      </trkpt>
      <trkpt lat="56.90207" lon="-5.01722">
        <ele>45.43</ele>
        <time>2021-03-20T18:55:45Z</time>
      </trkpt>
      <trkpt lat="56.90195" lon="-5.0174">
        <ele>45.03</ele>
        <time>2021-03-20T18:55:48Z</time>
      </trkpt>
      <trkpt lat="56.90185" lon="-5.01766">
        <ele>45</ele>
        <time>2021-03-20T18:55:50Z</time>
      </trkpt>
      <trkpt lat="56.90181" lon="-5.01792">
        <ele>43.96</ele>
        <time>2021-03-20T18:55:53Z</time>
      </trkpt>
      <trkpt lat="56.9018" lon="-5.01863">
        <ele>41.48</ele>
        <time>2021-03-20T18:55:55Z</time>
      </trkpt>
      <trkpt lat="56.90177" lon="-5.01894">
        <ele>42.27</ele>
        <time>2021-03-20T18:55:58Z</time>
      </trkpt>
      <trkpt lat="56.90172" lon="-5.0191">
        <ele>42.7</ele>
        <time>2021-03-20T18:56:00Z</time>
      </trkpt>
      <trkpt lat="56.90168" lon="-5.01917">
        <ele>43.07</ele>
        <time>2021-03-20T18:56:03Z</time>
      </trkpt>
      <trkpt lat="56.90155" lon="-5.01927">
        <ele>43.33</ele>
        <time>2021-03-20T18:56:05Z</time>
      </trkpt>
      <trkpt lat="56.90134" lon="-5.01934">
        <ele>43.07</ele>
        <time>2021-03-20T18:56:08Z</time>
      </trkpt>
      <trkpt lat="56.90106" lon="-5.01953">
        <ele>43.4</ele>
        <time>2021-03-20T18:56:10Z</time>
      </trkpt>
      <trkpt lat="56.90084" lon="-5.01986">
        <ele>44.97</ele>
        <time>2021-03-20T18:56:13Z</time>
      </trkpt>
      <trkpt lat="56.90077" lon="-5.01998">
        <ele>45.22</ele>
        <time>2021-03-20T18:56:15Z</time>
      </trkpt>
      <trkpt lat="56.90072" lon="-5.02013">
        <ele>45.24</ele>
        <time>2021-03-20T18:56:18Z</time>
      </trkpt>
      <trkpt lat="56.90068" lon="-5.02051">
        <ele>45.29</ele>
        <time>2021-03-20T18:56:20Z</time>
      </trkpt>
      <trkpt lat="56.90067" lon="-5.02107">
        <ele>46.63</ele>
        <time>2021-03-20T18:56:23Z</time>
      </trkpt>
      <trkpt lat="56.90061" lon="-5.02144">
        <ele>46.96</ele>
        <time>2021-03-20T18:56:25Z</time>
      </trkpt>
      <trkpt lat="56.90042" lon="-5.02179">
        <ele>47.13</ele>
        <time>2021-03-20T18:56:28Z</time>
      </trkpt>
      <trkpt lat="56.90021" lon="-5.02238">
        <ele>49.54</ele>
        <time>2021-03-20T18:56:30Z</time>
      </trkpt>
      <trkpt lat="56.90007" lon="-5.02287">
        <ele>50.08</ele>
        <time>2021-03-20T18:56:33Z</time>
      </trkpt>
      <trkpt lat="56.89984" lon="-5.02336">
        <ele>49.56</ele>
        <time>2021-03-20T18:56:35Z</time>
      </trkpt>
      <trkpt lat="56.89963" lon="-5.02387">
        <ele>49.57</ele>
        <time>2021-03-20T18:56:37Z</time>
      </trkpt>
      <trkpt lat="56.89938" lon="-5.02488">
        <ele>48.81</ele>
        <time>2021-03-20T18:56:40Z</time>
      </trkpt>
      <trkpt lat="56.89919" lon="-5.02606">
        <ele>50.11</ele>
        <time>2021-03-20T18:56:42Z</time>
      </trkpt>
      <trkpt lat="56.89898" lon="-5.0266">
        <ele>48.11</ele>
        <time>2021-03-20T18:56:45Z</time>
      </trkpt>
      <trkpt lat="56.89882" lon="-5.02694">
        <ele>48.06</ele>
        <time>2021-03-20T18:56:47Z</time>
      </trkpt>
      <trkpt lat="56.898" lon="-5.0281">
        <ele>45.5</ele>
        <time>2021-03-20T18:56:50Z</time>
      </trkpt>
      <trkpt lat="56.89757" lon="-5.0289">
        <ele>44.28</ele>
        <time>2021-03-20T18:56:52Z</time>
      </trkpt>
      <trkpt lat="56.89742" lon="-5.02913">
        <ele>44.32</ele>
        <time>2021-03-20T18:56:55Z</time>
      </trkpt>
      <trkpt lat="56.89726" lon="-5.0293">
        <ele>44.35</ele>
        <time>2021-03-20T18:56:57Z</time>
      </trkpt>
      <trkpt lat="56.89686" lon="-5.02948">
        <ele>44.24</ele>
        <time>2021-03-20T18:57:00Z</time>
      </trkpt>
      <trkpt lat="56.89653" lon="-5.02958">
        <ele>43.07</ele>
        <time>2021-03-20T18:57:02Z</time>
      </trkpt>
      <trkpt lat="56.89639" lon="-5.0297">
        <ele>42.78</ele>
        <time>2021-03-20T18:57:05Z</time>
      </trkpt>
      <trkpt lat="56.89552" lon="-5.03091">
        <ele>43.38</ele>
        <time>2021-03-20T18:57:07Z</time>
      </trkpt>
      <trkpt lat="56.89512" lon="-5.03132">
        <ele>42.71</ele>
        <time>2021-03-20T18:57:10Z</time>
      </trkpt>
      <trkpt lat="56.89457" lon="-5.03172">
        <ele>40.33</ele>
        <time>2021-03-20T18:57:12Z</time>
      </trkpt>
      <trkpt lat="56.89441" lon="-5.03198">
        <ele>39.47</ele>
        <time>2021-03-20T18:57:15Z</time>
      </trkpt>
      <trkpt lat="56.89432" lon="-5.03222">
        <ele>38.86</ele>
        <time>2021-03-20T18:57:17Z</time>
      </trkpt>
      <trkpt lat="56.89424" lon="-5.03258">
        <ele>40.54</ele>
        <time>2021-03-20T18:57:20Z</time>
      </trkpt>
      <trkpt lat="56.894" lon="-5.03324">
        <ele>42.43</ele>
        <time>2021-03-20T18:57:22Z</time>
      </trkpt>
      <trkpt lat="56.89358" lon="-5.0338">
        <ele>37.13</ele>
        <time>2021-03-20T18:57:25Z</time>
      </trkpt>
      <trkpt lat="56.8934" lon="-5.03416">
        <ele>35.09</ele>
        <time>2021-03-20T18:57:27Z</time>
      </trkpt>
      <trkpt lat="56.89328" lon="-5.03455">
        <ele>34.43</ele>
        <time>2021-03-20T18:57:30Z</time>
      </trkpt>
      <trkpt lat="56.8932" lon="-5.03538">
        <ele>36.01</ele>
        <time>2021-03-20T18:57:32Z</time>
      </trkpt>
      <trkpt lat="56.8931" lon="-5.03597">
        <ele>35.86</ele>
        <time>2021-03-20T18:57:35Z</time>
      </trkpt>
      <trkpt lat="56.89299" lon="-5.03648">
        <ele>35.1</ele>
        <time>2021-03-20T18:57:37Z</time>
      </trkpt>
      <trkpt lat="56.89261" lon="-5.03805">
        <ele>32.12</ele>
        <time>2021-03-20T18:57:40Z</time>
      </trkpt>
      <trkpt lat="56.89247" lon="-5.0385">
        <ele>31.24</ele>
        <time>2021-03-20T18:57:42Z</time>
      </trkpt>
      <trkpt lat="56.89174" lon="-5.0402">
        <ele>26</ele>
        <time>2021-03-20T18:57:45Z</time>
      </trkpt>
      <trkpt lat="56.89145" lon="-5.04075">
        <ele>24.51</ele>
        <time>2021-03-20T18:57:47Z</time>
      </trkpt>
      <trkpt lat="56.89089" lon="-5.0414">
        <ele>24</ele>
        <time>2021-03-20T18:57:50Z</time>
      </trkpt>
      <trkpt lat="56.89042" lon="-5.04188">
        <ele>24.4</ele>
        <time>2021-03-20T18:57:52Z</time>
      </trkpt>
      <trkpt lat="56.88966" lon="-5.0431">
        <ele>30.43</ele>
        <time>2021-03-20T18:57:55Z</time>
      </trkpt>
      <trkpt lat="56.88934" lon="-5.04355">
        <ele>35.68</ele>
        <time>2021-03-20T18:57:57Z</time>
      </trkpt>
      <trkpt lat="56.88921" lon="-5.04367">
        <ele>37.9</ele>
        <time>2021-03-20T18:58:00Z</time>
      </trkpt>
      <trkpt lat="56.88901" lon="-5.04361">
        <ele>40.27</ele>
        <time>2021-03-20T18:58:02Z</time>
      </trkpt>
      <trkpt lat="56.88874" lon="-5.04334">
        <ele>42.36</ele>
        <time>2021-03-20T18:58:05Z</time>
      </trkpt>
      <trkpt lat="56.88822" lon="-5.04272">
        <ele>46.28</ele>
        <time>2021-03-20T18:58:07Z</time>
      </trkpt>
      <trkpt lat="56.88808" lon="-5.04266">
        <ele>47.89</ele>
        <time>2021-03-20T18:58:10Z</time>
      </trkpt>
      <trkpt lat="56.88786" lon="-5.04268">
        <ele>49.24</ele>
        <time>2021-03-20T18:58:12Z</time>
      </trkpt>
      <trkpt lat="56.88718" lon="-5.04287">
        <ele>52.08</ele>
        <time>2021-03-20T18:58:15Z</time>
      </trkpt>
      <trkpt lat="56.88698" lon="-5.04299">
        <ele>52.3</ele>
        <time>2021-03-20T18:58:17Z</time>
      </trkpt>
      <trkpt lat="56.88662" lon="-5.04331">
        <ele>52.26</ele>
        <time>2021-03-20T18:58:20Z</time>
      </trkpt>
      <trkpt lat="56.88614" lon="-5.04354">
        <ele>50.17</ele>
        <time>2021-03-20T18:58:22Z</time>
      </trkpt>
      <trkpt lat="56.88588" lon="-5.04388">
        <ele>48.4</ele>
        <time>2021-03-20T18:58:25Z</time>
      </trkpt>
      <trkpt lat="56.88481" lon="-5.04501">
        <ele>50.6</ele>
        <time>2021-03-20T18:58:27Z</time>
      </trkpt>
      <trkpt lat="56.88462" lon="-5.04553">
        <ele>49.8</ele>
        <time>2021-03-20T18:58:30Z</time>
      </trkpt>
      <trkpt lat="56.88453" lon="-5.04598">
        <ele>49.34</ele>
        <time>2021-03-20T18:58:32Z</time>
      </trkpt>
      <trkpt lat="56.88445" lon="-5.04643">
        <ele>51.42</ele>
        <time>2021-03-20T18:58:35Z</time>
      </trkpt>
      <trkpt lat="56.88411" lon="-5.04764">
        <ele>53.55</ele>
        <time>2021-03-20T18:58:37Z</time>
      </trkpt>
      <trkpt lat="56.8838" lon="-5.0485">
        <ele>56.26</ele>
        <time>2021-03-20T18:58:40Z</time>
      </trkpt>
      <trkpt lat="56.88346" lon="-5.04924">
        <ele>57.23</ele>
        <time>2021-03-20T18:58:42Z</time>
      </trkpt>
      <trkpt lat="56.88317" lon="-5.04975">
        <ele>56.78</ele>
        <time>2021-03-20T18:58:45Z</time>
      </trkpt>
      <trkpt lat="56.88293" lon="-5.05004">
        <ele>56.29</ele>
        <time>2021-03-20T18:58:47Z</time>
      </trkpt>
      <trkpt lat="56.88243" lon="-5.05039">
        <ele>53.06</ele>
        <time>2021-03-20T18:58:50Z</time>
      </trkpt>
      <trkpt lat="56.88216" lon="-5.05075">
        <ele>51.62</ele>
        <time>2021-03-20T18:58:52Z</time>
      </trkpt>
      <trkpt lat="56.88183" lon="-5.05165">
        <ele>49.43</ele>
        <time>2021-03-20T18:58:55Z</time>
      </trkpt>
      <trkpt lat="56.88147" lon="-5.05229">
        <ele>48.56</ele>
        <time>2021-03-20T18:58:57Z</time>
      </trkpt>
      <trkpt lat="56.88069" lon="-5.05382">
        <ele>49.01</ele>
        <time>2021-03-20T18:59:00Z</time>
      </trkpt>
      <trkpt lat="56.88044" lon="-5.05413">
        <ele>49.81</ele>
        <time>2021-03-20T18:59:02Z</time>
      </trkpt>
      <trkpt lat="56.87964" lon="-5.05493">
        <ele>56.96</ele>
        <time>2021-03-20T18:59:05Z</time>
      </trkpt>
      <trkpt lat="56.87944" lon="-5.05507">
        <ele>56.75</ele>
        <time>2021-03-20T18:59:07Z</time>
      </trkpt>
      <trkpt lat="56.87913" lon="-5.0551">
        <ele>52.64</ele>
        <time>2021-03-20T18:59:10Z</time>
      </trkpt>
      <trkpt lat="56.87892" lon="-5.05515">
        <ele>50.96</ele>
        <time>2021-03-20T18:59:12Z</time>
      </trkpt>
      <trkpt lat="56.87872" lon="-5.05532">
        <ele>50.47</ele>
        <time>2021-03-20T18:59:15Z</time>
      </trkpt>
      <trkpt lat="56.87807" lon="-5.05594">
        <ele>47.4</ele>
        <time>2021-03-20T18:59:17Z</time>
      </trkpt>
      <trkpt lat="56.87754" lon="-5.05639">
        <ele>43.97</ele>
        <time>2021-03-20T18:59:20Z</time>
      </trkpt>
      <trkpt lat="56.87724" lon="-5.05658">
        <ele>41.39</ele>
        <time>2021-03-20T18:59:22Z</time>
      </trkpt>
      <trkpt lat="56.87687" lon="-5.05727">
        <ele>44.94</ele>
        <time>2021-03-20T18:59:25Z</time>
      </trkpt>
      <trkpt lat="56.87657" lon="-5.05753">
        <ele>45.33</ele>
        <time>2021-03-20T18:59:27Z</time>
      </trkpt>
      <trkpt lat="56.87589" lon="-5.05802">
        <ele>41.28</ele>
        <time>2021-03-20T18:59:30Z</time>
      </trkpt>
      <trkpt lat="56.87567" lon="-5.058">
        <ele>39.33</ele>
        <time>2021-03-20T18:59:32Z</time>
      </trkpt>
      <trkpt lat="56.8755" lon="-5.05805">
        <ele>38.56</ele>
        <time>2021-03-20T18:59:35Z</time>
      </trkpt>
      <trkpt lat="56.8754" lon="-5.05818">
        <ele>38.55</ele>
        <time>2021-03-20T18:59:37Z</time>
      </trkpt>
      <trkpt lat="56.87522" lon="-5.05875">
        <ele>39.99</ele>
        <time>2021-03-20T18:59:40Z</time>
      </trkpt>
      <trkpt lat="56.87483" lon="-5.05916">
        <ele>40.69</ele>
        <time>2021-03-20T18:59:42Z</time>
      </trkpt>
      <trkpt lat="56.87451" lon="-5.05923">
        <ele>38.24</ele>
        <time>2021-03-20T18:59:45Z</time>
      </trkpt>
      <trkpt lat="56.87424" lon="-5.05961">
        <ele>37.97</ele>
        <time>2021-03-20T18:59:47Z</time>
      </trkpt>
      <trkpt lat="56.8738" lon="-5.06056">
        <ele>40.38</ele>
        <time>2021-03-20T18:59:50Z</time>
      </trkpt>
      <trkpt lat="56.87367" lon="-5.06088">
        <ele>40.46</ele>
        <time>2021-03-20T18:59:52Z</time>
      </trkpt>
      <trkpt lat="56.87346" lon="-5.06157">
        <ele>40.91</ele>
        <time>2021-03-20T18:59:55Z</time>
      </trkpt>
      <trkpt lat="56.87334" lon="-5.06187">
        <ele>43.98</ele>
        <time>2021-03-20T18:59:57Z</time>
      </trkpt>
      <trkpt lat="56.8732" lon="-5.06204">
        <ele>46.22</ele>
        <time>2021-03-20T19:00:00Z</time>
      </trkpt>
      <trkpt lat="56.87236" lon="-5.06218">
        <ele>43.56</ele>
        <time>2021-03-20T19:00:02Z</time>
      </trkpt>
      <trkpt lat="56.87171" lon="-5.06265">
        <ele>47.67</ele>
        <time>2021-03-20T19:00:05Z</time>
      </trkpt>
      <trkpt lat="56.87135" lon="-5.06316">
        <ele>45.62</ele>
        <time>2021-03-20T19:00:07Z</time>
      </trkpt>
      <trkpt lat="56.87118" lon="-5.06383">
        <ele>46.06</ele>
        <time>2021-03-20T19:00:10Z</time>
      </trkpt>
      <trkpt lat="56.87108" lon="-5.06406">
        <ele>47.37</ele>
        <time>2021-03-20T19:00:12Z</time>
      </trkpt>
      <trkpt lat="56.87069" lon="-5.06447">
        <ele>50.55</ele>
        <time>2021-03-20T19:00:15Z</time>
      </trkpt>
      <trkpt lat="56.86994" lon="-5.06458">
        <ele>41.76</ele>
        <time>2021-03-20T19:00:17Z</time>
      </trkpt>
      <trkpt lat="56.86972" lon="-5.06467">
        <ele>41.62</ele>
        <time>2021-03-20T19:00:20Z</time>
      </trkpt>
      <trkpt lat="56.86956" lon="-5.06481">
        <ele>41.12</ele>
        <time>2021-03-20T19:00:22Z</time>
      </trkpt>
      <trkpt lat="56.86932" lon="-5.06519">
        <ele>41.23</ele>
        <time>2021-03-20T19:00:25Z</time>
      </trkpt>
      <trkpt lat="56.86902" lon="-5.06582">
        <ele>41.44</ele>
        <time>2021-03-20T19:00:27Z</time>
      </trkpt>
      <trkpt lat="56.86823" lon="-5.06736">
        <ele>35.79</ele>
        <time>2021-03-20T19:00:30Z</time>
      </trkpt>
      <trkpt lat="56.86787" lon="-5.06813">
        <ele>38.5</ele>
        <time>2021-03-20T19:00:32Z</time>
      </trkpt>
      <trkpt lat="56.86775" lon="-5.06841">
        <ele>40.66</ele>
        <time>2021-03-20T19:00:35Z</time>
      </trkpt>
      <trkpt lat="56.86757" lon="-5.06875">
        <ele>43</ele>
        <time>2021-03-20T19:00:37Z</time>
      </trkpt>
      <trkpt lat="56.86711" lon="-5.06932">
        <ele>45.88</ele>
        <time>2021-03-20T19:00:40Z</time>
      </trkpt>
      <trkpt lat="56.86679" lon="-5.07003">
        <ele>46.12</ele>
        <time>2021-03-20T19:00:42Z</time>
      </trkpt>
      <trkpt lat="56.86639" lon="-5.07075">
        <ele>49.06</ele>
        <time>2021-03-20T19:00:45Z</time>
      </trkpt>
      <trkpt lat="56.86585" lon="-5.07098">
        <ele>51.07</ele>
        <time>2021-03-20T19:00:47Z</time>
      </trkpt>
      <trkpt lat="56.86543" lon="-5.07153">
        <ele>53.09</ele>
        <time>2021-03-20T19:00:50Z</time>
      </trkpt>
      <trkpt lat="56.86477" lon="-5.07247">
        <ele>56.12</ele>
        <time>2021-03-20T19:00:52Z</time>
      </trkpt>
      <trkpt lat="56.86427" lon="-5.07294">
        <ele>56.15</ele>
        <time>2021-03-20T19:00:55Z</time>
      </trkpt>
      <trkpt lat="56.86349" lon="-5.07425">
        <ele>59.76</ele>
        <time>2021-03-20T19:00:57Z</time>
      </trkpt>
      <trkpt lat="56.86321" lon="-5.07456">
        <ele>60.35</ele>
        <time>2021-03-20T19:01:00Z</time>
      </trkpt>
      <trkpt lat="56.86277" lon="-5.07497">
        <ele>60.79</ele>
        <time>2021-03-20T19:01:02Z</time>
      </trkpt>
      <trkpt lat="56.86245" lon="-5.07536">
        <ele>61.09</ele>
        <time>2021-03-20T19:01:05Z</time>
      </trkpt>
      <trkpt lat="56.86214" lon="-5.07584">
        <ele>62.17</ele>
        <time>2021-03-20T19:01:07Z</time>
      </trkpt>
      <trkpt lat="56.86162" lon="-5.07636">
        <ele>61.06</ele>
        <time>2021-03-20T19:01:10Z</time>
      </trkpt>
      <trkpt lat="56.86132" lon="-5.07673">
        <ele>60.75</ele>
        <time>2021-03-20T19:01:12Z</time>
      </trkpt>
      <trkpt lat="56.8609" lon="-5.07734">
        <ele>59.56</ele>
        <time>2021-03-20T19:01:15Z</time>
      </trkpt>
      <trkpt lat="56.86056" lon="-5.0782">
        <ele>57.68</ele>
        <time>2021-03-20T19:01:17Z</time>
      </trkpt>
      <trkpt lat="56.8603" lon="-5.07856">
        <ele>55.99</ele>
        <time>2021-03-20T19:01:20Z</time>
      </trkpt>
      <trkpt lat="56.86005" lon="-5.07886">
        <ele>54.44</ele>
        <time>2021-03-20T19:01:22Z</time>
      </trkpt>
      <trkpt lat="56.85976" lon="-5.07913">
        <ele>53.17</ele>
        <time>2021-03-20T19:01:25Z</time>
      </trkpt>
      <trkpt lat="56.85959" lon="-5.07936">
        <ele>52.58</ele>
        <time>2021-03-20T19:01:27Z</time>
      </trkpt>
      <trkpt lat="56.8594" lon="-5.07982">
        <ele>52.79</ele>
        <time>2021-03-20T19:01:30Z</time>
      </trkpt>
      <trkpt lat="56.859" lon="-5.08108">
        <ele>52.07</ele>
        <time>2021-03-20T19:01:32Z</time>
      </trkpt>
      <trkpt lat="56.85883" lon="-5.0814">
        <ele>52.42</ele>
        <time>2021-03-20T19:01:35Z</time>
      </trkpt>
      <trkpt lat="56.85868" lon="-5.08188">
        <ele>51.83</ele>
        <time>2021-03-20T19:01:37Z</time>
      </trkpt>
      <trkpt lat="56.85848" lon="-5.08241">
        <ele>50.9</ele>
        <time>2021-03-20T19:01:40Z</time>
      </trkpt>
      <trkpt lat="56.85834" lon="-5.08265">
        <ele>50.56</ele>
        <time>2021-03-20T19:01:42Z</time>
      </trkpt>
      <trkpt lat="56.85815" lon="-5.08283">
        <ele>50.15</ele>
        <time>2021-03-20T19:01:45Z</time>
      </trkpt>
      <trkpt lat="56.8577" lon="-5.08362">
        <ele>51.92</ele>
        <time>2021-03-20T19:01:47Z</time>
      </trkpt>
      <trkpt lat="56.85698" lon="-5.0846">
        <ele>46.52</ele>
        <time>2021-03-20T19:01:50Z</time>
      </trkpt>
      <trkpt lat="56.85516" lon="-5.08555">
        <ele>38.57</ele>
        <time>2021-03-20T19:01:52Z</time>
      </trkpt>
      <trkpt lat="56.855" lon="-5.08557">
        <ele>38.06</ele>
        <time>2021-03-20T19:01:55Z</time>
      </trkpt>
      <trkpt lat="56.85479" lon="-5.08551">
        <ele>38.76</ele>
        <time>2021-03-20T19:01:57Z</time>
      </trkpt>
      <trkpt lat="56.8545" lon="-5.08537">
        <ele>39.81</ele>
        <time>2021-03-20T19:02:00Z</time>
      </trkpt>
      <trkpt lat="56.85437" lon="-5.08534">
        <ele>39.72</ele>
        <time>2021-03-20T19:02:02Z</time>
      </trkpt>
      <trkpt lat="56.85383" lon="-5.08551">
        <ele>37</ele>
        <time>2021-03-20T19:02:05Z</time>
      </trkpt>
      <trkpt lat="56.85346" lon="-5.0857">
        <ele>36.45</ele>
        <time>2021-03-20T19:02:07Z</time>
      </trkpt>
      <trkpt lat="56.85297" lon="-5.08612">
        <ele>36.06</ele>
        <time>2021-03-20T19:02:10Z</time>
      </trkpt>
      <trkpt lat="56.85207" lon="-5.08695">
        <ele>35.92</ele>
        <time>2021-03-20T19:02:12Z</time>
      </trkpt>
      <trkpt lat="56.85157" lon="-5.08735">
        <ele>33.91</ele>
        <time>2021-03-20T19:02:15Z</time>
      </trkpt>
      <trkpt lat="56.85123" lon="-5.08774">
        <ele>34.29</ele>
        <time>2021-03-20T19:02:17Z</time>
      </trkpt>
      <trkpt lat="56.85055" lon="-5.08886">
        <ele>33.81</ele>
        <time>2021-03-20T19:02:20Z</time>
      </trkpt>
      <trkpt lat="56.85042" lon="-5.08916">
        <ele>33.52</ele>
        <time>2021-03-20T19:02:22Z</time>
      </trkpt>
      <trkpt lat="56.85027" lon="-5.08973">
        <ele>32.98</ele>
        <time>2021-03-20T19:02:25Z</time>
      </trkpt>
      <trkpt lat="56.84942" lon="-5.09058">
        <ele>31.89</ele>
        <time>2021-03-20T19:02:27Z</time>
      </trkpt>
      <trkpt lat="56.84875" lon="-5.0915">
        <ele>29.5</ele>
        <time>2021-03-20T19:02:30Z</time>
      </trkpt>
      <trkpt lat="56.84792" lon="-5.09272">
        <ele>27.04</ele>
        <time>2021-03-20T19:02:32Z</time>
      </trkpt>
      <trkpt lat="56.84721" lon="-5.094">
        <ele>19.94</ele>
        <time>2021-03-20T19:02:35Z</time>
      </trkpt>
      <trkpt lat="56.84685" lon="-5.0948">
        <ele>18</ele>
        <time>2021-03-20T19:02:37Z</time>
      </trkpt>
      <trkpt lat="56.84666" lon="-5.09511">
        <ele>17.59</ele>
        <time>2021-03-20T19:02:40Z</time>
      </trkpt>
      <trkpt lat="56.84655" lon="-5.09525">
        <ele>17.06</ele>
        <time>2021-03-20T19:02:42Z</time>
      </trkpt>
      <trkpt lat="56.8462" lon="-5.09548">
        <ele>15.63</ele>
        <time>2021-03-20T19:02:45Z</time>
      </trkpt>
      <trkpt lat="56.84613" lon="-5.09559">
        <ele>15.23</ele>
        <time>2021-03-20T19:02:47Z</time>
      </trkpt>
      <trkpt lat="56.84608" lon="-5.09575">
        <ele>15.35</ele>
        <time>2021-03-20T19:02:50Z</time>
      </trkpt>
      <trkpt lat="56.84606" lon="-5.09593">
        <ele>15.44</ele>
        <time>2021-03-20T19:02:52Z</time>
      </trkpt>
      <trkpt lat="56.84616" lon="-5.09745">
        <ele>16.99</ele>
        <time>2021-03-20T19:02:55Z</time>
      </trkpt>
      <trkpt lat="56.84614" lon="-5.09774">
        <ele>17.1</ele>
        <time>2021-03-20T19:02:57Z</time>
      </trkpt>
      <trkpt lat="56.84611" lon="-5.09795">
        <ele>16.95</ele>
        <time>2021-03-20T19:03:00Z</time>
      </trkpt>
      <trkpt lat="56.84599" lon="-5.09822">
        <ele>16.15</ele>
        <time>2021-03-20T19:03:02Z</time>
      </trkpt>
      <trkpt lat="56.84593" lon="-5.09829">
        <ele>15.73</ele>
        <time>2021-03-20T19:03:05Z</time>
      </trkpt>
      <trkpt lat="56.84577" lon="-5.09842">
        <ele>15.07</ele>
        <time>2021-03-20T19:03:07Z</time>
      </trkpt>
      <trkpt lat="56.84509" lon="-5.09882">
        <ele>13</ele>
        <time>2021-03-20T19:03:10Z</time>
      </trkpt>
      <trkpt lat="56.84497" lon="-5.09824">
        <ele>11.76</ele>
        <time>2021-03-20T19:03:17Z</time>
      </trkpt>
      <trkpt lat="56.84477" lon="-5.09749">
        <ele>8.27</ele>
        <time>2021-03-20T19:03:24Z</time>
      </trkpt>
      <trkpt lat="56.8441" lon="-5.09554">
        <ele>8.76</ele>
        <time>2021-03-20T19:03:31Z</time>
      </trkpt>
      <trkpt lat="56.84388" lon="-5.09497">
        <ele>8</ele>
        <time>2021-03-20T19:03:38Z</time>
      </trkpt>
      <trkpt lat="56.84368" lon="-5.09431">
        <ele>7</ele>
        <time>2021-03-20T19:03:45Z</time>
      </trkpt>
      <trkpt lat="56.84354" lon="-5.09374">
        <ele>6.75</ele>
        <time>2021-03-20T19:03:52Z</time>
      </trkpt>
      <trkpt lat="56.84334" lon="-5.09267">
        <ele>8</ele>
        <time>2021-03-20T19:03:59Z</time>
      </trkpt>
      <trkpt lat="56.843" lon="-5.09043">
        <ele>8</ele>
        <time>2021-03-20T19:04:06Z</time>
      </trkpt>
      <trkpt lat="56.8427" lon="-5.08933">
        <ele>8.71</ele>
        <time>2021-03-20T19:04:13Z</time>
      </trkpt>
      <trkpt lat="56.84221" lon="-5.08808">
        <ele>8.85</ele>
        <time>2021-03-20T19:04:20Z</time>
      </trkpt>
      <trkpt lat="56.84149" lon="-5.08679">
        <ele>8.43</ele>
        <time>2021-03-20T19:04:27Z</time>
      </trkpt>
      <trkpt lat="56.84149" lon="-5.08679">
        <ele>8.43</ele>
        <time>2021-03-20T19:04:27Z</time>
      </trkpt>
      <trkpt lat="56.84142" lon="-5.08667">
        <ele>8</ele>
        <time>2021-03-20T19:04:31Z</time>
      </trkpt>
      <trkpt lat="56.84092" lon="-5.08579">
        <ele>7.43</ele>
        <time>2021-03-20T19:04:35Z</time>
      </trkpt>
      <trkpt lat="56.84065" lon="-5.08519">
        <ele>8</ele>
        <time>2021-03-20T19:04:39Z</time>
      </trkpt>
      <trkpt lat="56.84056" lon="-5.08491">
        <ele>8</ele>
        <time>2021-03-20T19:04:43Z</time>
      </trkpt>
      <trkpt lat="56.84054" lon="-5.08476">
        <ele>8</ele>
        <time>2021-03-20T19:04:47Z</time>
      </trkpt>
      <trkpt lat="56.84058" lon="-5.08467">
        <ele>8</ele>
        <time>2021-03-20T19:04:54Z</time>
      </trkpt>
      <trkpt lat="56.84061" lon="-5.08456">
        <ele>8</ele>
        <time>2021-03-20T19:05:00Z</time>
      </trkpt>
      <trkpt lat="56.84061" lon="-5.08444">
        <ele>8</ele>
        <time>2021-03-20T19:05:07Z</time>
      </trkpt>
      <trkpt lat="56.84057" lon="-5.08423">
        <ele>8</ele>
        <time>2021-03-20T19:05:14Z</time>
      </trkpt>
      <trkpt lat="56.84048" lon="-5.08411">
        <ele>8</ele>
        <time>2021-03-20T19:05:21Z</time>
      </trkpt>
      <trkpt lat="56.84042" lon="-5.08409">
        <ele>8</ele>
        <time>2021-03-20T19:05:28Z</time>
      </trkpt>
      <trkpt lat="56.84032" lon="-5.08412">
        <ele>8</ele>
        <time>2021-03-20T19:05:35Z</time>
      </trkpt>
      <trkpt lat="56.84028" lon="-5.08416">
        <ele>8</ele>
        <time>2021-03-20T19:05:42Z</time>
      </trkpt>
      <trkpt lat="56.84002" lon="-5.08407">
        <ele>8</ele>
        <time>2021-03-20T19:05:49Z</time>
      </trkpt>
      <trkpt lat="56.83977" lon="-5.08381">
        <ele>8</ele>
        <time>2021-03-20T19:05:56Z</time>
      </trkpt>
      <trkpt lat="56.83847" lon="-5.08187">
        <ele>6.77</ele>
        <time>2021-03-20T19:06:03Z</time>
      </trkpt>
      <trkpt lat="56.8364" lon="-5.07855">
        <ele>7.28</ele>
        <time>2021-03-20T19:06:10Z</time>
      </trkpt>
      <trkpt lat="56.83549" lon="-5.07715">
        <ele>5.53</ele>
        <time>2021-03-20T19:06:17Z</time>
      </trkpt>
      <trkpt lat="56.83482" lon="-5.07604">
        <ele>5.65</ele>
        <time>2021-03-20T19:06:24Z</time>
      </trkpt>
      <trkpt lat="56.8347" lon="-5.07576">
        <ele>6.44</ele>
        <time>2021-03-20T19:06:31Z</time>
      </trkpt>
      <trkpt lat="56.83476" lon="-5.07565">
        <ele>6.51</ele>
        <time>2021-03-20T19:06:36Z</time>
      </trkpt>
      <trkpt lat="56.83476" lon="-5.0755">
        <ele>6.85</ele>
        <time>2021-03-20T19:06:41Z</time>
      </trkpt>
      <trkpt lat="56.83474" lon="-5.07542">
        <ele>6.95</ele>
        <time>2021-03-20T19:06:45Z</time>
      </trkpt>
      <trkpt lat="56.8347" lon="-5.07538">
        <ele>7.19</ele>
        <time>2021-03-20T19:06:50Z</time>
      </trkpt>
      <trkpt lat="56.83465" lon="-5.07537">
        <ele>7.54</ele>
        <time>2021-03-20T19:06:55Z</time>
      </trkpt>
      <trkpt lat="56.8346" lon="-5.0754">
        <ele>7.87</ele>
        <time>2021-03-20T19:07:00Z</time>
      </trkpt>
      <trkpt lat="56.83457" lon="-5.07546">
        <ele>8.12</ele>
        <time>2021-03-20T19:07:05Z</time>
      </trkpt>
      <trkpt lat="56.83455" lon="-5.07555">
        <ele>8.23</ele>
        <time>2021-03-20T19:07:10Z</time>
      </trkpt>
      <trkpt lat="56.83456" lon="-5.07563">
        <ele>7.92</ele>
        <time>2021-03-20T19:07:15Z</time>
      </trkpt>
      <trkpt lat="56.83422" lon="-5.07595">
        <ele>7.92</ele>
        <time>2021-03-20T19:07:20Z</time>
      </trkpt>
      <trkpt lat="56.83274" lon="-5.07661">
        <ele>10</ele>
        <time>2021-03-20T19:07:25Z</time>
      </trkpt>
      <trkpt lat="56.83231" lon="-5.07691">
        <ele>9.11</ele>
        <time>2021-03-20T19:07:30Z</time>
      </trkpt>
      <trkpt lat="56.83198" lon="-5.07729">
        <ele>7.76</ele>
        <time>2021-03-20T19:07:35Z</time>
      </trkpt>
      <trkpt lat="56.83163" lon="-5.07784">
        <ele>7.76</ele>
        <time>2021-03-20T19:07:40Z</time>
      </trkpt>
      <trkpt lat="56.83023" lon="-5.08005">
        <ele>8.18</ele>
        <time>2021-03-20T19:07:45Z</time>
      </trkpt>
      <trkpt lat="56.82945" lon="-5.08147">
        <ele>12</ele>
        <time>2021-03-20T19:07:50Z</time>
      </trkpt>
      <trkpt lat="56.82936" lon="-5.08139">
        <ele>12</ele>
        <time>2021-03-20T19:07:55Z</time>
      </trkpt>
      <trkpt lat="56.82931" lon="-5.08139">
        <ele>12</ele>
        <time>2021-03-20T19:08:01Z</time>
      </trkpt>
      <trkpt lat="56.82926" lon="-5.08143">
        <ele>12</ele>
        <time>2021-03-20T19:08:06Z</time>
      </trkpt>
      <trkpt lat="56.82919" lon="-5.08154">
        <ele>12</ele>
        <time>2021-03-20T19:08:12Z</time>
      </trkpt>
      <trkpt lat="56.82917" lon="-5.08164">
        <ele>12</ele>
        <time>2021-03-20T19:08:17Z</time>
      </trkpt>
      <trkpt lat="56.82918" lon="-5.08183">
        <ele>12.6</ele>
        <time>2021-03-20T19:08:23Z</time>
      </trkpt>
      <trkpt lat="56.82925" lon="-5.08199">
        <ele>13</ele>
        <time>2021-03-20T19:08:28Z</time>
      </trkpt>
      <trkpt lat="56.82781" lon="-5.08456">
        <ele>14.58</ele>
        <time>2021-03-20T19:08:33Z</time>
      </trkpt>
      <trkpt lat="56.82723" lon="-5.08538">
        <ele>13</ele>
        <time>2021-03-20T19:08:39Z</time>
      </trkpt>
      <trkpt lat="56.82521" lon="-5.08722">
        <ele>16.25</ele>
        <time>2021-03-20T19:08:44Z</time>
      </trkpt>
      <trkpt lat="56.82498" lon="-5.0875">
        <ele>15.09</ele>
        <time>2021-03-20T19:08:50Z</time>
      </trkpt>
      <trkpt lat="56.82487" lon="-5.0872">
        <ele>17.09</ele>
        <time>2021-03-20T19:08:54Z</time>
      </trkpt>
      <trkpt lat="56.82482" lon="-5.08716">
        <ele>17.21</ele>
        <time>2021-03-20T19:08:58Z</time>
      </trkpt>
      <trkpt lat="56.82476" lon="-5.08718">
        <ele>17.15</ele>
        <time>2021-03-20T19:09:01Z</time>
      </trkpt>
      <trkpt lat="56.82395" lon="-5.08809">
        <ele>14</ele>
        <time>2021-03-20T19:09:05Z</time>
      </trkpt>
      <trkpt lat="56.82386" lon="-5.08821">
        <ele>14.25</ele>
        <time>2021-03-20T19:09:09Z</time>
      </trkpt>
      <trkpt lat="56.82372" lon="-5.08847">
        <ele>15.25</ele>
        <time>2021-03-20T19:09:13Z</time>
      </trkpt>
      <trkpt lat="56.82366" lon="-5.08862">
        <ele>15.62</ele>
        <time>2021-03-20T19:09:17Z</time>
      </trkpt>
      <trkpt lat="56.82348" lon="-5.08942">
        <ele>16.92</ele>
        <time>2021-03-20T19:09:21Z</time>
      </trkpt>
      <trkpt lat="56.82315" lon="-5.09053">
        <ele>15.98</ele>
        <time>2021-03-20T19:09:25Z</time>
      </trkpt>
      <trkpt lat="56.82305" lon="-5.09064">
        <ele>16.79</ele>
        <time>2021-03-20T19:09:29Z</time>
      </trkpt>
      <trkpt lat="56.82307" lon="-5.09093">
        <ele>15.83</ele>
        <time>2021-03-20T19:09:30Z</time>
      </trkpt>
      <trkpt lat="56.8231" lon="-5.09105">
        <ele>15.58</ele>
        <time>2021-03-20T19:09:32Z</time>
      </trkpt>
      <trkpt lat="56.82314" lon="-5.09113">
        <ele>15.06</ele>
        <time>2021-03-20T19:09:33Z</time>
      </trkpt>
      <trkpt lat="56.82325" lon="-5.09127">
        <ele>13.36</ele>
        <time>2021-03-20T19:09:34Z</time>
      </trkpt>
      <trkpt lat="56.82308" lon="-5.09169">
        <ele>14.65</ele>
        <time>2021-03-20T19:09:37Z</time>
      </trkpt>
      <trkpt lat="56.82289" lon="-5.09209">
        <ele>15.23</ele>
        <time>2021-03-20T19:09:40Z</time>
      </trkpt>
      <trkpt lat="56.82289" lon="-5.09219">
        <ele>14.95</ele>
        <time>2021-03-20T19:09:43Z</time>
      </trkpt>
      <trkpt lat="56.82284" lon="-5.09217">
        <ele>15.49</ele>
        <time>2021-03-20T19:09:47Z</time>
      </trkpt>
      <trkpt lat="56.82278" lon="-5.09221">
        <ele>16.01</ele>
        <time>2021-03-20T19:09:51Z</time>
      </trkpt>
      <trkpt lat="56.82274" lon="-5.09235">
        <ele>14.89</ele>
        <time>2021-03-20T19:09:55Z</time>
      </trkpt>
      <trkpt lat="56.82253" lon="-5.09264">
        <ele>12.61</ele>
        <time>2021-03-20T19:09:59Z</time>
      </trkpt>
      <trkpt lat="56.82151" lon="-5.09422">
        <ele>9.68</ele>
        <time>2021-03-20T19:10:04Z</time>
      </trkpt>
      <trkpt lat="56.82142" lon="-5.09432">
        <ele>10.68</ele>
        <time>2021-03-20T19:10:08Z</time>
      </trkpt>
      <trkpt lat="56.82144" lon="-5.09452">
        <ele>10.77</ele>
        <time>2021-03-20T19:10:13Z</time>
      </trkpt>
      <trkpt lat="56.82165" lon="-5.09574">
        <ele>11.06</ele>
        <time>2021-03-20T19:10:19Z</time>
      </trkpt>
      <trkpt lat="56.82178" lon="-5.09667">
        <ele>10.99</ele>
        <time>2021-03-20T19:10:24Z</time>
      </trkpt>
      <trkpt lat="56.82179" lon="-5.09696">
        <ele>10</ele>
        <time>2021-03-20T19:10:30Z</time>
      </trkpt>
      <trkpt lat="56.82177" lon="-5.09727">
        <ele>9.83</ele>
        <time>2021-03-20T19:10:35Z</time>
      </trkpt>
      <trkpt lat="56.82119" lon="-5.09948">
        <ele>9.54</ele>
        <time>2021-03-20T19:10:41Z</time>
      </trkpt>
      <trkpt lat="56.82045" lon="-5.10203">
        <ele>14.06</ele>
        <time>2021-03-20T19:10:47Z</time>
      </trkpt>
      <trkpt lat="56.82006" lon="-5.10351">
        <ele>12.24</ele>
        <time>2021-03-20T19:10:52Z</time>
      </trkpt>
      <trkpt lat="56.81989" lon="-5.10424">
        <ele>11.06</ele>
        <time>2021-03-20T19:10:58Z</time>
      </trkpt>
      <trkpt lat="56.81983" lon="-5.1044">
        <ele>11.3</ele>
        <time>2021-03-20T19:11:03Z</time>
      </trkpt>
      <trkpt lat="56.81977" lon="-5.10472">
        <ele>10.64</ele>
        <time>2021-03-20T19:11:09Z</time>
      </trkpt>
      <trkpt lat="56.81975" lon="-5.10501">
        <ele>9.87</ele>
        <time>2021-03-20T19:11:14Z</time>
      </trkpt>
      <trkpt lat="56.81975" lon="-5.10539">
        <ele>8.55</ele>
        <time>2021-03-20T19:11:20Z</time>
      </trkpt>
      <trkpt lat="56.81977" lon="-5.10567">
        <ele>7.59</ele>
        <time>2021-03-20T19:11:25Z</time>
      </trkpt>
      <trkpt lat="56.81981" lon="-5.10594">
        <ele>7</ele>
        <time>2021-03-20T19:11:31Z</time>
      </trkpt>
      <trkpt lat="56.81987" lon="-5.1062">
        <ele>6.99</ele>
        <time>2021-03-20T19:11:36Z</time>
      </trkpt>
      <trkpt lat="56.81997" lon="-5.1065">
        <ele>6.22</ele>
        <time>2021-03-20T19:11:42Z</time>
      </trkpt>
      <trkpt lat="56.82031" lon="-5.10724">
        <ele>4.89</ele>
        <time>2021-03-20T19:11:47Z</time>
      </trkpt>
      <trkpt lat="56.82043" lon="-5.10757">
        <ele>5</ele>
        <time>2021-03-20T19:11:53Z</time>
      </trkpt>
      <trkpt lat="56.8204" lon="-5.10774">
        <ele>5</ele>
        <time>2021-03-20T19:11:55Z</time>
      </trkpt>
      <trkpt lat="56.82042" lon="-5.10792">
        <ele>4</ele>
        <time>2021-03-20T19:11:57Z</time>
      </trkpt>
      <trkpt lat="56.82041" lon="-5.10813">
        <ele>3.45</ele>
        <time>2021-03-20T19:11:59Z</time>
      </trkpt>
      <trkpt lat="56.82034" lon="-5.10857">
        <ele>4.69</ele>
        <time>2021-03-20T19:12:01Z</time>
      </trkpt>
      <trkpt lat="56.82014" lon="-5.10902">
        <ele>4.3</ele>
        <time>2021-03-20T19:12:02Z</time>
      </trkpt>
      <trkpt lat="56.82014" lon="-5.10902">
        <ele>4.3</ele>
        <time>2021-03-20T19:12:02Z</time>
      </trkpt>
      <trkpt lat="56.81992" lon="-5.10946">
        <ele>4.23</ele>
        <time>2021-03-20T19:12:10Z</time>
      </trkpt>
      <trkpt lat="56.81874" lon="-5.11141">
        <ele>2.94</ele>
        <time>2021-03-20T19:12:17Z</time>
      </trkpt>
      <trkpt lat="56.81846" lon="-5.11185">
        <ele>3.2</ele>
        <time>2021-03-20T19:12:24Z</time>
      </trkpt>
      <trkpt lat="56.81818" lon="-5.1122">
        <ele>4.17</ele>
        <time>2021-03-20T19:12:31Z</time>
      </trkpt>
      <trkpt lat="56.81768" lon="-5.11274">
        <ele>3.88</ele>
        <time>2021-03-20T19:12:38Z</time>
      </trkpt>
      <trkpt lat="56.81744" lon="-5.11304">
        <ele>4.5</ele>
        <time>2021-03-20T19:12:45Z</time>
      </trkpt>
      <trkpt lat="56.81614" lon="-5.11545">
        <ele>4.16</ele>
        <time>2021-03-20T19:12:52Z</time>
      </trkpt>
      <trkpt lat="56.81555" lon="-5.11629">
        <ele>5.36</ele>
        <time>2021-03-20T19:12:59Z</time>
      </trkpt>
      <trkpt lat="56.81538" lon="-5.11626">
        <ele>5.75</ele>
        <time>2021-03-20T19:13:07Z</time>
      </trkpt>
      <trkpt lat="56.81532" lon="-5.11618">
        <ele>6.37</ele>
        <time>2021-03-20T19:13:12Z</time>
      </trkpt>
      <trkpt lat="56.81524" lon="-5.11616">
        <ele>7.06</ele>
        <time>2021-03-20T19:13:17Z</time>
      </trkpt>
      <trkpt lat="56.81518" lon="-5.11618">
        <ele>7.54</ele>
        <time>2021-03-20T19:13:22Z</time>
      </trkpt>
      <trkpt lat="56.81512" lon="-5.11625">
        <ele>7.68</ele>
        <time>2021-03-20T19:13:27Z</time>
      </trkpt>
      <trkpt lat="56.81507" lon="-5.1164">
        <ele>7.18</ele>
        <time>2021-03-20T19:13:33Z</time>
      </trkpt>
      <trkpt lat="56.81506" lon="-5.11652">
        <ele>6.85</ele>
        <time>2021-03-20T19:13:38Z</time>
      </trkpt>
      <trkpt lat="56.81509" lon="-5.11666">
        <ele>6.09</ele>
        <time>2021-03-20T19:13:43Z</time>
      </trkpt>
      <trkpt lat="56.81424" lon="-5.1177">
        <ele>6.99</ele>
        <time>2021-03-20T19:13:48Z</time>
      </trkpt>
      <trkpt lat="56.81391" lon="-5.11826">
        <ele>6.09</ele>
        <time>2021-03-20T19:13:53Z</time>
      </trkpt>
      <trkpt lat="56.81315" lon="-5.11944">
        <ele>7.96</ele>
        <time>2021-03-20T19:13:59Z</time>
      </trkpt>
      <trkpt lat="56.81082" lon="-5.12321">
        <ele>8.53</ele>
        <time>2021-03-20T19:14:04Z</time>
      </trkpt>
      <trkpt lat="56.80945" lon="-5.12514">
        <ele>4.49</ele>
        <time>2021-03-20T19:14:09Z</time>
      </trkpt>
      <trkpt lat="56.80918" lon="-5.12546">
        <ele>5.23</ele>
        <time>2021-03-20T19:14:14Z</time>
      </trkpt>
      <trkpt lat="56.80855" lon="-5.12612">
        <ele>6.41</ele>
        <time>2021-03-20T19:14:20Z</time>
      </trkpt>
      <trkpt lat="56.80842" lon="-5.12631">
        <ele>5.99</ele>
        <time>2021-03-20T19:14:25Z</time>
      </trkpt>
      <trkpt lat="56.80834" lon="-5.12645">
        <ele>5.49</ele>
        <time>2021-03-20T19:14:30Z</time>
      </trkpt>
      <trkpt lat="56.80803" lon="-5.12714">
        <ele>3.74</ele>
        <time>2021-03-20T19:14:35Z</time>
      </trkpt>
      <trkpt lat="56.80786" lon="-5.12747">
        <ele>4.35</ele>
        <time>2021-03-20T19:14:40Z</time>
      </trkpt>
      <trkpt lat="56.80764" lon="-5.12775">
        <ele>5.17</ele>
        <time>2021-03-20T19:14:46Z</time>
      </trkpt>
      <trkpt lat="56.80679" lon="-5.12867">
        <ele>8.51</ele>
        <time>2021-03-20T19:14:51Z</time>
      </trkpt>
      <trkpt lat="56.80658" lon="-5.12894">
        <ele>8</ele>
        <time>2021-03-20T19:14:56Z</time>
      </trkpt>
      <trkpt lat="56.8059" lon="-5.1301">
        <ele>5.86</ele>
        <time>2021-03-20T19:15:01Z</time>
      </trkpt>
      <trkpt lat="56.80575" lon="-5.13032">
        <ele>6.11</ele>
        <time>2021-03-20T19:15:06Z</time>
      </trkpt>
      <trkpt lat="56.80476" lon="-5.13142">
        <ele>8.2</ele>
        <time>2021-03-20T19:15:12Z</time>
      </trkpt>
      <trkpt lat="56.80442" lon="-5.13184">
        <ele>7.72</ele>
        <time>2021-03-20T19:15:17Z</time>
      </trkpt>
      <trkpt lat="56.80359" lon="-5.13298">
        <ele>7.43</ele>
        <time>2021-03-20T19:15:22Z</time>
      </trkpt>
      <trkpt lat="56.80194" lon="-5.13473">
        <ele>10</ele>
        <time>2021-03-20T19:15:27Z</time>
      </trkpt>
      <trkpt lat="56.80006" lon="-5.13652">
        <ele>7.34</ele>
        <time>2021-03-20T19:15:33Z</time>
      </trkpt>
      <trkpt lat="56.79736" lon="-5.13903">
        <ele>8.02</ele>
        <time>2021-03-20T19:15:38Z</time>
      </trkpt>
      <trkpt lat="56.79573" lon="-5.14103">
        <ele>5.81</ele>
        <time>2021-03-20T19:15:43Z</time>
      </trkpt>
      <trkpt lat="56.79493" lon="-5.14177">
        <ele>5.68</ele>
        <time>2021-03-20T19:15:48Z</time>
      </trkpt>
      <trkpt lat="56.79371" lon="-5.14371">
        <ele>4.3</ele>
        <time>2021-03-20T19:15:53Z</time>
      </trkpt>
      <trkpt lat="56.79233" lon="-5.14598">
        <ele>7.14</ele>
        <time>2021-03-20T19:15:59Z</time>
      </trkpt>
      <trkpt lat="56.79201" lon="-5.14645">
        <ele>7.14</ele>
        <time>2021-03-20T19:16:04Z</time>
      </trkpt>
      <trkpt lat="56.79117" lon="-5.14758">
        <ele>4.81</ele>
        <time>2021-03-20T19:16:09Z</time>
      </trkpt>
      <trkpt lat="56.79031" lon="-5.149">
        <ele>5.93</ele>
        <time>2021-03-20T19:16:14Z</time>
      </trkpt>
      <trkpt lat="56.78977" lon="-5.14971">
        <ele>6.4</ele>
        <time>2021-03-20T19:16:19Z</time>
      </trkpt>
      <trkpt lat="56.78891" lon="-5.15072">
        <ele>6.03</ele>
        <time>2021-03-20T19:16:25Z</time>
      </trkpt>
      <trkpt lat="56.78722" lon="-5.15306">
        <ele>10.15</ele>
        <time>2021-03-20T19:16:30Z</time>
      </trkpt>
      <trkpt lat="56.78686" lon="-5.15349">
        <ele>11.74</ele>
        <time>2021-03-20T19:16:35Z</time>
      </trkpt>
      <trkpt lat="56.78474" lon="-5.15665">
        <ele>14.76</ele>
        <time>2021-03-20T19:16:40Z</time>
      </trkpt>
      <trkpt lat="56.78435" lon="-5.15737">
        <ele>14.01</ele>
        <time>2021-03-20T19:16:46Z</time>
      </trkpt>
      <trkpt lat="56.78408" lon="-5.15782">
        <ele>13.88</ele>
        <time>2021-03-20T19:16:51Z</time>
      </trkpt>
      <trkpt lat="56.78358" lon="-5.15848">
        <ele>14.96</ele>
        <time>2021-03-20T19:16:56Z</time>
      </trkpt>
      <trkpt lat="56.78317" lon="-5.15909">
        <ele>15</ele>
        <time>2021-03-20T19:17:01Z</time>
      </trkpt>
      <trkpt lat="56.78287" lon="-5.15961">
        <ele>15.28</ele>
        <time>2021-03-20T19:17:06Z</time>
      </trkpt>
      <trkpt lat="56.7827" lon="-5.15993">
        <ele>15.48</ele>
        <time>2021-03-20T19:17:12Z</time>
      </trkpt>
      <trkpt lat="56.78257" lon="-5.16033">
        <ele>14.2</ele>
        <time>2021-03-20T19:17:17Z</time>
      </trkpt>
      <trkpt lat="56.78236" lon="-5.16119">
        <ele>13.71</ele>
        <time>2021-03-20T19:17:22Z</time>
      </trkpt>
      <trkpt lat="56.78225" lon="-5.16154">
        <ele>12.78</ele>
        <time>2021-03-20T19:17:27Z</time>
      </trkpt>
      <trkpt lat="56.78209" lon="-5.16185">
        <ele>12.54</ele>
        <time>2021-03-20T19:17:32Z</time>
      </trkpt>
      <trkpt lat="56.78174" lon="-5.16236">
        <ele>14.28</ele>
        <time>2021-03-20T19:17:38Z</time>
      </trkpt>
      <trkpt lat="56.78154" lon="-5.16253">
        <ele>14.14</ele>
        <time>2021-03-20T19:17:43Z</time>
      </trkpt>
      <trkpt lat="56.78095" lon="-5.16272">
        <ele>16.45</ele>
        <time>2021-03-20T19:17:48Z</time>
      </trkpt>
      <trkpt lat="56.78064" lon="-5.16287">
        <ele>16.25</ele>
        <time>2021-03-20T19:17:53Z</time>
      </trkpt>
      <trkpt lat="56.77704" lon="-5.16515">
        <ele>17.24</ele>
        <time>2021-03-20T19:17:59Z</time>
      </trkpt>
      <trkpt lat="56.77671" lon="-5.16542">
        <ele>17.66</ele>
        <time>2021-03-20T19:18:04Z</time>
      </trkpt>
      <trkpt lat="56.77652" lon="-5.16563">
        <ele>18.04</ele>
        <time>2021-03-20T19:18:09Z</time>
      </trkpt>
      <trkpt lat="56.77615" lon="-5.16599">
        <ele>15.59</ele>
        <time>2021-03-20T19:18:14Z</time>
      </trkpt>
      <trkpt lat="56.77573" lon="-5.16615">
        <ele>14.55</ele>
        <time>2021-03-20T19:18:19Z</time>
      </trkpt>
      <trkpt lat="56.77515" lon="-5.16625">
        <ele>12.91</ele>
        <time>2021-03-20T19:18:25Z</time>
      </trkpt>
      <trkpt lat="56.7744" lon="-5.16625">
        <ele>12.95</ele>
        <time>2021-03-20T19:18:30Z</time>
      </trkpt>
      <trkpt lat="56.77379" lon="-5.16628">
        <ele>9.48</ele>
        <time>2021-03-20T19:18:35Z</time>
      </trkpt>
      <trkpt lat="56.77327" lon="-5.16648">
        <ele>4.93</ele>
        <time>2021-03-20T19:18:40Z</time>
      </trkpt>
      <trkpt lat="56.77261" lon="-5.16697">
        <ele>2.95</ele>
        <time>2021-03-20T19:18:45Z</time>
      </trkpt>
      <trkpt lat="56.77237" lon="-5.16725">
        <ele>2.36</ele>
        <time>2021-03-20T19:18:51Z</time>
      </trkpt>
      <trkpt lat="56.77124" lon="-5.16886">
        <ele>4.24</ele>
        <time>2021-03-20T19:18:56Z</time>
      </trkpt>
      <trkpt lat="56.77021" lon="-5.17029">
        <ele>7.46</ele>
        <time>2021-03-20T19:19:01Z</time>
      </trkpt>
      <trkpt lat="56.77009" lon="-5.17061">
        <ele>7.89</ele>
        <time>2021-03-20T19:19:06Z</time>
      </trkpt>
      <trkpt lat="56.76988" lon="-5.17158">
        <ele>10.28</ele>
        <time>2021-03-20T19:19:11Z</time>
      </trkpt>
      <trkpt lat="56.76975" lon="-5.17204">
        <ele>10.61</ele>
        <time>2021-03-20T19:19:17Z</time>
      </trkpt>
      <trkpt lat="56.76957" lon="-5.17245">
        <ele>11.77</ele>
        <time>2021-03-20T19:19:22Z</time>
      </trkpt>
      <trkpt lat="56.768" lon="-5.17455">
        <ele>15.79</ele>
        <time>2021-03-20T19:19:27Z</time>
      </trkpt>
      <trkpt lat="56.76743" lon="-5.17536">
        <ele>14</ele>
        <time>2021-03-20T19:19:32Z</time>
      </trkpt>
      <trkpt lat="56.76626" lon="-5.17658">
        <ele>13.08</ele>
        <time>2021-03-20T19:19:38Z</time>
      </trkpt>
      <trkpt lat="56.76596" lon="-5.17682">
        <ele>13.26</ele>
        <time>2021-03-20T19:19:43Z</time>
      </trkpt>
      <trkpt lat="56.76472" lon="-5.17763">
        <ele>18.76</ele>
        <time>2021-03-20T19:19:48Z</time>
      </trkpt>
      <trkpt lat="56.76451" lon="-5.17786">
        <ele>18.93</ele>
        <time>2021-03-20T19:19:53Z</time>
      </trkpt>
      <trkpt lat="56.7642" lon="-5.17834">
        <ele>16.25</ele>
        <time>2021-03-20T19:19:58Z</time>
      </trkpt>
      <trkpt lat="56.76368" lon="-5.1789">
        <ele>14.72</ele>
        <time>2021-03-20T19:20:04Z</time>
      </trkpt>
      <trkpt lat="56.76284" lon="-5.18011">
        <ele>13.7</ele>
        <time>2021-03-20T19:20:09Z</time>
      </trkpt>
      <trkpt lat="56.76223" lon="-5.18062">
        <ele>14.71</ele>
        <time>2021-03-20T19:20:14Z</time>
      </trkpt>
      <trkpt lat="56.76175" lon="-5.18119">
        <ele>14.14</ele>
        <time>2021-03-20T19:20:19Z</time>
      </trkpt>
      <trkpt lat="56.76113" lon="-5.18168">
        <ele>17.24</ele>
        <time>2021-03-20T19:20:24Z</time>
      </trkpt>
      <trkpt lat="56.76086" lon="-5.18203">
        <ele>15.65</ele>
        <time>2021-03-20T19:20:30Z</time>
      </trkpt>
      <trkpt lat="56.75907" lon="-5.18549">
        <ele>16.86</ele>
        <time>2021-03-20T19:20:35Z</time>
      </trkpt>
      <trkpt lat="56.75809" lon="-5.18687">
        <ele>16.83</ele>
        <time>2021-03-20T19:20:40Z</time>
      </trkpt>
      <trkpt lat="56.75693" lon="-5.1889">
        <ele>15.1</ele>
        <time>2021-03-20T19:20:45Z</time>
      </trkpt>
      <trkpt lat="56.75677" lon="-5.18908">
        <ele>14.77</ele>
        <time>2021-03-20T19:20:51Z</time>
      </trkpt>
      <trkpt lat="56.75592" lon="-5.18981">
        <ele>14.92</ele>
        <time>2021-03-20T19:20:56Z</time>
      </trkpt>
      <trkpt lat="56.75566" lon="-5.18996">
        <ele>14.75</ele>
        <time>2021-03-20T19:21:01Z</time>
      </trkpt>
      <trkpt lat="56.75499" lon="-5.19013">
        <ele>16.91</ele>
        <time>2021-03-20T19:21:06Z</time>
      </trkpt>
      <trkpt lat="56.75466" lon="-5.1903">
        <ele>17.11</ele>
        <time>2021-03-20T19:21:11Z</time>
      </trkpt>
      <trkpt lat="56.75359" lon="-5.19115">
        <ele>19.78</ele>
        <time>2021-03-20T19:21:17Z</time>
      </trkpt>
      <trkpt lat="56.75278" lon="-5.19207">
        <ele>13.25</ele>
        <time>2021-03-20T19:21:22Z</time>
      </trkpt>
      <trkpt lat="56.75195" lon="-5.19268">
        <ele>16.99</ele>
        <time>2021-03-20T19:21:27Z</time>
      </trkpt>
      <trkpt lat="56.75158" lon="-5.19304">
        <ele>18.72</ele>
        <time>2021-03-20T19:21:32Z</time>
      </trkpt>
      <trkpt lat="56.75134" lon="-5.19335">
        <ele>18.88</ele>
        <time>2021-03-20T19:21:37Z</time>
      </trkpt>
      <trkpt lat="56.75109" lon="-5.19372">
        <ele>18.89</ele>
        <time>2021-03-20T19:21:43Z</time>
      </trkpt>
      <trkpt lat="56.75084" lon="-5.19414">
        <ele>18.28</ele>
        <time>2021-03-20T19:21:48Z</time>
      </trkpt>
      <trkpt lat="56.75065" lon="-5.19454">
        <ele>16.37</ele>
        <time>2021-03-20T19:21:53Z</time>
      </trkpt>
      <trkpt lat="56.7502" lon="-5.19587">
        <ele>14.08</ele>
        <time>2021-03-20T19:21:58Z</time>
      </trkpt>
      <trkpt lat="56.75005" lon="-5.19628">
        <ele>13.98</ele>
        <time>2021-03-20T19:22:04Z</time>
      </trkpt>
      <trkpt lat="56.7497" lon="-5.19699">
        <ele>14.65</ele>
        <time>2021-03-20T19:22:09Z</time>
      </trkpt>
      <trkpt lat="56.74945" lon="-5.19747">
        <ele>13.24</ele>
        <time>2021-03-20T19:22:14Z</time>
      </trkpt>
      <trkpt lat="56.74927" lon="-5.1977">
        <ele>14.03</ele>
        <time>2021-03-20T19:22:19Z</time>
      </trkpt>
      <trkpt lat="56.74902" lon="-5.19784">
        <ele>15.01</ele>
        <time>2021-03-20T19:22:24Z</time>
      </trkpt>
      <trkpt lat="56.74848" lon="-5.19797">
        <ele>15.67</ele>
        <time>2021-03-20T19:22:30Z</time>
      </trkpt>
      <trkpt lat="56.74804" lon="-5.1982">
        <ele>14.43</ele>
        <time>2021-03-20T19:22:35Z</time>
      </trkpt>
      <trkpt lat="56.74794" lon="-5.1983">
        <ele>13.05</ele>
        <time>2021-03-20T19:22:40Z</time>
      </trkpt>
      <trkpt lat="56.74756" lon="-5.19854">
        <ele>11.65</ele>
        <time>2021-03-20T19:22:45Z</time>
      </trkpt>
      <trkpt lat="56.74737" lon="-5.19873">
        <ele>11.34</ele>
        <time>2021-03-20T19:22:50Z</time>
      </trkpt>
      <trkpt lat="56.74718" lon="-5.19897">
        <ele>11.98</ele>
        <time>2021-03-20T19:22:56Z</time>
      </trkpt>
      <trkpt lat="56.74699" lon="-5.19937">
        <ele>11.9</ele>
        <time>2021-03-20T19:23:01Z</time>
      </trkpt>
      <trkpt lat="56.74683" lon="-5.1999">
        <ele>11.48</ele>
        <time>2021-03-20T19:23:06Z</time>
      </trkpt>
      <trkpt lat="56.74669" lon="-5.20053">
        <ele>11.52</ele>
        <time>2021-03-20T19:23:11Z</time>
      </trkpt>
      <trkpt lat="56.74652" lon="-5.20107">
        <ele>14.68</ele>
        <time>2021-03-20T19:23:17Z</time>
      </trkpt>
      <trkpt lat="56.74616" lon="-5.20183">
        <ele>15.94</ele>
        <time>2021-03-20T19:23:22Z</time>
      </trkpt>
      <trkpt lat="56.74597" lon="-5.20221">
        <ele>15.73</ele>
        <time>2021-03-20T19:23:27Z</time>
      </trkpt>
      <trkpt lat="56.74568" lon="-5.20255">
        <ele>16.14</ele>
        <time>2021-03-20T19:23:32Z</time>
      </trkpt>
      <trkpt lat="56.74481" lon="-5.20309">
        <ele>14.36</ele>
        <time>2021-03-20T19:23:37Z</time>
      </trkpt>
      <trkpt lat="56.74447" lon="-5.20335">
        <ele>14.54</ele>
        <time>2021-03-20T19:23:43Z</time>
      </trkpt>
      <trkpt lat="56.74423" lon="-5.20365">
        <ele>16.61</ele>
        <time>2021-03-20T19:23:48Z</time>
      </trkpt>
      <trkpt lat="56.74342" lon="-5.20492">
        <ele>17.52</ele>
        <time>2021-03-20T19:23:53Z</time>
      </trkpt>
      <trkpt lat="56.7432" lon="-5.20517">
        <ele>16.24</ele>
        <time>2021-03-20T19:23:58Z</time>
      </trkpt>
      <trkpt lat="56.74296" lon="-5.20537">
        <ele>17.19</ele>
        <time>2021-03-20T19:24:03Z</time>
      </trkpt>
      <trkpt lat="56.74089" lon="-5.20658">
        <ele>20.95</ele>
        <time>2021-03-20T19:24:09Z</time>
      </trkpt>
      <trkpt lat="56.7405" lon="-5.20694">
        <ele>26.75</ele>
        <time>2021-03-20T19:24:14Z</time>
      </trkpt>
      <trkpt lat="56.74002" lon="-5.20766">
        <ele>26.33</ele>
        <time>2021-03-20T19:24:19Z</time>
      </trkpt>
      <trkpt lat="56.73964" lon="-5.20849">
        <ele>18.73</ele>
        <time>2021-03-20T19:24:24Z</time>
      </trkpt>
      <trkpt lat="56.73935" lon="-5.20904">
        <ele>15.5</ele>
        <time>2021-03-20T19:24:29Z</time>
      </trkpt>
      <trkpt lat="56.73863" lon="-5.20997">
        <ele>29.72</ele>
        <time>2021-03-20T19:24:35Z</time>
      </trkpt>
      <trkpt lat="56.73842" lon="-5.21058">
        <ele>25.82</ele>
        <time>2021-03-20T19:24:40Z</time>
      </trkpt>
      <trkpt lat="56.73822" lon="-5.2117">
        <ele>18.19</ele>
        <time>2021-03-20T19:24:45Z</time>
      </trkpt>
      <trkpt lat="56.7381" lon="-5.21249">
        <ele>16.06</ele>
        <time>2021-03-20T19:24:50Z</time>
      </trkpt>
      <trkpt lat="56.73792" lon="-5.21333">
        <ele>16.53</ele>
        <time>2021-03-20T19:24:56Z</time>
      </trkpt>
      <trkpt lat="56.73776" lon="-5.21378">
        <ele>18.58</ele>
        <time>2021-03-20T19:25:01Z</time>
      </trkpt>
      <trkpt lat="56.73755" lon="-5.21414">
        <ele>24.44</ele>
        <time>2021-03-20T19:25:06Z</time>
      </trkpt>
      <trkpt lat="56.73715" lon="-5.21459">
        <ele>32.16</ele>
        <time>2021-03-20T19:25:11Z</time>
      </trkpt>
      <trkpt lat="56.73681" lon="-5.21525">
        <ele>30.06</ele>
        <time>2021-03-20T19:25:16Z</time>
      </trkpt>
      <trkpt lat="56.73611" lon="-5.21629">
        <ele>26.39</ele>
        <time>2021-03-20T19:25:22Z</time>
      </trkpt>
      <trkpt lat="56.7355" lon="-5.21754">
        <ele>37.19</ele>
        <time>2021-03-20T19:25:27Z</time>
      </trkpt>
      <trkpt lat="56.73513" lon="-5.21813">
        <ele>46.83</ele>
        <time>2021-03-20T19:25:32Z</time>
      </trkpt>
      <trkpt lat="56.73449" lon="-5.21904">
        <ele>29.14</ele>
        <time>2021-03-20T19:25:37Z</time>
      </trkpt>
      <trkpt lat="56.73438" lon="-5.21928">
        <ele>23.63</ele>
        <time>2021-03-20T19:25:42Z</time>
      </trkpt>
      <trkpt lat="56.73418" lon="-5.21987">
        <ele>17.17</ele>
        <time>2021-03-20T19:25:48Z</time>
      </trkpt>
      <trkpt lat="56.73404" lon="-5.22014">
        <ele>17.48</ele>
        <time>2021-03-20T19:25:53Z</time>
      </trkpt>
      <trkpt lat="56.73385" lon="-5.22042">
        <ele>16.34</ele>
        <time>2021-03-20T19:25:58Z</time>
      </trkpt>
      <trkpt lat="56.73304" lon="-5.22142">
        <ele>31.88</ele>
        <time>2021-03-20T19:26:03Z</time>
      </trkpt>
      <trkpt lat="56.73271" lon="-5.22176">
        <ele>20.45</ele>
        <time>2021-03-20T19:26:09Z</time>
      </trkpt>
      <trkpt lat="56.73231" lon="-5.22209">
        <ele>17.2</ele>
        <time>2021-03-20T19:26:14Z</time>
      </trkpt>
      <trkpt lat="56.732" lon="-5.2224">
        <ele>13.03</ele>
        <time>2021-03-20T19:26:19Z</time>
      </trkpt>
      <trkpt lat="56.7318" lon="-5.2227">
        <ele>9.45</ele>
        <time>2021-03-20T19:26:24Z</time>
      </trkpt>
      <trkpt lat="56.73149" lon="-5.22332">
        <ele>5.7</ele>
        <time>2021-03-20T19:26:29Z</time>
      </trkpt>
      <trkpt lat="56.73047" lon="-5.22569">
        <ele>9.08</ele>
        <time>2021-03-20T19:26:35Z</time>
      </trkpt>
      <trkpt lat="56.72999" lon="-5.22694">
        <ele>10.22</ele>
        <time>2021-03-20T19:26:40Z</time>
      </trkpt>
      <trkpt lat="56.72984" lon="-5.22725">
        <ele>13.27</ele>
        <time>2021-03-20T19:26:45Z</time>
      </trkpt>
      <trkpt lat="56.72891" lon="-5.22887">
        <ele>12.85</ele>
        <time>2021-03-20T19:26:50Z</time>
      </trkpt>
      <trkpt lat="56.72868" lon="-5.22922">
        <ele>12.66</ele>
        <time>2021-03-20T19:26:55Z</time>
      </trkpt>
      <trkpt lat="56.72764" lon="-5.23047">
        <ele>6.58</ele>
        <time>2021-03-20T19:27:01Z</time>
      </trkpt>
      <trkpt lat="56.72731" lon="-5.23079">
        <ele>7.2</ele>
        <time>2021-03-20T19:27:06Z</time>
      </trkpt>
      <trkpt lat="56.72707" lon="-5.23094">
        <ele>8.51</ele>
        <time>2021-03-20T19:27:11Z</time>
      </trkpt>
      <trkpt lat="56.72675" lon="-5.23103">
        <ele>9.3</ele>
        <time>2021-03-20T19:27:16Z</time>
      </trkpt>
      <trkpt lat="56.72648" lon="-5.23104">
        <ele>10.2</ele>
        <time>2021-03-20T19:27:22Z</time>
      </trkpt>
      <trkpt lat="56.72619" lon="-5.231">
        <ele>11.55</ele>
        <time>2021-03-20T19:27:27Z</time>
      </trkpt>
      <trkpt lat="56.7259" lon="-5.23101">
        <ele>13.56</ele>
        <time>2021-03-20T19:27:32Z</time>
      </trkpt>
      <trkpt lat="56.72561" lon="-5.23106">
        <ele>17.74</ele>
        <time>2021-03-20T19:27:37Z</time>
      </trkpt>
      <trkpt lat="56.72536" lon="-5.23117">
        <ele>18.83</ele>
        <time>2021-03-20T19:27:42Z</time>
      </trkpt>
      <trkpt lat="56.72515" lon="-5.23131">
        <ele>19</ele>
        <time>2021-03-20T19:27:48Z</time>
      </trkpt>
      <trkpt lat="56.72369" lon="-5.23261">
        <ele>16.17</ele>
        <time>2021-03-20T19:27:53Z</time>
      </trkpt>
      <trkpt lat="56.7235" lon="-5.23272">
        <ele>15.96</ele>
        <time>2021-03-20T19:27:58Z</time>
      </trkpt>
      <trkpt lat="56.72334" lon="-5.23277">
        <ele>16.05</ele>
        <time>2021-03-20T19:28:03Z</time>
      </trkpt>
      <trkpt lat="56.72321" lon="-5.23276">
        <ele>16.59</ele>
        <time>2021-03-20T19:28:08Z</time>
      </trkpt>
      <trkpt lat="56.72293" lon="-5.23269">
        <ele>16.71</ele>
        <time>2021-03-20T19:28:14Z</time>
      </trkpt>
      <trkpt lat="56.72256" lon="-5.23241">
        <ele>17.09</ele>
        <time>2021-03-20T19:28:19Z</time>
      </trkpt>
      <trkpt lat="56.72236" lon="-5.23233">
        <ele>18.11</ele>
        <time>2021-03-20T19:28:24Z</time>
      </trkpt>
      <trkpt lat="56.72234" lon="-5.23249">
        <ele>16.18</ele>
        <time>2021-03-20T19:28:25Z</time>
      </trkpt>
      <trkpt lat="56.72229" lon="-5.23258">
        <ele>15.23</ele>
        <time>2021-03-20T19:28:26Z</time>
      </trkpt>
      <trkpt lat="56.72223" lon="-5.23261">
        <ele>14.86</ele>
        <time>2021-03-20T19:28:27Z</time>
      </trkpt>
      <trkpt lat="56.72181" lon="-5.23254">
        <ele>15.07</ele>
        <time>2021-03-20T19:28:28Z</time>
      </trkpt>
      <trkpt lat="56.72168" lon="-5.23258">
        <ele>14.13</ele>
        <time>2021-03-20T19:28:29Z</time>
      </trkpt>
      <trkpt lat="56.7215" lon="-5.23283">
        <ele>11.73</ele>
        <time>2021-03-20T19:28:30Z</time>
      </trkpt>
      <trkpt lat="56.72141" lon="-5.23321">
        <ele>10.3</ele>
        <time>2021-03-20T19:28:31Z</time>
      </trkpt>
      <trkpt lat="56.72138" lon="-5.23348">
        <ele>10.06</ele>
        <time>2021-03-20T19:28:32Z</time>
      </trkpt>
      <trkpt lat="56.72138" lon="-5.23364">
        <ele>10.05</ele>
        <time>2021-03-20T19:28:33Z</time>
      </trkpt>
      <trkpt lat="56.72144" lon="-5.23408">
        <ele>8.81</ele>
        <time>2021-03-20T19:28:33Z</time>
      </trkpt>
      <trkpt lat="56.7212" lon="-5.23418">
        <ele>11.73</ele>
        <time>2021-03-20T19:28:36Z</time>
      </trkpt>
      <trkpt lat="56.72113" lon="-5.23418">
        <ele>12.76</ele>
        <time>2021-03-20T19:28:38Z</time>
      </trkpt>
      <trkpt lat="56.7211" lon="-5.23413">
        <ele>13.04</ele>
        <time>2021-03-20T19:28:40Z</time>
      </trkpt>
      <trkpt lat="56.72109" lon="-5.23407">
        <ele>13.27</ele>
        <time>2021-03-20T19:28:42Z</time>
      </trkpt>
    </trkseg>
  </trk>
</gpx>